<?xml version="1.0" encoding="UTF-8" standalone="no" ?>
<gpx xmlns="http://www.topografix.com/GPX/1/1" xmlns:xsi="http://www.w3.org/2001/XMLSchema-instance" xsi:schemaLocation="http://www.topografix.com/GPX/1/1 http://www.topografix.com/GPX/1/1/gpx.xsd" version="1.1" creator="VisuGPX - https://www.visugpx.com">
  <metadata>
    <name>Arfons petit tour sur pistes forestières 35km</name>
    <desc><![CDATA[Départ Arfons (81)
Circuit facile en VTTAE
Petits problèmes de boue en hiver (circuit réalisé en décembre et travaux de débardage)
]]></desc>
  </metadata>
  <trk>
    <name><![CDATA[2021-12-18-01Arfons petit tour sur pistes forestières 35km]]></name>
    <extensions>
      <line xmlns="http://www.topografix.com/GPX/gpx_style/0/2">
        <width>5</width>
      </line>
    </extensions>
    <trkseg>
      <trkpt lat="43.43051" lon="2.16538">
        <ele>662.4</ele>
        <time>2021-12-18T12:40:36.000Z</time>
      </trkpt>
      <trkpt lat="43.43051" lon="2.16538">
        <ele>662.4</ele>
        <time>2021-12-18T12:40:37.000Z</time>
      </trkpt>
      <trkpt lat="43.43054" lon="2.1655">
        <ele>662.2</ele>
        <time>2021-12-18T12:46:53.000Z</time>
      </trkpt>
      <trkpt lat="43.43064" lon="2.16549">
        <ele>662.3</ele>
        <time>2021-12-18T12:46:58.000Z</time>
      </trkpt>
      <trkpt lat="43.43073" lon="2.16544">
        <ele>662.5</ele>
        <time>2021-12-18T12:47:02.000Z</time>
      </trkpt>
      <trkpt lat="43.43084" lon="2.16542">
        <ele>662</ele>
        <time>2021-12-18T12:47:05.000Z</time>
      </trkpt>
      <trkpt lat="43.43097" lon="2.16538">
        <ele>660.7</ele>
        <time>2021-12-18T12:47:08.000Z</time>
      </trkpt>
      <trkpt lat="43.43106" lon="2.16537">
        <ele>659.2</ele>
        <time>2021-12-18T12:47:11.000Z</time>
      </trkpt>
      <trkpt lat="43.43121" lon="2.16535">
        <ele>657.7</ele>
        <time>2021-12-18T12:47:14.000Z</time>
      </trkpt>
      <trkpt lat="43.43135" lon="2.16535">
        <ele>656.8</ele>
        <time>2021-12-18T12:47:16.000Z</time>
      </trkpt>
      <trkpt lat="43.43149" lon="2.16535">
        <ele>655.8</ele>
        <time>2021-12-18T12:47:18.000Z</time>
      </trkpt>
      <trkpt lat="43.43165" lon="2.16535">
        <ele>654.8</ele>
        <time>2021-12-18T12:47:20.000Z</time>
      </trkpt>
      <trkpt lat="43.43174" lon="2.16535">
        <ele>654.3</ele>
        <time>2021-12-18T12:47:21.000Z</time>
      </trkpt>
      <trkpt lat="43.43189" lon="2.16535">
        <ele>653.5</ele>
        <time>2021-12-18T12:47:23.000Z</time>
      </trkpt>
      <trkpt lat="43.43203" lon="2.16539">
        <ele>652.6</ele>
        <time>2021-12-18T12:47:25.000Z</time>
      </trkpt>
      <trkpt lat="43.43216" lon="2.16546">
        <ele>651.9</ele>
        <time>2021-12-18T12:47:27.000Z</time>
      </trkpt>
      <trkpt lat="43.43229" lon="2.16551">
        <ele>651.5</ele>
        <time>2021-12-18T12:47:29.000Z</time>
      </trkpt>
      <trkpt lat="43.43239" lon="2.16551">
        <ele>651</ele>
        <time>2021-12-18T12:47:31.000Z</time>
      </trkpt>
      <trkpt lat="43.4325" lon="2.16549">
        <ele>650.5</ele>
        <time>2021-12-18T12:47:34.000Z</time>
      </trkpt>
      <trkpt lat="43.43261" lon="2.16548">
        <ele>650.5</ele>
        <time>2021-12-18T12:47:37.000Z</time>
      </trkpt>
      <trkpt lat="43.43271" lon="2.16546">
        <ele>651</ele>
        <time>2021-12-18T12:47:40.000Z</time>
      </trkpt>
      <trkpt lat="43.4328" lon="2.16543">
        <ele>651.9</ele>
        <time>2021-12-18T12:47:43.000Z</time>
      </trkpt>
      <trkpt lat="43.43291" lon="2.16542">
        <ele>652.7</ele>
        <time>2021-12-18T12:47:47.000Z</time>
      </trkpt>
      <trkpt lat="43.43302" lon="2.1654">
        <ele>653.1</ele>
        <time>2021-12-18T12:47:50.000Z</time>
      </trkpt>
      <trkpt lat="43.43312" lon="2.16539">
        <ele>653.4</ele>
        <time>2021-12-18T12:47:53.000Z</time>
      </trkpt>
      <trkpt lat="43.43323" lon="2.16538">
        <ele>653.5</ele>
        <time>2021-12-18T12:47:56.000Z</time>
      </trkpt>
      <trkpt lat="43.43336" lon="2.16538">
        <ele>653.7</ele>
        <time>2021-12-18T12:47:59.000Z</time>
      </trkpt>
      <trkpt lat="43.43347" lon="2.16535">
        <ele>653.9</ele>
        <time>2021-12-18T12:48:02.000Z</time>
      </trkpt>
      <trkpt lat="43.43358" lon="2.16534">
        <ele>654</ele>
        <time>2021-12-18T12:48:05.000Z</time>
      </trkpt>
      <trkpt lat="43.43371" lon="2.16536">
        <ele>654.2</ele>
        <time>2021-12-18T12:48:08.000Z</time>
      </trkpt>
      <trkpt lat="43.43382" lon="2.1654">
        <ele>654.4</ele>
        <time>2021-12-18T12:48:11.000Z</time>
      </trkpt>
      <trkpt lat="43.43391" lon="2.16549">
        <ele>654.6</ele>
        <time>2021-12-18T12:48:14.000Z</time>
      </trkpt>
      <trkpt lat="43.434" lon="2.16561">
        <ele>654.7</ele>
        <time>2021-12-18T12:48:17.000Z</time>
      </trkpt>
      <trkpt lat="43.43408" lon="2.16572">
        <ele>654.9</ele>
        <time>2021-12-18T12:48:20.000Z</time>
      </trkpt>
      <trkpt lat="43.43415" lon="2.16582">
        <ele>655</ele>
        <time>2021-12-18T12:48:23.000Z</time>
      </trkpt>
      <trkpt lat="43.43425" lon="2.16591">
        <ele>655</ele>
        <time>2021-12-18T12:48:26.000Z</time>
      </trkpt>
      <trkpt lat="43.43434" lon="2.16595">
        <ele>655.1</ele>
        <time>2021-12-18T12:48:29.000Z</time>
      </trkpt>
      <trkpt lat="43.43444" lon="2.16598">
        <ele>655.1</ele>
        <time>2021-12-18T12:48:32.000Z</time>
      </trkpt>
      <trkpt lat="43.43454" lon="2.16599">
        <ele>655.2</ele>
        <time>2021-12-18T12:48:35.000Z</time>
      </trkpt>
      <trkpt lat="43.43466" lon="2.166">
        <ele>655.3</ele>
        <time>2021-12-18T12:48:38.000Z</time>
      </trkpt>
      <trkpt lat="43.43477" lon="2.166">
        <ele>655.5</ele>
        <time>2021-12-18T12:48:41.000Z</time>
      </trkpt>
      <trkpt lat="43.43489" lon="2.166">
        <ele>655.5</ele>
        <time>2021-12-18T12:48:44.000Z</time>
      </trkpt>
      <trkpt lat="43.43499" lon="2.16598">
        <ele>655.7</ele>
        <time>2021-12-18T12:48:47.000Z</time>
      </trkpt>
      <trkpt lat="43.43511" lon="2.16595">
        <ele>655.9</ele>
        <time>2021-12-18T12:48:50.000Z</time>
      </trkpt>
      <trkpt lat="43.43522" lon="2.16595">
        <ele>655.9</ele>
        <time>2021-12-18T12:48:53.000Z</time>
      </trkpt>
      <trkpt lat="43.43533" lon="2.16594">
        <ele>655.9</ele>
        <time>2021-12-18T12:48:56.000Z</time>
      </trkpt>
      <trkpt lat="43.43542" lon="2.16592">
        <ele>655.9</ele>
        <time>2021-12-18T12:48:59.000Z</time>
      </trkpt>
      <trkpt lat="43.43554" lon="2.16589">
        <ele>655.8</ele>
        <time>2021-12-18T12:49:03.000Z</time>
      </trkpt>
      <trkpt lat="43.43566" lon="2.16587">
        <ele>655.8</ele>
        <time>2021-12-18T12:49:06.000Z</time>
      </trkpt>
      <trkpt lat="43.43575" lon="2.16584">
        <ele>655.9</ele>
        <time>2021-12-18T12:49:09.000Z</time>
      </trkpt>
      <trkpt lat="43.43586" lon="2.16582">
        <ele>655.9</ele>
        <time>2021-12-18T12:49:12.000Z</time>
      </trkpt>
      <trkpt lat="43.43596" lon="2.16578">
        <ele>655.9</ele>
        <time>2021-12-18T12:49:15.000Z</time>
      </trkpt>
      <trkpt lat="43.43605" lon="2.16575">
        <ele>656.1</ele>
        <time>2021-12-18T12:49:17.000Z</time>
      </trkpt>
      <trkpt lat="43.43617" lon="2.16568">
        <ele>656.4</ele>
        <time>2021-12-18T12:49:20.000Z</time>
      </trkpt>
      <trkpt lat="43.43627" lon="2.16562">
        <ele>656.7</ele>
        <time>2021-12-18T12:49:23.000Z</time>
      </trkpt>
      <trkpt lat="43.43638" lon="2.16553">
        <ele>657.2</ele>
        <time>2021-12-18T12:49:28.000Z</time>
      </trkpt>
      <trkpt lat="43.43647" lon="2.16549">
        <ele>657.6</ele>
        <time>2021-12-18T12:49:31.000Z</time>
      </trkpt>
      <trkpt lat="43.43658" lon="2.16547">
        <ele>657.9</ele>
        <time>2021-12-18T12:49:34.000Z</time>
      </trkpt>
      <trkpt lat="43.43667" lon="2.16545">
        <ele>658.2</ele>
        <time>2021-12-18T12:49:37.000Z</time>
      </trkpt>
      <trkpt lat="43.43677" lon="2.16541">
        <ele>658.6</ele>
        <time>2021-12-18T12:49:40.000Z</time>
      </trkpt>
      <trkpt lat="43.43689" lon="2.16538">
        <ele>658.9</ele>
        <time>2021-12-18T12:49:43.000Z</time>
      </trkpt>
      <trkpt lat="43.43698" lon="2.16531">
        <ele>659</ele>
        <time>2021-12-18T12:49:46.000Z</time>
      </trkpt>
      <trkpt lat="43.43709" lon="2.16525">
        <ele>659.3</ele>
        <time>2021-12-18T12:49:49.000Z</time>
      </trkpt>
      <trkpt lat="43.43719" lon="2.1652">
        <ele>659.7</ele>
        <time>2021-12-18T12:49:52.000Z</time>
      </trkpt>
      <trkpt lat="43.43732" lon="2.16515">
        <ele>660.1</ele>
        <time>2021-12-18T12:49:55.000Z</time>
      </trkpt>
      <trkpt lat="43.43745" lon="2.16513">
        <ele>660.4</ele>
        <time>2021-12-18T12:49:58.000Z</time>
      </trkpt>
      <trkpt lat="43.43755" lon="2.16512">
        <ele>660.7</ele>
        <time>2021-12-18T12:50:00.000Z</time>
      </trkpt>
      <trkpt lat="43.43766" lon="2.16511">
        <ele>661.2</ele>
        <time>2021-12-18T12:50:03.000Z</time>
      </trkpt>
      <trkpt lat="43.43777" lon="2.16511">
        <ele>661.6</ele>
        <time>2021-12-18T12:50:06.000Z</time>
      </trkpt>
      <trkpt lat="43.43786" lon="2.16511">
        <ele>661.9</ele>
        <time>2021-12-18T12:50:08.000Z</time>
      </trkpt>
      <trkpt lat="43.43798" lon="2.16513">
        <ele>662.1</ele>
        <time>2021-12-18T12:50:10.000Z</time>
      </trkpt>
      <trkpt lat="43.43809" lon="2.16514">
        <ele>662.4</ele>
        <time>2021-12-18T12:50:12.000Z</time>
      </trkpt>
      <trkpt lat="43.43818" lon="2.16516">
        <ele>662.6</ele>
        <time>2021-12-18T12:50:14.000Z</time>
      </trkpt>
      <trkpt lat="43.43829" lon="2.16515">
        <ele>663.1</ele>
        <time>2021-12-18T12:50:17.000Z</time>
      </trkpt>
      <trkpt lat="43.43841" lon="2.16515">
        <ele>663.6</ele>
        <time>2021-12-18T12:50:20.000Z</time>
      </trkpt>
      <trkpt lat="43.43852" lon="2.16512">
        <ele>664.1</ele>
        <time>2021-12-18T12:50:24.000Z</time>
      </trkpt>
      <trkpt lat="43.43861" lon="2.16508">
        <ele>664.6</ele>
        <time>2021-12-18T12:50:27.000Z</time>
      </trkpt>
      <trkpt lat="43.4387" lon="2.16503">
        <ele>665.2</ele>
        <time>2021-12-18T12:50:31.000Z</time>
      </trkpt>
      <trkpt lat="43.43879" lon="2.16499">
        <ele>665.7</ele>
        <time>2021-12-18T12:50:34.000Z</time>
      </trkpt>
      <trkpt lat="43.43888" lon="2.16498">
        <ele>666.2</ele>
        <time>2021-12-18T12:50:37.000Z</time>
      </trkpt>
      <trkpt lat="43.43898" lon="2.165">
        <ele>666.7</ele>
        <time>2021-12-18T12:50:40.000Z</time>
      </trkpt>
      <trkpt lat="43.43907" lon="2.165">
        <ele>667</ele>
        <time>2021-12-18T12:50:42.000Z</time>
      </trkpt>
      <trkpt lat="43.43918" lon="2.165">
        <ele>667.3</ele>
        <time>2021-12-18T12:50:45.000Z</time>
      </trkpt>
      <trkpt lat="43.43928" lon="2.16498">
        <ele>667.8</ele>
        <time>2021-12-18T12:50:49.000Z</time>
      </trkpt>
      <trkpt lat="43.43928" lon="2.16498">
        <ele>667.8</ele>
        <time>2021-12-18T12:50:49.000Z</time>
      </trkpt>
      <trkpt lat="43.43939" lon="2.16497">
        <ele>668.4</ele>
        <time>2021-12-18T12:50:52.000Z</time>
      </trkpt>
      <trkpt lat="43.43952" lon="2.16499">
        <ele>668.8</ele>
        <time>2021-12-18T12:50:55.000Z</time>
      </trkpt>
      <trkpt lat="43.43965" lon="2.16501">
        <ele>669.1</ele>
        <time>2021-12-18T12:50:58.000Z</time>
      </trkpt>
      <trkpt lat="43.43976" lon="2.16505">
        <ele>669.4</ele>
        <time>2021-12-18T12:51:01.000Z</time>
      </trkpt>
      <trkpt lat="43.43988" lon="2.1651">
        <ele>669.8</ele>
        <time>2021-12-18T12:51:04.000Z</time>
      </trkpt>
      <trkpt lat="43.43998" lon="2.16516">
        <ele>670.2</ele>
        <time>2021-12-18T12:51:06.000Z</time>
      </trkpt>
      <trkpt lat="43.44006" lon="2.16523">
        <ele>670.5</ele>
        <time>2021-12-18T12:51:08.000Z</time>
      </trkpt>
      <trkpt lat="43.44013" lon="2.16534">
        <ele>671</ele>
        <time>2021-12-18T12:51:11.000Z</time>
      </trkpt>
      <trkpt lat="43.4402" lon="2.16543">
        <ele>671.4</ele>
        <time>2021-12-18T12:51:13.000Z</time>
      </trkpt>
      <trkpt lat="43.44027" lon="2.16552">
        <ele>671.7</ele>
        <time>2021-12-18T12:51:15.000Z</time>
      </trkpt>
      <trkpt lat="43.44033" lon="2.16561">
        <ele>672</ele>
        <time>2021-12-18T12:51:17.000Z</time>
      </trkpt>
      <trkpt lat="43.44041" lon="2.16575">
        <ele>672.5</ele>
        <time>2021-12-18T12:51:20.000Z</time>
      </trkpt>
      <trkpt lat="43.44048" lon="2.16587">
        <ele>672.9</ele>
        <time>2021-12-18T12:51:23.000Z</time>
      </trkpt>
      <trkpt lat="43.44053" lon="2.16601">
        <ele>673.1</ele>
        <time>2021-12-18T12:51:26.000Z</time>
      </trkpt>
      <trkpt lat="43.44058" lon="2.16614">
        <ele>673.2</ele>
        <time>2021-12-18T12:51:29.000Z</time>
      </trkpt>
      <trkpt lat="43.44061" lon="2.16627">
        <ele>673.5</ele>
        <time>2021-12-18T12:51:32.000Z</time>
      </trkpt>
      <trkpt lat="43.44065" lon="2.16639">
        <ele>673.9</ele>
        <time>2021-12-18T12:51:35.000Z</time>
      </trkpt>
      <trkpt lat="43.44071" lon="2.1665">
        <ele>674.1</ele>
        <time>2021-12-18T12:51:38.000Z</time>
      </trkpt>
      <trkpt lat="43.44079" lon="2.16663">
        <ele>674.5</ele>
        <time>2021-12-18T12:51:42.000Z</time>
      </trkpt>
      <trkpt lat="43.44085" lon="2.16674">
        <ele>674.9</ele>
        <time>2021-12-18T12:51:47.000Z</time>
      </trkpt>
      <trkpt lat="43.44094" lon="2.16683">
        <ele>674.8</ele>
        <time>2021-12-18T12:52:08.000Z</time>
      </trkpt>
      <trkpt lat="43.44101" lon="2.1669">
        <ele>675</ele>
        <time>2021-12-18T12:52:14.000Z</time>
      </trkpt>
      <trkpt lat="43.44108" lon="2.16699">
        <ele>675.2</ele>
        <time>2021-12-18T12:52:18.000Z</time>
      </trkpt>
      <trkpt lat="43.44115" lon="2.16708">
        <ele>675.4</ele>
        <time>2021-12-18T12:52:22.000Z</time>
      </trkpt>
      <trkpt lat="43.44123" lon="2.16719">
        <ele>675.8</ele>
        <time>2021-12-18T12:52:26.000Z</time>
      </trkpt>
      <trkpt lat="43.4413" lon="2.16729">
        <ele>676.2</ele>
        <time>2021-12-18T12:52:30.000Z</time>
      </trkpt>
      <trkpt lat="43.44137" lon="2.16737">
        <ele>676.6</ele>
        <time>2021-12-18T12:52:33.000Z</time>
      </trkpt>
      <trkpt lat="43.44145" lon="2.16747">
        <ele>677</ele>
        <time>2021-12-18T12:52:36.000Z</time>
      </trkpt>
      <trkpt lat="43.44152" lon="2.16757">
        <ele>677.3</ele>
        <time>2021-12-18T12:52:39.000Z</time>
      </trkpt>
      <trkpt lat="43.44157" lon="2.16769">
        <ele>677.5</ele>
        <time>2021-12-18T12:52:42.000Z</time>
      </trkpt>
      <trkpt lat="43.4416" lon="2.16782">
        <ele>677.7</ele>
        <time>2021-12-18T12:52:45.000Z</time>
      </trkpt>
      <trkpt lat="43.44164" lon="2.16794">
        <ele>677.8</ele>
        <time>2021-12-18T12:52:48.000Z</time>
      </trkpt>
      <trkpt lat="43.44169" lon="2.16806">
        <ele>678</ele>
        <time>2021-12-18T12:52:51.000Z</time>
      </trkpt>
      <trkpt lat="43.44176" lon="2.16813">
        <ele>678.1</ele>
        <time>2021-12-18T12:52:54.000Z</time>
      </trkpt>
      <trkpt lat="43.44186" lon="2.16818">
        <ele>678.2</ele>
        <time>2021-12-18T12:52:57.000Z</time>
      </trkpt>
      <trkpt lat="43.44196" lon="2.16822">
        <ele>678.2</ele>
        <time>2021-12-18T12:53:01.000Z</time>
      </trkpt>
      <trkpt lat="43.44207" lon="2.16827">
        <ele>678.5</ele>
        <time>2021-12-18T12:53:05.000Z</time>
      </trkpt>
      <trkpt lat="43.44216" lon="2.1683">
        <ele>678.8</ele>
        <time>2021-12-18T12:53:08.000Z</time>
      </trkpt>
      <trkpt lat="43.44225" lon="2.16834">
        <ele>679</ele>
        <time>2021-12-18T12:53:11.000Z</time>
      </trkpt>
      <trkpt lat="43.44233" lon="2.16839">
        <ele>679.3</ele>
        <time>2021-12-18T12:53:14.000Z</time>
      </trkpt>
      <trkpt lat="43.44244" lon="2.16846">
        <ele>679.6</ele>
        <time>2021-12-18T12:53:17.000Z</time>
      </trkpt>
      <trkpt lat="43.44255" lon="2.16851">
        <ele>679.9</ele>
        <time>2021-12-18T12:53:20.000Z</time>
      </trkpt>
      <trkpt lat="43.44264" lon="2.16858">
        <ele>680.3</ele>
        <time>2021-12-18T12:53:23.000Z</time>
      </trkpt>
      <trkpt lat="43.44274" lon="2.16864">
        <ele>680.7</ele>
        <time>2021-12-18T12:53:26.000Z</time>
      </trkpt>
      <trkpt lat="43.44284" lon="2.16872">
        <ele>680.9</ele>
        <time>2021-12-18T12:53:29.000Z</time>
      </trkpt>
      <trkpt lat="43.44293" lon="2.1688">
        <ele>681.2</ele>
        <time>2021-12-18T12:53:32.000Z</time>
      </trkpt>
      <trkpt lat="43.44302" lon="2.16888">
        <ele>681.6</ele>
        <time>2021-12-18T12:53:35.000Z</time>
      </trkpt>
      <trkpt lat="43.44311" lon="2.16891">
        <ele>682.1</ele>
        <time>2021-12-18T12:53:38.000Z</time>
      </trkpt>
      <trkpt lat="43.4432" lon="2.16886">
        <ele>683</ele>
        <time>2021-12-18T12:53:43.000Z</time>
      </trkpt>
      <trkpt lat="43.4433" lon="2.16879">
        <ele>683.6</ele>
        <time>2021-12-18T12:53:47.000Z</time>
      </trkpt>
      <trkpt lat="43.44339" lon="2.16885">
        <ele>684</ele>
        <time>2021-12-18T12:53:51.000Z</time>
      </trkpt>
      <trkpt lat="43.44342" lon="2.16896">
        <ele>684.4</ele>
        <time>2021-12-18T12:53:54.000Z</time>
      </trkpt>
      <trkpt lat="43.44343" lon="2.1691">
        <ele>684.9</ele>
        <time>2021-12-18T12:53:57.000Z</time>
      </trkpt>
      <trkpt lat="43.44341" lon="2.16923">
        <ele>685.5</ele>
        <time>2021-12-18T12:54:00.000Z</time>
      </trkpt>
      <trkpt lat="43.44341" lon="2.16936">
        <ele>685.7</ele>
        <time>2021-12-18T12:54:03.000Z</time>
      </trkpt>
      <trkpt lat="43.44344" lon="2.16948">
        <ele>686</ele>
        <time>2021-12-18T12:54:06.000Z</time>
      </trkpt>
      <trkpt lat="43.44353" lon="2.16954">
        <ele>686.1</ele>
        <time>2021-12-18T12:54:09.000Z</time>
      </trkpt>
      <trkpt lat="43.44362" lon="2.16958">
        <ele>686.6</ele>
        <time>2021-12-18T12:54:13.000Z</time>
      </trkpt>
      <trkpt lat="43.44375" lon="2.16961">
        <ele>687</ele>
        <time>2021-12-18T12:54:16.000Z</time>
      </trkpt>
      <trkpt lat="43.44386" lon="2.16963">
        <ele>687.6</ele>
        <time>2021-12-18T12:54:20.000Z</time>
      </trkpt>
      <trkpt lat="43.44397" lon="2.16967">
        <ele>688.1</ele>
        <time>2021-12-18T12:54:24.000Z</time>
      </trkpt>
      <trkpt lat="43.44406" lon="2.16974">
        <ele>688.6</ele>
        <time>2021-12-18T12:54:27.000Z</time>
      </trkpt>
      <trkpt lat="43.44414" lon="2.16983">
        <ele>688.8</ele>
        <time>2021-12-18T12:54:30.000Z</time>
      </trkpt>
      <trkpt lat="43.44424" lon="2.16992">
        <ele>689</ele>
        <time>2021-12-18T12:54:33.000Z</time>
      </trkpt>
      <trkpt lat="43.44434" lon="2.17001">
        <ele>689.3</ele>
        <time>2021-12-18T12:54:36.000Z</time>
      </trkpt>
      <trkpt lat="43.44445" lon="2.17006">
        <ele>689.6</ele>
        <time>2021-12-18T12:54:39.000Z</time>
      </trkpt>
      <trkpt lat="43.44456" lon="2.1701">
        <ele>690.2</ele>
        <time>2021-12-18T12:54:42.000Z</time>
      </trkpt>
      <trkpt lat="43.4447" lon="2.17012">
        <ele>690.9</ele>
        <time>2021-12-18T12:54:45.000Z</time>
      </trkpt>
      <trkpt lat="43.44481" lon="2.17014">
        <ele>691.3</ele>
        <time>2021-12-18T12:54:48.000Z</time>
      </trkpt>
      <trkpt lat="43.44493" lon="2.17017">
        <ele>691.7</ele>
        <time>2021-12-18T12:54:51.000Z</time>
      </trkpt>
      <trkpt lat="43.44502" lon="2.17019">
        <ele>692</ele>
        <time>2021-12-18T12:54:53.000Z</time>
      </trkpt>
      <trkpt lat="43.44514" lon="2.1702">
        <ele>692.4</ele>
        <time>2021-12-18T12:54:56.000Z</time>
      </trkpt>
      <trkpt lat="43.44525" lon="2.17021">
        <ele>692.8</ele>
        <time>2021-12-18T12:54:59.000Z</time>
      </trkpt>
      <trkpt lat="43.44535" lon="2.17021">
        <ele>693.2</ele>
        <time>2021-12-18T12:55:02.000Z</time>
      </trkpt>
      <trkpt lat="43.44546" lon="2.17018">
        <ele>693.6</ele>
        <time>2021-12-18T12:55:06.000Z</time>
      </trkpt>
      <trkpt lat="43.44556" lon="2.17018">
        <ele>694</ele>
        <time>2021-12-18T12:55:09.000Z</time>
      </trkpt>
      <trkpt lat="43.44568" lon="2.1702">
        <ele>694.3</ele>
        <time>2021-12-18T12:55:12.000Z</time>
      </trkpt>
      <trkpt lat="43.44578" lon="2.17025">
        <ele>694.5</ele>
        <time>2021-12-18T12:55:15.000Z</time>
      </trkpt>
      <trkpt lat="43.44588" lon="2.17033">
        <ele>694.8</ele>
        <time>2021-12-18T12:55:18.000Z</time>
      </trkpt>
      <trkpt lat="43.44596" lon="2.17042">
        <ele>695.2</ele>
        <time>2021-12-18T12:55:21.000Z</time>
      </trkpt>
      <trkpt lat="43.44606" lon="2.1705">
        <ele>695.6</ele>
        <time>2021-12-18T12:55:24.000Z</time>
      </trkpt>
      <trkpt lat="43.44614" lon="2.17055">
        <ele>696</ele>
        <time>2021-12-18T12:55:26.000Z</time>
      </trkpt>
      <trkpt lat="43.44625" lon="2.17062">
        <ele>696.5</ele>
        <time>2021-12-18T12:55:29.000Z</time>
      </trkpt>
      <trkpt lat="43.44636" lon="2.1707">
        <ele>697</ele>
        <time>2021-12-18T12:55:32.000Z</time>
      </trkpt>
      <trkpt lat="43.44646" lon="2.17078">
        <ele>697.5</ele>
        <time>2021-12-18T12:55:35.000Z</time>
      </trkpt>
      <trkpt lat="43.44636" lon="2.1707">
        <ele>697</ele>
        <time>2021-12-18T12:55:32.000Z</time>
      </trkpt>
      <trkpt lat="43.44646" lon="2.17078">
        <ele>697.5</ele>
        <time>2021-12-18T12:55:35.000Z</time>
      </trkpt>
      <trkpt lat="43.44656" lon="2.17087">
        <ele>698</ele>
        <time>2021-12-18T12:55:38.000Z</time>
      </trkpt>
      <trkpt lat="43.44664" lon="2.17099">
        <ele>698.4</ele>
        <time>2021-12-18T12:55:41.000Z</time>
      </trkpt>
      <trkpt lat="43.4467" lon="2.17111">
        <ele>698.8</ele>
        <time>2021-12-18T12:55:44.000Z</time>
      </trkpt>
      <trkpt lat="43.44679" lon="2.17117">
        <ele>699.4</ele>
        <time>2021-12-18T12:55:47.000Z</time>
      </trkpt>
      <trkpt lat="43.44688" lon="2.17117">
        <ele>700.2</ele>
        <time>2021-12-18T12:55:50.000Z</time>
      </trkpt>
      <trkpt lat="43.44697" lon="2.1711">
        <ele>700.7</ele>
        <time>2021-12-18T12:55:53.000Z</time>
      </trkpt>
      <trkpt lat="43.44705" lon="2.17104">
        <ele>701</ele>
        <time>2021-12-18T12:55:56.000Z</time>
      </trkpt>
      <trkpt lat="43.44714" lon="2.17095">
        <ele>701.3</ele>
        <time>2021-12-18T12:55:59.000Z</time>
      </trkpt>
      <trkpt lat="43.44723" lon="2.17084">
        <ele>701.7</ele>
        <time>2021-12-18T12:56:03.000Z</time>
      </trkpt>
      <trkpt lat="43.44729" lon="2.17075">
        <ele>702.1</ele>
        <time>2021-12-18T12:56:06.000Z</time>
      </trkpt>
      <trkpt lat="43.44738" lon="2.17066">
        <ele>702.5</ele>
        <time>2021-12-18T12:56:09.000Z</time>
      </trkpt>
      <trkpt lat="43.44747" lon="2.1706">
        <ele>702.9</ele>
        <time>2021-12-18T12:56:12.000Z</time>
      </trkpt>
      <trkpt lat="43.44756" lon="2.17052">
        <ele>703.4</ele>
        <time>2021-12-18T12:56:16.000Z</time>
      </trkpt>
      <trkpt lat="43.44765" lon="2.17045">
        <ele>703.8</ele>
        <time>2021-12-18T12:56:19.000Z</time>
      </trkpt>
      <trkpt lat="43.44776" lon="2.17037">
        <ele>704.1</ele>
        <time>2021-12-18T12:56:22.000Z</time>
      </trkpt>
      <trkpt lat="43.44784" lon="2.17031">
        <ele>704.4</ele>
        <time>2021-12-18T12:56:24.000Z</time>
      </trkpt>
      <trkpt lat="43.44791" lon="2.1702">
        <ele>704.8</ele>
        <time>2021-12-18T12:56:27.000Z</time>
      </trkpt>
      <trkpt lat="43.448" lon="2.17012">
        <ele>705.3</ele>
        <time>2021-12-18T12:56:30.000Z</time>
      </trkpt>
      <trkpt lat="43.4481" lon="2.17004">
        <ele>705.8</ele>
        <time>2021-12-18T12:56:33.000Z</time>
      </trkpt>
      <trkpt lat="43.4482" lon="2.16998">
        <ele>706.2</ele>
        <time>2021-12-18T12:56:36.000Z</time>
      </trkpt>
      <trkpt lat="43.44831" lon="2.16995">
        <ele>706.7</ele>
        <time>2021-12-18T12:56:39.000Z</time>
      </trkpt>
      <trkpt lat="43.4484" lon="2.16996">
        <ele>707.1</ele>
        <time>2021-12-18T12:56:42.000Z</time>
      </trkpt>
      <trkpt lat="43.4485" lon="2.16999">
        <ele>707.6</ele>
        <time>2021-12-18T12:56:45.000Z</time>
      </trkpt>
      <trkpt lat="43.44859" lon="2.17004">
        <ele>708.1</ele>
        <time>2021-12-18T12:56:48.000Z</time>
      </trkpt>
      <trkpt lat="43.44871" lon="2.17008">
        <ele>708.7</ele>
        <time>2021-12-18T12:56:52.000Z</time>
      </trkpt>
      <trkpt lat="43.44882" lon="2.17013">
        <ele>709</ele>
        <time>2021-12-18T12:56:55.000Z</time>
      </trkpt>
      <trkpt lat="43.44893" lon="2.17022">
        <ele>709.4</ele>
        <time>2021-12-18T12:56:58.000Z</time>
      </trkpt>
      <trkpt lat="43.44901" lon="2.17032">
        <ele>709.9</ele>
        <time>2021-12-18T12:57:01.000Z</time>
      </trkpt>
      <trkpt lat="43.44905" lon="2.17044">
        <ele>710.3</ele>
        <time>2021-12-18T12:57:04.000Z</time>
      </trkpt>
      <trkpt lat="43.44904" lon="2.17061">
        <ele>711.1</ele>
        <time>2021-12-18T12:57:08.000Z</time>
      </trkpt>
      <trkpt lat="43.44903" lon="2.17074">
        <ele>711.8</ele>
        <time>2021-12-18T12:57:11.000Z</time>
      </trkpt>
      <trkpt lat="43.44903" lon="2.17088">
        <ele>712.6</ele>
        <time>2021-12-18T12:57:14.000Z</time>
      </trkpt>
      <trkpt lat="43.44909" lon="2.171">
        <ele>713.4</ele>
        <time>2021-12-18T12:57:17.000Z</time>
      </trkpt>
      <trkpt lat="43.44917" lon="2.17108">
        <ele>714.1</ele>
        <time>2021-12-18T12:57:20.000Z</time>
      </trkpt>
      <trkpt lat="43.44929" lon="2.17114">
        <ele>715.1</ele>
        <time>2021-12-18T12:57:24.000Z</time>
      </trkpt>
      <trkpt lat="43.44939" lon="2.17119">
        <ele>716</ele>
        <time>2021-12-18T12:57:28.000Z</time>
      </trkpt>
      <trkpt lat="43.44949" lon="2.17125">
        <ele>716.6</ele>
        <time>2021-12-18T12:57:31.000Z</time>
      </trkpt>
      <trkpt lat="43.44959" lon="2.17131">
        <ele>717.1</ele>
        <time>2021-12-18T12:57:34.000Z</time>
      </trkpt>
      <trkpt lat="43.44969" lon="2.17138">
        <ele>717.8</ele>
        <time>2021-12-18T12:57:38.000Z</time>
      </trkpt>
      <trkpt lat="43.44979" lon="2.17142">
        <ele>718.6</ele>
        <time>2021-12-18T12:57:42.000Z</time>
      </trkpt>
      <trkpt lat="43.44989" lon="2.17141">
        <ele>719.3</ele>
        <time>2021-12-18T12:57:45.000Z</time>
      </trkpt>
      <trkpt lat="43.44999" lon="2.17137">
        <ele>720</ele>
        <time>2021-12-18T12:57:48.000Z</time>
      </trkpt>
      <trkpt lat="43.45009" lon="2.1713">
        <ele>720.6</ele>
        <time>2021-12-18T12:57:51.000Z</time>
      </trkpt>
      <trkpt lat="43.45018" lon="2.17121">
        <ele>721.3</ele>
        <time>2021-12-18T12:57:54.000Z</time>
      </trkpt>
      <trkpt lat="43.45023" lon="2.17109">
        <ele>721.9</ele>
        <time>2021-12-18T12:57:57.000Z</time>
      </trkpt>
      <trkpt lat="43.45026" lon="2.17097">
        <ele>722.3</ele>
        <time>2021-12-18T12:58:00.000Z</time>
      </trkpt>
      <trkpt lat="43.45031" lon="2.17084">
        <ele>722.7</ele>
        <time>2021-12-18T12:58:03.000Z</time>
      </trkpt>
      <trkpt lat="43.45035" lon="2.1707">
        <ele>723</ele>
        <time>2021-12-18T12:58:06.000Z</time>
      </trkpt>
      <trkpt lat="43.45039" lon="2.17057">
        <ele>723.3</ele>
        <time>2021-12-18T12:58:09.000Z</time>
      </trkpt>
      <trkpt lat="43.45043" lon="2.17044">
        <ele>723.6</ele>
        <time>2021-12-18T12:58:12.000Z</time>
      </trkpt>
      <trkpt lat="43.45046" lon="2.17032">
        <ele>724.1</ele>
        <time>2021-12-18T12:58:15.000Z</time>
      </trkpt>
      <trkpt lat="43.4505" lon="2.1702">
        <ele>724.7</ele>
        <time>2021-12-18T12:58:18.000Z</time>
      </trkpt>
      <trkpt lat="43.45055" lon="2.17007">
        <ele>725.4</ele>
        <time>2021-12-18T12:58:21.000Z</time>
      </trkpt>
      <trkpt lat="43.45058" lon="2.16994">
        <ele>726</ele>
        <time>2021-12-18T12:58:24.000Z</time>
      </trkpt>
      <trkpt lat="43.45061" lon="2.16981">
        <ele>726.7</ele>
        <time>2021-12-18T12:58:27.000Z</time>
      </trkpt>
      <trkpt lat="43.45064" lon="2.16967">
        <ele>727.2</ele>
        <time>2021-12-18T12:58:30.000Z</time>
      </trkpt>
      <trkpt lat="43.45068" lon="2.16953">
        <ele>727.7</ele>
        <time>2021-12-18T12:58:33.000Z</time>
      </trkpt>
      <trkpt lat="43.45075" lon="2.16941">
        <ele>728.6</ele>
        <time>2021-12-18T12:58:37.000Z</time>
      </trkpt>
      <trkpt lat="43.45083" lon="2.16931">
        <ele>729.6</ele>
        <time>2021-12-18T12:58:41.000Z</time>
      </trkpt>
      <trkpt lat="43.45092" lon="2.16924">
        <ele>730.5</ele>
        <time>2021-12-18T12:58:45.000Z</time>
      </trkpt>
      <trkpt lat="43.45103" lon="2.16919">
        <ele>731.2</ele>
        <time>2021-12-18T12:58:49.000Z</time>
      </trkpt>
      <trkpt lat="43.45113" lon="2.16915">
        <ele>731.9</ele>
        <time>2021-12-18T12:58:53.000Z</time>
      </trkpt>
      <trkpt lat="43.45122" lon="2.1691">
        <ele>732.5</ele>
        <time>2021-12-18T12:58:57.000Z</time>
      </trkpt>
      <trkpt lat="43.45133" lon="2.16904">
        <ele>733.2</ele>
        <time>2021-12-18T12:59:01.000Z</time>
      </trkpt>
      <trkpt lat="43.45141" lon="2.16897">
        <ele>733.7</ele>
        <time>2021-12-18T12:59:04.000Z</time>
      </trkpt>
      <trkpt lat="43.45152" lon="2.16887">
        <ele>734.2</ele>
        <time>2021-12-18T12:59:07.000Z</time>
      </trkpt>
      <trkpt lat="43.45161" lon="2.16878">
        <ele>734.7</ele>
        <time>2021-12-18T12:59:10.000Z</time>
      </trkpt>
      <trkpt lat="43.45171" lon="2.16869">
        <ele>735.1</ele>
        <time>2021-12-18T12:59:13.000Z</time>
      </trkpt>
      <trkpt lat="43.45178" lon="2.1686">
        <ele>735.5</ele>
        <time>2021-12-18T12:59:16.000Z</time>
      </trkpt>
      <trkpt lat="43.45188" lon="2.16851">
        <ele>735.9</ele>
        <time>2021-12-18T12:59:19.000Z</time>
      </trkpt>
      <trkpt lat="43.45198" lon="2.16842">
        <ele>736.2</ele>
        <time>2021-12-18T12:59:22.000Z</time>
      </trkpt>
      <trkpt lat="43.45207" lon="2.16835">
        <ele>736.6</ele>
        <time>2021-12-18T12:59:25.000Z</time>
      </trkpt>
      <trkpt lat="43.45215" lon="2.16829">
        <ele>737</ele>
        <time>2021-12-18T12:59:28.000Z</time>
      </trkpt>
      <trkpt lat="43.45226" lon="2.16826">
        <ele>737.5</ele>
        <time>2021-12-18T12:59:31.000Z</time>
      </trkpt>
      <trkpt lat="43.45236" lon="2.16823">
        <ele>738.1</ele>
        <time>2021-12-18T12:59:35.000Z</time>
      </trkpt>
      <trkpt lat="43.4525" lon="2.16823">
        <ele>738.6</ele>
        <time>2021-12-18T12:59:38.000Z</time>
      </trkpt>
      <trkpt lat="43.4526" lon="2.16824">
        <ele>739.1</ele>
        <time>2021-12-18T12:59:41.000Z</time>
      </trkpt>
      <trkpt lat="43.45269" lon="2.16824">
        <ele>739.8</ele>
        <time>2021-12-18T12:59:44.000Z</time>
      </trkpt>
      <trkpt lat="43.4528" lon="2.16825">
        <ele>740.3</ele>
        <time>2021-12-18T12:59:47.000Z</time>
      </trkpt>
      <trkpt lat="43.4529" lon="2.16826">
        <ele>740.9</ele>
        <time>2021-12-18T12:59:50.000Z</time>
      </trkpt>
      <trkpt lat="43.45302" lon="2.16824">
        <ele>741.4</ele>
        <time>2021-12-18T12:59:53.000Z</time>
      </trkpt>
      <trkpt lat="43.45313" lon="2.16825">
        <ele>741.7</ele>
        <time>2021-12-18T12:59:55.000Z</time>
      </trkpt>
      <trkpt lat="43.45323" lon="2.16825">
        <ele>742.2</ele>
        <time>2021-12-18T12:59:57.000Z</time>
      </trkpt>
      <trkpt lat="43.45332" lon="2.16826">
        <ele>742.5</ele>
        <time>2021-12-18T12:59:59.000Z</time>
      </trkpt>
      <trkpt lat="43.45323" lon="2.16825">
        <ele>742.2</ele>
        <time>2021-12-18T12:59:57.000Z</time>
      </trkpt>
      <trkpt lat="43.45332" lon="2.16826">
        <ele>742.5</ele>
        <time>2021-12-18T12:59:59.000Z</time>
      </trkpt>
      <trkpt lat="43.45342" lon="2.16827">
        <ele>742.9</ele>
        <time>2021-12-18T13:00:01.000Z</time>
      </trkpt>
      <trkpt lat="43.45354" lon="2.16831">
        <ele>743.4</ele>
        <time>2021-12-18T13:00:04.000Z</time>
      </trkpt>
      <trkpt lat="43.45366" lon="2.16831">
        <ele>743.9</ele>
        <time>2021-12-18T13:00:07.000Z</time>
      </trkpt>
      <trkpt lat="43.45376" lon="2.16831">
        <ele>744.3</ele>
        <time>2021-12-18T13:00:09.000Z</time>
      </trkpt>
      <trkpt lat="43.45387" lon="2.16829">
        <ele>744.9</ele>
        <time>2021-12-18T13:00:12.000Z</time>
      </trkpt>
      <trkpt lat="43.45398" lon="2.16826">
        <ele>745.4</ele>
        <time>2021-12-18T13:00:15.000Z</time>
      </trkpt>
      <trkpt lat="43.45409" lon="2.16821">
        <ele>745.9</ele>
        <time>2021-12-18T13:00:18.000Z</time>
      </trkpt>
      <trkpt lat="43.45419" lon="2.16813">
        <ele>746.4</ele>
        <time>2021-12-18T13:00:21.000Z</time>
      </trkpt>
      <trkpt lat="43.45429" lon="2.16807">
        <ele>746.9</ele>
        <time>2021-12-18T13:00:24.000Z</time>
      </trkpt>
      <trkpt lat="43.45442" lon="2.16799">
        <ele>747.7</ele>
        <time>2021-12-18T13:00:29.000Z</time>
      </trkpt>
      <trkpt lat="43.45452" lon="2.16791">
        <ele>748.5</ele>
        <time>2021-12-18T13:00:33.000Z</time>
      </trkpt>
      <trkpt lat="43.45464" lon="2.16783">
        <ele>749.3</ele>
        <time>2021-12-18T13:00:37.000Z</time>
      </trkpt>
      <trkpt lat="43.45474" lon="2.16777">
        <ele>749.9</ele>
        <time>2021-12-18T13:00:40.000Z</time>
      </trkpt>
      <trkpt lat="43.45485" lon="2.1677">
        <ele>750.5</ele>
        <time>2021-12-18T13:00:43.000Z</time>
      </trkpt>
      <trkpt lat="43.45496" lon="2.16764">
        <ele>751</ele>
        <time>2021-12-18T13:00:46.000Z</time>
      </trkpt>
      <trkpt lat="43.45506" lon="2.16759">
        <ele>751.7</ele>
        <time>2021-12-18T13:00:50.000Z</time>
      </trkpt>
      <trkpt lat="43.45519" lon="2.16752">
        <ele>752.2</ele>
        <time>2021-12-18T13:00:53.000Z</time>
      </trkpt>
      <trkpt lat="43.45528" lon="2.16746">
        <ele>752.5</ele>
        <time>2021-12-18T13:00:55.000Z</time>
      </trkpt>
      <trkpt lat="43.45539" lon="2.16737">
        <ele>753.1</ele>
        <time>2021-12-18T13:00:58.000Z</time>
      </trkpt>
      <trkpt lat="43.4555" lon="2.16726">
        <ele>753.5</ele>
        <time>2021-12-18T13:01:01.000Z</time>
      </trkpt>
      <trkpt lat="43.45559" lon="2.16716">
        <ele>753.9</ele>
        <time>2021-12-18T13:01:04.000Z</time>
      </trkpt>
      <trkpt lat="43.45569" lon="2.16706">
        <ele>754.3</ele>
        <time>2021-12-18T13:01:07.000Z</time>
      </trkpt>
      <trkpt lat="43.45577" lon="2.16696">
        <ele>754.6</ele>
        <time>2021-12-18T13:01:10.000Z</time>
      </trkpt>
      <trkpt lat="43.45584" lon="2.16688">
        <ele>754.9</ele>
        <time>2021-12-18T13:01:13.000Z</time>
      </trkpt>
      <trkpt lat="43.45591" lon="2.16678">
        <ele>755.1</ele>
        <time>2021-12-18T13:01:17.000Z</time>
      </trkpt>
      <trkpt lat="43.45599" lon="2.16669">
        <ele>755.2</ele>
        <time>2021-12-18T13:01:22.000Z</time>
      </trkpt>
      <trkpt lat="43.45607" lon="2.16663">
        <ele>755.2</ele>
        <time>2021-12-18T13:02:17.000Z</time>
      </trkpt>
      <trkpt lat="43.45616" lon="2.16663">
        <ele>755.3</ele>
        <time>2021-12-18T13:03:10.000Z</time>
      </trkpt>
      <trkpt lat="43.45624" lon="2.1667">
        <ele>754.7</ele>
        <time>2021-12-18T13:04:26.000Z</time>
      </trkpt>
      <trkpt lat="43.45626" lon="2.16682">
        <ele>754.6</ele>
        <time>2021-12-18T13:04:48.000Z</time>
      </trkpt>
      <trkpt lat="43.45631" lon="2.16694">
        <ele>754.5</ele>
        <time>2021-12-18T13:04:53.000Z</time>
      </trkpt>
      <trkpt lat="43.45635" lon="2.16708">
        <ele>754.5</ele>
        <time>2021-12-18T13:04:57.000Z</time>
      </trkpt>
      <trkpt lat="43.4564" lon="2.16724">
        <ele>754.5</ele>
        <time>2021-12-18T13:05:01.000Z</time>
      </trkpt>
      <trkpt lat="43.45644" lon="2.16736">
        <ele>754.5</ele>
        <time>2021-12-18T13:05:04.000Z</time>
      </trkpt>
      <trkpt lat="43.45649" lon="2.16749">
        <ele>754.5</ele>
        <time>2021-12-18T13:05:07.000Z</time>
      </trkpt>
      <trkpt lat="43.45654" lon="2.16761">
        <ele>754.6</ele>
        <time>2021-12-18T13:05:10.000Z</time>
      </trkpt>
      <trkpt lat="43.45659" lon="2.16773">
        <ele>754.8</ele>
        <time>2021-12-18T13:05:13.000Z</time>
      </trkpt>
      <trkpt lat="43.45663" lon="2.16785">
        <ele>754.9</ele>
        <time>2021-12-18T13:05:16.000Z</time>
      </trkpt>
      <trkpt lat="43.45667" lon="2.16798">
        <ele>755.1</ele>
        <time>2021-12-18T13:05:19.000Z</time>
      </trkpt>
      <trkpt lat="43.45672" lon="2.16811">
        <ele>755.3</ele>
        <time>2021-12-18T13:05:22.000Z</time>
      </trkpt>
      <trkpt lat="43.45676" lon="2.16824">
        <ele>755.5</ele>
        <time>2021-12-18T13:05:25.000Z</time>
      </trkpt>
      <trkpt lat="43.45681" lon="2.16838">
        <ele>755.7</ele>
        <time>2021-12-18T13:05:28.000Z</time>
      </trkpt>
      <trkpt lat="43.45685" lon="2.16852">
        <ele>755.9</ele>
        <time>2021-12-18T13:05:31.000Z</time>
      </trkpt>
      <trkpt lat="43.4569" lon="2.16866">
        <ele>756.2</ele>
        <time>2021-12-18T13:05:34.000Z</time>
      </trkpt>
      <trkpt lat="43.45694" lon="2.16878">
        <ele>756.5</ele>
        <time>2021-12-18T13:05:37.000Z</time>
      </trkpt>
      <trkpt lat="43.45696" lon="2.16891">
        <ele>756.7</ele>
        <time>2021-12-18T13:05:40.000Z</time>
      </trkpt>
      <trkpt lat="43.45699" lon="2.16903">
        <ele>757.1</ele>
        <time>2021-12-18T13:05:43.000Z</time>
      </trkpt>
      <trkpt lat="43.45702" lon="2.16918">
        <ele>757.3</ele>
        <time>2021-12-18T13:05:46.000Z</time>
      </trkpt>
      <trkpt lat="43.45703" lon="2.16933">
        <ele>757.6</ele>
        <time>2021-12-18T13:05:49.000Z</time>
      </trkpt>
      <trkpt lat="43.45706" lon="2.16948">
        <ele>757.9</ele>
        <time>2021-12-18T13:05:52.000Z</time>
      </trkpt>
      <trkpt lat="43.45709" lon="2.16962">
        <ele>758.1</ele>
        <time>2021-12-18T13:05:55.000Z</time>
      </trkpt>
      <trkpt lat="43.45713" lon="2.16977">
        <ele>758.1</ele>
        <time>2021-12-18T13:05:58.000Z</time>
      </trkpt>
      <trkpt lat="43.45718" lon="2.16992">
        <ele>758.2</ele>
        <time>2021-12-18T13:06:01.000Z</time>
      </trkpt>
      <trkpt lat="43.45722" lon="2.17007">
        <ele>758.3</ele>
        <time>2021-12-18T13:06:04.000Z</time>
      </trkpt>
      <trkpt lat="43.4572" lon="2.17021">
        <ele>758.3</ele>
        <time>2021-12-18T13:06:07.000Z</time>
      </trkpt>
      <trkpt lat="43.45714" lon="2.17033">
        <ele>758.3</ele>
        <time>2021-12-18T13:06:10.000Z</time>
      </trkpt>
      <trkpt lat="43.45706" lon="2.1704">
        <ele>758.4</ele>
        <time>2021-12-18T13:06:13.000Z</time>
      </trkpt>
      <trkpt lat="43.45697" lon="2.17048">
        <ele>758.4</ele>
        <time>2021-12-18T13:06:16.000Z</time>
      </trkpt>
      <trkpt lat="43.45689" lon="2.17055">
        <ele>758.5</ele>
        <time>2021-12-18T13:06:19.000Z</time>
      </trkpt>
      <trkpt lat="43.4568" lon="2.17061">
        <ele>758.4</ele>
        <time>2021-12-18T13:06:22.000Z</time>
      </trkpt>
      <trkpt lat="43.45671" lon="2.17067">
        <ele>758.3</ele>
        <time>2021-12-18T13:06:25.000Z</time>
      </trkpt>
      <trkpt lat="43.45661" lon="2.17074">
        <ele>758</ele>
        <time>2021-12-18T13:06:28.000Z</time>
      </trkpt>
      <trkpt lat="43.45653" lon="2.17085">
        <ele>757.8</ele>
        <time>2021-12-18T13:06:31.000Z</time>
      </trkpt>
      <trkpt lat="43.45647" lon="2.17097">
        <ele>757.4</ele>
        <time>2021-12-18T13:06:34.000Z</time>
      </trkpt>
      <trkpt lat="43.45644" lon="2.1711">
        <ele>757.2</ele>
        <time>2021-12-18T13:06:37.000Z</time>
      </trkpt>
      <trkpt lat="43.45641" lon="2.17124">
        <ele>757.3</ele>
        <time>2021-12-18T13:06:40.000Z</time>
      </trkpt>
      <trkpt lat="43.45639" lon="2.17138">
        <ele>757.4</ele>
        <time>2021-12-18T13:06:43.000Z</time>
      </trkpt>
      <trkpt lat="43.45636" lon="2.17149">
        <ele>757.4</ele>
        <time>2021-12-18T13:06:46.000Z</time>
      </trkpt>
      <trkpt lat="43.45635" lon="2.17166">
        <ele>757.7</ele>
        <time>2021-12-18T13:06:50.000Z</time>
      </trkpt>
      <trkpt lat="43.45633" lon="2.17182">
        <ele>757.9</ele>
        <time>2021-12-18T13:06:53.000Z</time>
      </trkpt>
      <trkpt lat="43.45631" lon="2.17194">
        <ele>758</ele>
        <time>2021-12-18T13:06:55.000Z</time>
      </trkpt>
      <trkpt lat="43.45629" lon="2.17212">
        <ele>758</ele>
        <time>2021-12-18T13:06:58.000Z</time>
      </trkpt>
      <trkpt lat="43.45626" lon="2.17224">
        <ele>757.8</ele>
        <time>2021-12-18T13:07:00.000Z</time>
      </trkpt>
      <trkpt lat="43.45624" lon="2.17237">
        <ele>757.6</ele>
        <time>2021-12-18T13:07:02.000Z</time>
      </trkpt>
      <trkpt lat="43.45621" lon="2.17251">
        <ele>757.4</ele>
        <time>2021-12-18T13:07:04.000Z</time>
      </trkpt>
      <trkpt lat="43.45618" lon="2.17265">
        <ele>757.1</ele>
        <time>2021-12-18T13:07:06.000Z</time>
      </trkpt>
      <trkpt lat="43.45616" lon="2.1728">
        <ele>756.7</ele>
        <time>2021-12-18T13:07:08.000Z</time>
      </trkpt>
      <trkpt lat="43.45614" lon="2.17296">
        <ele>756.3</ele>
        <time>2021-12-18T13:07:10.000Z</time>
      </trkpt>
      <trkpt lat="43.45612" lon="2.17312">
        <ele>755.7</ele>
        <time>2021-12-18T13:07:12.000Z</time>
      </trkpt>
      <trkpt lat="43.4561" lon="2.17329">
        <ele>755.2</ele>
        <time>2021-12-18T13:07:14.000Z</time>
      </trkpt>
      <trkpt lat="43.45608" lon="2.17348">
        <ele>754.6</ele>
        <time>2021-12-18T13:07:16.000Z</time>
      </trkpt>
      <trkpt lat="43.45605" lon="2.17366">
        <ele>754.2</ele>
        <time>2021-12-18T13:07:18.000Z</time>
      </trkpt>
      <trkpt lat="43.45602" lon="2.17384">
        <ele>754</ele>
        <time>2021-12-18T13:07:20.000Z</time>
      </trkpt>
      <trkpt lat="43.45605" lon="2.17366">
        <ele>754.2</ele>
        <time>2021-12-18T13:07:18.000Z</time>
      </trkpt>
      <trkpt lat="43.45602" lon="2.17384">
        <ele>754</ele>
        <time>2021-12-18T13:07:20.000Z</time>
      </trkpt>
      <trkpt lat="43.45598" lon="2.174">
        <ele>753.4</ele>
        <time>2021-12-18T13:07:22.000Z</time>
      </trkpt>
      <trkpt lat="43.45596" lon="2.17415">
        <ele>752.8</ele>
        <time>2021-12-18T13:07:24.000Z</time>
      </trkpt>
      <trkpt lat="43.45595" lon="2.1743">
        <ele>752.4</ele>
        <time>2021-12-18T13:07:26.000Z</time>
      </trkpt>
      <trkpt lat="43.45594" lon="2.17443">
        <ele>752</ele>
        <time>2021-12-18T13:07:28.000Z</time>
      </trkpt>
      <trkpt lat="43.45592" lon="2.17458">
        <ele>751.7</ele>
        <time>2021-12-18T13:07:30.000Z</time>
      </trkpt>
      <trkpt lat="43.45592" lon="2.17472">
        <ele>751.4</ele>
        <time>2021-12-18T13:07:32.000Z</time>
      </trkpt>
      <trkpt lat="43.45593" lon="2.17486">
        <ele>751.2</ele>
        <time>2021-12-18T13:07:34.000Z</time>
      </trkpt>
      <trkpt lat="43.45593" lon="2.17499">
        <ele>751</ele>
        <time>2021-12-18T13:07:36.000Z</time>
      </trkpt>
      <trkpt lat="43.45595" lon="2.17511">
        <ele>750.8</ele>
        <time>2021-12-18T13:07:38.000Z</time>
      </trkpt>
      <trkpt lat="43.45596" lon="2.17529">
        <ele>750.6</ele>
        <time>2021-12-18T13:07:41.000Z</time>
      </trkpt>
      <trkpt lat="43.45597" lon="2.17544">
        <ele>750.4</ele>
        <time>2021-12-18T13:07:44.000Z</time>
      </trkpt>
      <trkpt lat="43.45599" lon="2.17559">
        <ele>750.2</ele>
        <time>2021-12-18T13:07:48.000Z</time>
      </trkpt>
      <trkpt lat="43.456" lon="2.17572">
        <ele>750.4</ele>
        <time>2021-12-18T13:08:15.000Z</time>
      </trkpt>
      <trkpt lat="43.45601" lon="2.17584">
        <ele>750.6</ele>
        <time>2021-12-18T13:08:18.000Z</time>
      </trkpt>
      <trkpt lat="43.45599" lon="2.17598">
        <ele>751</ele>
        <time>2021-12-18T13:08:21.000Z</time>
      </trkpt>
      <trkpt lat="43.45594" lon="2.17611">
        <ele>751.5</ele>
        <time>2021-12-18T13:08:24.000Z</time>
      </trkpt>
      <trkpt lat="43.45588" lon="2.17622">
        <ele>752</ele>
        <time>2021-12-18T13:08:27.000Z</time>
      </trkpt>
      <trkpt lat="43.45581" lon="2.17632">
        <ele>752.7</ele>
        <time>2021-12-18T13:08:30.000Z</time>
      </trkpt>
      <trkpt lat="43.45574" lon="2.17644">
        <ele>753.6</ele>
        <time>2021-12-18T13:08:33.000Z</time>
      </trkpt>
      <trkpt lat="43.45568" lon="2.17659">
        <ele>754</ele>
        <time>2021-12-18T13:08:36.000Z</time>
      </trkpt>
      <trkpt lat="43.45561" lon="2.17674">
        <ele>753.9</ele>
        <time>2021-12-18T13:08:39.000Z</time>
      </trkpt>
      <trkpt lat="43.45557" lon="2.17691">
        <ele>753.5</ele>
        <time>2021-12-18T13:08:42.000Z</time>
      </trkpt>
      <trkpt lat="43.45556" lon="2.17707">
        <ele>752.9</ele>
        <time>2021-12-18T13:08:45.000Z</time>
      </trkpt>
      <trkpt lat="43.4556" lon="2.17722">
        <ele>752.4</ele>
        <time>2021-12-18T13:08:48.000Z</time>
      </trkpt>
      <trkpt lat="43.45563" lon="2.17735">
        <ele>751.8</ele>
        <time>2021-12-18T13:08:51.000Z</time>
      </trkpt>
      <trkpt lat="43.45565" lon="2.17751">
        <ele>751.2</ele>
        <time>2021-12-18T13:08:54.000Z</time>
      </trkpt>
      <trkpt lat="43.45569" lon="2.17768">
        <ele>750.4</ele>
        <time>2021-12-18T13:08:57.000Z</time>
      </trkpt>
      <trkpt lat="43.45569" lon="2.17786">
        <ele>749.5</ele>
        <time>2021-12-18T13:09:00.000Z</time>
      </trkpt>
      <trkpt lat="43.45568" lon="2.17801">
        <ele>748.7</ele>
        <time>2021-12-18T13:09:02.000Z</time>
      </trkpt>
      <trkpt lat="43.45572" lon="2.17815">
        <ele>748</ele>
        <time>2021-12-18T13:09:04.000Z</time>
      </trkpt>
      <trkpt lat="43.45576" lon="2.17827">
        <ele>747.3</ele>
        <time>2021-12-18T13:09:06.000Z</time>
      </trkpt>
      <trkpt lat="43.45582" lon="2.17838">
        <ele>746.6</ele>
        <time>2021-12-18T13:09:08.000Z</time>
      </trkpt>
      <trkpt lat="43.45587" lon="2.17849">
        <ele>746</ele>
        <time>2021-12-18T13:09:10.000Z</time>
      </trkpt>
      <trkpt lat="43.45592" lon="2.1786">
        <ele>745.3</ele>
        <time>2021-12-18T13:09:12.000Z</time>
      </trkpt>
      <trkpt lat="43.45596" lon="2.17875">
        <ele>744.7</ele>
        <time>2021-12-18T13:09:14.000Z</time>
      </trkpt>
      <trkpt lat="43.45601" lon="2.17891">
        <ele>743.9</ele>
        <time>2021-12-18T13:09:16.000Z</time>
      </trkpt>
      <trkpt lat="43.45604" lon="2.17912">
        <ele>743.2</ele>
        <time>2021-12-18T13:09:18.000Z</time>
      </trkpt>
      <trkpt lat="43.45606" lon="2.1793">
        <ele>742.6</ele>
        <time>2021-12-18T13:09:20.000Z</time>
      </trkpt>
      <trkpt lat="43.45607" lon="2.17947">
        <ele>742.2</ele>
        <time>2021-12-18T13:09:22.000Z</time>
      </trkpt>
      <trkpt lat="43.45609" lon="2.17961">
        <ele>741.9</ele>
        <time>2021-12-18T13:09:24.000Z</time>
      </trkpt>
      <trkpt lat="43.45609" lon="2.17975">
        <ele>741.9</ele>
        <time>2021-12-18T13:09:26.000Z</time>
      </trkpt>
      <trkpt lat="43.45611" lon="2.17989">
        <ele>741.8</ele>
        <time>2021-12-18T13:09:28.000Z</time>
      </trkpt>
      <trkpt lat="43.4561" lon="2.18002">
        <ele>741.5</ele>
        <time>2021-12-18T13:09:30.000Z</time>
      </trkpt>
      <trkpt lat="43.4561" lon="2.18016">
        <ele>741.2</ele>
        <time>2021-12-18T13:09:32.000Z</time>
      </trkpt>
      <trkpt lat="43.45612" lon="2.18028">
        <ele>740.9</ele>
        <time>2021-12-18T13:09:34.000Z</time>
      </trkpt>
      <trkpt lat="43.45613" lon="2.18041">
        <ele>740.9</ele>
        <time>2021-12-18T13:09:36.000Z</time>
      </trkpt>
      <trkpt lat="43.45613" lon="2.18054">
        <ele>741</ele>
        <time>2021-12-18T13:09:38.000Z</time>
      </trkpt>
      <trkpt lat="43.45612" lon="2.18067">
        <ele>741.1</ele>
        <time>2021-12-18T13:09:40.000Z</time>
      </trkpt>
      <trkpt lat="43.45611" lon="2.1808">
        <ele>741.5</ele>
        <time>2021-12-18T13:09:42.000Z</time>
      </trkpt>
      <trkpt lat="43.45609" lon="2.18097">
        <ele>741.8</ele>
        <time>2021-12-18T13:09:45.000Z</time>
      </trkpt>
      <trkpt lat="43.45606" lon="2.18113">
        <ele>742.1</ele>
        <time>2021-12-18T13:09:48.000Z</time>
      </trkpt>
      <trkpt lat="43.45603" lon="2.18129">
        <ele>742.6</ele>
        <time>2021-12-18T13:09:51.000Z</time>
      </trkpt>
      <trkpt lat="43.45599" lon="2.18145">
        <ele>743.2</ele>
        <time>2021-12-18T13:09:54.000Z</time>
      </trkpt>
      <trkpt lat="43.45595" lon="2.18161">
        <ele>743.6</ele>
        <time>2021-12-18T13:09:57.000Z</time>
      </trkpt>
      <trkpt lat="43.45592" lon="2.18177">
        <ele>744.3</ele>
        <time>2021-12-18T13:10:00.000Z</time>
      </trkpt>
      <trkpt lat="43.45588" lon="2.18193">
        <ele>745.1</ele>
        <time>2021-12-18T13:10:03.000Z</time>
      </trkpt>
      <trkpt lat="43.45584" lon="2.18209">
        <ele>745.9</ele>
        <time>2021-12-18T13:10:06.000Z</time>
      </trkpt>
      <trkpt lat="43.45581" lon="2.18226">
        <ele>746.8</ele>
        <time>2021-12-18T13:10:09.000Z</time>
      </trkpt>
      <trkpt lat="43.45577" lon="2.18242">
        <ele>747.6</ele>
        <time>2021-12-18T13:10:12.000Z</time>
      </trkpt>
      <trkpt lat="43.45573" lon="2.18257">
        <ele>748.1</ele>
        <time>2021-12-18T13:10:15.000Z</time>
      </trkpt>
      <trkpt lat="43.4557" lon="2.1827">
        <ele>748.5</ele>
        <time>2021-12-18T13:10:18.000Z</time>
      </trkpt>
      <trkpt lat="43.45575" lon="2.18281">
        <ele>748.9</ele>
        <time>2021-12-18T13:10:35.000Z</time>
      </trkpt>
      <trkpt lat="43.45585" lon="2.18278">
        <ele>748.5</ele>
        <time>2021-12-18T13:10:39.000Z</time>
      </trkpt>
      <trkpt lat="43.45594" lon="2.18267">
        <ele>747.9</ele>
        <time>2021-12-18T13:10:42.000Z</time>
      </trkpt>
      <trkpt lat="43.45601" lon="2.18258">
        <ele>747.6</ele>
        <time>2021-12-18T13:10:44.000Z</time>
      </trkpt>
      <trkpt lat="43.45607" lon="2.18247">
        <ele>747.2</ele>
        <time>2021-12-18T13:10:46.000Z</time>
      </trkpt>
      <trkpt lat="43.45614" lon="2.18238">
        <ele>746.7</ele>
        <time>2021-12-18T13:10:48.000Z</time>
      </trkpt>
      <trkpt lat="43.45622" lon="2.1823">
        <ele>745.9</ele>
        <time>2021-12-18T13:10:50.000Z</time>
      </trkpt>
      <trkpt lat="43.45631" lon="2.18222">
        <ele>745.1</ele>
        <time>2021-12-18T13:10:52.000Z</time>
      </trkpt>
      <trkpt lat="43.4564" lon="2.18215">
        <ele>744.3</ele>
        <time>2021-12-18T13:10:54.000Z</time>
      </trkpt>
      <trkpt lat="43.45648" lon="2.18208">
        <ele>743.6</ele>
        <time>2021-12-18T13:10:56.000Z</time>
      </trkpt>
      <trkpt lat="43.45658" lon="2.18204">
        <ele>742.8</ele>
        <time>2021-12-18T13:10:58.000Z</time>
      </trkpt>
      <trkpt lat="43.45668" lon="2.18202">
        <ele>742.1</ele>
        <time>2021-12-18T13:11:00.000Z</time>
      </trkpt>
      <trkpt lat="43.45679" lon="2.18202">
        <ele>741.4</ele>
        <time>2021-12-18T13:11:02.000Z</time>
      </trkpt>
      <trkpt lat="43.45689" lon="2.18201">
        <ele>740.9</ele>
        <time>2021-12-18T13:11:04.000Z</time>
      </trkpt>
      <trkpt lat="43.45702" lon="2.18201">
        <ele>740.2</ele>
        <time>2021-12-18T13:11:07.000Z</time>
      </trkpt>
      <trkpt lat="43.45713" lon="2.18199">
        <ele>740</ele>
        <time>2021-12-18T13:11:11.000Z</time>
      </trkpt>
      <trkpt lat="43.45723" lon="2.18201">
        <ele>740.2</ele>
        <time>2021-12-18T13:11:14.000Z</time>
      </trkpt>
      <trkpt lat="43.45734" lon="2.18205">
        <ele>740.8</ele>
        <time>2021-12-18T13:11:17.000Z</time>
      </trkpt>
      <trkpt lat="43.45744" lon="2.1821">
        <ele>741.4</ele>
        <time>2021-12-18T13:11:20.000Z</time>
      </trkpt>
      <trkpt lat="43.45754" lon="2.18215">
        <ele>742.2</ele>
        <time>2021-12-18T13:11:23.000Z</time>
      </trkpt>
      <trkpt lat="43.45744" lon="2.1821">
        <ele>741.4</ele>
        <time>2021-12-18T13:11:20.000Z</time>
      </trkpt>
      <trkpt lat="43.45754" lon="2.18215">
        <ele>742.2</ele>
        <time>2021-12-18T13:11:23.000Z</time>
      </trkpt>
      <trkpt lat="43.45764" lon="2.1822">
        <ele>742.6</ele>
        <time>2021-12-18T13:11:26.000Z</time>
      </trkpt>
      <trkpt lat="43.45773" lon="2.18223">
        <ele>742.8</ele>
        <time>2021-12-18T13:11:29.000Z</time>
      </trkpt>
      <trkpt lat="43.45783" lon="2.18226">
        <ele>742.8</ele>
        <time>2021-12-18T13:11:33.000Z</time>
      </trkpt>
      <trkpt lat="43.45793" lon="2.18228">
        <ele>742.7</ele>
        <time>2021-12-18T13:11:37.000Z</time>
      </trkpt>
      <trkpt lat="43.45805" lon="2.18228">
        <ele>742.6</ele>
        <time>2021-12-18T13:11:42.000Z</time>
      </trkpt>
      <trkpt lat="43.45815" lon="2.18229">
        <ele>742.3</ele>
        <time>2021-12-18T13:11:45.000Z</time>
      </trkpt>
      <trkpt lat="43.45825" lon="2.1823">
        <ele>742.1</ele>
        <time>2021-12-18T13:11:47.000Z</time>
      </trkpt>
      <trkpt lat="43.45834" lon="2.18231">
        <ele>741.8</ele>
        <time>2021-12-18T13:11:49.000Z</time>
      </trkpt>
      <trkpt lat="43.45843" lon="2.18235">
        <ele>741.5</ele>
        <time>2021-12-18T13:11:51.000Z</time>
      </trkpt>
      <trkpt lat="43.45855" lon="2.18241">
        <ele>741</ele>
        <time>2021-12-18T13:11:53.000Z</time>
      </trkpt>
      <trkpt lat="43.45865" lon="2.18248">
        <ele>740.2</ele>
        <time>2021-12-18T13:11:55.000Z</time>
      </trkpt>
      <trkpt lat="43.45876" lon="2.18256">
        <ele>739.3</ele>
        <time>2021-12-18T13:11:57.000Z</time>
      </trkpt>
      <trkpt lat="43.45886" lon="2.18264">
        <ele>738.3</ele>
        <time>2021-12-18T13:11:59.000Z</time>
      </trkpt>
      <trkpt lat="43.45895" lon="2.18274">
        <ele>737.1</ele>
        <time>2021-12-18T13:12:01.000Z</time>
      </trkpt>
      <trkpt lat="43.45904" lon="2.18284">
        <ele>735.9</ele>
        <time>2021-12-18T13:12:03.000Z</time>
      </trkpt>
      <trkpt lat="43.45912" lon="2.18291">
        <ele>734.9</ele>
        <time>2021-12-18T13:12:05.000Z</time>
      </trkpt>
      <trkpt lat="43.45922" lon="2.18296">
        <ele>734</ele>
        <time>2021-12-18T13:12:07.000Z</time>
      </trkpt>
      <trkpt lat="43.45933" lon="2.183">
        <ele>733.3</ele>
        <time>2021-12-18T13:12:09.000Z</time>
      </trkpt>
      <trkpt lat="43.45943" lon="2.18303">
        <ele>732.5</ele>
        <time>2021-12-18T13:12:11.000Z</time>
      </trkpt>
      <trkpt lat="43.45953" lon="2.18306">
        <ele>731.5</ele>
        <time>2021-12-18T13:12:13.000Z</time>
      </trkpt>
      <trkpt lat="43.45964" lon="2.18309">
        <ele>730.3</ele>
        <time>2021-12-18T13:12:15.000Z</time>
      </trkpt>
      <trkpt lat="43.45975" lon="2.18313">
        <ele>729.2</ele>
        <time>2021-12-18T13:12:17.000Z</time>
      </trkpt>
      <trkpt lat="43.45988" lon="2.18318">
        <ele>728.3</ele>
        <time>2021-12-18T13:12:19.000Z</time>
      </trkpt>
      <trkpt lat="43.46001" lon="2.18325">
        <ele>727.4</ele>
        <time>2021-12-18T13:12:21.000Z</time>
      </trkpt>
      <trkpt lat="43.46012" lon="2.1833">
        <ele>726.4</ele>
        <time>2021-12-18T13:12:23.000Z</time>
      </trkpt>
      <trkpt lat="43.46023" lon="2.18335">
        <ele>725.4</ele>
        <time>2021-12-18T13:12:25.000Z</time>
      </trkpt>
      <trkpt lat="43.46034" lon="2.18339">
        <ele>724.5</ele>
        <time>2021-12-18T13:12:27.000Z</time>
      </trkpt>
      <trkpt lat="43.46045" lon="2.18344">
        <ele>723.7</ele>
        <time>2021-12-18T13:12:29.000Z</time>
      </trkpt>
      <trkpt lat="43.46055" lon="2.18345">
        <ele>723.1</ele>
        <time>2021-12-18T13:12:31.000Z</time>
      </trkpt>
      <trkpt lat="43.46065" lon="2.18346">
        <ele>722.5</ele>
        <time>2021-12-18T13:12:33.000Z</time>
      </trkpt>
      <trkpt lat="43.46075" lon="2.18347">
        <ele>722.1</ele>
        <time>2021-12-18T13:12:35.000Z</time>
      </trkpt>
      <trkpt lat="43.46087" lon="2.18348">
        <ele>721.7</ele>
        <time>2021-12-18T13:12:38.000Z</time>
      </trkpt>
      <trkpt lat="43.46097" lon="2.18349">
        <ele>721.4</ele>
        <time>2021-12-18T13:12:40.000Z</time>
      </trkpt>
      <trkpt lat="43.46105" lon="2.18347">
        <ele>721.3</ele>
        <time>2021-12-18T13:12:42.000Z</time>
      </trkpt>
      <trkpt lat="43.46115" lon="2.18344">
        <ele>721.1</ele>
        <time>2021-12-18T13:12:44.000Z</time>
      </trkpt>
      <trkpt lat="43.46123" lon="2.18338">
        <ele>720.9</ele>
        <time>2021-12-18T13:12:47.000Z</time>
      </trkpt>
      <trkpt lat="43.46135" lon="2.18336">
        <ele>720.8</ele>
        <time>2021-12-18T13:12:50.000Z</time>
      </trkpt>
      <trkpt lat="43.46145" lon="2.18335">
        <ele>720.7</ele>
        <time>2021-12-18T13:12:52.000Z</time>
      </trkpt>
      <trkpt lat="43.46155" lon="2.18334">
        <ele>720.4</ele>
        <time>2021-12-18T13:12:54.000Z</time>
      </trkpt>
      <trkpt lat="43.46167" lon="2.18334">
        <ele>720.1</ele>
        <time>2021-12-18T13:12:56.000Z</time>
      </trkpt>
      <trkpt lat="43.46178" lon="2.18334">
        <ele>719.7</ele>
        <time>2021-12-18T13:12:58.000Z</time>
      </trkpt>
      <trkpt lat="43.46189" lon="2.18333">
        <ele>719.1</ele>
        <time>2021-12-18T13:13:00.000Z</time>
      </trkpt>
      <trkpt lat="43.46203" lon="2.18332">
        <ele>718.4</ele>
        <time>2021-12-18T13:13:02.000Z</time>
      </trkpt>
      <trkpt lat="43.46216" lon="2.18332">
        <ele>717.8</ele>
        <time>2021-12-18T13:13:04.000Z</time>
      </trkpt>
      <trkpt lat="43.46229" lon="2.18331">
        <ele>717.1</ele>
        <time>2021-12-18T13:13:06.000Z</time>
      </trkpt>
      <trkpt lat="43.46243" lon="2.18328">
        <ele>716.4</ele>
        <time>2021-12-18T13:13:08.000Z</time>
      </trkpt>
      <trkpt lat="43.46256" lon="2.18326">
        <ele>715.7</ele>
        <time>2021-12-18T13:13:10.000Z</time>
      </trkpt>
      <trkpt lat="43.4627" lon="2.18323">
        <ele>715.2</ele>
        <time>2021-12-18T13:13:12.000Z</time>
      </trkpt>
      <trkpt lat="43.46285" lon="2.18321">
        <ele>714.6</ele>
        <time>2021-12-18T13:13:14.000Z</time>
      </trkpt>
      <trkpt lat="43.46298" lon="2.18318">
        <ele>714</ele>
        <time>2021-12-18T13:13:16.000Z</time>
      </trkpt>
      <trkpt lat="43.4631" lon="2.18316">
        <ele>713.3</ele>
        <time>2021-12-18T13:13:18.000Z</time>
      </trkpt>
      <trkpt lat="43.46321" lon="2.18316">
        <ele>712.6</ele>
        <time>2021-12-18T13:13:20.000Z</time>
      </trkpt>
      <trkpt lat="43.46332" lon="2.18316">
        <ele>711.9</ele>
        <time>2021-12-18T13:13:22.000Z</time>
      </trkpt>
      <trkpt lat="43.46343" lon="2.18317">
        <ele>711.1</ele>
        <time>2021-12-18T13:13:24.000Z</time>
      </trkpt>
      <trkpt lat="43.46357" lon="2.18316">
        <ele>709.9</ele>
        <time>2021-12-18T13:13:27.000Z</time>
      </trkpt>
      <trkpt lat="43.46371" lon="2.18315">
        <ele>709</ele>
        <time>2021-12-18T13:13:29.000Z</time>
      </trkpt>
      <trkpt lat="43.46384" lon="2.18312">
        <ele>708.1</ele>
        <time>2021-12-18T13:13:31.000Z</time>
      </trkpt>
      <trkpt lat="43.46394" lon="2.1831">
        <ele>707.2</ele>
        <time>2021-12-18T13:13:33.000Z</time>
      </trkpt>
      <trkpt lat="43.46405" lon="2.1831">
        <ele>706.5</ele>
        <time>2021-12-18T13:13:35.000Z</time>
      </trkpt>
      <trkpt lat="43.46417" lon="2.18313">
        <ele>705.9</ele>
        <time>2021-12-18T13:13:37.000Z</time>
      </trkpt>
      <trkpt lat="43.46427" lon="2.18317">
        <ele>705.2</ele>
        <time>2021-12-18T13:13:39.000Z</time>
      </trkpt>
      <trkpt lat="43.46437" lon="2.1832">
        <ele>704.3</ele>
        <time>2021-12-18T13:13:41.000Z</time>
      </trkpt>
      <trkpt lat="43.46449" lon="2.18321">
        <ele>702.6</ele>
        <time>2021-12-18T13:13:44.000Z</time>
      </trkpt>
      <trkpt lat="43.46459" lon="2.18318">
        <ele>701</ele>
        <time>2021-12-18T13:13:47.000Z</time>
      </trkpt>
      <trkpt lat="43.46468" lon="2.18312">
        <ele>699.5</ele>
        <time>2021-12-18T13:13:50.000Z</time>
      </trkpt>
      <trkpt lat="43.46475" lon="2.18301">
        <ele>698</ele>
        <time>2021-12-18T13:13:53.000Z</time>
      </trkpt>
      <trkpt lat="43.46479" lon="2.18288">
        <ele>696.5</ele>
        <time>2021-12-18T13:13:56.000Z</time>
      </trkpt>
      <trkpt lat="43.46481" lon="2.18271">
        <ele>695</ele>
        <time>2021-12-18T13:14:00.000Z</time>
      </trkpt>
      <trkpt lat="43.46479" lon="2.18255">
        <ele>693.5</ele>
        <time>2021-12-18T13:14:04.000Z</time>
      </trkpt>
      <trkpt lat="43.46474" lon="2.1824">
        <ele>692.5</ele>
        <time>2021-12-18T13:14:07.000Z</time>
      </trkpt>
      <trkpt lat="43.4647" lon="2.18227">
        <ele>691.8</ele>
        <time>2021-12-18T13:14:09.000Z</time>
      </trkpt>
      <trkpt lat="43.46464" lon="2.18214">
        <ele>691.1</ele>
        <time>2021-12-18T13:14:11.000Z</time>
      </trkpt>
      <trkpt lat="43.46459" lon="2.18203">
        <ele>690.4</ele>
        <time>2021-12-18T13:14:13.000Z</time>
      </trkpt>
      <trkpt lat="43.46454" lon="2.18191">
        <ele>689.6</ele>
        <time>2021-12-18T13:14:15.000Z</time>
      </trkpt>
      <trkpt lat="43.46447" lon="2.1818">
        <ele>688.9</ele>
        <time>2021-12-18T13:14:17.000Z</time>
      </trkpt>
      <trkpt lat="43.4644" lon="2.1817">
        <ele>688.1</ele>
        <time>2021-12-18T13:14:19.000Z</time>
      </trkpt>
      <trkpt lat="43.4643" lon="2.18159">
        <ele>687.3</ele>
        <time>2021-12-18T13:14:22.000Z</time>
      </trkpt>
      <trkpt lat="43.46421" lon="2.18155">
        <ele>686.5</ele>
        <time>2021-12-18T13:14:24.000Z</time>
      </trkpt>
      <trkpt lat="43.4641" lon="2.18151">
        <ele>685.5</ele>
        <time>2021-12-18T13:14:27.000Z</time>
      </trkpt>
      <trkpt lat="43.4641" lon="2.18151">
        <ele>685.5</ele>
        <time>2021-12-18T13:14:27.000Z</time>
      </trkpt>
      <trkpt lat="43.46406" lon="2.18138">
        <ele>684.2</ele>
        <time>2021-12-18T13:14:31.000Z</time>
      </trkpt>
      <trkpt lat="43.46415" lon="2.1813">
        <ele>683</ele>
        <time>2021-12-18T13:14:35.000Z</time>
      </trkpt>
      <trkpt lat="43.46427" lon="2.18136">
        <ele>682.1</ele>
        <time>2021-12-18T13:14:39.000Z</time>
      </trkpt>
      <trkpt lat="43.46436" lon="2.18138">
        <ele>681.7</ele>
        <time>2021-12-18T13:14:41.000Z</time>
      </trkpt>
      <trkpt lat="43.46447" lon="2.18141">
        <ele>681</ele>
        <time>2021-12-18T13:14:43.000Z</time>
      </trkpt>
      <trkpt lat="43.46458" lon="2.18144">
        <ele>680.3</ele>
        <time>2021-12-18T13:14:45.000Z</time>
      </trkpt>
      <trkpt lat="43.46468" lon="2.18147">
        <ele>679.5</ele>
        <time>2021-12-18T13:14:47.000Z</time>
      </trkpt>
      <trkpt lat="43.46478" lon="2.18152">
        <ele>678.7</ele>
        <time>2021-12-18T13:14:49.000Z</time>
      </trkpt>
      <trkpt lat="43.46487" lon="2.18157">
        <ele>678.1</ele>
        <time>2021-12-18T13:14:51.000Z</time>
      </trkpt>
      <trkpt lat="43.46497" lon="2.18162">
        <ele>677.4</ele>
        <time>2021-12-18T13:14:53.000Z</time>
      </trkpt>
      <trkpt lat="43.46506" lon="2.1817">
        <ele>676.2</ele>
        <time>2021-12-18T13:14:55.000Z</time>
      </trkpt>
      <trkpt lat="43.46516" lon="2.18178">
        <ele>675.5</ele>
        <time>2021-12-18T13:14:57.000Z</time>
      </trkpt>
      <trkpt lat="43.46526" lon="2.18185">
        <ele>674.4</ele>
        <time>2021-12-18T13:14:59.000Z</time>
      </trkpt>
      <trkpt lat="43.46536" lon="2.18192">
        <ele>673.5</ele>
        <time>2021-12-18T13:15:01.000Z</time>
      </trkpt>
      <trkpt lat="43.46545" lon="2.18199">
        <ele>672.4</ele>
        <time>2021-12-18T13:15:03.000Z</time>
      </trkpt>
      <trkpt lat="43.46554" lon="2.18205">
        <ele>671.5</ele>
        <time>2021-12-18T13:15:05.000Z</time>
      </trkpt>
      <trkpt lat="43.46563" lon="2.18211">
        <ele>670.7</ele>
        <time>2021-12-18T13:15:07.000Z</time>
      </trkpt>
      <trkpt lat="43.46572" lon="2.18218">
        <ele>669.5</ele>
        <time>2021-12-18T13:15:09.000Z</time>
      </trkpt>
      <trkpt lat="43.4658" lon="2.18225">
        <ele>668.3</ele>
        <time>2021-12-18T13:15:11.000Z</time>
      </trkpt>
      <trkpt lat="43.46589" lon="2.18234">
        <ele>667</ele>
        <time>2021-12-18T13:15:13.000Z</time>
      </trkpt>
      <trkpt lat="43.46596" lon="2.18243">
        <ele>665.8</ele>
        <time>2021-12-18T13:15:15.000Z</time>
      </trkpt>
      <trkpt lat="43.46602" lon="2.18253">
        <ele>664.8</ele>
        <time>2021-12-18T13:15:17.000Z</time>
      </trkpt>
      <trkpt lat="43.46608" lon="2.18263">
        <ele>663.6</ele>
        <time>2021-12-18T13:15:19.000Z</time>
      </trkpt>
      <trkpt lat="43.46613" lon="2.18276">
        <ele>662.6</ele>
        <time>2021-12-18T13:15:21.000Z</time>
      </trkpt>
      <trkpt lat="43.46615" lon="2.1829">
        <ele>661.6</ele>
        <time>2021-12-18T13:15:23.000Z</time>
      </trkpt>
      <trkpt lat="43.46615" lon="2.18306">
        <ele>660.8</ele>
        <time>2021-12-18T13:15:25.000Z</time>
      </trkpt>
      <trkpt lat="43.46613" lon="2.18321">
        <ele>660.2</ele>
        <time>2021-12-18T13:15:27.000Z</time>
      </trkpt>
      <trkpt lat="43.46609" lon="2.18334">
        <ele>659.9</ele>
        <time>2021-12-18T13:15:29.000Z</time>
      </trkpt>
      <trkpt lat="43.46601" lon="2.18346">
        <ele>659.6</ele>
        <time>2021-12-18T13:15:32.000Z</time>
      </trkpt>
      <trkpt lat="43.46593" lon="2.18358">
        <ele>659.5</ele>
        <time>2021-12-18T13:15:36.000Z</time>
      </trkpt>
      <trkpt lat="43.46586" lon="2.18368">
        <ele>659.6</ele>
        <time>2021-12-18T13:15:39.000Z</time>
      </trkpt>
      <trkpt lat="43.46579" lon="2.1838">
        <ele>659.6</ele>
        <time>2021-12-18T13:15:42.000Z</time>
      </trkpt>
      <trkpt lat="43.46571" lon="2.18393">
        <ele>659.4</ele>
        <time>2021-12-18T13:15:45.000Z</time>
      </trkpt>
      <trkpt lat="43.46565" lon="2.18405">
        <ele>658.9</ele>
        <time>2021-12-18T13:15:48.000Z</time>
      </trkpt>
      <trkpt lat="43.46559" lon="2.1842">
        <ele>658.2</ele>
        <time>2021-12-18T13:15:51.000Z</time>
      </trkpt>
      <trkpt lat="43.46555" lon="2.18432">
        <ele>657.7</ele>
        <time>2021-12-18T13:15:53.000Z</time>
      </trkpt>
      <trkpt lat="43.46551" lon="2.18445">
        <ele>657</ele>
        <time>2021-12-18T13:15:55.000Z</time>
      </trkpt>
      <trkpt lat="43.46547" lon="2.18457">
        <ele>656.4</ele>
        <time>2021-12-18T13:15:57.000Z</time>
      </trkpt>
      <trkpt lat="43.46543" lon="2.18469">
        <ele>655.7</ele>
        <time>2021-12-18T13:15:59.000Z</time>
      </trkpt>
      <trkpt lat="43.46537" lon="2.18481">
        <ele>655</ele>
        <time>2021-12-18T13:16:01.000Z</time>
      </trkpt>
      <trkpt lat="43.4653" lon="2.18491">
        <ele>654.3</ele>
        <time>2021-12-18T13:16:03.000Z</time>
      </trkpt>
      <trkpt lat="43.46521" lon="2.18496">
        <ele>653.7</ele>
        <time>2021-12-18T13:16:05.000Z</time>
      </trkpt>
      <trkpt lat="43.46509" lon="2.18501">
        <ele>652.6</ele>
        <time>2021-12-18T13:16:08.000Z</time>
      </trkpt>
      <trkpt lat="43.46501" lon="2.18506">
        <ele>651.4</ele>
        <time>2021-12-18T13:16:11.000Z</time>
      </trkpt>
      <trkpt lat="43.46494" lon="2.18515">
        <ele>650.3</ele>
        <time>2021-12-18T13:16:14.000Z</time>
      </trkpt>
      <trkpt lat="43.46484" lon="2.18525">
        <ele>649.1</ele>
        <time>2021-12-18T13:16:17.000Z</time>
      </trkpt>
      <trkpt lat="43.46476" lon="2.18536">
        <ele>648</ele>
        <time>2021-12-18T13:16:20.000Z</time>
      </trkpt>
      <trkpt lat="43.46465" lon="2.18546">
        <ele>646.8</ele>
        <time>2021-12-18T13:16:23.000Z</time>
      </trkpt>
      <trkpt lat="43.46457" lon="2.18554">
        <ele>645.6</ele>
        <time>2021-12-18T13:16:26.000Z</time>
      </trkpt>
      <trkpt lat="43.46443" lon="2.18561">
        <ele>644.1</ele>
        <time>2021-12-18T13:16:30.000Z</time>
      </trkpt>
      <trkpt lat="43.46433" lon="2.18568">
        <ele>643.4</ele>
        <time>2021-12-18T13:16:32.000Z</time>
      </trkpt>
      <trkpt lat="43.46425" lon="2.18578">
        <ele>642.9</ele>
        <time>2021-12-18T13:16:34.000Z</time>
      </trkpt>
      <trkpt lat="43.4642" lon="2.18587">
        <ele>642.5</ele>
        <time>2021-12-18T13:16:37.000Z</time>
      </trkpt>
      <trkpt lat="43.46414" lon="2.18597">
        <ele>642.5</ele>
        <time>2021-12-18T13:16:41.000Z</time>
      </trkpt>
      <trkpt lat="43.46406" lon="2.18606">
        <ele>643</ele>
        <time>2021-12-18T13:16:45.000Z</time>
      </trkpt>
      <trkpt lat="43.46397" lon="2.18613">
        <ele>643.6</ele>
        <time>2021-12-18T13:16:49.000Z</time>
      </trkpt>
      <trkpt lat="43.46387" lon="2.18616">
        <ele>644.1</ele>
        <time>2021-12-18T13:16:52.000Z</time>
      </trkpt>
      <trkpt lat="43.46377" lon="2.18618">
        <ele>644.6</ele>
        <time>2021-12-18T13:16:55.000Z</time>
      </trkpt>
      <trkpt lat="43.46367" lon="2.1862">
        <ele>645</ele>
        <time>2021-12-18T13:16:58.000Z</time>
      </trkpt>
      <trkpt lat="43.46356" lon="2.18622">
        <ele>645.6</ele>
        <time>2021-12-18T13:17:02.000Z</time>
      </trkpt>
      <trkpt lat="43.46343" lon="2.18624">
        <ele>646</ele>
        <time>2021-12-18T13:17:05.000Z</time>
      </trkpt>
      <trkpt lat="43.46331" lon="2.18626">
        <ele>646.3</ele>
        <time>2021-12-18T13:17:08.000Z</time>
      </trkpt>
      <trkpt lat="43.46319" lon="2.18631">
        <ele>646.5</ele>
        <time>2021-12-18T13:17:11.000Z</time>
      </trkpt>
      <trkpt lat="43.46307" lon="2.18637">
        <ele>646.5</ele>
        <time>2021-12-18T13:17:14.000Z</time>
      </trkpt>
      <trkpt lat="43.46295" lon="2.18645">
        <ele>646.6</ele>
        <time>2021-12-18T13:17:17.000Z</time>
      </trkpt>
      <trkpt lat="43.46287" lon="2.18652">
        <ele>646.6</ele>
        <time>2021-12-18T13:17:19.000Z</time>
      </trkpt>
      <trkpt lat="43.46276" lon="2.18659">
        <ele>646.6</ele>
        <time>2021-12-18T13:17:22.000Z</time>
      </trkpt>
      <trkpt lat="43.46264" lon="2.18662">
        <ele>646.5</ele>
        <time>2021-12-18T13:17:25.000Z</time>
      </trkpt>
      <trkpt lat="43.46251" lon="2.18659">
        <ele>646.4</ele>
        <time>2021-12-18T13:17:28.000Z</time>
      </trkpt>
      <trkpt lat="43.46239" lon="2.1865">
        <ele>646.2</ele>
        <time>2021-12-18T13:17:31.000Z</time>
      </trkpt>
      <trkpt lat="43.4623" lon="2.18639">
        <ele>646</ele>
        <time>2021-12-18T13:17:34.000Z</time>
      </trkpt>
      <trkpt lat="43.4622" lon="2.18633">
        <ele>645.7</ele>
        <time>2021-12-18T13:17:36.000Z</time>
      </trkpt>
      <trkpt lat="43.46211" lon="2.18634">
        <ele>645.3</ele>
        <time>2021-12-18T13:17:38.000Z</time>
      </trkpt>
      <trkpt lat="43.46204" lon="2.18642">
        <ele>645</ele>
        <time>2021-12-18T13:17:40.000Z</time>
      </trkpt>
      <trkpt lat="43.46197" lon="2.18658">
        <ele>644.5</ele>
        <time>2021-12-18T13:17:43.000Z</time>
      </trkpt>
      <trkpt lat="43.46188" lon="2.18672">
        <ele>644</ele>
        <time>2021-12-18T13:17:46.000Z</time>
      </trkpt>
      <trkpt lat="43.4618" lon="2.18679">
        <ele>643.8</ele>
        <time>2021-12-18T13:17:48.000Z</time>
      </trkpt>
      <trkpt lat="43.46171" lon="2.18681">
        <ele>643.8</ele>
        <time>2021-12-18T13:17:50.000Z</time>
      </trkpt>
      <trkpt lat="43.46161" lon="2.18682">
        <ele>643.8</ele>
        <time>2021-12-18T13:17:52.000Z</time>
      </trkpt>
      <trkpt lat="43.46148" lon="2.18683">
        <ele>643.8</ele>
        <time>2021-12-18T13:17:55.000Z</time>
      </trkpt>
      <trkpt lat="43.46136" lon="2.18683">
        <ele>643.8</ele>
        <time>2021-12-18T13:17:58.000Z</time>
      </trkpt>
      <trkpt lat="43.46125" lon="2.18682">
        <ele>644</ele>
        <time>2021-12-18T13:18:01.000Z</time>
      </trkpt>
      <trkpt lat="43.46115" lon="2.18681">
        <ele>644.3</ele>
        <time>2021-12-18T13:18:04.000Z</time>
      </trkpt>
      <trkpt lat="43.46125" lon="2.18682">
        <ele>644</ele>
        <time>2021-12-18T13:18:01.000Z</time>
      </trkpt>
      <trkpt lat="43.46115" lon="2.18681">
        <ele>644.3</ele>
        <time>2021-12-18T13:18:04.000Z</time>
      </trkpt>
      <trkpt lat="43.46105" lon="2.1868">
        <ele>644.8</ele>
        <time>2021-12-18T13:18:07.000Z</time>
      </trkpt>
      <trkpt lat="43.46096" lon="2.1868">
        <ele>645.4</ele>
        <time>2021-12-18T13:18:10.000Z</time>
      </trkpt>
      <trkpt lat="43.46086" lon="2.18682">
        <ele>646.1</ele>
        <time>2021-12-18T13:18:13.000Z</time>
      </trkpt>
      <trkpt lat="43.46077" lon="2.18686">
        <ele>646.7</ele>
        <time>2021-12-18T13:18:16.000Z</time>
      </trkpt>
      <trkpt lat="43.46065" lon="2.18689">
        <ele>647.3</ele>
        <time>2021-12-18T13:18:19.000Z</time>
      </trkpt>
      <trkpt lat="43.46056" lon="2.18698">
        <ele>647.9</ele>
        <time>2021-12-18T13:18:22.000Z</time>
      </trkpt>
      <trkpt lat="43.4605" lon="2.18712">
        <ele>648.4</ele>
        <time>2021-12-18T13:18:26.000Z</time>
      </trkpt>
      <trkpt lat="43.46046" lon="2.18727">
        <ele>648.5</ele>
        <time>2021-12-18T13:18:29.000Z</time>
      </trkpt>
      <trkpt lat="43.46045" lon="2.18742">
        <ele>648.2</ele>
        <time>2021-12-18T13:18:32.000Z</time>
      </trkpt>
      <trkpt lat="43.46047" lon="2.18754">
        <ele>648</ele>
        <time>2021-12-18T13:18:35.000Z</time>
      </trkpt>
      <trkpt lat="43.46058" lon="2.1876">
        <ele>647.8</ele>
        <time>2021-12-18T13:18:39.000Z</time>
      </trkpt>
      <trkpt lat="43.4607" lon="2.18762">
        <ele>647.9</ele>
        <time>2021-12-18T13:18:43.000Z</time>
      </trkpt>
      <trkpt lat="43.46079" lon="2.18762">
        <ele>648.2</ele>
        <time>2021-12-18T13:18:46.000Z</time>
      </trkpt>
      <trkpt lat="43.4609" lon="2.18762">
        <ele>648.4</ele>
        <time>2021-12-18T13:18:49.000Z</time>
      </trkpt>
      <trkpt lat="43.46104" lon="2.18762">
        <ele>648.6</ele>
        <time>2021-12-18T13:18:53.000Z</time>
      </trkpt>
      <trkpt lat="43.46113" lon="2.18764">
        <ele>648.9</ele>
        <time>2021-12-18T13:18:55.000Z</time>
      </trkpt>
      <trkpt lat="43.46126" lon="2.18763">
        <ele>649.1</ele>
        <time>2021-12-18T13:18:58.000Z</time>
      </trkpt>
      <trkpt lat="43.46139" lon="2.18763">
        <ele>649.1</ele>
        <time>2021-12-18T13:19:01.000Z</time>
      </trkpt>
      <trkpt lat="43.46149" lon="2.18763">
        <ele>648.9</ele>
        <time>2021-12-18T13:19:03.000Z</time>
      </trkpt>
      <trkpt lat="43.46163" lon="2.18765">
        <ele>648.7</ele>
        <time>2021-12-18T13:19:06.000Z</time>
      </trkpt>
      <trkpt lat="43.46175" lon="2.18769">
        <ele>648.6</ele>
        <time>2021-12-18T13:19:08.000Z</time>
      </trkpt>
      <trkpt lat="43.46184" lon="2.18774">
        <ele>648.5</ele>
        <time>2021-12-18T13:19:10.000Z</time>
      </trkpt>
      <trkpt lat="43.46194" lon="2.1878">
        <ele>648.5</ele>
        <time>2021-12-18T13:19:12.000Z</time>
      </trkpt>
      <trkpt lat="43.46205" lon="2.18792">
        <ele>648.5</ele>
        <time>2021-12-18T13:19:15.000Z</time>
      </trkpt>
      <trkpt lat="43.46212" lon="2.18802">
        <ele>648.4</ele>
        <time>2021-12-18T13:19:17.000Z</time>
      </trkpt>
      <trkpt lat="43.4622" lon="2.18811">
        <ele>648.3</ele>
        <time>2021-12-18T13:19:19.000Z</time>
      </trkpt>
      <trkpt lat="43.4623" lon="2.18816">
        <ele>648</ele>
        <time>2021-12-18T13:19:21.000Z</time>
      </trkpt>
      <trkpt lat="43.46241" lon="2.18818">
        <ele>647.7</ele>
        <time>2021-12-18T13:19:24.000Z</time>
      </trkpt>
      <trkpt lat="43.46254" lon="2.18819">
        <ele>647.4</ele>
        <time>2021-12-18T13:19:27.000Z</time>
      </trkpt>
      <trkpt lat="43.46264" lon="2.1882">
        <ele>647.2</ele>
        <time>2021-12-18T13:19:29.000Z</time>
      </trkpt>
      <trkpt lat="43.46273" lon="2.18818">
        <ele>647</ele>
        <time>2021-12-18T13:19:31.000Z</time>
      </trkpt>
      <trkpt lat="43.46282" lon="2.18815">
        <ele>646.9</ele>
        <time>2021-12-18T13:19:33.000Z</time>
      </trkpt>
      <trkpt lat="43.46292" lon="2.18811">
        <ele>646.7</ele>
        <time>2021-12-18T13:19:35.000Z</time>
      </trkpt>
      <trkpt lat="43.46302" lon="2.18808">
        <ele>646.7</ele>
        <time>2021-12-18T13:19:37.000Z</time>
      </trkpt>
      <trkpt lat="43.46311" lon="2.18804">
        <ele>646.7</ele>
        <time>2021-12-18T13:19:39.000Z</time>
      </trkpt>
      <trkpt lat="43.4632" lon="2.18798">
        <ele>646.7</ele>
        <time>2021-12-18T13:19:41.000Z</time>
      </trkpt>
      <trkpt lat="43.46329" lon="2.18791">
        <ele>646.8</ele>
        <time>2021-12-18T13:19:43.000Z</time>
      </trkpt>
      <trkpt lat="43.46337" lon="2.18784">
        <ele>646.7</ele>
        <time>2021-12-18T13:19:45.000Z</time>
      </trkpt>
      <trkpt lat="43.46345" lon="2.18777">
        <ele>646.7</ele>
        <time>2021-12-18T13:19:47.000Z</time>
      </trkpt>
      <trkpt lat="43.46357" lon="2.18769">
        <ele>646.7</ele>
        <time>2021-12-18T13:19:50.000Z</time>
      </trkpt>
      <trkpt lat="43.46368" lon="2.18764">
        <ele>646.7</ele>
        <time>2021-12-18T13:19:53.000Z</time>
      </trkpt>
      <trkpt lat="43.46379" lon="2.18764">
        <ele>646.8</ele>
        <time>2021-12-18T13:19:56.000Z</time>
      </trkpt>
      <trkpt lat="43.46389" lon="2.18767">
        <ele>646.9</ele>
        <time>2021-12-18T13:19:58.000Z</time>
      </trkpt>
      <trkpt lat="43.46401" lon="2.18771">
        <ele>647.3</ele>
        <time>2021-12-18T13:20:01.000Z</time>
      </trkpt>
      <trkpt lat="43.46413" lon="2.18778">
        <ele>647.9</ele>
        <time>2021-12-18T13:20:04.000Z</time>
      </trkpt>
      <trkpt lat="43.46424" lon="2.18783">
        <ele>648.6</ele>
        <time>2021-12-18T13:20:07.000Z</time>
      </trkpt>
      <trkpt lat="43.46436" lon="2.18788">
        <ele>649.4</ele>
        <time>2021-12-18T13:20:10.000Z</time>
      </trkpt>
      <trkpt lat="43.46446" lon="2.18793">
        <ele>650.3</ele>
        <time>2021-12-18T13:20:13.000Z</time>
      </trkpt>
      <trkpt lat="43.46458" lon="2.18797">
        <ele>651</ele>
        <time>2021-12-18T13:20:16.000Z</time>
      </trkpt>
      <trkpt lat="43.46471" lon="2.18801">
        <ele>651.7</ele>
        <time>2021-12-18T13:20:19.000Z</time>
      </trkpt>
      <trkpt lat="43.4648" lon="2.18804">
        <ele>652</ele>
        <time>2021-12-18T13:20:21.000Z</time>
      </trkpt>
      <trkpt lat="43.46489" lon="2.18809">
        <ele>652.4</ele>
        <time>2021-12-18T13:20:23.000Z</time>
      </trkpt>
      <trkpt lat="43.465" lon="2.18819">
        <ele>652.8</ele>
        <time>2021-12-18T13:20:26.000Z</time>
      </trkpt>
      <trkpt lat="43.46509" lon="2.18831">
        <ele>653.2</ele>
        <time>2021-12-18T13:20:29.000Z</time>
      </trkpt>
      <trkpt lat="43.46516" lon="2.18846">
        <ele>653.5</ele>
        <time>2021-12-18T13:20:32.000Z</time>
      </trkpt>
      <trkpt lat="43.4652" lon="2.18862">
        <ele>653.8</ele>
        <time>2021-12-18T13:20:35.000Z</time>
      </trkpt>
      <trkpt lat="43.4652" lon="2.18878">
        <ele>654</ele>
        <time>2021-12-18T13:20:38.000Z</time>
      </trkpt>
      <trkpt lat="43.46519" lon="2.18894">
        <ele>654.2</ele>
        <time>2021-12-18T13:20:41.000Z</time>
      </trkpt>
      <trkpt lat="43.46518" lon="2.1891">
        <ele>654.7</ele>
        <time>2021-12-18T13:20:44.000Z</time>
      </trkpt>
      <trkpt lat="43.46516" lon="2.18923">
        <ele>655.2</ele>
        <time>2021-12-18T13:20:47.000Z</time>
      </trkpt>
      <trkpt lat="43.46513" lon="2.18936">
        <ele>655.9</ele>
        <time>2021-12-18T13:20:50.000Z</time>
      </trkpt>
      <trkpt lat="43.46513" lon="2.18951">
        <ele>657.1</ele>
        <time>2021-12-18T13:20:54.000Z</time>
      </trkpt>
      <trkpt lat="43.46511" lon="2.18967">
        <ele>658</ele>
        <time>2021-12-18T13:20:58.000Z</time>
      </trkpt>
      <trkpt lat="43.4651" lon="2.18983">
        <ele>658.8</ele>
        <time>2021-12-18T13:21:02.000Z</time>
      </trkpt>
      <trkpt lat="43.46508" lon="2.18996">
        <ele>659.5</ele>
        <time>2021-12-18T13:21:06.000Z</time>
      </trkpt>
      <trkpt lat="43.46512" lon="2.19007">
        <ele>660.2</ele>
        <time>2021-12-18T13:22:38.000Z</time>
      </trkpt>
      <trkpt lat="43.46503" lon="2.19008">
        <ele>661</ele>
        <time>2021-12-18T13:23:44.000Z</time>
      </trkpt>
      <trkpt lat="43.46493" lon="2.19009">
        <ele>661.6</ele>
        <time>2021-12-18T13:23:49.000Z</time>
      </trkpt>
      <trkpt lat="43.46482" lon="2.19014">
        <ele>662.5</ele>
        <time>2021-12-18T13:23:55.000Z</time>
      </trkpt>
      <trkpt lat="43.46472" lon="2.19016">
        <ele>663.2</ele>
        <time>2021-12-18T13:23:59.000Z</time>
      </trkpt>
      <trkpt lat="43.46462" lon="2.1902">
        <ele>664.1</ele>
        <time>2021-12-18T13:24:04.000Z</time>
      </trkpt>
      <trkpt lat="43.46452" lon="2.19024">
        <ele>665.1</ele>
        <time>2021-12-18T13:24:09.000Z</time>
      </trkpt>
      <trkpt lat="43.46443" lon="2.19028">
        <ele>665.8</ele>
        <time>2021-12-18T13:24:12.000Z</time>
      </trkpt>
      <trkpt lat="43.46434" lon="2.19031">
        <ele>666.6</ele>
        <time>2021-12-18T13:24:16.000Z</time>
      </trkpt>
      <trkpt lat="43.46425" lon="2.19036">
        <ele>667.3</ele>
        <time>2021-12-18T13:24:19.000Z</time>
      </trkpt>
      <trkpt lat="43.46415" lon="2.1904">
        <ele>668.3</ele>
        <time>2021-12-18T13:24:23.000Z</time>
      </trkpt>
      <trkpt lat="43.46403" lon="2.19042">
        <ele>669.4</ele>
        <time>2021-12-18T13:24:27.000Z</time>
      </trkpt>
      <trkpt lat="43.46394" lon="2.19044">
        <ele>670.5</ele>
        <time>2021-12-18T13:24:31.000Z</time>
      </trkpt>
      <trkpt lat="43.46385" lon="2.19047">
        <ele>672</ele>
        <time>2021-12-18T13:24:35.000Z</time>
      </trkpt>
      <trkpt lat="43.46375" lon="2.19049">
        <ele>673.5</ele>
        <time>2021-12-18T13:24:39.000Z</time>
      </trkpt>
      <trkpt lat="43.46366" lon="2.19053">
        <ele>675.3</ele>
        <time>2021-12-18T13:24:44.000Z</time>
      </trkpt>
      <trkpt lat="43.46357" lon="2.19055">
        <ele>677.2</ele>
        <time>2021-12-18T13:24:49.000Z</time>
      </trkpt>
      <trkpt lat="43.46347" lon="2.1906">
        <ele>678.9</ele>
        <time>2021-12-18T13:24:54.000Z</time>
      </trkpt>
      <trkpt lat="43.46357" lon="2.19055">
        <ele>677.2</ele>
        <time>2021-12-18T13:24:49.000Z</time>
      </trkpt>
      <trkpt lat="43.46347" lon="2.1906">
        <ele>678.9</ele>
        <time>2021-12-18T13:24:54.000Z</time>
      </trkpt>
      <trkpt lat="43.46338" lon="2.19065">
        <ele>680.1</ele>
        <time>2021-12-18T13:24:58.000Z</time>
      </trkpt>
      <trkpt lat="43.46329" lon="2.1907">
        <ele>681.3</ele>
        <time>2021-12-18T13:25:02.000Z</time>
      </trkpt>
      <trkpt lat="43.46321" lon="2.19078">
        <ele>683.2</ele>
        <time>2021-12-18T13:25:07.000Z</time>
      </trkpt>
      <trkpt lat="43.46312" lon="2.19085">
        <ele>685.2</ele>
        <time>2021-12-18T13:25:12.000Z</time>
      </trkpt>
      <trkpt lat="43.46303" lon="2.19093">
        <ele>687.3</ele>
        <time>2021-12-18T13:25:17.000Z</time>
      </trkpt>
      <trkpt lat="43.46293" lon="2.19099">
        <ele>689.2</ele>
        <time>2021-12-18T13:25:22.000Z</time>
      </trkpt>
      <trkpt lat="43.46284" lon="2.19104">
        <ele>690.8</ele>
        <time>2021-12-18T13:25:27.000Z</time>
      </trkpt>
      <trkpt lat="43.46276" lon="2.1911">
        <ele>692.4</ele>
        <time>2021-12-18T13:25:32.000Z</time>
      </trkpt>
      <trkpt lat="43.46267" lon="2.19117">
        <ele>694.1</ele>
        <time>2021-12-18T13:25:38.000Z</time>
      </trkpt>
      <trkpt lat="43.46257" lon="2.19122">
        <ele>695.1</ele>
        <time>2021-12-18T13:25:42.000Z</time>
      </trkpt>
      <trkpt lat="43.46248" lon="2.19128">
        <ele>696.3</ele>
        <time>2021-12-18T13:25:46.000Z</time>
      </trkpt>
      <trkpt lat="43.4624" lon="2.19134">
        <ele>697.5</ele>
        <time>2021-12-18T13:25:50.000Z</time>
      </trkpt>
      <trkpt lat="43.4623" lon="2.19141">
        <ele>699</ele>
        <time>2021-12-18T13:25:55.000Z</time>
      </trkpt>
      <trkpt lat="43.46221" lon="2.19146">
        <ele>700.4</ele>
        <time>2021-12-18T13:25:59.000Z</time>
      </trkpt>
      <trkpt lat="43.46212" lon="2.19153">
        <ele>701.8</ele>
        <time>2021-12-18T13:26:03.000Z</time>
      </trkpt>
      <trkpt lat="43.46203" lon="2.19159">
        <ele>703.4</ele>
        <time>2021-12-18T13:26:08.000Z</time>
      </trkpt>
      <trkpt lat="43.46194" lon="2.19164">
        <ele>704.7</ele>
        <time>2021-12-18T13:26:12.000Z</time>
      </trkpt>
      <trkpt lat="43.46185" lon="2.19172">
        <ele>706.5</ele>
        <time>2021-12-18T13:26:17.000Z</time>
      </trkpt>
      <trkpt lat="43.46176" lon="2.19177">
        <ele>708</ele>
        <time>2021-12-18T13:26:21.000Z</time>
      </trkpt>
      <trkpt lat="43.46165" lon="2.19182">
        <ele>709.7</ele>
        <time>2021-12-18T13:26:26.000Z</time>
      </trkpt>
      <trkpt lat="43.46156" lon="2.19189">
        <ele>711.5</ele>
        <time>2021-12-18T13:26:31.000Z</time>
      </trkpt>
      <trkpt lat="43.46147" lon="2.19195">
        <ele>712.9</ele>
        <time>2021-12-18T13:26:35.000Z</time>
      </trkpt>
      <trkpt lat="43.46138" lon="2.19202">
        <ele>714.7</ele>
        <time>2021-12-18T13:26:40.000Z</time>
      </trkpt>
      <trkpt lat="43.46129" lon="2.19208">
        <ele>716.2</ele>
        <time>2021-12-18T13:26:45.000Z</time>
      </trkpt>
      <trkpt lat="43.4612" lon="2.19212">
        <ele>717.6</ele>
        <time>2021-12-18T13:26:49.000Z</time>
      </trkpt>
      <trkpt lat="43.46112" lon="2.19217">
        <ele>719</ele>
        <time>2021-12-18T13:26:53.000Z</time>
      </trkpt>
      <trkpt lat="43.46103" lon="2.19223">
        <ele>720.5</ele>
        <time>2021-12-18T13:26:57.000Z</time>
      </trkpt>
      <trkpt lat="43.46093" lon="2.1923">
        <ele>722.4</ele>
        <time>2021-12-18T13:27:02.000Z</time>
      </trkpt>
      <trkpt lat="43.46084" lon="2.19235">
        <ele>723.8</ele>
        <time>2021-12-18T13:27:06.000Z</time>
      </trkpt>
      <trkpt lat="43.46074" lon="2.1924">
        <ele>725.6</ele>
        <time>2021-12-18T13:27:11.000Z</time>
      </trkpt>
      <trkpt lat="43.46065" lon="2.19244">
        <ele>727.1</ele>
        <time>2021-12-18T13:27:16.000Z</time>
      </trkpt>
      <trkpt lat="43.46054" lon="2.19244">
        <ele>728.1</ele>
        <time>2021-12-18T13:27:20.000Z</time>
      </trkpt>
      <trkpt lat="43.46043" lon="2.19245">
        <ele>729</ele>
        <time>2021-12-18T13:27:24.000Z</time>
      </trkpt>
      <trkpt lat="43.46032" lon="2.19246">
        <ele>729.7</ele>
        <time>2021-12-18T13:27:28.000Z</time>
      </trkpt>
      <trkpt lat="43.46021" lon="2.19251">
        <ele>730.5</ele>
        <time>2021-12-18T13:27:32.000Z</time>
      </trkpt>
      <trkpt lat="43.46012" lon="2.19257">
        <ele>731.3</ele>
        <time>2021-12-18T13:27:36.000Z</time>
      </trkpt>
      <trkpt lat="43.46003" lon="2.19263">
        <ele>731.9</ele>
        <time>2021-12-18T13:27:40.000Z</time>
      </trkpt>
      <trkpt lat="43.45995" lon="2.1927">
        <ele>732.6</ele>
        <time>2021-12-18T13:27:44.000Z</time>
      </trkpt>
      <trkpt lat="43.45987" lon="2.19275">
        <ele>733.3</ele>
        <time>2021-12-18T13:27:49.000Z</time>
      </trkpt>
      <trkpt lat="43.45978" lon="2.19283">
        <ele>734.1</ele>
        <time>2021-12-18T13:27:54.000Z</time>
      </trkpt>
      <trkpt lat="43.45969" lon="2.1929">
        <ele>734.7</ele>
        <time>2021-12-18T13:27:58.000Z</time>
      </trkpt>
      <trkpt lat="43.45961" lon="2.193">
        <ele>735.3</ele>
        <time>2021-12-18T13:28:02.000Z</time>
      </trkpt>
      <trkpt lat="43.45953" lon="2.19307">
        <ele>735.7</ele>
        <time>2021-12-18T13:28:06.000Z</time>
      </trkpt>
      <trkpt lat="43.45942" lon="2.19312">
        <ele>736.1</ele>
        <time>2021-12-18T13:28:12.000Z</time>
      </trkpt>
      <trkpt lat="43.45932" lon="2.19313">
        <ele>736.1</ele>
        <time>2021-12-18T13:28:14.000Z</time>
      </trkpt>
      <trkpt lat="43.45919" lon="2.19314">
        <ele>736.2</ele>
        <time>2021-12-18T13:28:17.000Z</time>
      </trkpt>
      <trkpt lat="43.4591" lon="2.19314">
        <ele>736.2</ele>
        <time>2021-12-18T13:28:20.000Z</time>
      </trkpt>
      <trkpt lat="43.45901" lon="2.19316">
        <ele>736.1</ele>
        <time>2021-12-18T13:28:23.000Z</time>
      </trkpt>
      <trkpt lat="43.45892" lon="2.19316">
        <ele>736.1</ele>
        <time>2021-12-18T13:28:26.000Z</time>
      </trkpt>
      <trkpt lat="43.45882" lon="2.19316">
        <ele>736.2</ele>
        <time>2021-12-18T13:28:29.000Z</time>
      </trkpt>
      <trkpt lat="43.45871" lon="2.19316">
        <ele>736.8</ele>
        <time>2021-12-18T13:28:34.000Z</time>
      </trkpt>
      <trkpt lat="43.45861" lon="2.19315">
        <ele>737.3</ele>
        <time>2021-12-18T13:28:37.000Z</time>
      </trkpt>
      <trkpt lat="43.4585" lon="2.19315">
        <ele>738</ele>
        <time>2021-12-18T13:28:40.000Z</time>
      </trkpt>
      <trkpt lat="43.45841" lon="2.19315">
        <ele>738.9</ele>
        <time>2021-12-18T13:28:44.000Z</time>
      </trkpt>
      <trkpt lat="43.45829" lon="2.19314">
        <ele>739.9</ele>
        <time>2021-12-18T13:28:48.000Z</time>
      </trkpt>
      <trkpt lat="43.45817" lon="2.19314">
        <ele>740.9</ele>
        <time>2021-12-18T13:28:52.000Z</time>
      </trkpt>
      <trkpt lat="43.45806" lon="2.19313">
        <ele>741.8</ele>
        <time>2021-12-18T13:28:56.000Z</time>
      </trkpt>
      <trkpt lat="43.45795" lon="2.19313">
        <ele>742.9</ele>
        <time>2021-12-18T13:29:00.000Z</time>
      </trkpt>
      <trkpt lat="43.45784" lon="2.19312">
        <ele>743.7</ele>
        <time>2021-12-18T13:29:04.000Z</time>
      </trkpt>
      <trkpt lat="43.45773" lon="2.19312">
        <ele>744.4</ele>
        <time>2021-12-18T13:29:08.000Z</time>
      </trkpt>
      <trkpt lat="43.45762" lon="2.19312">
        <ele>744.9</ele>
        <time>2021-12-18T13:29:12.000Z</time>
      </trkpt>
      <trkpt lat="43.45751" lon="2.19312">
        <ele>745.5</ele>
        <time>2021-12-18T13:29:16.000Z</time>
      </trkpt>
      <trkpt lat="43.45742" lon="2.19311">
        <ele>745.9</ele>
        <time>2021-12-18T13:29:19.000Z</time>
      </trkpt>
      <trkpt lat="43.45731" lon="2.19311">
        <ele>746.2</ele>
        <time>2021-12-18T13:29:23.000Z</time>
      </trkpt>
      <trkpt lat="43.45719" lon="2.1931">
        <ele>746.5</ele>
        <time>2021-12-18T13:29:27.000Z</time>
      </trkpt>
      <trkpt lat="43.45708" lon="2.19311">
        <ele>747</ele>
        <time>2021-12-18T13:29:31.000Z</time>
      </trkpt>
      <trkpt lat="43.45699" lon="2.19311">
        <ele>747.6</ele>
        <time>2021-12-18T13:29:35.000Z</time>
      </trkpt>
      <trkpt lat="43.45689" lon="2.19311">
        <ele>748.1</ele>
        <time>2021-12-18T13:29:38.000Z</time>
      </trkpt>
      <trkpt lat="43.45679" lon="2.19311">
        <ele>748.5</ele>
        <time>2021-12-18T13:29:41.000Z</time>
      </trkpt>
      <trkpt lat="43.45669" lon="2.19314">
        <ele>749.1</ele>
        <time>2021-12-18T13:29:44.000Z</time>
      </trkpt>
      <trkpt lat="43.4566" lon="2.19323">
        <ele>750</ele>
        <time>2021-12-18T13:29:48.000Z</time>
      </trkpt>
      <trkpt lat="43.45654" lon="2.19336">
        <ele>751.1</ele>
        <time>2021-12-18T13:29:52.000Z</time>
      </trkpt>
      <trkpt lat="43.45649" lon="2.19349">
        <ele>752.2</ele>
        <time>2021-12-18T13:29:56.000Z</time>
      </trkpt>
      <trkpt lat="43.45643" lon="2.19362">
        <ele>753.7</ele>
        <time>2021-12-18T13:30:00.000Z</time>
      </trkpt>
      <trkpt lat="43.45643" lon="2.19374">
        <ele>754.4</ele>
        <time>2021-12-18T13:30:05.000Z</time>
      </trkpt>
      <trkpt lat="43.45649" lon="2.19384">
        <ele>754.8</ele>
        <time>2021-12-18T13:30:10.000Z</time>
      </trkpt>
      <trkpt lat="43.45657" lon="2.19392">
        <ele>754.9</ele>
        <time>2021-12-18T13:30:15.000Z</time>
      </trkpt>
      <trkpt lat="43.45667" lon="2.19398">
        <ele>755.2</ele>
        <time>2021-12-18T13:30:20.000Z</time>
      </trkpt>
      <trkpt lat="43.45677" lon="2.19402">
        <ele>755.1</ele>
        <time>2021-12-18T13:30:24.000Z</time>
      </trkpt>
      <trkpt lat="43.45689" lon="2.19405">
        <ele>753.8</ele>
        <time>2021-12-18T13:30:57.000Z</time>
      </trkpt>
      <trkpt lat="43.45698" lon="2.19407">
        <ele>753.4</ele>
        <time>2021-12-18T13:31:00.000Z</time>
      </trkpt>
      <trkpt lat="43.45711" lon="2.1941">
        <ele>752.9</ele>
        <time>2021-12-18T13:31:03.000Z</time>
      </trkpt>
      <trkpt lat="43.4572" lon="2.19411">
        <ele>752.4</ele>
        <time>2021-12-18T13:31:05.000Z</time>
      </trkpt>
      <trkpt lat="43.4573" lon="2.19413">
        <ele>751.8</ele>
        <time>2021-12-18T13:31:07.000Z</time>
      </trkpt>
      <trkpt lat="43.45741" lon="2.19415">
        <ele>751.3</ele>
        <time>2021-12-18T13:31:09.000Z</time>
      </trkpt>
      <trkpt lat="43.45751" lon="2.19416">
        <ele>750.6</ele>
        <time>2021-12-18T13:31:11.000Z</time>
      </trkpt>
      <trkpt lat="43.45741" lon="2.19415">
        <ele>751.3</ele>
        <time>2021-12-18T13:31:09.000Z</time>
      </trkpt>
      <trkpt lat="43.45751" lon="2.19416">
        <ele>750.6</ele>
        <time>2021-12-18T13:31:11.000Z</time>
      </trkpt>
      <trkpt lat="43.45762" lon="2.19419">
        <ele>750.1</ele>
        <time>2021-12-18T13:31:13.000Z</time>
      </trkpt>
      <trkpt lat="43.45771" lon="2.19422">
        <ele>749.3</ele>
        <time>2021-12-18T13:31:15.000Z</time>
      </trkpt>
      <trkpt lat="43.4578" lon="2.19426">
        <ele>748.3</ele>
        <time>2021-12-18T13:31:18.000Z</time>
      </trkpt>
      <trkpt lat="43.45789" lon="2.1943">
        <ele>747.3</ele>
        <time>2021-12-18T13:31:22.000Z</time>
      </trkpt>
      <trkpt lat="43.45799" lon="2.19433">
        <ele>746.8</ele>
        <time>2021-12-18T13:31:26.000Z</time>
      </trkpt>
      <trkpt lat="43.45809" lon="2.19436">
        <ele>746.5</ele>
        <time>2021-12-18T13:31:30.000Z</time>
      </trkpt>
      <trkpt lat="43.4582" lon="2.1944">
        <ele>746.5</ele>
        <time>2021-12-18T13:31:34.000Z</time>
      </trkpt>
      <trkpt lat="43.45831" lon="2.19444">
        <ele>746.6</ele>
        <time>2021-12-18T13:31:38.000Z</time>
      </trkpt>
      <trkpt lat="43.4584" lon="2.19447">
        <ele>746.6</ele>
        <time>2021-12-18T13:31:41.000Z</time>
      </trkpt>
      <trkpt lat="43.4585" lon="2.19449">
        <ele>746.6</ele>
        <time>2021-12-18T13:31:45.000Z</time>
      </trkpt>
      <trkpt lat="43.4586" lon="2.19452">
        <ele>746.6</ele>
        <time>2021-12-18T13:31:49.000Z</time>
      </trkpt>
      <trkpt lat="43.4587" lon="2.19453">
        <ele>746.6</ele>
        <time>2021-12-18T13:31:53.000Z</time>
      </trkpt>
      <trkpt lat="43.4588" lon="2.19455">
        <ele>746.6</ele>
        <time>2021-12-18T13:31:57.000Z</time>
      </trkpt>
      <trkpt lat="43.45891" lon="2.19459">
        <ele>746.6</ele>
        <time>2021-12-18T13:32:01.000Z</time>
      </trkpt>
      <trkpt lat="43.459" lon="2.19462">
        <ele>746.5</ele>
        <time>2021-12-18T13:32:04.000Z</time>
      </trkpt>
      <trkpt lat="43.45911" lon="2.19465">
        <ele>746.1</ele>
        <time>2021-12-18T13:32:07.000Z</time>
      </trkpt>
      <trkpt lat="43.45923" lon="2.19468">
        <ele>745.7</ele>
        <time>2021-12-18T13:32:10.000Z</time>
      </trkpt>
      <trkpt lat="43.45934" lon="2.19473">
        <ele>745.2</ele>
        <time>2021-12-18T13:32:13.000Z</time>
      </trkpt>
      <trkpt lat="43.45945" lon="2.19479">
        <ele>744.7</ele>
        <time>2021-12-18T13:32:16.000Z</time>
      </trkpt>
      <trkpt lat="43.45958" lon="2.19485">
        <ele>744.1</ele>
        <time>2021-12-18T13:32:19.000Z</time>
      </trkpt>
      <trkpt lat="43.45967" lon="2.1949">
        <ele>743.7</ele>
        <time>2021-12-18T13:32:21.000Z</time>
      </trkpt>
      <trkpt lat="43.45976" lon="2.19495">
        <ele>743.3</ele>
        <time>2021-12-18T13:32:23.000Z</time>
      </trkpt>
      <trkpt lat="43.45985" lon="2.19498">
        <ele>742.8</ele>
        <time>2021-12-18T13:32:25.000Z</time>
      </trkpt>
      <trkpt lat="43.45996" lon="2.195">
        <ele>741.8</ele>
        <time>2021-12-18T13:32:28.000Z</time>
      </trkpt>
      <trkpt lat="43.46008" lon="2.19503">
        <ele>740.8</ele>
        <time>2021-12-18T13:32:31.000Z</time>
      </trkpt>
      <trkpt lat="43.46019" lon="2.1951">
        <ele>739.7</ele>
        <time>2021-12-18T13:32:34.000Z</time>
      </trkpt>
      <trkpt lat="43.46027" lon="2.19519">
        <ele>738.3</ele>
        <time>2021-12-18T13:32:37.000Z</time>
      </trkpt>
      <trkpt lat="43.46035" lon="2.19532">
        <ele>737.4</ele>
        <time>2021-12-18T13:32:40.000Z</time>
      </trkpt>
      <trkpt lat="43.46042" lon="2.19544">
        <ele>736.7</ele>
        <time>2021-12-18T13:32:43.000Z</time>
      </trkpt>
      <trkpt lat="43.46048" lon="2.19554">
        <ele>736.1</ele>
        <time>2021-12-18T13:32:46.000Z</time>
      </trkpt>
      <trkpt lat="43.46054" lon="2.19564">
        <ele>735.8</ele>
        <time>2021-12-18T13:32:49.000Z</time>
      </trkpt>
      <trkpt lat="43.46062" lon="2.19574">
        <ele>735.4</ele>
        <time>2021-12-18T13:32:52.000Z</time>
      </trkpt>
      <trkpt lat="43.46073" lon="2.19585">
        <ele>734.7</ele>
        <time>2021-12-18T13:32:55.000Z</time>
      </trkpt>
      <trkpt lat="43.4608" lon="2.19592">
        <ele>734.3</ele>
        <time>2021-12-18T13:32:57.000Z</time>
      </trkpt>
      <trkpt lat="43.46089" lon="2.196">
        <ele>733.9</ele>
        <time>2021-12-18T13:32:59.000Z</time>
      </trkpt>
      <trkpt lat="43.46097" lon="2.19608">
        <ele>733.4</ele>
        <time>2021-12-18T13:33:01.000Z</time>
      </trkpt>
      <trkpt lat="43.46106" lon="2.19617">
        <ele>733.1</ele>
        <time>2021-12-18T13:33:03.000Z</time>
      </trkpt>
      <trkpt lat="43.46114" lon="2.19625">
        <ele>732.6</ele>
        <time>2021-12-18T13:33:05.000Z</time>
      </trkpt>
      <trkpt lat="43.46122" lon="2.19633">
        <ele>732.2</ele>
        <time>2021-12-18T13:33:07.000Z</time>
      </trkpt>
      <trkpt lat="43.4613" lon="2.19641">
        <ele>731.7</ele>
        <time>2021-12-18T13:33:09.000Z</time>
      </trkpt>
      <trkpt lat="43.46137" lon="2.19648">
        <ele>731.3</ele>
        <time>2021-12-18T13:33:11.000Z</time>
      </trkpt>
      <trkpt lat="43.46144" lon="2.19656">
        <ele>731</ele>
        <time>2021-12-18T13:33:13.000Z</time>
      </trkpt>
      <trkpt lat="43.46152" lon="2.19663">
        <ele>730.6</ele>
        <time>2021-12-18T13:33:15.000Z</time>
      </trkpt>
      <trkpt lat="43.46162" lon="2.19674">
        <ele>730.3</ele>
        <time>2021-12-18T13:33:18.000Z</time>
      </trkpt>
      <trkpt lat="43.4617" lon="2.19685">
        <ele>730.1</ele>
        <time>2021-12-18T13:33:21.000Z</time>
      </trkpt>
      <trkpt lat="43.46176" lon="2.19697">
        <ele>729.9</ele>
        <time>2021-12-18T13:33:24.000Z</time>
      </trkpt>
      <trkpt lat="43.4618" lon="2.19709">
        <ele>729.7</ele>
        <time>2021-12-18T13:33:27.000Z</time>
      </trkpt>
      <trkpt lat="43.46185" lon="2.1972">
        <ele>729.5</ele>
        <time>2021-12-18T13:33:30.000Z</time>
      </trkpt>
      <trkpt lat="43.46192" lon="2.19733">
        <ele>729.4</ele>
        <time>2021-12-18T13:33:33.000Z</time>
      </trkpt>
      <trkpt lat="43.46199" lon="2.19745">
        <ele>729.2</ele>
        <time>2021-12-18T13:33:36.000Z</time>
      </trkpt>
      <trkpt lat="43.46207" lon="2.19757">
        <ele>728.7</ele>
        <time>2021-12-18T13:33:39.000Z</time>
      </trkpt>
      <trkpt lat="43.46216" lon="2.19771">
        <ele>728.2</ele>
        <time>2021-12-18T13:33:42.000Z</time>
      </trkpt>
      <trkpt lat="43.46224" lon="2.19783">
        <ele>727.8</ele>
        <time>2021-12-18T13:33:45.000Z</time>
      </trkpt>
      <trkpt lat="43.4623" lon="2.19793">
        <ele>727.4</ele>
        <time>2021-12-18T13:33:48.000Z</time>
      </trkpt>
      <trkpt lat="43.46238" lon="2.19803">
        <ele>726.4</ele>
        <time>2021-12-18T13:33:52.000Z</time>
      </trkpt>
      <trkpt lat="43.46245" lon="2.19814">
        <ele>725.7</ele>
        <time>2021-12-18T13:33:56.000Z</time>
      </trkpt>
      <trkpt lat="43.46251" lon="2.19824">
        <ele>724.8</ele>
        <time>2021-12-18T13:33:59.000Z</time>
      </trkpt>
      <trkpt lat="43.46259" lon="2.19835">
        <ele>723.5</ele>
        <time>2021-12-18T13:34:03.000Z</time>
      </trkpt>
      <trkpt lat="43.46267" lon="2.19844">
        <ele>722.7</ele>
        <time>2021-12-18T13:34:06.000Z</time>
      </trkpt>
      <trkpt lat="43.46277" lon="2.19851">
        <ele>721.8</ele>
        <time>2021-12-18T13:34:09.000Z</time>
      </trkpt>
      <trkpt lat="43.46288" lon="2.19856">
        <ele>720.6</ele>
        <time>2021-12-18T13:34:12.000Z</time>
      </trkpt>
      <trkpt lat="43.46297" lon="2.19858">
        <ele>719.3</ele>
        <time>2021-12-18T13:34:15.000Z</time>
      </trkpt>
      <trkpt lat="43.46308" lon="2.19856">
        <ele>717.2</ele>
        <time>2021-12-18T13:34:20.000Z</time>
      </trkpt>
      <trkpt lat="43.46318" lon="2.19855">
        <ele>716.3</ele>
        <time>2021-12-18T13:34:23.000Z</time>
      </trkpt>
      <trkpt lat="43.46328" lon="2.19852">
        <ele>714.7</ele>
        <time>2021-12-18T13:34:26.000Z</time>
      </trkpt>
      <trkpt lat="43.46337" lon="2.1985">
        <ele>712.8</ele>
        <time>2021-12-18T13:34:30.000Z</time>
      </trkpt>
      <trkpt lat="43.46348" lon="2.1985">
        <ele>711.1</ele>
        <time>2021-12-18T13:34:34.000Z</time>
      </trkpt>
      <trkpt lat="43.4636" lon="2.19852">
        <ele>709.6</ele>
        <time>2021-12-18T13:34:38.000Z</time>
      </trkpt>
      <trkpt lat="43.4637" lon="2.19854">
        <ele>708.4</ele>
        <time>2021-12-18T13:34:41.000Z</time>
      </trkpt>
      <trkpt lat="43.46382" lon="2.19853">
        <ele>707.2</ele>
        <time>2021-12-18T13:34:44.000Z</time>
      </trkpt>
      <trkpt lat="43.46391" lon="2.19854">
        <ele>706.4</ele>
        <time>2021-12-18T13:34:46.000Z</time>
      </trkpt>
      <trkpt lat="43.46401" lon="2.19856">
        <ele>705.6</ele>
        <time>2021-12-18T13:34:48.000Z</time>
      </trkpt>
      <trkpt lat="43.46412" lon="2.19858">
        <ele>704.8</ele>
        <time>2021-12-18T13:34:50.000Z</time>
      </trkpt>
      <trkpt lat="43.46425" lon="2.19861">
        <ele>704.1</ele>
        <time>2021-12-18T13:34:52.000Z</time>
      </trkpt>
      <trkpt lat="43.46437" lon="2.19863">
        <ele>703.3</ele>
        <time>2021-12-18T13:34:54.000Z</time>
      </trkpt>
      <trkpt lat="43.46448" lon="2.19864">
        <ele>702.8</ele>
        <time>2021-12-18T13:34:56.000Z</time>
      </trkpt>
      <trkpt lat="43.46458" lon="2.19864">
        <ele>702.4</ele>
        <time>2021-12-18T13:34:58.000Z</time>
      </trkpt>
      <trkpt lat="43.46469" lon="2.19863">
        <ele>701.9</ele>
        <time>2021-12-18T13:35:01.000Z</time>
      </trkpt>
      <trkpt lat="43.4648" lon="2.19861">
        <ele>701.4</ele>
        <time>2021-12-18T13:35:04.000Z</time>
      </trkpt>
      <trkpt lat="43.46491" lon="2.1986">
        <ele>701</ele>
        <time>2021-12-18T13:35:07.000Z</time>
      </trkpt>
      <trkpt lat="43.46501" lon="2.19856">
        <ele>700.6</ele>
        <time>2021-12-18T13:35:10.000Z</time>
      </trkpt>
      <trkpt lat="43.46511" lon="2.19851">
        <ele>700</ele>
        <time>2021-12-18T13:35:13.000Z</time>
      </trkpt>
      <trkpt lat="43.46524" lon="2.19844">
        <ele>699.4</ele>
        <time>2021-12-18T13:35:16.000Z</time>
      </trkpt>
      <trkpt lat="43.46524" lon="2.19844">
        <ele>699.4</ele>
        <time>2021-12-18T13:35:16.000Z</time>
      </trkpt>
      <trkpt lat="43.46532" lon="2.19838">
        <ele>698.8</ele>
        <time>2021-12-18T13:35:18.000Z</time>
      </trkpt>
      <trkpt lat="43.46541" lon="2.1983">
        <ele>698.2</ele>
        <time>2021-12-18T13:35:20.000Z</time>
      </trkpt>
      <trkpt lat="43.4655" lon="2.19823">
        <ele>697.5</ele>
        <time>2021-12-18T13:35:22.000Z</time>
      </trkpt>
      <trkpt lat="43.46557" lon="2.19815">
        <ele>697</ele>
        <time>2021-12-18T13:35:24.000Z</time>
      </trkpt>
      <trkpt lat="43.46566" lon="2.19808">
        <ele>696.4</ele>
        <time>2021-12-18T13:35:26.000Z</time>
      </trkpt>
      <trkpt lat="43.46574" lon="2.198">
        <ele>695.8</ele>
        <time>2021-12-18T13:35:28.000Z</time>
      </trkpt>
      <trkpt lat="43.46583" lon="2.19792">
        <ele>695.3</ele>
        <time>2021-12-18T13:35:30.000Z</time>
      </trkpt>
      <trkpt lat="43.46592" lon="2.19785">
        <ele>695</ele>
        <time>2021-12-18T13:35:32.000Z</time>
      </trkpt>
      <trkpt lat="43.466" lon="2.19779">
        <ele>694.5</ele>
        <time>2021-12-18T13:35:34.000Z</time>
      </trkpt>
      <trkpt lat="43.46609" lon="2.19771">
        <ele>693.9</ele>
        <time>2021-12-18T13:35:36.000Z</time>
      </trkpt>
      <trkpt lat="43.46618" lon="2.19765">
        <ele>693.4</ele>
        <time>2021-12-18T13:35:38.000Z</time>
      </trkpt>
      <trkpt lat="43.46626" lon="2.19758">
        <ele>692.7</ele>
        <time>2021-12-18T13:35:40.000Z</time>
      </trkpt>
      <trkpt lat="43.46635" lon="2.1975">
        <ele>691.6</ele>
        <time>2021-12-18T13:35:43.000Z</time>
      </trkpt>
      <trkpt lat="43.46644" lon="2.19743">
        <ele>690.8</ele>
        <time>2021-12-18T13:35:46.000Z</time>
      </trkpt>
      <trkpt lat="43.46651" lon="2.19735">
        <ele>688.5</ele>
        <time>2021-12-18T13:35:57.000Z</time>
      </trkpt>
      <trkpt lat="43.46661" lon="2.19726">
        <ele>687.9</ele>
        <time>2021-12-18T13:36:24.000Z</time>
      </trkpt>
      <trkpt lat="43.46668" lon="2.19714">
        <ele>687.4</ele>
        <time>2021-12-18T13:36:27.000Z</time>
      </trkpt>
      <trkpt lat="43.46675" lon="2.19705">
        <ele>686.4</ele>
        <time>2021-12-18T13:36:30.000Z</time>
      </trkpt>
      <trkpt lat="43.46681" lon="2.19694">
        <ele>684.9</ele>
        <time>2021-12-18T13:36:35.000Z</time>
      </trkpt>
      <trkpt lat="43.46688" lon="2.19682">
        <ele>683.6</ele>
        <time>2021-12-18T13:36:39.000Z</time>
      </trkpt>
      <trkpt lat="43.46692" lon="2.19669">
        <ele>682.7</ele>
        <time>2021-12-18T13:36:42.000Z</time>
      </trkpt>
      <trkpt lat="43.46698" lon="2.19657">
        <ele>681.2</ele>
        <time>2021-12-18T13:36:46.000Z</time>
      </trkpt>
      <trkpt lat="43.46702" lon="2.19645">
        <ele>679.2</ele>
        <time>2021-12-18T13:37:07.000Z</time>
      </trkpt>
      <trkpt lat="43.46711" lon="2.19656">
        <ele>678.5</ele>
        <time>2021-12-18T13:37:26.000Z</time>
      </trkpt>
      <trkpt lat="43.46722" lon="2.19656">
        <ele>678</ele>
        <time>2021-12-18T13:37:30.000Z</time>
      </trkpt>
      <trkpt lat="43.46729" lon="2.19649">
        <ele>677.1</ele>
        <time>2021-12-18T13:37:34.000Z</time>
      </trkpt>
      <trkpt lat="43.46739" lon="2.19641">
        <ele>675.8</ele>
        <time>2021-12-18T13:37:38.000Z</time>
      </trkpt>
      <trkpt lat="43.46747" lon="2.1963">
        <ele>674.6</ele>
        <time>2021-12-18T13:37:42.000Z</time>
      </trkpt>
      <trkpt lat="43.46753" lon="2.19621">
        <ele>673.5</ele>
        <time>2021-12-18T13:37:45.000Z</time>
      </trkpt>
      <trkpt lat="43.46759" lon="2.19607">
        <ele>672.4</ele>
        <time>2021-12-18T13:37:48.000Z</time>
      </trkpt>
      <trkpt lat="43.46758" lon="2.19591">
        <ele>671.4</ele>
        <time>2021-12-18T13:37:51.000Z</time>
      </trkpt>
      <trkpt lat="43.46757" lon="2.19577">
        <ele>670.5</ele>
        <time>2021-12-18T13:37:54.000Z</time>
      </trkpt>
      <trkpt lat="43.46761" lon="2.19561">
        <ele>669.7</ele>
        <time>2021-12-18T13:37:57.000Z</time>
      </trkpt>
      <trkpt lat="43.46767" lon="2.19545">
        <ele>668.7</ele>
        <time>2021-12-18T13:38:01.000Z</time>
      </trkpt>
      <trkpt lat="43.46772" lon="2.19533">
        <ele>668.2</ele>
        <time>2021-12-18T13:38:04.000Z</time>
      </trkpt>
      <trkpt lat="43.46776" lon="2.19521">
        <ele>667.7</ele>
        <time>2021-12-18T13:38:07.000Z</time>
      </trkpt>
      <trkpt lat="43.46783" lon="2.19507">
        <ele>667</ele>
        <time>2021-12-18T13:38:11.000Z</time>
      </trkpt>
      <trkpt lat="43.4679" lon="2.19493">
        <ele>666.1</ele>
        <time>2021-12-18T13:38:15.000Z</time>
      </trkpt>
      <trkpt lat="43.46794" lon="2.19481">
        <ele>665.5</ele>
        <time>2021-12-18T13:38:19.000Z</time>
      </trkpt>
      <trkpt lat="43.46801" lon="2.19471">
        <ele>665.2</ele>
        <time>2021-12-18T13:38:22.000Z</time>
      </trkpt>
      <trkpt lat="43.46807" lon="2.1946">
        <ele>664.8</ele>
        <time>2021-12-18T13:38:25.000Z</time>
      </trkpt>
      <trkpt lat="43.46813" lon="2.19449">
        <ele>664.3</ele>
        <time>2021-12-18T13:38:28.000Z</time>
      </trkpt>
      <trkpt lat="43.46819" lon="2.19433">
        <ele>663.7</ele>
        <time>2021-12-18T13:38:31.000Z</time>
      </trkpt>
      <trkpt lat="43.46825" lon="2.19422">
        <ele>663</ele>
        <time>2021-12-18T13:38:33.000Z</time>
      </trkpt>
      <trkpt lat="43.4683" lon="2.19408">
        <ele>662.4</ele>
        <time>2021-12-18T13:38:36.000Z</time>
      </trkpt>
      <trkpt lat="43.46835" lon="2.19393">
        <ele>661.5</ele>
        <time>2021-12-18T13:38:39.000Z</time>
      </trkpt>
      <trkpt lat="43.46843" lon="2.19383">
        <ele>660.9</ele>
        <time>2021-12-18T13:38:41.000Z</time>
      </trkpt>
      <trkpt lat="43.46854" lon="2.19373">
        <ele>660.3</ele>
        <time>2021-12-18T13:38:43.000Z</time>
      </trkpt>
      <trkpt lat="43.46862" lon="2.19364">
        <ele>659.6</ele>
        <time>2021-12-18T13:38:45.000Z</time>
      </trkpt>
      <trkpt lat="43.4687" lon="2.19355">
        <ele>658.9</ele>
        <time>2021-12-18T13:38:47.000Z</time>
      </trkpt>
      <trkpt lat="43.46878" lon="2.19346">
        <ele>658.2</ele>
        <time>2021-12-18T13:38:49.000Z</time>
      </trkpt>
      <trkpt lat="43.46886" lon="2.19338">
        <ele>657.5</ele>
        <time>2021-12-18T13:38:51.000Z</time>
      </trkpt>
      <trkpt lat="43.46897" lon="2.19331">
        <ele>656.5</ele>
        <time>2021-12-18T13:38:54.000Z</time>
      </trkpt>
      <trkpt lat="43.46906" lon="2.19325">
        <ele>655.7</ele>
        <time>2021-12-18T13:38:57.000Z</time>
      </trkpt>
      <trkpt lat="43.46916" lon="2.1932">
        <ele>654.2</ele>
        <time>2021-12-18T13:39:02.000Z</time>
      </trkpt>
      <trkpt lat="43.46927" lon="2.19314">
        <ele>653.2</ele>
        <time>2021-12-18T13:39:06.000Z</time>
      </trkpt>
      <trkpt lat="43.4694" lon="2.19306">
        <ele>652.3</ele>
        <time>2021-12-18T13:39:10.000Z</time>
      </trkpt>
      <trkpt lat="43.4695" lon="2.19299">
        <ele>651.8</ele>
        <time>2021-12-18T13:39:13.000Z</time>
      </trkpt>
      <trkpt lat="43.46959" lon="2.19295">
        <ele>651.4</ele>
        <time>2021-12-18T13:39:15.000Z</time>
      </trkpt>
      <trkpt lat="43.46968" lon="2.19289">
        <ele>650.9</ele>
        <time>2021-12-18T13:39:17.000Z</time>
      </trkpt>
      <trkpt lat="43.46977" lon="2.19284">
        <ele>650.4</ele>
        <time>2021-12-18T13:39:19.000Z</time>
      </trkpt>
      <trkpt lat="43.46987" lon="2.19279">
        <ele>649.7</ele>
        <time>2021-12-18T13:39:21.000Z</time>
      </trkpt>
      <trkpt lat="43.46992" lon="2.19268">
        <ele>648.7</ele>
        <time>2021-12-18T13:39:25.000Z</time>
      </trkpt>
      <trkpt lat="43.46998" lon="2.19256">
        <ele>647.7</ele>
        <time>2021-12-18T13:39:29.000Z</time>
      </trkpt>
      <trkpt lat="43.46999" lon="2.19244">
        <ele>647</ele>
        <time>2021-12-18T13:39:32.000Z</time>
      </trkpt>
      <trkpt lat="43.47" lon="2.19229">
        <ele>646.3</ele>
        <time>2021-12-18T13:39:36.000Z</time>
      </trkpt>
      <trkpt lat="43.47005" lon="2.19217">
        <ele>645.8</ele>
        <time>2021-12-18T13:39:39.000Z</time>
      </trkpt>
      <trkpt lat="43.47012" lon="2.19207">
        <ele>645.2</ele>
        <time>2021-12-18T13:39:42.000Z</time>
      </trkpt>
      <trkpt lat="43.47017" lon="2.19196">
        <ele>644.3</ele>
        <time>2021-12-18T13:39:46.000Z</time>
      </trkpt>
      <trkpt lat="43.47024" lon="2.19204">
        <ele>642.5</ele>
        <time>2021-12-18T13:39:58.000Z</time>
      </trkpt>
      <trkpt lat="43.47024" lon="2.19217">
        <ele>642.3</ele>
        <time>2021-12-18T13:40:03.000Z</time>
      </trkpt>
      <trkpt lat="43.47026" lon="2.1923">
        <ele>642.5</ele>
        <time>2021-12-18T13:40:09.000Z</time>
      </trkpt>
      <trkpt lat="43.47025" lon="2.19243">
        <ele>642.7</ele>
        <time>2021-12-18T13:40:15.000Z</time>
      </trkpt>
      <trkpt lat="43.47018" lon="2.19256">
        <ele>642.7</ele>
        <time>2021-12-18T13:40:20.000Z</time>
      </trkpt>
      <trkpt lat="43.47013" lon="2.19268">
        <ele>642.7</ele>
        <time>2021-12-18T13:40:24.000Z</time>
      </trkpt>
      <trkpt lat="43.47007" lon="2.19279">
        <ele>642.6</ele>
        <time>2021-12-18T13:40:29.000Z</time>
      </trkpt>
      <trkpt lat="43.47" lon="2.1929">
        <ele>642.5</ele>
        <time>2021-12-18T13:40:33.000Z</time>
      </trkpt>
      <trkpt lat="43.46992" lon="2.19299">
        <ele>642.4</ele>
        <time>2021-12-18T13:40:37.000Z</time>
      </trkpt>
      <trkpt lat="43.46983" lon="2.19306">
        <ele>642.3</ele>
        <time>2021-12-18T13:40:41.000Z</time>
      </trkpt>
      <trkpt lat="43.46976" lon="2.19315">
        <ele>642.3</ele>
        <time>2021-12-18T13:40:46.000Z</time>
      </trkpt>
      <trkpt lat="43.46968" lon="2.19325">
        <ele>642.3</ele>
        <time>2021-12-18T13:40:50.000Z</time>
      </trkpt>
      <trkpt lat="43.46961" lon="2.19335">
        <ele>642.2</ele>
        <time>2021-12-18T13:40:53.000Z</time>
      </trkpt>
      <trkpt lat="43.46953" lon="2.19344">
        <ele>642</ele>
        <time>2021-12-18T13:40:57.000Z</time>
      </trkpt>
      <trkpt lat="43.46945" lon="2.19351">
        <ele>641.7</ele>
        <time>2021-12-18T13:41:00.000Z</time>
      </trkpt>
      <trkpt lat="43.46939" lon="2.19361">
        <ele>641.5</ele>
        <time>2021-12-18T13:41:03.000Z</time>
      </trkpt>
      <trkpt lat="43.46937" lon="2.19374">
        <ele>641</ele>
        <time>2021-12-18T13:41:09.000Z</time>
      </trkpt>
      <trkpt lat="43.46937" lon="2.19374">
        <ele>641</ele>
        <time>2021-12-18T13:41:09.000Z</time>
      </trkpt>
      <trkpt lat="43.46931" lon="2.19386">
        <ele>640.9</ele>
        <time>2021-12-18T13:41:13.000Z</time>
      </trkpt>
      <trkpt lat="43.46925" lon="2.19396">
        <ele>640.7</ele>
        <time>2021-12-18T13:41:17.000Z</time>
      </trkpt>
      <trkpt lat="43.46919" lon="2.19406">
        <ele>640.7</ele>
        <time>2021-12-18T13:41:20.000Z</time>
      </trkpt>
      <trkpt lat="43.46915" lon="2.19419">
        <ele>640.6</ele>
        <time>2021-12-18T13:41:24.000Z</time>
      </trkpt>
      <trkpt lat="43.46915" lon="2.19434">
        <ele>640.6</ele>
        <time>2021-12-18T13:41:28.000Z</time>
      </trkpt>
      <trkpt lat="43.46925" lon="2.19435">
        <ele>640.7</ele>
        <time>2021-12-18T13:41:39.000Z</time>
      </trkpt>
      <trkpt lat="43.46935" lon="2.19435">
        <ele>640.6</ele>
        <time>2021-12-18T13:41:45.000Z</time>
      </trkpt>
      <trkpt lat="43.46946" lon="2.19435">
        <ele>640</ele>
        <time>2021-12-18T13:41:50.000Z</time>
      </trkpt>
      <trkpt lat="43.46956" lon="2.19438">
        <ele>639.8</ele>
        <time>2021-12-18T13:41:54.000Z</time>
      </trkpt>
      <trkpt lat="43.46966" lon="2.19441">
        <ele>639.6</ele>
        <time>2021-12-18T13:41:57.000Z</time>
      </trkpt>
      <trkpt lat="43.46975" lon="2.19443">
        <ele>639.2</ele>
        <time>2021-12-18T13:42:01.000Z</time>
      </trkpt>
      <trkpt lat="43.46985" lon="2.19449">
        <ele>638.9</ele>
        <time>2021-12-18T13:42:05.000Z</time>
      </trkpt>
      <trkpt lat="43.46996" lon="2.19453">
        <ele>638.6</ele>
        <time>2021-12-18T13:42:09.000Z</time>
      </trkpt>
      <trkpt lat="43.47006" lon="2.19457">
        <ele>638.2</ele>
        <time>2021-12-18T13:42:14.000Z</time>
      </trkpt>
      <trkpt lat="43.47017" lon="2.19461">
        <ele>637.8</ele>
        <time>2021-12-18T13:42:19.000Z</time>
      </trkpt>
      <trkpt lat="43.47027" lon="2.19463">
        <ele>637.7</ele>
        <time>2021-12-18T13:42:22.000Z</time>
      </trkpt>
      <trkpt lat="43.47038" lon="2.19465">
        <ele>637.4</ele>
        <time>2021-12-18T13:42:25.000Z</time>
      </trkpt>
      <trkpt lat="43.47048" lon="2.19466">
        <ele>637</ele>
        <time>2021-12-18T13:42:28.000Z</time>
      </trkpt>
      <trkpt lat="43.47058" lon="2.19467">
        <ele>636.7</ele>
        <time>2021-12-18T13:42:31.000Z</time>
      </trkpt>
      <trkpt lat="43.47068" lon="2.19468">
        <ele>636.3</ele>
        <time>2021-12-18T13:42:34.000Z</time>
      </trkpt>
      <trkpt lat="43.4708" lon="2.19471">
        <ele>635.4</ele>
        <time>2021-12-18T13:42:37.000Z</time>
      </trkpt>
      <trkpt lat="43.4709" lon="2.19472">
        <ele>634.6</ele>
        <time>2021-12-18T13:42:39.000Z</time>
      </trkpt>
      <trkpt lat="43.47101" lon="2.19475">
        <ele>633.7</ele>
        <time>2021-12-18T13:42:41.000Z</time>
      </trkpt>
      <trkpt lat="43.4711" lon="2.19475">
        <ele>632.8</ele>
        <time>2021-12-18T13:42:43.000Z</time>
      </trkpt>
      <trkpt lat="43.47123" lon="2.19479">
        <ele>631.5</ele>
        <time>2021-12-18T13:42:46.000Z</time>
      </trkpt>
      <trkpt lat="43.47135" lon="2.19486">
        <ele>630.3</ele>
        <time>2021-12-18T13:42:49.000Z</time>
      </trkpt>
      <trkpt lat="43.47147" lon="2.19494">
        <ele>629.1</ele>
        <time>2021-12-18T13:42:52.000Z</time>
      </trkpt>
      <trkpt lat="43.47156" lon="2.19502">
        <ele>628.4</ele>
        <time>2021-12-18T13:42:54.000Z</time>
      </trkpt>
      <trkpt lat="43.47164" lon="2.19511">
        <ele>627.8</ele>
        <time>2021-12-18T13:42:56.000Z</time>
      </trkpt>
      <trkpt lat="43.47174" lon="2.19522">
        <ele>627.2</ele>
        <time>2021-12-18T13:42:58.000Z</time>
      </trkpt>
      <trkpt lat="43.47181" lon="2.19532">
        <ele>626.5</ele>
        <time>2021-12-18T13:43:00.000Z</time>
      </trkpt>
      <trkpt lat="43.47189" lon="2.19542">
        <ele>625.9</ele>
        <time>2021-12-18T13:43:02.000Z</time>
      </trkpt>
      <trkpt lat="43.47197" lon="2.19552">
        <ele>625</ele>
        <time>2021-12-18T13:43:04.000Z</time>
      </trkpt>
      <trkpt lat="43.47207" lon="2.19561">
        <ele>623.8</ele>
        <time>2021-12-18T13:43:07.000Z</time>
      </trkpt>
      <trkpt lat="43.47216" lon="2.19565">
        <ele>622.4</ele>
        <time>2021-12-18T13:43:11.000Z</time>
      </trkpt>
      <trkpt lat="43.47225" lon="2.19567">
        <ele>621.4</ele>
        <time>2021-12-18T13:43:14.000Z</time>
      </trkpt>
      <trkpt lat="43.47235" lon="2.19569">
        <ele>620.6</ele>
        <time>2021-12-18T13:43:17.000Z</time>
      </trkpt>
      <trkpt lat="43.47247" lon="2.19573">
        <ele>619.5</ele>
        <time>2021-12-18T13:43:20.000Z</time>
      </trkpt>
      <trkpt lat="43.47257" lon="2.19576">
        <ele>618.5</ele>
        <time>2021-12-18T13:43:23.000Z</time>
      </trkpt>
      <trkpt lat="43.47268" lon="2.1958">
        <ele>617.8</ele>
        <time>2021-12-18T13:43:26.000Z</time>
      </trkpt>
      <trkpt lat="43.47277" lon="2.19581">
        <ele>616.5</ele>
        <time>2021-12-18T13:43:32.000Z</time>
      </trkpt>
      <trkpt lat="43.47287" lon="2.19581">
        <ele>615.7</ele>
        <time>2021-12-18T13:43:55.000Z</time>
      </trkpt>
      <trkpt lat="43.47297" lon="2.19581">
        <ele>615.6</ele>
        <time>2021-12-18T13:44:31.000Z</time>
      </trkpt>
      <trkpt lat="43.47306" lon="2.19589">
        <ele>615.3</ele>
        <time>2021-12-18T13:44:36.000Z</time>
      </trkpt>
      <trkpt lat="43.47307" lon="2.19603">
        <ele>614.9</ele>
        <time>2021-12-18T13:44:40.000Z</time>
      </trkpt>
      <trkpt lat="43.47306" lon="2.19617">
        <ele>614.3</ele>
        <time>2021-12-18T13:44:43.000Z</time>
      </trkpt>
      <trkpt lat="43.47305" lon="2.19636">
        <ele>613.6</ele>
        <time>2021-12-18T13:44:46.000Z</time>
      </trkpt>
      <trkpt lat="43.47305" lon="2.19649">
        <ele>612.9</ele>
        <time>2021-12-18T13:44:48.000Z</time>
      </trkpt>
      <trkpt lat="43.47305" lon="2.19662">
        <ele>612.2</ele>
        <time>2021-12-18T13:44:50.000Z</time>
      </trkpt>
      <trkpt lat="43.47307" lon="2.19676">
        <ele>611.4</ele>
        <time>2021-12-18T13:44:52.000Z</time>
      </trkpt>
      <trkpt lat="43.47306" lon="2.19691">
        <ele>610.6</ele>
        <time>2021-12-18T13:44:54.000Z</time>
      </trkpt>
      <trkpt lat="43.47305" lon="2.19706">
        <ele>609.9</ele>
        <time>2021-12-18T13:44:56.000Z</time>
      </trkpt>
      <trkpt lat="43.47304" lon="2.19721">
        <ele>609</ele>
        <time>2021-12-18T13:44:58.000Z</time>
      </trkpt>
      <trkpt lat="43.47304" lon="2.19734">
        <ele>608.1</ele>
        <time>2021-12-18T13:45:00.000Z</time>
      </trkpt>
      <trkpt lat="43.47303" lon="2.19749">
        <ele>607.3</ele>
        <time>2021-12-18T13:45:02.000Z</time>
      </trkpt>
      <trkpt lat="43.47302" lon="2.19763">
        <ele>606.6</ele>
        <time>2021-12-18T13:45:04.000Z</time>
      </trkpt>
      <trkpt lat="43.47302" lon="2.19779">
        <ele>606</ele>
        <time>2021-12-18T13:45:06.000Z</time>
      </trkpt>
      <trkpt lat="43.47299" lon="2.19794">
        <ele>605.2</ele>
        <time>2021-12-18T13:45:08.000Z</time>
      </trkpt>
      <trkpt lat="43.47296" lon="2.19805">
        <ele>604.2</ele>
        <time>2021-12-18T13:45:10.000Z</time>
      </trkpt>
      <trkpt lat="43.47289" lon="2.19819">
        <ele>602.8</ele>
        <time>2021-12-18T13:45:13.000Z</time>
      </trkpt>
      <trkpt lat="43.4728" lon="2.19833">
        <ele>601.7</ele>
        <time>2021-12-18T13:45:16.000Z</time>
      </trkpt>
      <trkpt lat="43.47275" lon="2.19844">
        <ele>600.9</ele>
        <time>2021-12-18T13:45:18.000Z</time>
      </trkpt>
      <trkpt lat="43.4727" lon="2.19856">
        <ele>600.1</ele>
        <time>2021-12-18T13:45:20.000Z</time>
      </trkpt>
      <trkpt lat="43.47263" lon="2.19871">
        <ele>598.7</ele>
        <time>2021-12-18T13:45:23.000Z</time>
      </trkpt>
      <trkpt lat="43.47255" lon="2.19886">
        <ele>597.5</ele>
        <time>2021-12-18T13:45:26.000Z</time>
      </trkpt>
      <trkpt lat="43.47249" lon="2.19896">
        <ele>596.7</ele>
        <time>2021-12-18T13:45:28.000Z</time>
      </trkpt>
      <trkpt lat="43.47244" lon="2.19911">
        <ele>595.4</ele>
        <time>2021-12-18T13:45:31.000Z</time>
      </trkpt>
      <trkpt lat="43.47244" lon="2.19928">
        <ele>594</ele>
        <time>2021-12-18T13:45:34.000Z</time>
      </trkpt>
      <trkpt lat="43.47248" lon="2.19941">
        <ele>593.2</ele>
        <time>2021-12-18T13:45:36.000Z</time>
      </trkpt>
      <trkpt lat="43.4725" lon="2.19954">
        <ele>592.4</ele>
        <time>2021-12-18T13:45:38.000Z</time>
      </trkpt>
      <trkpt lat="43.47251" lon="2.19966">
        <ele>591.6</ele>
        <time>2021-12-18T13:45:40.000Z</time>
      </trkpt>
      <trkpt lat="43.4725" lon="2.19982">
        <ele>590.4</ele>
        <time>2021-12-18T13:45:43.000Z</time>
      </trkpt>
      <trkpt lat="43.47247" lon="2.19997">
        <ele>589.5</ele>
        <time>2021-12-18T13:45:46.000Z</time>
      </trkpt>
      <trkpt lat="43.47238" lon="2.20008">
        <ele>588.8</ele>
        <time>2021-12-18T13:45:49.000Z</time>
      </trkpt>
      <trkpt lat="43.47229" lon="2.20011">
        <ele>587.8</ele>
        <time>2021-12-18T13:45:52.000Z</time>
      </trkpt>
      <trkpt lat="43.4722" lon="2.20016">
        <ele>586.8</ele>
        <time>2021-12-18T13:45:55.000Z</time>
      </trkpt>
      <trkpt lat="43.47215" lon="2.20028">
        <ele>585.8</ele>
        <time>2021-12-18T13:45:58.000Z</time>
      </trkpt>
      <trkpt lat="43.47225" lon="2.20036">
        <ele>584.3</ele>
        <time>2021-12-18T13:46:02.000Z</time>
      </trkpt>
      <trkpt lat="43.47235" lon="2.20042">
        <ele>583.3</ele>
        <time>2021-12-18T13:46:05.000Z</time>
      </trkpt>
      <trkpt lat="43.4724" lon="2.20054">
        <ele>581.8</ele>
        <time>2021-12-18T13:46:09.000Z</time>
      </trkpt>
      <trkpt lat="43.47235" lon="2.20068">
        <ele>580.6</ele>
        <time>2021-12-18T13:46:13.000Z</time>
      </trkpt>
      <trkpt lat="43.47229" lon="2.20079">
        <ele>579.7</ele>
        <time>2021-12-18T13:46:16.000Z</time>
      </trkpt>
      <trkpt lat="43.47224" lon="2.20091">
        <ele>578.9</ele>
        <time>2021-12-18T13:46:19.000Z</time>
      </trkpt>
      <trkpt lat="43.47218" lon="2.20106">
        <ele>578</ele>
        <time>2021-12-18T13:46:22.000Z</time>
      </trkpt>
      <trkpt lat="43.47218" lon="2.20106">
        <ele>578</ele>
        <time>2021-12-18T13:46:22.000Z</time>
      </trkpt>
      <trkpt lat="43.47213" lon="2.20121">
        <ele>577.3</ele>
        <time>2021-12-18T13:46:25.000Z</time>
      </trkpt>
      <trkpt lat="43.47207" lon="2.20136">
        <ele>576.5</ele>
        <time>2021-12-18T13:46:28.000Z</time>
      </trkpt>
      <trkpt lat="43.47201" lon="2.20148">
        <ele>575.6</ele>
        <time>2021-12-18T13:46:31.000Z</time>
      </trkpt>
      <trkpt lat="43.47195" lon="2.20159">
        <ele>574.9</ele>
        <time>2021-12-18T13:46:34.000Z</time>
      </trkpt>
      <trkpt lat="43.47185" lon="2.20163">
        <ele>574.4</ele>
        <time>2021-12-18T13:46:38.000Z</time>
      </trkpt>
      <trkpt lat="43.47174" lon="2.20159">
        <ele>574.4</ele>
        <time>2021-12-18T13:46:43.000Z</time>
      </trkpt>
      <trkpt lat="43.47165" lon="2.20157">
        <ele>574.7</ele>
        <time>2021-12-18T13:46:47.000Z</time>
      </trkpt>
      <trkpt lat="43.47155" lon="2.20156">
        <ele>575.1</ele>
        <time>2021-12-18T13:46:50.000Z</time>
      </trkpt>
      <trkpt lat="43.47144" lon="2.20158">
        <ele>575.7</ele>
        <time>2021-12-18T13:46:54.000Z</time>
      </trkpt>
      <trkpt lat="43.47135" lon="2.20159">
        <ele>576.3</ele>
        <time>2021-12-18T13:46:58.000Z</time>
      </trkpt>
      <trkpt lat="43.47123" lon="2.20163">
        <ele>576.9</ele>
        <time>2021-12-18T13:47:02.000Z</time>
      </trkpt>
      <trkpt lat="43.47113" lon="2.20167">
        <ele>577.4</ele>
        <time>2021-12-18T13:47:05.000Z</time>
      </trkpt>
      <trkpt lat="43.47103" lon="2.20172">
        <ele>577.9</ele>
        <time>2021-12-18T13:47:08.000Z</time>
      </trkpt>
      <trkpt lat="43.47094" lon="2.20181">
        <ele>578.3</ele>
        <time>2021-12-18T13:47:11.000Z</time>
      </trkpt>
      <trkpt lat="43.4709" lon="2.20193">
        <ele>578.7</ele>
        <time>2021-12-18T13:47:14.000Z</time>
      </trkpt>
      <trkpt lat="43.47086" lon="2.20206">
        <ele>579.1</ele>
        <time>2021-12-18T13:47:17.000Z</time>
      </trkpt>
      <trkpt lat="43.4708" lon="2.2022">
        <ele>579.4</ele>
        <time>2021-12-18T13:47:20.000Z</time>
      </trkpt>
      <trkpt lat="43.47076" lon="2.20233">
        <ele>579.8</ele>
        <time>2021-12-18T13:47:23.000Z</time>
      </trkpt>
      <trkpt lat="43.47069" lon="2.20245">
        <ele>580.1</ele>
        <time>2021-12-18T13:47:26.000Z</time>
      </trkpt>
      <trkpt lat="43.47061" lon="2.20255">
        <ele>580.4</ele>
        <time>2021-12-18T13:47:29.000Z</time>
      </trkpt>
      <trkpt lat="43.47053" lon="2.20264">
        <ele>580.6</ele>
        <time>2021-12-18T13:47:32.000Z</time>
      </trkpt>
      <trkpt lat="43.47043" lon="2.20274">
        <ele>580.8</ele>
        <time>2021-12-18T13:47:36.000Z</time>
      </trkpt>
      <trkpt lat="43.47036" lon="2.20282">
        <ele>581</ele>
        <time>2021-12-18T13:47:39.000Z</time>
      </trkpt>
      <trkpt lat="43.47026" lon="2.20289">
        <ele>581.2</ele>
        <time>2021-12-18T13:47:42.000Z</time>
      </trkpt>
      <trkpt lat="43.47017" lon="2.20298">
        <ele>581.3</ele>
        <time>2021-12-18T13:47:45.000Z</time>
      </trkpt>
      <trkpt lat="43.47008" lon="2.20308">
        <ele>581.5</ele>
        <time>2021-12-18T13:47:48.000Z</time>
      </trkpt>
      <trkpt lat="43.47002" lon="2.20318">
        <ele>581.7</ele>
        <time>2021-12-18T13:47:51.000Z</time>
      </trkpt>
      <trkpt lat="43.46997" lon="2.20333">
        <ele>581.9</ele>
        <time>2021-12-18T13:47:56.000Z</time>
      </trkpt>
      <trkpt lat="43.46991" lon="2.20344">
        <ele>582.1</ele>
        <time>2021-12-18T13:47:59.000Z</time>
      </trkpt>
      <trkpt lat="43.46984" lon="2.20356">
        <ele>582.2</ele>
        <time>2021-12-18T13:48:02.000Z</time>
      </trkpt>
      <trkpt lat="43.46981" lon="2.20367">
        <ele>582.4</ele>
        <time>2021-12-18T13:48:05.000Z</time>
      </trkpt>
      <trkpt lat="43.46984" lon="2.20381">
        <ele>582.7</ele>
        <time>2021-12-18T13:48:09.000Z</time>
      </trkpt>
      <trkpt lat="43.46993" lon="2.20377">
        <ele>583.8</ele>
        <time>2021-12-18T13:48:19.000Z</time>
      </trkpt>
      <trkpt lat="43.46998" lon="2.20364">
        <ele>584.2</ele>
        <time>2021-12-18T13:48:23.000Z</time>
      </trkpt>
      <trkpt lat="43.47007" lon="2.20358">
        <ele>584.5</ele>
        <time>2021-12-18T13:48:26.000Z</time>
      </trkpt>
      <trkpt lat="43.47015" lon="2.20349">
        <ele>585.1</ele>
        <time>2021-12-18T13:48:30.000Z</time>
      </trkpt>
      <trkpt lat="43.47024" lon="2.20342">
        <ele>585.8</ele>
        <time>2021-12-18T13:48:37.000Z</time>
      </trkpt>
      <trkpt lat="43.47031" lon="2.20332">
        <ele>586.6</ele>
        <time>2021-12-18T13:48:42.000Z</time>
      </trkpt>
      <trkpt lat="43.4704" lon="2.20322">
        <ele>587.2</ele>
        <time>2021-12-18T13:48:46.000Z</time>
      </trkpt>
      <trkpt lat="43.47053" lon="2.20317">
        <ele>588.1</ele>
        <time>2021-12-18T13:48:51.000Z</time>
      </trkpt>
      <trkpt lat="43.47065" lon="2.20312">
        <ele>588.7</ele>
        <time>2021-12-18T13:48:54.000Z</time>
      </trkpt>
      <trkpt lat="43.47075" lon="2.20306">
        <ele>589.2</ele>
        <time>2021-12-18T13:48:57.000Z</time>
      </trkpt>
      <trkpt lat="43.47083" lon="2.20302">
        <ele>589.8</ele>
        <time>2021-12-18T13:49:00.000Z</time>
      </trkpt>
      <trkpt lat="43.47094" lon="2.20296">
        <ele>590.3</ele>
        <time>2021-12-18T13:49:03.000Z</time>
      </trkpt>
      <trkpt lat="43.47103" lon="2.20289">
        <ele>591.1</ele>
        <time>2021-12-18T13:49:07.000Z</time>
      </trkpt>
      <trkpt lat="43.47111" lon="2.20282">
        <ele>591.8</ele>
        <time>2021-12-18T13:49:11.000Z</time>
      </trkpt>
      <trkpt lat="43.47122" lon="2.20282">
        <ele>592.8</ele>
        <time>2021-12-18T13:49:16.000Z</time>
      </trkpt>
      <trkpt lat="43.47132" lon="2.20287">
        <ele>593.7</ele>
        <time>2021-12-18T13:49:20.000Z</time>
      </trkpt>
      <trkpt lat="43.47141" lon="2.20291">
        <ele>594.3</ele>
        <time>2021-12-18T13:49:23.000Z</time>
      </trkpt>
      <trkpt lat="43.47149" lon="2.20296">
        <ele>595</ele>
        <time>2021-12-18T13:49:27.000Z</time>
      </trkpt>
      <trkpt lat="43.47159" lon="2.20296">
        <ele>595.6</ele>
        <time>2021-12-18T13:49:30.000Z</time>
      </trkpt>
      <trkpt lat="43.47169" lon="2.20295">
        <ele>596.6</ele>
        <time>2021-12-18T13:49:35.000Z</time>
      </trkpt>
      <trkpt lat="43.47179" lon="2.20295">
        <ele>597.2</ele>
        <time>2021-12-18T13:49:39.000Z</time>
      </trkpt>
      <trkpt lat="43.47186" lon="2.20287">
        <ele>598</ele>
        <time>2021-12-18T13:49:43.000Z</time>
      </trkpt>
      <trkpt lat="43.47195" lon="2.20283">
        <ele>598.6</ele>
        <time>2021-12-18T13:49:46.000Z</time>
      </trkpt>
      <trkpt lat="43.47206" lon="2.2028">
        <ele>599.2</ele>
        <time>2021-12-18T13:49:49.000Z</time>
      </trkpt>
      <trkpt lat="43.47216" lon="2.20276">
        <ele>599.8</ele>
        <time>2021-12-18T13:49:52.000Z</time>
      </trkpt>
      <trkpt lat="43.47226" lon="2.20275">
        <ele>600.4</ele>
        <time>2021-12-18T13:49:55.000Z</time>
      </trkpt>
      <trkpt lat="43.47237" lon="2.20277">
        <ele>601.1</ele>
        <time>2021-12-18T13:49:58.000Z</time>
      </trkpt>
      <trkpt lat="43.47248" lon="2.2028">
        <ele>601.5</ele>
        <time>2021-12-18T13:50:00.000Z</time>
      </trkpt>
      <trkpt lat="43.4726" lon="2.20279">
        <ele>601.9</ele>
        <time>2021-12-18T13:50:03.000Z</time>
      </trkpt>
      <trkpt lat="43.47271" lon="2.20277">
        <ele>602.2</ele>
        <time>2021-12-18T13:50:06.000Z</time>
      </trkpt>
      <trkpt lat="43.47282" lon="2.2027">
        <ele>602.8</ele>
        <time>2021-12-18T13:50:10.000Z</time>
      </trkpt>
      <trkpt lat="43.47292" lon="2.20262">
        <ele>603.2</ele>
        <time>2021-12-18T13:50:13.000Z</time>
      </trkpt>
      <trkpt lat="43.47299" lon="2.20251">
        <ele>603.7</ele>
        <time>2021-12-18T13:50:16.000Z</time>
      </trkpt>
      <trkpt lat="43.47308" lon="2.20241">
        <ele>604</ele>
        <time>2021-12-18T13:50:19.000Z</time>
      </trkpt>
      <trkpt lat="43.47317" lon="2.20237">
        <ele>604.4</ele>
        <time>2021-12-18T13:50:22.000Z</time>
      </trkpt>
      <trkpt lat="43.47325" lon="2.20243">
        <ele>604.7</ele>
        <time>2021-12-18T13:50:25.000Z</time>
      </trkpt>
      <trkpt lat="43.47335" lon="2.20247">
        <ele>605</ele>
        <time>2021-12-18T13:50:29.000Z</time>
      </trkpt>
      <trkpt lat="43.47345" lon="2.20248">
        <ele>605.5</ele>
        <time>2021-12-18T13:50:43.000Z</time>
      </trkpt>
      <trkpt lat="43.47342" lon="2.20261">
        <ele>605.5</ele>
        <time>2021-12-18T13:51:06.000Z</time>
      </trkpt>
      <trkpt lat="43.47335" lon="2.2027">
        <ele>605.4</ele>
        <time>2021-12-18T13:51:16.000Z</time>
      </trkpt>
      <trkpt lat="43.47326" lon="2.20274">
        <ele>606</ele>
        <time>2021-12-18T13:51:25.000Z</time>
      </trkpt>
      <trkpt lat="43.47317" lon="2.2028">
        <ele>606.8</ele>
        <time>2021-12-18T13:52:02.000Z</time>
      </trkpt>
      <trkpt lat="43.47311" lon="2.20291">
        <ele>606.9</ele>
        <time>2021-12-18T13:52:07.000Z</time>
      </trkpt>
      <trkpt lat="43.47303" lon="2.203">
        <ele>607.3</ele>
        <time>2021-12-18T13:52:12.000Z</time>
      </trkpt>
      <trkpt lat="43.47294" lon="2.20307">
        <ele>607.9</ele>
        <time>2021-12-18T13:52:17.000Z</time>
      </trkpt>
      <trkpt lat="43.47303" lon="2.20301">
        <ele>608.5</ele>
        <time>2021-12-18T13:52:24.000Z</time>
      </trkpt>
      <trkpt lat="43.4731" lon="2.20289">
        <ele>608.5</ele>
        <time>2021-12-18T13:52:27.000Z</time>
      </trkpt>
      <trkpt lat="43.47318" lon="2.20276">
        <ele>608.3</ele>
        <time>2021-12-18T13:52:30.000Z</time>
      </trkpt>
      <trkpt lat="43.47327" lon="2.20273">
        <ele>607.5</ele>
        <time>2021-12-18T13:52:34.000Z</time>
      </trkpt>
      <trkpt lat="43.47326" lon="2.20287">
        <ele>606.1</ele>
        <time>2021-12-18T13:52:38.000Z</time>
      </trkpt>
      <trkpt lat="43.4732" lon="2.20302">
        <ele>605</ele>
        <time>2021-12-18T13:52:41.000Z</time>
      </trkpt>
      <trkpt lat="43.47314" lon="2.20317">
        <ele>603.7</ele>
        <time>2021-12-18T13:52:44.000Z</time>
      </trkpt>
      <trkpt lat="43.47308" lon="2.20329">
        <ele>602.8</ele>
        <time>2021-12-18T13:52:46.000Z</time>
      </trkpt>
      <trkpt lat="43.47308" lon="2.20329">
        <ele>602.8</ele>
        <time>2021-12-18T13:52:46.000Z</time>
      </trkpt>
      <trkpt lat="43.47304" lon="2.20343">
        <ele>601.9</ele>
        <time>2021-12-18T13:52:48.000Z</time>
      </trkpt>
      <trkpt lat="43.47301" lon="2.20359">
        <ele>601</ele>
        <time>2021-12-18T13:52:50.000Z</time>
      </trkpt>
      <trkpt lat="43.47299" lon="2.20377">
        <ele>600.2</ele>
        <time>2021-12-18T13:52:52.000Z</time>
      </trkpt>
      <trkpt lat="43.47302" lon="2.20398">
        <ele>599.3</ele>
        <time>2021-12-18T13:52:54.000Z</time>
      </trkpt>
      <trkpt lat="43.47309" lon="2.20417">
        <ele>598.2</ele>
        <time>2021-12-18T13:52:56.000Z</time>
      </trkpt>
      <trkpt lat="43.47317" lon="2.20435">
        <ele>597</ele>
        <time>2021-12-18T13:52:58.000Z</time>
      </trkpt>
      <trkpt lat="43.47327" lon="2.20449">
        <ele>595.5</ele>
        <time>2021-12-18T13:53:00.000Z</time>
      </trkpt>
      <trkpt lat="43.47337" lon="2.20465">
        <ele>594.1</ele>
        <time>2021-12-18T13:53:02.000Z</time>
      </trkpt>
      <trkpt lat="43.47343" lon="2.20476">
        <ele>592.3</ele>
        <time>2021-12-18T13:53:04.000Z</time>
      </trkpt>
      <trkpt lat="43.47348" lon="2.20492">
        <ele>590.2</ele>
        <time>2021-12-18T13:53:07.000Z</time>
      </trkpt>
      <trkpt lat="43.47349" lon="2.20509">
        <ele>588.7</ele>
        <time>2021-12-18T13:53:10.000Z</time>
      </trkpt>
      <trkpt lat="43.47343" lon="2.20521">
        <ele>587.6</ele>
        <time>2021-12-18T13:53:14.000Z</time>
      </trkpt>
      <trkpt lat="43.47335" lon="2.20529">
        <ele>587.2</ele>
        <time>2021-12-18T13:53:18.000Z</time>
      </trkpt>
      <trkpt lat="43.47328" lon="2.20536">
        <ele>587.4</ele>
        <time>2021-12-18T13:53:22.000Z</time>
      </trkpt>
      <trkpt lat="43.47318" lon="2.20542">
        <ele>587.9</ele>
        <time>2021-12-18T13:53:26.000Z</time>
      </trkpt>
      <trkpt lat="43.47308" lon="2.20548">
        <ele>588.6</ele>
        <time>2021-12-18T13:53:30.000Z</time>
      </trkpt>
      <trkpt lat="43.47299" lon="2.20555">
        <ele>589.5</ele>
        <time>2021-12-18T13:53:35.000Z</time>
      </trkpt>
      <trkpt lat="43.47288" lon="2.20561">
        <ele>590.3</ele>
        <time>2021-12-18T13:53:39.000Z</time>
      </trkpt>
      <trkpt lat="43.47281" lon="2.20571">
        <ele>591</ele>
        <time>2021-12-18T13:53:43.000Z</time>
      </trkpt>
      <trkpt lat="43.47277" lon="2.20584">
        <ele>591.5</ele>
        <time>2021-12-18T13:53:47.000Z</time>
      </trkpt>
      <trkpt lat="43.47275" lon="2.20599">
        <ele>591.9</ele>
        <time>2021-12-18T13:53:51.000Z</time>
      </trkpt>
      <trkpt lat="43.47274" lon="2.20615">
        <ele>592.3</ele>
        <time>2021-12-18T13:53:55.000Z</time>
      </trkpt>
      <trkpt lat="43.47274" lon="2.2063">
        <ele>592.7</ele>
        <time>2021-12-18T13:53:59.000Z</time>
      </trkpt>
      <trkpt lat="43.47271" lon="2.20645">
        <ele>593.2</ele>
        <time>2021-12-18T13:54:03.000Z</time>
      </trkpt>
      <trkpt lat="43.47267" lon="2.20659">
        <ele>593.6</ele>
        <time>2021-12-18T13:54:07.000Z</time>
      </trkpt>
      <trkpt lat="43.47262" lon="2.20673">
        <ele>594.2</ele>
        <time>2021-12-18T13:54:11.000Z</time>
      </trkpt>
      <trkpt lat="43.47256" lon="2.20684">
        <ele>594.9</ele>
        <time>2021-12-18T13:54:15.000Z</time>
      </trkpt>
      <trkpt lat="43.47251" lon="2.20697">
        <ele>595.5</ele>
        <time>2021-12-18T13:54:19.000Z</time>
      </trkpt>
      <trkpt lat="43.47245" lon="2.2071">
        <ele>595.9</ele>
        <time>2021-12-18T13:54:23.000Z</time>
      </trkpt>
      <trkpt lat="43.4724" lon="2.20721">
        <ele>596.2</ele>
        <time>2021-12-18T13:54:26.000Z</time>
      </trkpt>
      <trkpt lat="43.47235" lon="2.20733">
        <ele>596.4</ele>
        <time>2021-12-18T13:54:29.000Z</time>
      </trkpt>
      <trkpt lat="43.47231" lon="2.20747">
        <ele>596.5</ele>
        <time>2021-12-18T13:54:32.000Z</time>
      </trkpt>
      <trkpt lat="43.47227" lon="2.20761">
        <ele>596.6</ele>
        <time>2021-12-18T13:54:35.000Z</time>
      </trkpt>
      <trkpt lat="43.47225" lon="2.20777">
        <ele>596.5</ele>
        <time>2021-12-18T13:54:38.000Z</time>
      </trkpt>
      <trkpt lat="43.47226" lon="2.20795">
        <ele>596.4</ele>
        <time>2021-12-18T13:54:41.000Z</time>
      </trkpt>
      <trkpt lat="43.47232" lon="2.20811">
        <ele>596.3</ele>
        <time>2021-12-18T13:54:44.000Z</time>
      </trkpt>
      <trkpt lat="43.4724" lon="2.20826">
        <ele>596.3</ele>
        <time>2021-12-18T13:54:47.000Z</time>
      </trkpt>
      <trkpt lat="43.47247" lon="2.20844">
        <ele>596</ele>
        <time>2021-12-18T13:54:51.000Z</time>
      </trkpt>
      <trkpt lat="43.47252" lon="2.20859">
        <ele>596.6</ele>
        <time>2021-12-18T13:54:54.000Z</time>
      </trkpt>
      <trkpt lat="43.47253" lon="2.20879">
        <ele>596</ele>
        <time>2021-12-18T13:54:58.000Z</time>
      </trkpt>
      <trkpt lat="43.47255" lon="2.20897">
        <ele>597</ele>
        <time>2021-12-18T13:55:02.000Z</time>
      </trkpt>
      <trkpt lat="43.47262" lon="2.20917">
        <ele>597</ele>
        <time>2021-12-18T13:55:06.000Z</time>
      </trkpt>
      <trkpt lat="43.47271" lon="2.20937">
        <ele>597</ele>
        <time>2021-12-18T13:55:10.000Z</time>
      </trkpt>
      <trkpt lat="43.47281" lon="2.20957">
        <ele>597</ele>
        <time>2021-12-18T13:55:14.000Z</time>
      </trkpt>
      <trkpt lat="43.47288" lon="2.20971">
        <ele>597</ele>
        <time>2021-12-18T13:55:17.000Z</time>
      </trkpt>
      <trkpt lat="43.47296" lon="2.20983">
        <ele>596</ele>
        <time>2021-12-18T13:55:20.000Z</time>
      </trkpt>
      <trkpt lat="43.47304" lon="2.20998">
        <ele>596.7</ele>
        <time>2021-12-18T13:55:23.000Z</time>
      </trkpt>
      <trkpt lat="43.4731" lon="2.21012">
        <ele>596.5</ele>
        <time>2021-12-18T13:55:26.000Z</time>
      </trkpt>
      <trkpt lat="43.4732" lon="2.21005">
        <ele>595.6</ele>
        <time>2021-12-18T13:55:32.000Z</time>
      </trkpt>
      <trkpt lat="43.47323" lon="2.2099">
        <ele>595.3</ele>
        <time>2021-12-18T13:55:35.000Z</time>
      </trkpt>
      <trkpt lat="43.47331" lon="2.20963">
        <ele>595</ele>
        <time>2021-12-18T13:55:41.000Z</time>
      </trkpt>
      <trkpt lat="43.47339" lon="2.2095">
        <ele>595.1</ele>
        <time>2021-12-18T13:55:44.000Z</time>
      </trkpt>
      <trkpt lat="43.47348" lon="2.20938">
        <ele>595.1</ele>
        <time>2021-12-18T13:55:47.000Z</time>
      </trkpt>
      <trkpt lat="43.47358" lon="2.2093">
        <ele>595.1</ele>
        <time>2021-12-18T13:55:50.000Z</time>
      </trkpt>
      <trkpt lat="43.47371" lon="2.20923">
        <ele>595.3</ele>
        <time>2021-12-18T13:55:54.000Z</time>
      </trkpt>
      <trkpt lat="43.4738" lon="2.20917">
        <ele>595.7</ele>
        <time>2021-12-18T13:55:57.000Z</time>
      </trkpt>
      <trkpt lat="43.47389" lon="2.20914">
        <ele>595.9</ele>
        <time>2021-12-18T13:55:59.000Z</time>
      </trkpt>
      <trkpt lat="43.47401" lon="2.20909">
        <ele>596.3</ele>
        <time>2021-12-18T13:56:02.000Z</time>
      </trkpt>
      <trkpt lat="43.47411" lon="2.20905">
        <ele>596.6</ele>
        <time>2021-12-18T13:56:05.000Z</time>
      </trkpt>
      <trkpt lat="43.47423" lon="2.20908">
        <ele>596.9</ele>
        <time>2021-12-18T13:56:08.000Z</time>
      </trkpt>
      <trkpt lat="43.47434" lon="2.20914">
        <ele>597.1</ele>
        <time>2021-12-18T13:56:11.000Z</time>
      </trkpt>
      <trkpt lat="43.47442" lon="2.20918">
        <ele>597.3</ele>
        <time>2021-12-18T13:56:19.000Z</time>
      </trkpt>
      <trkpt lat="43.47451" lon="2.20921">
        <ele>596.9</ele>
        <time>2021-12-18T14:10:07.000Z</time>
      </trkpt>
      <trkpt lat="43.47456" lon="2.20933">
        <ele>597.5</ele>
        <time>2021-12-18T14:10:57.000Z</time>
      </trkpt>
      <trkpt lat="43.47461" lon="2.20944">
        <ele>598.4</ele>
        <time>2021-12-18T14:11:03.000Z</time>
      </trkpt>
      <trkpt lat="43.47464" lon="2.20957">
        <ele>599.2</ele>
        <time>2021-12-18T14:11:08.000Z</time>
      </trkpt>
      <trkpt lat="43.47467" lon="2.20969">
        <ele>600.2</ele>
        <time>2021-12-18T14:11:13.000Z</time>
      </trkpt>
      <trkpt lat="43.47469" lon="2.20983">
        <ele>601.4</ele>
        <time>2021-12-18T14:11:18.000Z</time>
      </trkpt>
      <trkpt lat="43.47472" lon="2.20997">
        <ele>602.6</ele>
        <time>2021-12-18T14:11:23.000Z</time>
      </trkpt>
      <trkpt lat="43.47475" lon="2.21009">
        <ele>603.8</ele>
        <time>2021-12-18T14:11:27.000Z</time>
      </trkpt>
      <trkpt lat="43.47476" lon="2.21023">
        <ele>605.2</ele>
        <time>2021-12-18T14:11:32.000Z</time>
      </trkpt>
      <trkpt lat="43.47478" lon="2.21036">
        <ele>606.8</ele>
        <time>2021-12-18T14:11:38.000Z</time>
      </trkpt>
      <trkpt lat="43.47482" lon="2.2105">
        <ele>607.9</ele>
        <time>2021-12-18T14:11:42.000Z</time>
      </trkpt>
      <trkpt lat="43.47487" lon="2.21062">
        <ele>609</ele>
        <time>2021-12-18T14:11:46.000Z</time>
      </trkpt>
      <trkpt lat="43.47491" lon="2.21075">
        <ele>610</ele>
        <time>2021-12-18T14:11:50.000Z</time>
      </trkpt>
      <trkpt lat="43.47497" lon="2.21086">
        <ele>610.8</ele>
        <time>2021-12-18T14:11:53.000Z</time>
      </trkpt>
      <trkpt lat="43.47497" lon="2.21099">
        <ele>611.9</ele>
        <time>2021-12-18T14:11:57.000Z</time>
      </trkpt>
      <trkpt lat="43.47496" lon="2.21112">
        <ele>612.8</ele>
        <time>2021-12-18T14:12:01.000Z</time>
      </trkpt>
      <trkpt lat="43.47496" lon="2.21112">
        <ele>612.8</ele>
        <time>2021-12-18T14:12:01.000Z</time>
      </trkpt>
      <trkpt lat="43.47493" lon="2.21126">
        <ele>613.6</ele>
        <time>2021-12-18T14:12:05.000Z</time>
      </trkpt>
      <trkpt lat="43.47491" lon="2.2114">
        <ele>614.6</ele>
        <time>2021-12-18T14:12:09.000Z</time>
      </trkpt>
      <trkpt lat="43.47488" lon="2.21152">
        <ele>615.6</ele>
        <time>2021-12-18T14:12:13.000Z</time>
      </trkpt>
      <trkpt lat="43.47485" lon="2.21164">
        <ele>616.7</ele>
        <time>2021-12-18T14:12:17.000Z</time>
      </trkpt>
      <trkpt lat="43.4748" lon="2.21175">
        <ele>617.7</ele>
        <time>2021-12-18T14:12:21.000Z</time>
      </trkpt>
      <trkpt lat="43.47476" lon="2.21188">
        <ele>618.8</ele>
        <time>2021-12-18T14:12:25.000Z</time>
      </trkpt>
      <trkpt lat="43.47473" lon="2.21201">
        <ele>620</ele>
        <time>2021-12-18T14:12:29.000Z</time>
      </trkpt>
      <trkpt lat="43.47468" lon="2.21213">
        <ele>621.1</ele>
        <time>2021-12-18T14:12:33.000Z</time>
      </trkpt>
      <trkpt lat="43.47463" lon="2.21224">
        <ele>622.1</ele>
        <time>2021-12-18T14:12:37.000Z</time>
      </trkpt>
      <trkpt lat="43.47457" lon="2.21236">
        <ele>623.8</ele>
        <time>2021-12-18T14:12:42.000Z</time>
      </trkpt>
      <trkpt lat="43.47451" lon="2.21247">
        <ele>625.4</ele>
        <time>2021-12-18T14:12:47.000Z</time>
      </trkpt>
      <trkpt lat="43.47443" lon="2.21258">
        <ele>626.8</ele>
        <time>2021-12-18T14:12:52.000Z</time>
      </trkpt>
      <trkpt lat="43.47439" lon="2.2127">
        <ele>628</ele>
        <time>2021-12-18T14:12:56.000Z</time>
      </trkpt>
      <trkpt lat="43.47432" lon="2.2128">
        <ele>629.1</ele>
        <time>2021-12-18T14:13:00.000Z</time>
      </trkpt>
      <trkpt lat="43.47426" lon="2.21291">
        <ele>630.2</ele>
        <time>2021-12-18T14:13:04.000Z</time>
      </trkpt>
      <trkpt lat="43.47421" lon="2.21302">
        <ele>631.3</ele>
        <time>2021-12-18T14:13:08.000Z</time>
      </trkpt>
      <trkpt lat="43.47415" lon="2.21313">
        <ele>632.3</ele>
        <time>2021-12-18T14:13:12.000Z</time>
      </trkpt>
      <trkpt lat="43.4741" lon="2.21324">
        <ele>633.4</ele>
        <time>2021-12-18T14:13:16.000Z</time>
      </trkpt>
      <trkpt lat="43.47405" lon="2.21336">
        <ele>634.3</ele>
        <time>2021-12-18T14:13:20.000Z</time>
      </trkpt>
      <trkpt lat="43.47399" lon="2.21347">
        <ele>635.4</ele>
        <time>2021-12-18T14:13:24.000Z</time>
      </trkpt>
      <trkpt lat="43.47394" lon="2.21357">
        <ele>636.4</ele>
        <time>2021-12-18T14:13:28.000Z</time>
      </trkpt>
      <trkpt lat="43.47388" lon="2.21371">
        <ele>637.8</ele>
        <time>2021-12-18T14:13:33.000Z</time>
      </trkpt>
      <trkpt lat="43.47383" lon="2.21382">
        <ele>638.8</ele>
        <time>2021-12-18T14:13:37.000Z</time>
      </trkpt>
      <trkpt lat="43.47377" lon="2.21394">
        <ele>639.9</ele>
        <time>2021-12-18T14:13:42.000Z</time>
      </trkpt>
      <trkpt lat="43.47371" lon="2.21403">
        <ele>640.9</ele>
        <time>2021-12-18T14:13:46.000Z</time>
      </trkpt>
      <trkpt lat="43.47363" lon="2.21411">
        <ele>642.1</ele>
        <time>2021-12-18T14:13:50.000Z</time>
      </trkpt>
      <trkpt lat="43.47355" lon="2.21422">
        <ele>643.4</ele>
        <time>2021-12-18T14:13:55.000Z</time>
      </trkpt>
      <trkpt lat="43.47348" lon="2.21431">
        <ele>644.4</ele>
        <time>2021-12-18T14:13:59.000Z</time>
      </trkpt>
      <trkpt lat="43.47339" lon="2.21438">
        <ele>645.7</ele>
        <time>2021-12-18T14:14:04.000Z</time>
      </trkpt>
      <trkpt lat="43.4733" lon="2.21446">
        <ele>647.3</ele>
        <time>2021-12-18T14:14:10.000Z</time>
      </trkpt>
      <trkpt lat="43.47321" lon="2.2145">
        <ele>648.7</ele>
        <time>2021-12-18T14:14:15.000Z</time>
      </trkpt>
      <trkpt lat="43.47313" lon="2.21455">
        <ele>650.2</ele>
        <time>2021-12-18T14:14:20.000Z</time>
      </trkpt>
      <trkpt lat="43.47303" lon="2.2146">
        <ele>651.2</ele>
        <time>2021-12-18T14:14:24.000Z</time>
      </trkpt>
      <trkpt lat="43.47294" lon="2.21466">
        <ele>652.3</ele>
        <time>2021-12-18T14:14:28.000Z</time>
      </trkpt>
      <trkpt lat="43.47287" lon="2.21474">
        <ele>653.4</ele>
        <time>2021-12-18T14:14:33.000Z</time>
      </trkpt>
      <trkpt lat="43.4728" lon="2.21483">
        <ele>654.1</ele>
        <time>2021-12-18T14:14:37.000Z</time>
      </trkpt>
      <trkpt lat="43.47273" lon="2.21492">
        <ele>654.9</ele>
        <time>2021-12-18T14:14:41.000Z</time>
      </trkpt>
      <trkpt lat="43.47267" lon="2.21503">
        <ele>655.6</ele>
        <time>2021-12-18T14:14:44.000Z</time>
      </trkpt>
      <trkpt lat="43.47262" lon="2.21517">
        <ele>656.6</ele>
        <time>2021-12-18T14:14:48.000Z</time>
      </trkpt>
      <trkpt lat="43.47257" lon="2.21528">
        <ele>657.3</ele>
        <time>2021-12-18T14:14:51.000Z</time>
      </trkpt>
      <trkpt lat="43.47253" lon="2.21543">
        <ele>658.6</ele>
        <time>2021-12-18T14:14:56.000Z</time>
      </trkpt>
      <trkpt lat="43.47249" lon="2.21557">
        <ele>659.6</ele>
        <time>2021-12-18T14:15:00.000Z</time>
      </trkpt>
      <trkpt lat="43.47246" lon="2.21571">
        <ele>660.6</ele>
        <time>2021-12-18T14:15:04.000Z</time>
      </trkpt>
      <trkpt lat="43.47244" lon="2.21584">
        <ele>661.6</ele>
        <time>2021-12-18T14:15:08.000Z</time>
      </trkpt>
      <trkpt lat="43.47243" lon="2.216">
        <ele>662.4</ele>
        <time>2021-12-18T14:15:12.000Z</time>
      </trkpt>
      <trkpt lat="43.47242" lon="2.21615">
        <ele>663.1</ele>
        <time>2021-12-18T14:15:16.000Z</time>
      </trkpt>
      <trkpt lat="43.47241" lon="2.21631">
        <ele>663.7</ele>
        <time>2021-12-18T14:15:20.000Z</time>
      </trkpt>
      <trkpt lat="43.47241" lon="2.21644">
        <ele>664.1</ele>
        <time>2021-12-18T14:15:23.000Z</time>
      </trkpt>
      <trkpt lat="43.4724" lon="2.2166">
        <ele>664.7</ele>
        <time>2021-12-18T14:15:27.000Z</time>
      </trkpt>
      <trkpt lat="43.47239" lon="2.21674">
        <ele>665.1</ele>
        <time>2021-12-18T14:15:30.000Z</time>
      </trkpt>
      <trkpt lat="43.47238" lon="2.21688">
        <ele>665.4</ele>
        <time>2021-12-18T14:15:33.000Z</time>
      </trkpt>
      <trkpt lat="43.47237" lon="2.21703">
        <ele>665.7</ele>
        <time>2021-12-18T14:15:36.000Z</time>
      </trkpt>
      <trkpt lat="43.47236" lon="2.21717">
        <ele>666</ele>
        <time>2021-12-18T14:15:39.000Z</time>
      </trkpt>
      <trkpt lat="43.47235" lon="2.21731">
        <ele>666.2</ele>
        <time>2021-12-18T14:15:42.000Z</time>
      </trkpt>
      <trkpt lat="43.47232" lon="2.21747">
        <ele>666.6</ele>
        <time>2021-12-18T14:15:46.000Z</time>
      </trkpt>
      <trkpt lat="43.4723" lon="2.21762">
        <ele>667</ele>
        <time>2021-12-18T14:15:50.000Z</time>
      </trkpt>
      <trkpt lat="43.47226" lon="2.21773">
        <ele>667.3</ele>
        <time>2021-12-18T14:15:53.000Z</time>
      </trkpt>
      <trkpt lat="43.4722" lon="2.21786">
        <ele>667.9</ele>
        <time>2021-12-18T14:15:57.000Z</time>
      </trkpt>
      <trkpt lat="43.47214" lon="2.21797">
        <ele>668.4</ele>
        <time>2021-12-18T14:16:01.000Z</time>
      </trkpt>
      <trkpt lat="43.47206" lon="2.21805">
        <ele>669.1</ele>
        <time>2021-12-18T14:16:05.000Z</time>
      </trkpt>
      <trkpt lat="43.47197" lon="2.21817">
        <ele>669.8</ele>
        <time>2021-12-18T14:16:09.000Z</time>
      </trkpt>
      <trkpt lat="43.47191" lon="2.21826">
        <ele>670.4</ele>
        <time>2021-12-18T14:16:12.000Z</time>
      </trkpt>
      <trkpt lat="43.47182" lon="2.21835">
        <ele>671.2</ele>
        <time>2021-12-18T14:16:16.000Z</time>
      </trkpt>
      <trkpt lat="43.47173" lon="2.21842">
        <ele>672.2</ele>
        <time>2021-12-18T14:16:20.000Z</time>
      </trkpt>
      <trkpt lat="43.47163" lon="2.21847">
        <ele>673.4</ele>
        <time>2021-12-18T14:16:24.000Z</time>
      </trkpt>
      <trkpt lat="43.47152" lon="2.2185">
        <ele>674.5</ele>
        <time>2021-12-18T14:16:28.000Z</time>
      </trkpt>
      <trkpt lat="43.47141" lon="2.21853">
        <ele>675.3</ele>
        <time>2021-12-18T14:16:33.000Z</time>
      </trkpt>
      <trkpt lat="43.47131" lon="2.21851">
        <ele>675.9</ele>
        <time>2021-12-18T14:16:39.000Z</time>
      </trkpt>
      <trkpt lat="43.47121" lon="2.21846">
        <ele>676.1</ele>
        <time>2021-12-18T14:16:44.000Z</time>
      </trkpt>
      <trkpt lat="43.47111" lon="2.21842">
        <ele>676</ele>
        <time>2021-12-18T14:16:47.000Z</time>
      </trkpt>
      <trkpt lat="43.47101" lon="2.21838">
        <ele>675.8</ele>
        <time>2021-12-18T14:16:50.000Z</time>
      </trkpt>
      <trkpt lat="43.47091" lon="2.21834">
        <ele>675.5</ele>
        <time>2021-12-18T14:16:53.000Z</time>
      </trkpt>
      <trkpt lat="43.47081" lon="2.2183">
        <ele>675.1</ele>
        <time>2021-12-18T14:16:57.000Z</time>
      </trkpt>
      <trkpt lat="43.47069" lon="2.21827">
        <ele>674.6</ele>
        <time>2021-12-18T14:17:01.000Z</time>
      </trkpt>
      <trkpt lat="43.47049" lon="2.21829">
        <ele>674.1</ele>
        <time>2021-12-18T14:17:07.000Z</time>
      </trkpt>
      <trkpt lat="43.47034" lon="2.21845">
        <ele>673.9</ele>
        <time>2021-12-18T14:17:12.000Z</time>
      </trkpt>
      <trkpt lat="43.47026" lon="2.21854">
        <ele>673.9</ele>
        <time>2021-12-18T14:17:15.000Z</time>
      </trkpt>
      <trkpt lat="43.47018" lon="2.21863">
        <ele>673.9</ele>
        <time>2021-12-18T14:17:18.000Z</time>
      </trkpt>
      <trkpt lat="43.4701" lon="2.2187">
        <ele>673.9</ele>
        <time>2021-12-18T14:17:21.000Z</time>
      </trkpt>
      <trkpt lat="43.47001" lon="2.21881">
        <ele>674</ele>
        <time>2021-12-18T14:17:24.000Z</time>
      </trkpt>
      <trkpt lat="43.46992" lon="2.21891">
        <ele>674.1</ele>
        <time>2021-12-18T14:17:27.000Z</time>
      </trkpt>
      <trkpt lat="43.46985" lon="2.21902">
        <ele>674.3</ele>
        <time>2021-12-18T14:17:30.000Z</time>
      </trkpt>
      <trkpt lat="43.46977" lon="2.21913">
        <ele>674.5</ele>
        <time>2021-12-18T14:17:34.000Z</time>
      </trkpt>
      <trkpt lat="43.46968" lon="2.21923">
        <ele>674.7</ele>
        <time>2021-12-18T14:17:38.000Z</time>
      </trkpt>
      <trkpt lat="43.46961" lon="2.21933">
        <ele>674.9</ele>
        <time>2021-12-18T14:17:42.000Z</time>
      </trkpt>
      <trkpt lat="43.46961" lon="2.21933">
        <ele>674.9</ele>
        <time>2021-12-18T14:17:42.000Z</time>
      </trkpt>
      <trkpt lat="43.46955" lon="2.21943">
        <ele>675.1</ele>
        <time>2021-12-18T14:17:45.000Z</time>
      </trkpt>
      <trkpt lat="43.46948" lon="2.21957">
        <ele>675.2</ele>
        <time>2021-12-18T14:17:49.000Z</time>
      </trkpt>
      <trkpt lat="43.46941" lon="2.2197">
        <ele>675.4</ele>
        <time>2021-12-18T14:17:53.000Z</time>
      </trkpt>
      <trkpt lat="43.46935" lon="2.21981">
        <ele>675.4</ele>
        <time>2021-12-18T14:17:56.000Z</time>
      </trkpt>
      <trkpt lat="43.46928" lon="2.21991">
        <ele>675.4</ele>
        <time>2021-12-18T14:18:00.000Z</time>
      </trkpt>
      <trkpt lat="43.4692" lon="2.21999">
        <ele>675.3</ele>
        <time>2021-12-18T14:18:04.000Z</time>
      </trkpt>
      <trkpt lat="43.46913" lon="2.22011">
        <ele>675.2</ele>
        <time>2021-12-18T14:18:08.000Z</time>
      </trkpt>
      <trkpt lat="43.46905" lon="2.2202">
        <ele>675.1</ele>
        <time>2021-12-18T14:18:12.000Z</time>
      </trkpt>
      <trkpt lat="43.46896" lon="2.22028">
        <ele>675.1</ele>
        <time>2021-12-18T14:18:16.000Z</time>
      </trkpt>
      <trkpt lat="43.46887" lon="2.22035">
        <ele>675.3</ele>
        <time>2021-12-18T14:18:20.000Z</time>
      </trkpt>
      <trkpt lat="43.46878" lon="2.22037">
        <ele>675.4</ele>
        <time>2021-12-18T14:18:23.000Z</time>
      </trkpt>
      <trkpt lat="43.46866" lon="2.22033">
        <ele>676</ele>
        <time>2021-12-18T14:18:27.000Z</time>
      </trkpt>
      <trkpt lat="43.46858" lon="2.22027">
        <ele>676.3</ele>
        <time>2021-12-18T14:18:30.000Z</time>
      </trkpt>
      <trkpt lat="43.46851" lon="2.22018">
        <ele>676.3</ele>
        <time>2021-12-18T14:18:33.000Z</time>
      </trkpt>
      <trkpt lat="43.46844" lon="2.2201">
        <ele>676.1</ele>
        <time>2021-12-18T14:18:36.000Z</time>
      </trkpt>
      <trkpt lat="43.46834" lon="2.22002">
        <ele>676</ele>
        <time>2021-12-18T14:18:39.000Z</time>
      </trkpt>
      <trkpt lat="43.46825" lon="2.21994">
        <ele>676.1</ele>
        <time>2021-12-18T14:18:42.000Z</time>
      </trkpt>
      <trkpt lat="43.46816" lon="2.2199">
        <ele>676.2</ele>
        <time>2021-12-18T14:18:45.000Z</time>
      </trkpt>
      <trkpt lat="43.46805" lon="2.21987">
        <ele>676.3</ele>
        <time>2021-12-18T14:18:49.000Z</time>
      </trkpt>
      <trkpt lat="43.46794" lon="2.21986">
        <ele>676.3</ele>
        <time>2021-12-18T14:18:52.000Z</time>
      </trkpt>
      <trkpt lat="43.46783" lon="2.2199">
        <ele>676.1</ele>
        <time>2021-12-18T14:18:55.000Z</time>
      </trkpt>
      <trkpt lat="43.4677" lon="2.21994">
        <ele>676</ele>
        <time>2021-12-18T14:18:58.000Z</time>
      </trkpt>
      <trkpt lat="43.46758" lon="2.21998">
        <ele>676</ele>
        <time>2021-12-18T14:19:01.000Z</time>
      </trkpt>
      <trkpt lat="43.46746" lon="2.22002">
        <ele>675.9</ele>
        <time>2021-12-18T14:19:04.000Z</time>
      </trkpt>
      <trkpt lat="43.46733" lon="2.21999">
        <ele>675.5</ele>
        <time>2021-12-18T14:19:07.000Z</time>
      </trkpt>
      <trkpt lat="43.46722" lon="2.21989">
        <ele>675.6</ele>
        <time>2021-12-18T14:19:10.000Z</time>
      </trkpt>
      <trkpt lat="43.46715" lon="2.2198">
        <ele>675.7</ele>
        <time>2021-12-18T14:19:12.000Z</time>
      </trkpt>
      <trkpt lat="43.46709" lon="2.21971">
        <ele>675.8</ele>
        <time>2021-12-18T14:19:14.000Z</time>
      </trkpt>
      <trkpt lat="43.46703" lon="2.21957">
        <ele>675.7</ele>
        <time>2021-12-18T14:19:17.000Z</time>
      </trkpt>
      <trkpt lat="43.46698" lon="2.21943">
        <ele>675.7</ele>
        <time>2021-12-18T14:19:20.000Z</time>
      </trkpt>
      <trkpt lat="43.46692" lon="2.2193">
        <ele>675.8</ele>
        <time>2021-12-18T14:19:23.000Z</time>
      </trkpt>
      <trkpt lat="43.46684" lon="2.21921">
        <ele>675.9</ele>
        <time>2021-12-18T14:19:26.000Z</time>
      </trkpt>
      <trkpt lat="43.46673" lon="2.21919">
        <ele>675.7</ele>
        <time>2021-12-18T14:19:29.000Z</time>
      </trkpt>
      <trkpt lat="43.46663" lon="2.2192">
        <ele>675.7</ele>
        <time>2021-12-18T14:19:32.000Z</time>
      </trkpt>
      <trkpt lat="43.46652" lon="2.21923">
        <ele>676</ele>
        <time>2021-12-18T14:19:35.000Z</time>
      </trkpt>
      <trkpt lat="43.46642" lon="2.21925">
        <ele>676.4</ele>
        <time>2021-12-18T14:19:38.000Z</time>
      </trkpt>
      <trkpt lat="43.4663" lon="2.21926">
        <ele>676.7</ele>
        <time>2021-12-18T14:19:41.000Z</time>
      </trkpt>
      <trkpt lat="43.46615" lon="2.21922">
        <ele>677.1</ele>
        <time>2021-12-18T14:19:46.000Z</time>
      </trkpt>
      <trkpt lat="43.46604" lon="2.21916">
        <ele>677.5</ele>
        <time>2021-12-18T14:19:49.000Z</time>
      </trkpt>
      <trkpt lat="43.46593" lon="2.21908">
        <ele>677.9</ele>
        <time>2021-12-18T14:19:52.000Z</time>
      </trkpt>
      <trkpt lat="43.46583" lon="2.21899">
        <ele>678.2</ele>
        <time>2021-12-18T14:19:55.000Z</time>
      </trkpt>
      <trkpt lat="43.46574" lon="2.21888">
        <ele>678.5</ele>
        <time>2021-12-18T14:19:58.000Z</time>
      </trkpt>
      <trkpt lat="43.46566" lon="2.21875">
        <ele>678.9</ele>
        <time>2021-12-18T14:20:01.000Z</time>
      </trkpt>
      <trkpt lat="43.46559" lon="2.21861">
        <ele>679.3</ele>
        <time>2021-12-18T14:20:04.000Z</time>
      </trkpt>
      <trkpt lat="43.46554" lon="2.21846">
        <ele>679.4</ele>
        <time>2021-12-18T14:20:07.000Z</time>
      </trkpt>
      <trkpt lat="43.46548" lon="2.21833">
        <ele>679.5</ele>
        <time>2021-12-18T14:20:10.000Z</time>
      </trkpt>
      <trkpt lat="43.46539" lon="2.21823">
        <ele>679.5</ele>
        <time>2021-12-18T14:20:13.000Z</time>
      </trkpt>
      <trkpt lat="43.46527" lon="2.21819">
        <ele>679</ele>
        <time>2021-12-18T14:20:16.000Z</time>
      </trkpt>
      <trkpt lat="43.46516" lon="2.21819">
        <ele>679.8</ele>
        <time>2021-12-18T14:20:19.000Z</time>
      </trkpt>
      <trkpt lat="43.46498" lon="2.21822">
        <ele>680.1</ele>
        <time>2021-12-18T14:20:24.000Z</time>
      </trkpt>
      <trkpt lat="43.46487" lon="2.21821">
        <ele>680</ele>
        <time>2021-12-18T14:20:27.000Z</time>
      </trkpt>
      <trkpt lat="43.46477" lon="2.21817">
        <ele>681.2</ele>
        <time>2021-12-18T14:20:30.000Z</time>
      </trkpt>
      <trkpt lat="43.46469" lon="2.21811">
        <ele>681.9</ele>
        <time>2021-12-18T14:20:33.000Z</time>
      </trkpt>
      <trkpt lat="43.46459" lon="2.218">
        <ele>683</ele>
        <time>2021-12-18T14:20:37.000Z</time>
      </trkpt>
      <trkpt lat="43.46453" lon="2.21788">
        <ele>683.8</ele>
        <time>2021-12-18T14:20:40.000Z</time>
      </trkpt>
      <trkpt lat="43.46449" lon="2.21775">
        <ele>684.7</ele>
        <time>2021-12-18T14:20:43.000Z</time>
      </trkpt>
      <trkpt lat="43.46443" lon="2.21764">
        <ele>685.6</ele>
        <time>2021-12-18T14:20:46.000Z</time>
      </trkpt>
      <trkpt lat="43.46433" lon="2.21758">
        <ele>686.6</ele>
        <time>2021-12-18T14:20:50.000Z</time>
      </trkpt>
      <trkpt lat="43.46416" lon="2.21754">
        <ele>687.8</ele>
        <time>2021-12-18T14:20:55.000Z</time>
      </trkpt>
      <trkpt lat="43.46399" lon="2.2175">
        <ele>689.1</ele>
        <time>2021-12-18T14:21:00.000Z</time>
      </trkpt>
      <trkpt lat="43.4639" lon="2.21745">
        <ele>689.9</ele>
        <time>2021-12-18T14:21:03.000Z</time>
      </trkpt>
      <trkpt lat="43.46381" lon="2.21739">
        <ele>690.6</ele>
        <time>2021-12-18T14:21:06.000Z</time>
      </trkpt>
      <trkpt lat="43.46373" lon="2.21732">
        <ele>691.2</ele>
        <time>2021-12-18T14:21:09.000Z</time>
      </trkpt>
      <trkpt lat="43.46364" lon="2.21725">
        <ele>691.6</ele>
        <time>2021-12-18T14:21:12.000Z</time>
      </trkpt>
      <trkpt lat="43.46355" lon="2.21719">
        <ele>692</ele>
        <time>2021-12-18T14:21:15.000Z</time>
      </trkpt>
      <trkpt lat="43.46345" lon="2.21712">
        <ele>692.2</ele>
        <time>2021-12-18T14:21:18.000Z</time>
      </trkpt>
      <trkpt lat="43.46335" lon="2.21704">
        <ele>692.5</ele>
        <time>2021-12-18T14:21:21.000Z</time>
      </trkpt>
      <trkpt lat="43.46326" lon="2.21694">
        <ele>692.6</ele>
        <time>2021-12-18T14:21:24.000Z</time>
      </trkpt>
      <trkpt lat="43.46316" lon="2.21684">
        <ele>692.8</ele>
        <time>2021-12-18T14:21:27.000Z</time>
      </trkpt>
      <trkpt lat="43.46305" lon="2.21674">
        <ele>692.9</ele>
        <time>2021-12-18T14:21:30.000Z</time>
      </trkpt>
      <trkpt lat="43.46294" lon="2.21665">
        <ele>693.1</ele>
        <time>2021-12-18T14:21:33.000Z</time>
      </trkpt>
      <trkpt lat="43.46286" lon="2.21659">
        <ele>693.2</ele>
        <time>2021-12-18T14:21:35.000Z</time>
      </trkpt>
      <trkpt lat="43.46277" lon="2.21649">
        <ele>693.5</ele>
        <time>2021-12-18T14:21:38.000Z</time>
      </trkpt>
      <trkpt lat="43.46267" lon="2.2164">
        <ele>693.9</ele>
        <time>2021-12-18T14:21:41.000Z</time>
      </trkpt>
      <trkpt lat="43.46259" lon="2.21634">
        <ele>694.5</ele>
        <time>2021-12-18T14:21:44.000Z</time>
      </trkpt>
      <trkpt lat="43.46251" lon="2.21627">
        <ele>695</ele>
        <time>2021-12-18T14:21:47.000Z</time>
      </trkpt>
      <trkpt lat="43.46239" lon="2.21616">
        <ele>696.3</ele>
        <time>2021-12-18T14:21:52.000Z</time>
      </trkpt>
      <trkpt lat="43.46231" lon="2.21608">
        <ele>697.2</ele>
        <time>2021-12-18T14:21:55.000Z</time>
      </trkpt>
      <trkpt lat="43.46223" lon="2.21601">
        <ele>698.2</ele>
        <time>2021-12-18T14:21:58.000Z</time>
      </trkpt>
      <trkpt lat="43.46215" lon="2.21592">
        <ele>699.4</ele>
        <time>2021-12-18T14:22:01.000Z</time>
      </trkpt>
      <trkpt lat="43.46215" lon="2.21592">
        <ele>699.4</ele>
        <time>2021-12-18T14:22:01.000Z</time>
      </trkpt>
      <trkpt lat="43.46207" lon="2.21584">
        <ele>700.5</ele>
        <time>2021-12-18T14:22:04.000Z</time>
      </trkpt>
      <trkpt lat="43.46198" lon="2.21576">
        <ele>701.5</ele>
        <time>2021-12-18T14:22:07.000Z</time>
      </trkpt>
      <trkpt lat="43.4619" lon="2.21563">
        <ele>702.5</ele>
        <time>2021-12-18T14:22:11.000Z</time>
      </trkpt>
      <trkpt lat="43.46183" lon="2.21553">
        <ele>703.4</ele>
        <time>2021-12-18T14:22:14.000Z</time>
      </trkpt>
      <trkpt lat="43.46177" lon="2.21541">
        <ele>704</ele>
        <time>2021-12-18T14:22:17.000Z</time>
      </trkpt>
      <trkpt lat="43.46173" lon="2.21528">
        <ele>704.6</ele>
        <time>2021-12-18T14:22:20.000Z</time>
      </trkpt>
      <trkpt lat="43.46167" lon="2.21515">
        <ele>705.1</ele>
        <time>2021-12-18T14:22:23.000Z</time>
      </trkpt>
      <trkpt lat="43.46159" lon="2.21504">
        <ele>705.5</ele>
        <time>2021-12-18T14:22:26.000Z</time>
      </trkpt>
      <trkpt lat="43.46152" lon="2.21493">
        <ele>705.8</ele>
        <time>2021-12-18T14:22:29.000Z</time>
      </trkpt>
      <trkpt lat="43.46144" lon="2.21485">
        <ele>706.3</ele>
        <time>2021-12-18T14:22:32.000Z</time>
      </trkpt>
      <trkpt lat="43.46135" lon="2.21479">
        <ele>707.2</ele>
        <time>2021-12-18T14:22:36.000Z</time>
      </trkpt>
      <trkpt lat="43.46123" lon="2.2148">
        <ele>707.9</ele>
        <time>2021-12-18T14:22:40.000Z</time>
      </trkpt>
      <trkpt lat="43.46113" lon="2.21484">
        <ele>708</ele>
        <time>2021-12-18T14:22:43.000Z</time>
      </trkpt>
      <trkpt lat="43.46101" lon="2.21491">
        <ele>709</ele>
        <time>2021-12-18T14:22:47.000Z</time>
      </trkpt>
      <trkpt lat="43.46092" lon="2.21496">
        <ele>710.2</ele>
        <time>2021-12-18T14:22:50.000Z</time>
      </trkpt>
      <trkpt lat="43.46081" lon="2.21502">
        <ele>711.3</ele>
        <time>2021-12-18T14:22:54.000Z</time>
      </trkpt>
      <trkpt lat="43.46071" lon="2.21507">
        <ele>712.5</ele>
        <time>2021-12-18T14:22:58.000Z</time>
      </trkpt>
      <trkpt lat="43.46062" lon="2.2151">
        <ele>713.5</ele>
        <time>2021-12-18T14:23:01.000Z</time>
      </trkpt>
      <trkpt lat="43.46053" lon="2.21513">
        <ele>714.4</ele>
        <time>2021-12-18T14:23:04.000Z</time>
      </trkpt>
      <trkpt lat="43.46044" lon="2.21515">
        <ele>715.3</ele>
        <time>2021-12-18T14:23:07.000Z</time>
      </trkpt>
      <trkpt lat="43.46033" lon="2.21517">
        <ele>716.5</ele>
        <time>2021-12-18T14:23:11.000Z</time>
      </trkpt>
      <trkpt lat="43.46023" lon="2.21521">
        <ele>717.7</ele>
        <time>2021-12-18T14:23:15.000Z</time>
      </trkpt>
      <trkpt lat="43.46012" lon="2.21525">
        <ele>718.9</ele>
        <time>2021-12-18T14:23:19.000Z</time>
      </trkpt>
      <trkpt lat="43.46002" lon="2.2153">
        <ele>720</ele>
        <time>2021-12-18T14:23:23.000Z</time>
      </trkpt>
      <trkpt lat="43.45991" lon="2.21535">
        <ele>721.3</ele>
        <time>2021-12-18T14:23:27.000Z</time>
      </trkpt>
      <trkpt lat="43.45982" lon="2.2154">
        <ele>722.3</ele>
        <time>2021-12-18T14:23:30.000Z</time>
      </trkpt>
      <trkpt lat="43.45972" lon="2.21543">
        <ele>723.3</ele>
        <time>2021-12-18T14:23:33.000Z</time>
      </trkpt>
      <trkpt lat="43.45961" lon="2.21545">
        <ele>724.5</ele>
        <time>2021-12-18T14:23:36.000Z</time>
      </trkpt>
      <trkpt lat="43.45953" lon="2.21548">
        <ele>725.7</ele>
        <time>2021-12-18T14:23:39.000Z</time>
      </trkpt>
      <trkpt lat="43.45943" lon="2.21548">
        <ele>726.8</ele>
        <time>2021-12-18T14:23:42.000Z</time>
      </trkpt>
      <trkpt lat="43.45934" lon="2.21549">
        <ele>728</ele>
        <time>2021-12-18T14:23:45.000Z</time>
      </trkpt>
      <trkpt lat="43.45925" lon="2.21551">
        <ele>729.1</ele>
        <time>2021-12-18T14:23:48.000Z</time>
      </trkpt>
      <trkpt lat="43.45916" lon="2.21564">
        <ele>730.6</ele>
        <time>2021-12-18T14:23:53.000Z</time>
      </trkpt>
      <trkpt lat="43.45913" lon="2.21578">
        <ele>731.6</ele>
        <time>2021-12-18T14:23:57.000Z</time>
      </trkpt>
      <trkpt lat="43.45914" lon="2.21593">
        <ele>732.3</ele>
        <time>2021-12-18T14:24:00.000Z</time>
      </trkpt>
      <trkpt lat="43.45913" lon="2.21607">
        <ele>733</ele>
        <time>2021-12-18T14:24:03.000Z</time>
      </trkpt>
      <trkpt lat="43.45914" lon="2.2162">
        <ele>733.8</ele>
        <time>2021-12-18T14:24:06.000Z</time>
      </trkpt>
      <trkpt lat="43.45915" lon="2.21636">
        <ele>734.6</ele>
        <time>2021-12-18T14:24:09.000Z</time>
      </trkpt>
      <trkpt lat="43.45914" lon="2.21651">
        <ele>735.6</ele>
        <time>2021-12-18T14:24:12.000Z</time>
      </trkpt>
      <trkpt lat="43.45913" lon="2.21667">
        <ele>736.7</ele>
        <time>2021-12-18T14:24:15.000Z</time>
      </trkpt>
      <trkpt lat="43.45908" lon="2.21678">
        <ele>737.8</ele>
        <time>2021-12-18T14:24:18.000Z</time>
      </trkpt>
      <trkpt lat="43.45902" lon="2.21689">
        <ele>738.9</ele>
        <time>2021-12-18T14:24:21.000Z</time>
      </trkpt>
      <trkpt lat="43.45897" lon="2.21699">
        <ele>740.1</ele>
        <time>2021-12-18T14:24:24.000Z</time>
      </trkpt>
      <trkpt lat="43.45889" lon="2.21707">
        <ele>741.3</ele>
        <time>2021-12-18T14:24:27.000Z</time>
      </trkpt>
      <trkpt lat="43.45881" lon="2.21711">
        <ele>742.4</ele>
        <time>2021-12-18T14:24:30.000Z</time>
      </trkpt>
      <trkpt lat="43.45869" lon="2.21711">
        <ele>743.8</ele>
        <time>2021-12-18T14:24:35.000Z</time>
      </trkpt>
      <trkpt lat="43.45858" lon="2.21707">
        <ele>745.1</ele>
        <time>2021-12-18T14:24:39.000Z</time>
      </trkpt>
      <trkpt lat="43.45847" lon="2.21701">
        <ele>746.3</ele>
        <time>2021-12-18T14:24:43.000Z</time>
      </trkpt>
      <trkpt lat="43.45839" lon="2.21692">
        <ele>747.3</ele>
        <time>2021-12-18T14:24:47.000Z</time>
      </trkpt>
      <trkpt lat="43.45832" lon="2.21684">
        <ele>748.1</ele>
        <time>2021-12-18T14:24:50.000Z</time>
      </trkpt>
      <trkpt lat="43.4583" lon="2.21671">
        <ele>748.8</ele>
        <time>2021-12-18T14:24:53.000Z</time>
      </trkpt>
      <trkpt lat="43.4583" lon="2.21655">
        <ele>749.4</ele>
        <time>2021-12-18T14:24:57.000Z</time>
      </trkpt>
      <trkpt lat="43.45832" lon="2.21642">
        <ele>749.8</ele>
        <time>2021-12-18T14:25:00.000Z</time>
      </trkpt>
      <trkpt lat="43.45836" lon="2.2163">
        <ele>750.3</ele>
        <time>2021-12-18T14:25:03.000Z</time>
      </trkpt>
      <trkpt lat="43.45842" lon="2.21615">
        <ele>750.7</ele>
        <time>2021-12-18T14:25:06.000Z</time>
      </trkpt>
      <trkpt lat="43.45846" lon="2.21597">
        <ele>751.2</ele>
        <time>2021-12-18T14:25:09.000Z</time>
      </trkpt>
      <trkpt lat="43.4585" lon="2.21582">
        <ele>751.8</ele>
        <time>2021-12-18T14:25:12.000Z</time>
      </trkpt>
      <trkpt lat="43.4585" lon="2.21565">
        <ele>752.6</ele>
        <time>2021-12-18T14:25:15.000Z</time>
      </trkpt>
      <trkpt lat="43.45849" lon="2.2155">
        <ele>753.1</ele>
        <time>2021-12-18T14:25:18.000Z</time>
      </trkpt>
      <trkpt lat="43.45843" lon="2.21535">
        <ele>753.6</ele>
        <time>2021-12-18T14:25:21.000Z</time>
      </trkpt>
      <trkpt lat="43.45832" lon="2.21527">
        <ele>754</ele>
        <time>2021-12-18T14:25:25.000Z</time>
      </trkpt>
      <trkpt lat="43.45821" lon="2.2152">
        <ele>754.1</ele>
        <time>2021-12-18T14:25:29.000Z</time>
      </trkpt>
      <trkpt lat="43.45814" lon="2.21513">
        <ele>753.7</ele>
        <time>2021-12-18T14:25:32.000Z</time>
      </trkpt>
      <trkpt lat="43.45804" lon="2.215">
        <ele>753.4</ele>
        <time>2021-12-18T14:25:35.000Z</time>
      </trkpt>
      <trkpt lat="43.45796" lon="2.2149">
        <ele>753.2</ele>
        <time>2021-12-18T14:25:37.000Z</time>
      </trkpt>
      <trkpt lat="43.45788" lon="2.21482">
        <ele>753.1</ele>
        <time>2021-12-18T14:25:39.000Z</time>
      </trkpt>
      <trkpt lat="43.45779" lon="2.21475">
        <ele>753</ele>
        <time>2021-12-18T14:25:42.000Z</time>
      </trkpt>
      <trkpt lat="43.45768" lon="2.21467">
        <ele>752.9</ele>
        <time>2021-12-18T14:25:45.000Z</time>
      </trkpt>
      <trkpt lat="43.45759" lon="2.21462">
        <ele>753</ele>
        <time>2021-12-18T14:25:47.000Z</time>
      </trkpt>
      <trkpt lat="43.45749" lon="2.21453">
        <ele>753.3</ele>
        <time>2021-12-18T14:25:50.000Z</time>
      </trkpt>
      <trkpt lat="43.4574" lon="2.21447">
        <ele>754</ele>
        <time>2021-12-18T14:25:53.000Z</time>
      </trkpt>
      <trkpt lat="43.45727" lon="2.21443">
        <ele>755.4</ele>
        <time>2021-12-18T14:25:57.000Z</time>
      </trkpt>
      <trkpt lat="43.45717" lon="2.21441">
        <ele>756.5</ele>
        <time>2021-12-18T14:26:00.000Z</time>
      </trkpt>
      <trkpt lat="43.45707" lon="2.2144">
        <ele>757.5</ele>
        <time>2021-12-18T14:26:03.000Z</time>
      </trkpt>
      <trkpt lat="43.45698" lon="2.2144">
        <ele>758.9</ele>
        <time>2021-12-18T14:26:07.000Z</time>
      </trkpt>
      <trkpt lat="43.45685" lon="2.21438">
        <ele>760.2</ele>
        <time>2021-12-18T14:26:11.000Z</time>
      </trkpt>
      <trkpt lat="43.45674" lon="2.21436">
        <ele>761.3</ele>
        <time>2021-12-18T14:26:14.000Z</time>
      </trkpt>
      <trkpt lat="43.45662" lon="2.21434">
        <ele>762.5</ele>
        <time>2021-12-18T14:26:17.000Z</time>
      </trkpt>
      <trkpt lat="43.45651" lon="2.21438">
        <ele>763.9</ele>
        <time>2021-12-18T14:26:20.000Z</time>
      </trkpt>
      <trkpt lat="43.45642" lon="2.21445">
        <ele>765.3</ele>
        <time>2021-12-18T14:26:23.000Z</time>
      </trkpt>
      <trkpt lat="43.4564" lon="2.2146">
        <ele>767.2</ele>
        <time>2021-12-18T14:26:28.000Z</time>
      </trkpt>
      <trkpt lat="43.45643" lon="2.21474">
        <ele>768.4</ele>
        <time>2021-12-18T14:26:32.000Z</time>
      </trkpt>
      <trkpt lat="43.45644" lon="2.21489">
        <ele>769.7</ele>
        <time>2021-12-18T14:26:36.000Z</time>
      </trkpt>
      <trkpt lat="43.45639" lon="2.21503">
        <ele>771</ele>
        <time>2021-12-18T14:26:40.000Z</time>
      </trkpt>
      <trkpt lat="43.45644" lon="2.21489">
        <ele>769.7</ele>
        <time>2021-12-18T14:26:36.000Z</time>
      </trkpt>
      <trkpt lat="43.45639" lon="2.21503">
        <ele>771</ele>
        <time>2021-12-18T14:26:40.000Z</time>
      </trkpt>
      <trkpt lat="43.4563" lon="2.21505">
        <ele>772.2</ele>
        <time>2021-12-18T14:26:44.000Z</time>
      </trkpt>
      <trkpt lat="43.45622" lon="2.21495">
        <ele>773.4</ele>
        <time>2021-12-18T14:26:48.000Z</time>
      </trkpt>
      <trkpt lat="43.45618" lon="2.21484">
        <ele>774.2</ele>
        <time>2021-12-18T14:26:51.000Z</time>
      </trkpt>
      <trkpt lat="43.45612" lon="2.21472">
        <ele>775</ele>
        <time>2021-12-18T14:26:54.000Z</time>
      </trkpt>
      <trkpt lat="43.45606" lon="2.21462">
        <ele>775.8</ele>
        <time>2021-12-18T14:26:57.000Z</time>
      </trkpt>
      <trkpt lat="43.45601" lon="2.21452">
        <ele>776.7</ele>
        <time>2021-12-18T14:27:00.000Z</time>
      </trkpt>
      <trkpt lat="43.45593" lon="2.2144">
        <ele>777.8</ele>
        <time>2021-12-18T14:27:04.000Z</time>
      </trkpt>
      <trkpt lat="43.45586" lon="2.2143">
        <ele>778.7</ele>
        <time>2021-12-18T14:27:07.000Z</time>
      </trkpt>
      <trkpt lat="43.45579" lon="2.21422">
        <ele>779.4</ele>
        <time>2021-12-18T14:27:10.000Z</time>
      </trkpt>
      <trkpt lat="43.4557" lon="2.21415">
        <ele>779.9</ele>
        <time>2021-12-18T14:27:14.000Z</time>
      </trkpt>
      <trkpt lat="43.45573" lon="2.21403">
        <ele>780.7</ele>
        <time>2021-12-18T14:27:21.000Z</time>
      </trkpt>
      <trkpt lat="43.45563" lon="2.2141">
        <ele>781.1</ele>
        <time>2021-12-18T14:27:35.000Z</time>
      </trkpt>
      <trkpt lat="43.45553" lon="2.2141">
        <ele>780.7</ele>
        <time>2021-12-18T14:27:39.000Z</time>
      </trkpt>
      <trkpt lat="43.45543" lon="2.21412">
        <ele>780.5</ele>
        <time>2021-12-18T14:27:43.000Z</time>
      </trkpt>
      <trkpt lat="43.45533" lon="2.21413">
        <ele>780.3</ele>
        <time>2021-12-18T14:27:47.000Z</time>
      </trkpt>
      <trkpt lat="43.45521" lon="2.21415">
        <ele>779.9</ele>
        <time>2021-12-18T14:27:50.000Z</time>
      </trkpt>
      <trkpt lat="43.45513" lon="2.2142">
        <ele>779.7</ele>
        <time>2021-12-18T14:27:52.000Z</time>
      </trkpt>
      <trkpt lat="43.45505" lon="2.21427">
        <ele>779.4</ele>
        <time>2021-12-18T14:27:54.000Z</time>
      </trkpt>
      <trkpt lat="43.45496" lon="2.21435">
        <ele>778.8</ele>
        <time>2021-12-18T14:27:56.000Z</time>
      </trkpt>
      <trkpt lat="43.45489" lon="2.21443">
        <ele>778.1</ele>
        <time>2021-12-18T14:27:58.000Z</time>
      </trkpt>
      <trkpt lat="43.45482" lon="2.21454">
        <ele>777.3</ele>
        <time>2021-12-18T14:28:00.000Z</time>
      </trkpt>
      <trkpt lat="43.45477" lon="2.21464">
        <ele>776.4</ele>
        <time>2021-12-18T14:28:02.000Z</time>
      </trkpt>
      <trkpt lat="43.45471" lon="2.21475">
        <ele>775.5</ele>
        <time>2021-12-18T14:28:04.000Z</time>
      </trkpt>
      <trkpt lat="43.45465" lon="2.21485">
        <ele>774.5</ele>
        <time>2021-12-18T14:28:06.000Z</time>
      </trkpt>
      <trkpt lat="43.45457" lon="2.215">
        <ele>773</ele>
        <time>2021-12-18T14:28:09.000Z</time>
      </trkpt>
      <trkpt lat="43.45451" lon="2.2151">
        <ele>772</ele>
        <time>2021-12-18T14:28:11.000Z</time>
      </trkpt>
      <trkpt lat="43.45445" lon="2.21522">
        <ele>770.4</ele>
        <time>2021-12-18T14:28:14.000Z</time>
      </trkpt>
      <trkpt lat="43.45442" lon="2.21534">
        <ele>768.5</ele>
        <time>2021-12-18T14:28:18.000Z</time>
      </trkpt>
      <trkpt lat="43.4544" lon="2.21546">
        <ele>767.5</ele>
        <time>2021-12-18T14:28:21.000Z</time>
      </trkpt>
      <trkpt lat="43.45437" lon="2.21559">
        <ele>766.2</ele>
        <time>2021-12-18T14:28:25.000Z</time>
      </trkpt>
      <trkpt lat="43.45431" lon="2.21569">
        <ele>764.4</ele>
        <time>2021-12-18T14:28:50.000Z</time>
      </trkpt>
      <trkpt lat="43.45429" lon="2.21581">
        <ele>764.6</ele>
        <time>2021-12-18T14:29:21.000Z</time>
      </trkpt>
      <trkpt lat="43.45428" lon="2.21596">
        <ele>764.6</ele>
        <time>2021-12-18T14:29:27.000Z</time>
      </trkpt>
      <trkpt lat="43.45425" lon="2.2161">
        <ele>764.3</ele>
        <time>2021-12-18T14:29:31.000Z</time>
      </trkpt>
      <trkpt lat="43.45419" lon="2.21625">
        <ele>764</ele>
        <time>2021-12-18T14:29:35.000Z</time>
      </trkpt>
      <trkpt lat="43.45413" lon="2.2164">
        <ele>763.7</ele>
        <time>2021-12-18T14:29:38.000Z</time>
      </trkpt>
      <trkpt lat="43.45412" lon="2.21654">
        <ele>763.4</ele>
        <time>2021-12-18T14:29:40.000Z</time>
      </trkpt>
      <trkpt lat="43.4542" lon="2.21667">
        <ele>763</ele>
        <time>2021-12-18T14:29:42.000Z</time>
      </trkpt>
      <trkpt lat="43.45427" lon="2.21681">
        <ele>762.7</ele>
        <time>2021-12-18T14:29:44.000Z</time>
      </trkpt>
      <trkpt lat="43.45434" lon="2.21696">
        <ele>762.1</ele>
        <time>2021-12-18T14:29:46.000Z</time>
      </trkpt>
      <trkpt lat="43.4544" lon="2.21713">
        <ele>761.7</ele>
        <time>2021-12-18T14:29:48.000Z</time>
      </trkpt>
      <trkpt lat="43.45445" lon="2.21731">
        <ele>761.2</ele>
        <time>2021-12-18T14:29:50.000Z</time>
      </trkpt>
      <trkpt lat="43.45448" lon="2.21747">
        <ele>760.6</ele>
        <time>2021-12-18T14:29:52.000Z</time>
      </trkpt>
      <trkpt lat="43.45452" lon="2.2176">
        <ele>759.2</ele>
        <time>2021-12-18T14:29:55.000Z</time>
      </trkpt>
      <trkpt lat="43.45464" lon="2.21758">
        <ele>757.9</ele>
        <time>2021-12-18T14:29:59.000Z</time>
      </trkpt>
      <trkpt lat="43.45479" lon="2.21752">
        <ele>757.3</ele>
        <time>2021-12-18T14:30:01.000Z</time>
      </trkpt>
      <trkpt lat="43.45494" lon="2.2175">
        <ele>756.8</ele>
        <time>2021-12-18T14:30:03.000Z</time>
      </trkpt>
      <trkpt lat="43.45509" lon="2.2175">
        <ele>756.3</ele>
        <time>2021-12-18T14:30:05.000Z</time>
      </trkpt>
      <trkpt lat="43.45522" lon="2.21752">
        <ele>755.7</ele>
        <time>2021-12-18T14:30:07.000Z</time>
      </trkpt>
      <trkpt lat="43.45536" lon="2.21756">
        <ele>755.1</ele>
        <time>2021-12-18T14:30:09.000Z</time>
      </trkpt>
      <trkpt lat="43.45551" lon="2.21759">
        <ele>754.4</ele>
        <time>2021-12-18T14:30:11.000Z</time>
      </trkpt>
      <trkpt lat="43.45566" lon="2.21764">
        <ele>753.5</ele>
        <time>2021-12-18T14:30:13.000Z</time>
      </trkpt>
      <trkpt lat="43.45581" lon="2.21769">
        <ele>752.8</ele>
        <time>2021-12-18T14:30:15.000Z</time>
      </trkpt>
      <trkpt lat="43.45597" lon="2.21776">
        <ele>752.1</ele>
        <time>2021-12-18T14:30:17.000Z</time>
      </trkpt>
      <trkpt lat="43.45613" lon="2.21783">
        <ele>751.6</ele>
        <time>2021-12-18T14:30:19.000Z</time>
      </trkpt>
      <trkpt lat="43.45628" lon="2.21791">
        <ele>750.8</ele>
        <time>2021-12-18T14:30:21.000Z</time>
      </trkpt>
      <trkpt lat="43.45636" lon="2.21798">
        <ele>750.3</ele>
        <time>2021-12-18T14:30:22.000Z</time>
      </trkpt>
      <trkpt lat="43.45643" lon="2.21805">
        <ele>749.9</ele>
        <time>2021-12-18T14:30:23.000Z</time>
      </trkpt>
      <trkpt lat="43.45651" lon="2.21814">
        <ele>749.4</ele>
        <time>2021-12-18T14:30:24.000Z</time>
      </trkpt>
      <trkpt lat="43.45657" lon="2.21824">
        <ele>748.9</ele>
        <time>2021-12-18T14:30:25.000Z</time>
      </trkpt>
      <trkpt lat="43.45663" lon="2.21833">
        <ele>748.4</ele>
        <time>2021-12-18T14:30:26.000Z</time>
      </trkpt>
      <trkpt lat="43.45667" lon="2.21845">
        <ele>747.9</ele>
        <time>2021-12-18T14:30:27.000Z</time>
      </trkpt>
      <trkpt lat="43.45672" lon="2.21867">
        <ele>747</ele>
        <time>2021-12-18T14:30:29.000Z</time>
      </trkpt>
      <trkpt lat="43.45673" lon="2.21891">
        <ele>746.2</ele>
        <time>2021-12-18T14:30:31.000Z</time>
      </trkpt>
      <trkpt lat="43.4567" lon="2.21911">
        <ele>745.5</ele>
        <time>2021-12-18T14:30:33.000Z</time>
      </trkpt>
      <trkpt lat="43.45663" lon="2.21927">
        <ele>745</ele>
        <time>2021-12-18T14:30:35.000Z</time>
      </trkpt>
      <trkpt lat="43.45651" lon="2.21938">
        <ele>744.4</ele>
        <time>2021-12-18T14:30:37.000Z</time>
      </trkpt>
      <trkpt lat="43.45641" lon="2.21948">
        <ele>743.9</ele>
        <time>2021-12-18T14:30:39.000Z</time>
      </trkpt>
      <trkpt lat="43.45637" lon="2.2196">
        <ele>743.3</ele>
        <time>2021-12-18T14:30:41.000Z</time>
      </trkpt>
      <trkpt lat="43.45643" lon="2.21972">
        <ele>742.8</ele>
        <time>2021-12-18T14:30:44.000Z</time>
      </trkpt>
      <trkpt lat="43.45655" lon="2.21979">
        <ele>742.4</ele>
        <time>2021-12-18T14:30:48.000Z</time>
      </trkpt>
      <trkpt lat="43.45663" lon="2.21986">
        <ele>742.5</ele>
        <time>2021-12-18T14:30:50.000Z</time>
      </trkpt>
      <trkpt lat="43.4567" lon="2.21995">
        <ele>742.6</ele>
        <time>2021-12-18T14:30:52.000Z</time>
      </trkpt>
      <trkpt lat="43.45677" lon="2.22004">
        <ele>742.8</ele>
        <time>2021-12-18T14:30:54.000Z</time>
      </trkpt>
      <trkpt lat="43.45685" lon="2.22016">
        <ele>743.4</ele>
        <time>2021-12-18T14:30:57.000Z</time>
      </trkpt>
      <trkpt lat="43.45693" lon="2.22029">
        <ele>743.9</ele>
        <time>2021-12-18T14:31:00.000Z</time>
      </trkpt>
      <trkpt lat="43.457" lon="2.22044">
        <ele>744.4</ele>
        <time>2021-12-18T14:31:03.000Z</time>
      </trkpt>
      <trkpt lat="43.457" lon="2.22044">
        <ele>744.4</ele>
        <time>2021-12-18T14:31:03.000Z</time>
      </trkpt>
      <trkpt lat="43.45708" lon="2.22058">
        <ele>744.9</ele>
        <time>2021-12-18T14:31:06.000Z</time>
      </trkpt>
      <trkpt lat="43.45714" lon="2.22071">
        <ele>745.5</ele>
        <time>2021-12-18T14:31:09.000Z</time>
      </trkpt>
      <trkpt lat="43.45718" lon="2.22083">
        <ele>746.2</ele>
        <time>2021-12-18T14:31:12.000Z</time>
      </trkpt>
      <trkpt lat="43.45722" lon="2.22097">
        <ele>747</ele>
        <time>2021-12-18T14:31:15.000Z</time>
      </trkpt>
      <trkpt lat="43.45724" lon="2.2211">
        <ele>747.8</ele>
        <time>2021-12-18T14:31:18.000Z</time>
      </trkpt>
      <trkpt lat="43.45727" lon="2.22126">
        <ele>748.5</ele>
        <time>2021-12-18T14:31:21.000Z</time>
      </trkpt>
      <trkpt lat="43.45731" lon="2.22141">
        <ele>749.2</ele>
        <time>2021-12-18T14:31:24.000Z</time>
      </trkpt>
      <trkpt lat="43.45735" lon="2.22156">
        <ele>750</ele>
        <time>2021-12-18T14:31:27.000Z</time>
      </trkpt>
      <trkpt lat="43.45739" lon="2.2217">
        <ele>750.7</ele>
        <time>2021-12-18T14:31:30.000Z</time>
      </trkpt>
      <trkpt lat="43.45743" lon="2.22185">
        <ele>751.5</ele>
        <time>2021-12-18T14:31:33.000Z</time>
      </trkpt>
      <trkpt lat="43.45747" lon="2.22201">
        <ele>752.2</ele>
        <time>2021-12-18T14:31:36.000Z</time>
      </trkpt>
      <trkpt lat="43.45749" lon="2.22216">
        <ele>752.9</ele>
        <time>2021-12-18T14:31:39.000Z</time>
      </trkpt>
      <trkpt lat="43.4575" lon="2.22232">
        <ele>753.6</ele>
        <time>2021-12-18T14:31:42.000Z</time>
      </trkpt>
      <trkpt lat="43.45751" lon="2.22245">
        <ele>754.2</ele>
        <time>2021-12-18T14:31:45.000Z</time>
      </trkpt>
      <trkpt lat="43.45752" lon="2.22261">
        <ele>754.8</ele>
        <time>2021-12-18T14:31:48.000Z</time>
      </trkpt>
      <trkpt lat="43.45752" lon="2.22275">
        <ele>755.4</ele>
        <time>2021-12-18T14:31:51.000Z</time>
      </trkpt>
      <trkpt lat="43.45751" lon="2.22292">
        <ele>756.2</ele>
        <time>2021-12-18T14:31:54.000Z</time>
      </trkpt>
      <trkpt lat="43.45748" lon="2.22305">
        <ele>756.9</ele>
        <time>2021-12-18T14:31:57.000Z</time>
      </trkpt>
      <trkpt lat="43.45746" lon="2.22319">
        <ele>757.7</ele>
        <time>2021-12-18T14:32:00.000Z</time>
      </trkpt>
      <trkpt lat="43.45745" lon="2.22332">
        <ele>758.7</ele>
        <time>2021-12-18T14:32:04.000Z</time>
      </trkpt>
      <trkpt lat="43.45754" lon="2.22338">
        <ele>759.5</ele>
        <time>2021-12-18T14:32:07.000Z</time>
      </trkpt>
      <trkpt lat="43.45763" lon="2.22339">
        <ele>760.3</ele>
        <time>2021-12-18T14:32:10.000Z</time>
      </trkpt>
      <trkpt lat="43.45774" lon="2.22341">
        <ele>761</ele>
        <time>2021-12-18T14:32:13.000Z</time>
      </trkpt>
      <trkpt lat="43.45783" lon="2.22345">
        <ele>761.6</ele>
        <time>2021-12-18T14:32:16.000Z</time>
      </trkpt>
      <trkpt lat="43.45793" lon="2.22352">
        <ele>762.2</ele>
        <time>2021-12-18T14:32:19.000Z</time>
      </trkpt>
      <trkpt lat="43.45803" lon="2.22361">
        <ele>762.8</ele>
        <time>2021-12-18T14:32:22.000Z</time>
      </trkpt>
      <trkpt lat="43.45813" lon="2.22365">
        <ele>763.4</ele>
        <time>2021-12-18T14:32:25.000Z</time>
      </trkpt>
      <trkpt lat="43.45826" lon="2.22369">
        <ele>764</ele>
        <time>2021-12-18T14:32:28.000Z</time>
      </trkpt>
      <trkpt lat="43.45837" lon="2.22371">
        <ele>764.6</ele>
        <time>2021-12-18T14:32:31.000Z</time>
      </trkpt>
      <trkpt lat="43.45848" lon="2.22376">
        <ele>765.4</ele>
        <time>2021-12-18T14:32:34.000Z</time>
      </trkpt>
      <trkpt lat="43.45859" lon="2.22382">
        <ele>766.1</ele>
        <time>2021-12-18T14:32:37.000Z</time>
      </trkpt>
      <trkpt lat="43.45869" lon="2.22392">
        <ele>766.8</ele>
        <time>2021-12-18T14:32:40.000Z</time>
      </trkpt>
      <trkpt lat="43.45882" lon="2.22401">
        <ele>767.5</ele>
        <time>2021-12-18T14:32:43.000Z</time>
      </trkpt>
      <trkpt lat="43.45894" lon="2.22412">
        <ele>768.2</ele>
        <time>2021-12-18T14:32:46.000Z</time>
      </trkpt>
      <trkpt lat="43.45904" lon="2.22418">
        <ele>768.8</ele>
        <time>2021-12-18T14:32:49.000Z</time>
      </trkpt>
      <trkpt lat="43.45912" lon="2.22426">
        <ele>769.4</ele>
        <time>2021-12-18T14:32:52.000Z</time>
      </trkpt>
      <trkpt lat="43.45923" lon="2.22436">
        <ele>770.1</ele>
        <time>2021-12-18T14:32:55.000Z</time>
      </trkpt>
      <trkpt lat="43.45932" lon="2.22443">
        <ele>770.5</ele>
        <time>2021-12-18T14:32:57.000Z</time>
      </trkpt>
      <trkpt lat="43.4594" lon="2.2245">
        <ele>770.9</ele>
        <time>2021-12-18T14:32:59.000Z</time>
      </trkpt>
      <trkpt lat="43.45953" lon="2.22459">
        <ele>771.6</ele>
        <time>2021-12-18T14:33:02.000Z</time>
      </trkpt>
      <trkpt lat="43.4596" lon="2.22468">
        <ele>772</ele>
        <time>2021-12-18T14:33:04.000Z</time>
      </trkpt>
      <trkpt lat="43.45968" lon="2.22476">
        <ele>772.4</ele>
        <time>2021-12-18T14:33:06.000Z</time>
      </trkpt>
      <trkpt lat="43.45975" lon="2.22488">
        <ele>773.2</ele>
        <time>2021-12-18T14:33:09.000Z</time>
      </trkpt>
      <trkpt lat="43.45983" lon="2.22501">
        <ele>773.9</ele>
        <time>2021-12-18T14:33:13.000Z</time>
      </trkpt>
      <trkpt lat="43.4599" lon="2.22513">
        <ele>774.5</ele>
        <time>2021-12-18T14:33:16.000Z</time>
      </trkpt>
      <trkpt lat="43.45996" lon="2.22524">
        <ele>775.2</ele>
        <time>2021-12-18T14:33:19.000Z</time>
      </trkpt>
      <trkpt lat="43.46003" lon="2.22536">
        <ele>775.8</ele>
        <time>2021-12-18T14:33:22.000Z</time>
      </trkpt>
      <trkpt lat="43.46009" lon="2.22546">
        <ele>776.3</ele>
        <time>2021-12-18T14:33:25.000Z</time>
      </trkpt>
      <trkpt lat="43.46014" lon="2.22561">
        <ele>777.2</ele>
        <time>2021-12-18T14:33:29.000Z</time>
      </trkpt>
      <trkpt lat="43.46018" lon="2.22573">
        <ele>777.8</ele>
        <time>2021-12-18T14:33:32.000Z</time>
      </trkpt>
      <trkpt lat="43.46026" lon="2.22587">
        <ele>778.5</ele>
        <time>2021-12-18T14:33:35.000Z</time>
      </trkpt>
      <trkpt lat="43.46033" lon="2.22601">
        <ele>779.2</ele>
        <time>2021-12-18T14:33:38.000Z</time>
      </trkpt>
      <trkpt lat="43.4604" lon="2.22615">
        <ele>779.7</ele>
        <time>2021-12-18T14:33:41.000Z</time>
      </trkpt>
      <trkpt lat="43.46045" lon="2.22625">
        <ele>780</ele>
        <time>2021-12-18T14:33:43.000Z</time>
      </trkpt>
      <trkpt lat="43.4605" lon="2.22636">
        <ele>780.3</ele>
        <time>2021-12-18T14:33:45.000Z</time>
      </trkpt>
      <trkpt lat="43.46057" lon="2.22647">
        <ele>780.6</ele>
        <time>2021-12-18T14:33:47.000Z</time>
      </trkpt>
      <trkpt lat="43.46065" lon="2.2266">
        <ele>781.1</ele>
        <time>2021-12-18T14:33:50.000Z</time>
      </trkpt>
      <trkpt lat="43.46071" lon="2.2267">
        <ele>781.4</ele>
        <time>2021-12-18T14:33:52.000Z</time>
      </trkpt>
      <trkpt lat="43.46078" lon="2.22679">
        <ele>781.8</ele>
        <time>2021-12-18T14:33:54.000Z</time>
      </trkpt>
      <trkpt lat="43.46088" lon="2.22689">
        <ele>782.4</ele>
        <time>2021-12-18T14:33:57.000Z</time>
      </trkpt>
      <trkpt lat="43.46099" lon="2.22699">
        <ele>783</ele>
        <time>2021-12-18T14:34:00.000Z</time>
      </trkpt>
      <trkpt lat="43.46109" lon="2.22709">
        <ele>783.4</ele>
        <time>2021-12-18T14:34:03.000Z</time>
      </trkpt>
      <trkpt lat="43.46117" lon="2.22717">
        <ele>783.8</ele>
        <time>2021-12-18T14:34:06.000Z</time>
      </trkpt>
      <trkpt lat="43.46126" lon="2.22727">
        <ele>784.4</ele>
        <time>2021-12-18T14:34:09.000Z</time>
      </trkpt>
      <trkpt lat="43.46136" lon="2.22735">
        <ele>785</ele>
        <time>2021-12-18T14:34:12.000Z</time>
      </trkpt>
      <trkpt lat="43.46144" lon="2.22742">
        <ele>785.3</ele>
        <time>2021-12-18T14:34:14.000Z</time>
      </trkpt>
      <trkpt lat="43.46152" lon="2.22749">
        <ele>785.6</ele>
        <time>2021-12-18T14:34:16.000Z</time>
      </trkpt>
      <trkpt lat="43.46162" lon="2.2276">
        <ele>785.9</ele>
        <time>2021-12-18T14:34:19.000Z</time>
      </trkpt>
      <trkpt lat="43.46167" lon="2.2277">
        <ele>786.2</ele>
        <time>2021-12-18T14:34:21.000Z</time>
      </trkpt>
      <trkpt lat="43.46173" lon="2.22786">
        <ele>786.7</ele>
        <time>2021-12-18T14:34:24.000Z</time>
      </trkpt>
      <trkpt lat="43.46177" lon="2.22802">
        <ele>787.1</ele>
        <time>2021-12-18T14:34:27.000Z</time>
      </trkpt>
      <trkpt lat="43.46178" lon="2.22818">
        <ele>787.4</ele>
        <time>2021-12-18T14:34:30.000Z</time>
      </trkpt>
      <trkpt lat="43.46179" lon="2.22834">
        <ele>787.7</ele>
        <time>2021-12-18T14:34:33.000Z</time>
      </trkpt>
      <trkpt lat="43.46179" lon="2.22849">
        <ele>787.9</ele>
        <time>2021-12-18T14:34:36.000Z</time>
      </trkpt>
      <trkpt lat="43.46172" lon="2.22839">
        <ele>789</ele>
        <time>2021-12-18T14:34:48.000Z</time>
      </trkpt>
      <trkpt lat="43.46171" lon="2.22826">
        <ele>789.6</ele>
        <time>2021-12-18T14:34:52.000Z</time>
      </trkpt>
      <trkpt lat="43.46165" lon="2.22812">
        <ele>790.8</ele>
        <time>2021-12-18T14:34:57.000Z</time>
      </trkpt>
      <trkpt lat="43.46159" lon="2.22803">
        <ele>791.3</ele>
        <time>2021-12-18T14:35:00.000Z</time>
      </trkpt>
      <trkpt lat="43.4615" lon="2.22793">
        <ele>791.7</ele>
        <time>2021-12-18T14:35:04.000Z</time>
      </trkpt>
      <trkpt lat="43.46139" lon="2.22787">
        <ele>792.1</ele>
        <time>2021-12-18T14:35:08.000Z</time>
      </trkpt>
      <trkpt lat="43.4613" lon="2.22782">
        <ele>792.3</ele>
        <time>2021-12-18T14:35:11.000Z</time>
      </trkpt>
      <trkpt lat="43.4613" lon="2.22782">
        <ele>792.3</ele>
        <time>2021-12-18T14:35:11.000Z</time>
      </trkpt>
      <trkpt lat="43.46121" lon="2.22779">
        <ele>792.6</ele>
        <time>2021-12-18T14:35:14.000Z</time>
      </trkpt>
      <trkpt lat="43.46112" lon="2.22775">
        <ele>792.9</ele>
        <time>2021-12-18T14:35:17.000Z</time>
      </trkpt>
      <trkpt lat="43.46104" lon="2.22769">
        <ele>793.2</ele>
        <time>2021-12-18T14:35:20.000Z</time>
      </trkpt>
      <trkpt lat="43.46095" lon="2.22763">
        <ele>793.6</ele>
        <time>2021-12-18T14:35:23.000Z</time>
      </trkpt>
      <trkpt lat="43.46086" lon="2.22755">
        <ele>794</ele>
        <time>2021-12-18T14:35:27.000Z</time>
      </trkpt>
      <trkpt lat="43.46077" lon="2.22745">
        <ele>794.3</ele>
        <time>2021-12-18T14:35:31.000Z</time>
      </trkpt>
      <trkpt lat="43.46069" lon="2.22737">
        <ele>794.2</ele>
        <time>2021-12-18T14:35:34.000Z</time>
      </trkpt>
      <trkpt lat="43.4606" lon="2.22729">
        <ele>793.8</ele>
        <time>2021-12-18T14:35:37.000Z</time>
      </trkpt>
      <trkpt lat="43.46051" lon="2.22722">
        <ele>793.5</ele>
        <time>2021-12-18T14:35:40.000Z</time>
      </trkpt>
      <trkpt lat="43.46042" lon="2.22714">
        <ele>793.2</ele>
        <time>2021-12-18T14:35:44.000Z</time>
      </trkpt>
      <trkpt lat="43.46034" lon="2.22708">
        <ele>793.1</ele>
        <time>2021-12-18T14:35:47.000Z</time>
      </trkpt>
      <trkpt lat="43.46026" lon="2.22702">
        <ele>793.1</ele>
        <time>2021-12-18T14:35:50.000Z</time>
      </trkpt>
      <trkpt lat="43.46018" lon="2.22694">
        <ele>793.1</ele>
        <time>2021-12-18T14:35:53.000Z</time>
      </trkpt>
      <trkpt lat="43.46011" lon="2.22686">
        <ele>793.2</ele>
        <time>2021-12-18T14:35:56.000Z</time>
      </trkpt>
      <trkpt lat="43.46003" lon="2.22677">
        <ele>793.2</ele>
        <time>2021-12-18T14:35:59.000Z</time>
      </trkpt>
      <trkpt lat="43.45995" lon="2.22668">
        <ele>793.2</ele>
        <time>2021-12-18T14:36:03.000Z</time>
      </trkpt>
      <trkpt lat="43.45986" lon="2.22657">
        <ele>793</ele>
        <time>2021-12-18T14:36:07.000Z</time>
      </trkpt>
      <trkpt lat="43.45979" lon="2.22646">
        <ele>792.9</ele>
        <time>2021-12-18T14:36:10.000Z</time>
      </trkpt>
      <trkpt lat="43.45972" lon="2.22637">
        <ele>792.7</ele>
        <time>2021-12-18T14:36:13.000Z</time>
      </trkpt>
      <trkpt lat="43.45963" lon="2.22627">
        <ele>792.7</ele>
        <time>2021-12-18T14:36:17.000Z</time>
      </trkpt>
      <trkpt lat="43.45956" lon="2.22618">
        <ele>792.8</ele>
        <time>2021-12-18T14:36:21.000Z</time>
      </trkpt>
      <trkpt lat="43.45948" lon="2.2261">
        <ele>792.8</ele>
        <time>2021-12-18T14:36:24.000Z</time>
      </trkpt>
      <trkpt lat="43.4594" lon="2.22603">
        <ele>792.8</ele>
        <time>2021-12-18T14:36:27.000Z</time>
      </trkpt>
      <trkpt lat="43.45932" lon="2.22593">
        <ele>792.9</ele>
        <time>2021-12-18T14:36:30.000Z</time>
      </trkpt>
      <trkpt lat="43.45925" lon="2.22583">
        <ele>793.1</ele>
        <time>2021-12-18T14:36:33.000Z</time>
      </trkpt>
      <trkpt lat="43.45916" lon="2.22576">
        <ele>793</ele>
        <time>2021-12-18T14:36:36.000Z</time>
      </trkpt>
      <trkpt lat="43.45908" lon="2.22565">
        <ele>792.9</ele>
        <time>2021-12-18T14:36:39.000Z</time>
      </trkpt>
      <trkpt lat="43.45901" lon="2.22554">
        <ele>792.7</ele>
        <time>2021-12-18T14:36:42.000Z</time>
      </trkpt>
      <trkpt lat="43.45893" lon="2.22543">
        <ele>792.5</ele>
        <time>2021-12-18T14:36:46.000Z</time>
      </trkpt>
      <trkpt lat="43.45884" lon="2.22536">
        <ele>792.4</ele>
        <time>2021-12-18T14:36:49.000Z</time>
      </trkpt>
      <trkpt lat="43.45874" lon="2.2253">
        <ele>792.5</ele>
        <time>2021-12-18T14:36:52.000Z</time>
      </trkpt>
      <trkpt lat="43.45864" lon="2.22525">
        <ele>792.8</ele>
        <time>2021-12-18T14:36:55.000Z</time>
      </trkpt>
      <trkpt lat="43.45852" lon="2.22521">
        <ele>793.4</ele>
        <time>2021-12-18T14:36:59.000Z</time>
      </trkpt>
      <trkpt lat="43.45844" lon="2.22518">
        <ele>793.9</ele>
        <time>2021-12-18T14:37:02.000Z</time>
      </trkpt>
      <trkpt lat="43.45832" lon="2.22515">
        <ele>794.3</ele>
        <time>2021-12-18T14:37:06.000Z</time>
      </trkpt>
      <trkpt lat="43.45822" lon="2.22511">
        <ele>794.5</ele>
        <time>2021-12-18T14:37:09.000Z</time>
      </trkpt>
      <trkpt lat="43.45812" lon="2.22509">
        <ele>794.6</ele>
        <time>2021-12-18T14:37:12.000Z</time>
      </trkpt>
      <trkpt lat="43.45803" lon="2.22508">
        <ele>794.8</ele>
        <time>2021-12-18T14:37:15.000Z</time>
      </trkpt>
      <trkpt lat="43.45792" lon="2.22506">
        <ele>794.9</ele>
        <time>2021-12-18T14:37:18.000Z</time>
      </trkpt>
      <trkpt lat="43.45783" lon="2.22503">
        <ele>795</ele>
        <time>2021-12-18T14:37:21.000Z</time>
      </trkpt>
      <trkpt lat="43.45771" lon="2.22501">
        <ele>794.8</ele>
        <time>2021-12-18T14:37:25.000Z</time>
      </trkpt>
      <trkpt lat="43.45762" lon="2.22496">
        <ele>794.7</ele>
        <time>2021-12-18T14:37:28.000Z</time>
      </trkpt>
      <trkpt lat="43.45753" lon="2.2249">
        <ele>794.6</ele>
        <time>2021-12-18T14:37:31.000Z</time>
      </trkpt>
      <trkpt lat="43.45744" lon="2.22481">
        <ele>794.6</ele>
        <time>2021-12-18T14:37:35.000Z</time>
      </trkpt>
      <trkpt lat="43.45735" lon="2.22475">
        <ele>794.8</ele>
        <time>2021-12-18T14:37:38.000Z</time>
      </trkpt>
      <trkpt lat="43.45725" lon="2.2247">
        <ele>794.9</ele>
        <time>2021-12-18T14:37:41.000Z</time>
      </trkpt>
      <trkpt lat="43.45716" lon="2.22464">
        <ele>795.2</ele>
        <time>2021-12-18T14:37:44.000Z</time>
      </trkpt>
      <trkpt lat="43.45709" lon="2.22457">
        <ele>795.5</ele>
        <time>2021-12-18T14:37:47.000Z</time>
      </trkpt>
      <trkpt lat="43.45701" lon="2.22448">
        <ele>795.7</ele>
        <time>2021-12-18T14:37:50.000Z</time>
      </trkpt>
      <trkpt lat="43.45694" lon="2.22441">
        <ele>796</ele>
        <time>2021-12-18T14:37:53.000Z</time>
      </trkpt>
      <trkpt lat="43.45685" lon="2.22431">
        <ele>796.5</ele>
        <time>2021-12-18T14:37:57.000Z</time>
      </trkpt>
      <trkpt lat="43.45678" lon="2.22421">
        <ele>796.9</ele>
        <time>2021-12-18T14:38:01.000Z</time>
      </trkpt>
      <trkpt lat="43.45672" lon="2.22411">
        <ele>797.7</ele>
        <time>2021-12-18T14:38:05.000Z</time>
      </trkpt>
      <trkpt lat="43.45668" lon="2.22398">
        <ele>798.5</ele>
        <time>2021-12-18T14:38:09.000Z</time>
      </trkpt>
      <trkpt lat="43.45664" lon="2.22384">
        <ele>799.2</ele>
        <time>2021-12-18T14:38:13.000Z</time>
      </trkpt>
      <trkpt lat="43.45661" lon="2.22371">
        <ele>799.9</ele>
        <time>2021-12-18T14:38:17.000Z</time>
      </trkpt>
      <trkpt lat="43.45657" lon="2.22357">
        <ele>800.5</ele>
        <time>2021-12-18T14:38:21.000Z</time>
      </trkpt>
      <trkpt lat="43.45654" lon="2.22344">
        <ele>801.1</ele>
        <time>2021-12-18T14:38:25.000Z</time>
      </trkpt>
      <trkpt lat="43.4565" lon="2.22328">
        <ele>802.1</ele>
        <time>2021-12-18T14:38:30.000Z</time>
      </trkpt>
      <trkpt lat="43.45644" lon="2.22315">
        <ele>802.5</ele>
        <time>2021-12-18T14:38:33.000Z</time>
      </trkpt>
      <trkpt lat="43.45639" lon="2.22301">
        <ele>802.8</ele>
        <time>2021-12-18T14:38:37.000Z</time>
      </trkpt>
      <trkpt lat="43.45635" lon="2.22291">
        <ele>803</ele>
        <time>2021-12-18T14:38:40.000Z</time>
      </trkpt>
      <trkpt lat="43.45632" lon="2.22275">
        <ele>803.3</ele>
        <time>2021-12-18T14:38:44.000Z</time>
      </trkpt>
      <trkpt lat="43.45626" lon="2.22264">
        <ele>803.5</ele>
        <time>2021-12-18T14:38:47.000Z</time>
      </trkpt>
      <trkpt lat="43.45619" lon="2.22254">
        <ele>803.8</ele>
        <time>2021-12-18T14:38:50.000Z</time>
      </trkpt>
      <trkpt lat="43.45612" lon="2.22245">
        <ele>804.1</ele>
        <time>2021-12-18T14:38:53.000Z</time>
      </trkpt>
      <trkpt lat="43.45605" lon="2.22236">
        <ele>804.4</ele>
        <time>2021-12-18T14:38:56.000Z</time>
      </trkpt>
      <trkpt lat="43.45595" lon="2.22227">
        <ele>804.9</ele>
        <time>2021-12-18T14:39:00.000Z</time>
      </trkpt>
      <trkpt lat="43.45586" lon="2.2222">
        <ele>805.6</ele>
        <time>2021-12-18T14:39:04.000Z</time>
      </trkpt>
      <trkpt lat="43.45577" lon="2.22214">
        <ele>806.3</ele>
        <time>2021-12-18T14:39:08.000Z</time>
      </trkpt>
      <trkpt lat="43.45567" lon="2.22207">
        <ele>807</ele>
        <time>2021-12-18T14:39:12.000Z</time>
      </trkpt>
      <trkpt lat="43.45557" lon="2.22201">
        <ele>807.9</ele>
        <time>2021-12-18T14:39:16.000Z</time>
      </trkpt>
      <trkpt lat="43.45549" lon="2.22197">
        <ele>808.5</ele>
        <time>2021-12-18T14:39:19.000Z</time>
      </trkpt>
      <trkpt lat="43.4554" lon="2.22191">
        <ele>809.6</ele>
        <time>2021-12-18T14:39:23.000Z</time>
      </trkpt>
      <trkpt lat="43.45531" lon="2.22186">
        <ele>810.7</ele>
        <time>2021-12-18T14:39:28.000Z</time>
      </trkpt>
      <trkpt lat="43.4552" lon="2.2218">
        <ele>811.4</ele>
        <time>2021-12-18T14:39:32.000Z</time>
      </trkpt>
      <trkpt lat="43.4551" lon="2.22177">
        <ele>812.2</ele>
        <time>2021-12-18T14:39:36.000Z</time>
      </trkpt>
      <trkpt lat="43.455" lon="2.22172">
        <ele>813.1</ele>
        <time>2021-12-18T14:39:40.000Z</time>
      </trkpt>
      <trkpt lat="43.45489" lon="2.22166">
        <ele>813.8</ele>
        <time>2021-12-18T14:39:44.000Z</time>
      </trkpt>
      <trkpt lat="43.4548" lon="2.22157">
        <ele>814.6</ele>
        <time>2021-12-18T14:39:48.000Z</time>
      </trkpt>
      <trkpt lat="43.4547" lon="2.22151">
        <ele>815.4</ele>
        <time>2021-12-18T14:39:52.000Z</time>
      </trkpt>
      <trkpt lat="43.45463" lon="2.22142">
        <ele>816.5</ele>
        <time>2021-12-18T14:39:57.000Z</time>
      </trkpt>
      <trkpt lat="43.45455" lon="2.22131">
        <ele>817.8</ele>
        <time>2021-12-18T14:40:02.000Z</time>
      </trkpt>
      <trkpt lat="43.45447" lon="2.2212">
        <ele>818.8</ele>
        <time>2021-12-18T14:40:06.000Z</time>
      </trkpt>
      <trkpt lat="43.4544" lon="2.2211">
        <ele>820</ele>
        <time>2021-12-18T14:40:10.000Z</time>
      </trkpt>
      <trkpt lat="43.45433" lon="2.22099">
        <ele>821.4</ele>
        <time>2021-12-18T14:40:15.000Z</time>
      </trkpt>
      <trkpt lat="43.45427" lon="2.22088">
        <ele>822.6</ele>
        <time>2021-12-18T14:40:19.000Z</time>
      </trkpt>
      <trkpt lat="43.45427" lon="2.22088">
        <ele>822.6</ele>
        <time>2021-12-18T14:40:19.000Z</time>
      </trkpt>
      <trkpt lat="43.4542" lon="2.2208">
        <ele>823.7</ele>
        <time>2021-12-18T14:40:23.000Z</time>
      </trkpt>
      <trkpt lat="43.45412" lon="2.22072">
        <ele>824.8</ele>
        <time>2021-12-18T14:40:27.000Z</time>
      </trkpt>
      <trkpt lat="43.45405" lon="2.22062">
        <ele>825.8</ele>
        <time>2021-12-18T14:40:31.000Z</time>
      </trkpt>
      <trkpt lat="43.45396" lon="2.22054">
        <ele>826.9</ele>
        <time>2021-12-18T14:40:36.000Z</time>
      </trkpt>
      <trkpt lat="43.45387" lon="2.22048">
        <ele>827.7</ele>
        <time>2021-12-18T14:40:40.000Z</time>
      </trkpt>
      <trkpt lat="43.45378" lon="2.22042">
        <ele>828.5</ele>
        <time>2021-12-18T14:40:45.000Z</time>
      </trkpt>
      <trkpt lat="43.4537" lon="2.22036">
        <ele>829</ele>
        <time>2021-12-18T14:40:49.000Z</time>
      </trkpt>
      <trkpt lat="43.45362" lon="2.22028">
        <ele>829.6</ele>
        <time>2021-12-18T14:40:56.000Z</time>
      </trkpt>
      <trkpt lat="43.45357" lon="2.22018">
        <ele>829.7</ele>
        <time>2021-12-18T14:41:17.000Z</time>
      </trkpt>
      <trkpt lat="43.45347" lon="2.22011">
        <ele>829.7</ele>
        <time>2021-12-18T14:41:29.000Z</time>
      </trkpt>
      <trkpt lat="43.45339" lon="2.22003">
        <ele>830.3</ele>
        <time>2021-12-18T14:41:34.000Z</time>
      </trkpt>
      <trkpt lat="43.45332" lon="2.21994">
        <ele>831.1</ele>
        <time>2021-12-18T14:41:38.000Z</time>
      </trkpt>
      <trkpt lat="43.45323" lon="2.21987">
        <ele>831.9</ele>
        <time>2021-12-18T14:41:42.000Z</time>
      </trkpt>
      <trkpt lat="43.45314" lon="2.21982">
        <ele>832.6</ele>
        <time>2021-12-18T14:41:46.000Z</time>
      </trkpt>
      <trkpt lat="43.45304" lon="2.21981">
        <ele>833.4</ele>
        <time>2021-12-18T14:41:51.000Z</time>
      </trkpt>
      <trkpt lat="43.45294" lon="2.21982">
        <ele>834.4</ele>
        <time>2021-12-18T14:41:56.000Z</time>
      </trkpt>
      <trkpt lat="43.45284" lon="2.21985">
        <ele>835.7</ele>
        <time>2021-12-18T14:42:00.000Z</time>
      </trkpt>
      <trkpt lat="43.45283" lon="2.21998">
        <ele>837.9</ele>
        <time>2021-12-18T14:42:06.000Z</time>
      </trkpt>
      <trkpt lat="43.45287" lon="2.22011">
        <ele>839.3</ele>
        <time>2021-12-18T14:42:11.000Z</time>
      </trkpt>
      <trkpt lat="43.45289" lon="2.22025">
        <ele>840.4</ele>
        <time>2021-12-18T14:42:16.000Z</time>
      </trkpt>
      <trkpt lat="43.45292" lon="2.22039">
        <ele>841.7</ele>
        <time>2021-12-18T14:42:22.000Z</time>
      </trkpt>
      <trkpt lat="43.45296" lon="2.22054">
        <ele>843.2</ele>
        <time>2021-12-18T14:42:28.000Z</time>
      </trkpt>
      <trkpt lat="43.45298" lon="2.22067">
        <ele>844</ele>
        <time>2021-12-18T14:42:32.000Z</time>
      </trkpt>
      <trkpt lat="43.45302" lon="2.22081">
        <ele>844.7</ele>
        <time>2021-12-18T14:42:36.000Z</time>
      </trkpt>
      <trkpt lat="43.45304" lon="2.22095">
        <ele>845.8</ele>
        <time>2021-12-18T14:42:41.000Z</time>
      </trkpt>
      <trkpt lat="43.45308" lon="2.22108">
        <ele>846.8</ele>
        <time>2021-12-18T14:42:45.000Z</time>
      </trkpt>
      <trkpt lat="43.45312" lon="2.22121">
        <ele>847.7</ele>
        <time>2021-12-18T14:42:49.000Z</time>
      </trkpt>
      <trkpt lat="43.45315" lon="2.22135">
        <ele>848.6</ele>
        <time>2021-12-18T14:42:53.000Z</time>
      </trkpt>
      <trkpt lat="43.45318" lon="2.22149">
        <ele>849.8</ele>
        <time>2021-12-18T14:42:58.000Z</time>
      </trkpt>
      <trkpt lat="43.45319" lon="2.22162">
        <ele>850.7</ele>
        <time>2021-12-18T14:43:02.000Z</time>
      </trkpt>
      <trkpt lat="43.45322" lon="2.22176">
        <ele>851.7</ele>
        <time>2021-12-18T14:43:06.000Z</time>
      </trkpt>
      <trkpt lat="43.45326" lon="2.22189">
        <ele>852.6</ele>
        <time>2021-12-18T14:43:10.000Z</time>
      </trkpt>
      <trkpt lat="43.45329" lon="2.22202">
        <ele>853.5</ele>
        <time>2021-12-18T14:43:14.000Z</time>
      </trkpt>
      <trkpt lat="43.45334" lon="2.22213">
        <ele>854.1</ele>
        <time>2021-12-18T14:43:17.000Z</time>
      </trkpt>
      <trkpt lat="43.45339" lon="2.22227">
        <ele>855</ele>
        <time>2021-12-18T14:43:21.000Z</time>
      </trkpt>
      <trkpt lat="43.45343" lon="2.22241">
        <ele>856</ele>
        <time>2021-12-18T14:43:25.000Z</time>
      </trkpt>
      <trkpt lat="43.45348" lon="2.22254">
        <ele>856.9</ele>
        <time>2021-12-18T14:43:29.000Z</time>
      </trkpt>
      <trkpt lat="43.45353" lon="2.22266">
        <ele>857.6</ele>
        <time>2021-12-18T14:43:33.000Z</time>
      </trkpt>
      <trkpt lat="43.45357" lon="2.2228">
        <ele>858.8</ele>
        <time>2021-12-18T14:43:39.000Z</time>
      </trkpt>
      <trkpt lat="43.45359" lon="2.22295">
        <ele>859.9</ele>
        <time>2021-12-18T14:43:44.000Z</time>
      </trkpt>
      <trkpt lat="43.45362" lon="2.2231">
        <ele>860.7</ele>
        <time>2021-12-18T14:43:48.000Z</time>
      </trkpt>
      <trkpt lat="43.45362" lon="2.22323">
        <ele>861.5</ele>
        <time>2021-12-18T14:43:52.000Z</time>
      </trkpt>
      <trkpt lat="43.45364" lon="2.22336">
        <ele>862.7</ele>
        <time>2021-12-18T14:43:57.000Z</time>
      </trkpt>
      <trkpt lat="43.45367" lon="2.22349">
        <ele>863.7</ele>
        <time>2021-12-18T14:44:02.000Z</time>
      </trkpt>
      <trkpt lat="43.45369" lon="2.22363">
        <ele>864.8</ele>
        <time>2021-12-18T14:44:07.000Z</time>
      </trkpt>
      <trkpt lat="43.45371" lon="2.22377">
        <ele>865.7</ele>
        <time>2021-12-18T14:44:11.000Z</time>
      </trkpt>
      <trkpt lat="43.45372" lon="2.22392">
        <ele>866.6</ele>
        <time>2021-12-18T14:44:15.000Z</time>
      </trkpt>
      <trkpt lat="43.45374" lon="2.22405">
        <ele>867.4</ele>
        <time>2021-12-18T14:44:19.000Z</time>
      </trkpt>
      <trkpt lat="43.45374" lon="2.22419">
        <ele>868.1</ele>
        <time>2021-12-18T14:44:23.000Z</time>
      </trkpt>
      <trkpt lat="43.45376" lon="2.22434">
        <ele>869</ele>
        <time>2021-12-18T14:44:27.000Z</time>
      </trkpt>
      <trkpt lat="43.45378" lon="2.22448">
        <ele>869.8</ele>
        <time>2021-12-18T14:44:31.000Z</time>
      </trkpt>
      <trkpt lat="43.45379" lon="2.22462">
        <ele>870.7</ele>
        <time>2021-12-18T14:44:35.000Z</time>
      </trkpt>
      <trkpt lat="43.45378" lon="2.22477">
        <ele>871.6</ele>
        <time>2021-12-18T14:44:39.000Z</time>
      </trkpt>
      <trkpt lat="43.45377" lon="2.22493">
        <ele>872.5</ele>
        <time>2021-12-18T14:44:43.000Z</time>
      </trkpt>
      <trkpt lat="43.45376" lon="2.22508">
        <ele>873.2</ele>
        <time>2021-12-18T14:44:47.000Z</time>
      </trkpt>
      <trkpt lat="43.45375" lon="2.22523">
        <ele>873.9</ele>
        <time>2021-12-18T14:44:51.000Z</time>
      </trkpt>
      <trkpt lat="43.45374" lon="2.22539">
        <ele>874.6</ele>
        <time>2021-12-18T14:44:55.000Z</time>
      </trkpt>
      <trkpt lat="43.45375" lon="2.22556">
        <ele>875.3</ele>
        <time>2021-12-18T14:44:59.000Z</time>
      </trkpt>
      <trkpt lat="43.45378" lon="2.22568">
        <ele>875.9</ele>
        <time>2021-12-18T14:45:02.000Z</time>
      </trkpt>
      <trkpt lat="43.45381" lon="2.22583">
        <ele>876.8</ele>
        <time>2021-12-18T14:45:06.000Z</time>
      </trkpt>
      <trkpt lat="43.45384" lon="2.22596">
        <ele>877.3</ele>
        <time>2021-12-18T14:45:09.000Z</time>
      </trkpt>
      <trkpt lat="43.45385" lon="2.22608">
        <ele>877.8</ele>
        <time>2021-12-18T14:45:12.000Z</time>
      </trkpt>
      <trkpt lat="43.45383" lon="2.22624">
        <ele>878.5</ele>
        <time>2021-12-18T14:45:16.000Z</time>
      </trkpt>
      <trkpt lat="43.45382" lon="2.22639">
        <ele>879.2</ele>
        <time>2021-12-18T14:45:20.000Z</time>
      </trkpt>
      <trkpt lat="43.45381" lon="2.22653">
        <ele>879.7</ele>
        <time>2021-12-18T14:45:24.000Z</time>
      </trkpt>
      <trkpt lat="43.45381" lon="2.22666">
        <ele>880</ele>
        <time>2021-12-18T14:45:28.000Z</time>
      </trkpt>
      <trkpt lat="43.45379" lon="2.22679">
        <ele>880.2</ele>
        <time>2021-12-18T14:45:33.000Z</time>
      </trkpt>
      <trkpt lat="43.45378" lon="2.22692">
        <ele>879.9</ele>
        <time>2021-12-18T14:46:16.000Z</time>
      </trkpt>
      <trkpt lat="43.45373" lon="2.22702">
        <ele>880.1</ele>
        <time>2021-12-18T14:51:07.000Z</time>
      </trkpt>
      <trkpt lat="43.45366" lon="2.2271">
        <ele>879.9</ele>
        <time>2021-12-18T14:51:29.000Z</time>
      </trkpt>
      <trkpt lat="43.45358" lon="2.22719">
        <ele>879.9</ele>
        <time>2021-12-18T14:51:34.000Z</time>
      </trkpt>
      <trkpt lat="43.45348" lon="2.22724">
        <ele>878.9</ele>
        <time>2021-12-18T14:52:09.000Z</time>
      </trkpt>
      <trkpt lat="43.45339" lon="2.22729">
        <ele>878.8</ele>
        <time>2021-12-18T14:52:12.000Z</time>
      </trkpt>
      <trkpt lat="43.45329" lon="2.22733">
        <ele>878.4</ele>
        <time>2021-12-18T14:52:15.000Z</time>
      </trkpt>
      <trkpt lat="43.4532" lon="2.22739">
        <ele>877.8</ele>
        <time>2021-12-18T14:52:18.000Z</time>
      </trkpt>
      <trkpt lat="43.45311" lon="2.22745">
        <ele>876.9</ele>
        <time>2021-12-18T14:52:22.000Z</time>
      </trkpt>
      <trkpt lat="43.45321" lon="2.2274">
        <ele>875.2</ele>
        <time>2021-12-18T14:52:54.000Z</time>
      </trkpt>
      <trkpt lat="43.4533" lon="2.22736">
        <ele>875.5</ele>
        <time>2021-12-18T14:52:58.000Z</time>
      </trkpt>
      <trkpt lat="43.45341" lon="2.22731">
        <ele>876.3</ele>
        <time>2021-12-18T14:53:03.000Z</time>
      </trkpt>
      <trkpt lat="43.4535" lon="2.22725">
        <ele>877.1</ele>
        <time>2021-12-18T14:53:07.000Z</time>
      </trkpt>
      <trkpt lat="43.45359" lon="2.2272">
        <ele>877.9</ele>
        <time>2021-12-18T14:53:11.000Z</time>
      </trkpt>
      <trkpt lat="43.45367" lon="2.22712">
        <ele>878.6</ele>
        <time>2021-12-18T14:53:15.000Z</time>
      </trkpt>
      <trkpt lat="43.45372" lon="2.227">
        <ele>879.5</ele>
        <time>2021-12-18T14:53:20.000Z</time>
      </trkpt>
      <trkpt lat="43.45365" lon="2.22689">
        <ele>880</ele>
        <time>2021-12-18T14:53:25.000Z</time>
      </trkpt>
      <trkpt lat="43.45357" lon="2.22679">
        <ele>880.3</ele>
        <time>2021-12-18T14:53:30.000Z</time>
      </trkpt>
      <trkpt lat="43.4535" lon="2.22669">
        <ele>880.6</ele>
        <time>2021-12-18T14:53:34.000Z</time>
      </trkpt>
      <trkpt lat="43.45344" lon="2.22659">
        <ele>881</ele>
        <time>2021-12-18T14:53:38.000Z</time>
      </trkpt>
      <trkpt lat="43.45337" lon="2.22648">
        <ele>881.5</ele>
        <time>2021-12-18T14:53:42.000Z</time>
      </trkpt>
      <trkpt lat="43.45328" lon="2.22642">
        <ele>881.9</ele>
        <time>2021-12-18T14:53:46.000Z</time>
      </trkpt>
      <trkpt lat="43.45328" lon="2.22642">
        <ele>881.9</ele>
        <time>2021-12-18T14:53:46.000Z</time>
      </trkpt>
      <trkpt lat="43.4532" lon="2.22634">
        <ele>882.2</ele>
        <time>2021-12-18T14:53:50.000Z</time>
      </trkpt>
      <trkpt lat="43.45311" lon="2.22625">
        <ele>882.5</ele>
        <time>2021-12-18T14:53:54.000Z</time>
      </trkpt>
      <trkpt lat="43.45303" lon="2.22618">
        <ele>882.9</ele>
        <time>2021-12-18T14:53:58.000Z</time>
      </trkpt>
      <trkpt lat="43.45296" lon="2.22609">
        <ele>883.3</ele>
        <time>2021-12-18T14:54:02.000Z</time>
      </trkpt>
      <trkpt lat="43.45292" lon="2.22597">
        <ele>883.6</ele>
        <time>2021-12-18T14:54:06.000Z</time>
      </trkpt>
      <trkpt lat="43.45287" lon="2.22584">
        <ele>883.8</ele>
        <time>2021-12-18T14:54:10.000Z</time>
      </trkpt>
      <trkpt lat="43.45282" lon="2.22572">
        <ele>884.1</ele>
        <time>2021-12-18T14:54:14.000Z</time>
      </trkpt>
      <trkpt lat="43.45275" lon="2.22563">
        <ele>884.4</ele>
        <time>2021-12-18T14:54:17.000Z</time>
      </trkpt>
      <trkpt lat="43.45268" lon="2.22551">
        <ele>885</ele>
        <time>2021-12-18T14:54:22.000Z</time>
      </trkpt>
      <trkpt lat="43.45263" lon="2.2254">
        <ele>885.4</ele>
        <time>2021-12-18T14:54:26.000Z</time>
      </trkpt>
      <trkpt lat="43.45254" lon="2.22533">
        <ele>885.9</ele>
        <time>2021-12-18T14:54:30.000Z</time>
      </trkpt>
      <trkpt lat="43.45242" lon="2.22532">
        <ele>886.6</ele>
        <time>2021-12-18T14:54:35.000Z</time>
      </trkpt>
      <trkpt lat="43.45232" lon="2.22531">
        <ele>887.3</ele>
        <time>2021-12-18T14:54:39.000Z</time>
      </trkpt>
      <trkpt lat="43.45223" lon="2.22534">
        <ele>888</ele>
        <time>2021-12-18T14:54:43.000Z</time>
      </trkpt>
      <trkpt lat="43.45214" lon="2.22535">
        <ele>888.6</ele>
        <time>2021-12-18T14:54:47.000Z</time>
      </trkpt>
      <trkpt lat="43.45203" lon="2.22538">
        <ele>889.2</ele>
        <time>2021-12-18T14:54:52.000Z</time>
      </trkpt>
      <trkpt lat="43.45193" lon="2.22542">
        <ele>889.7</ele>
        <time>2021-12-18T14:54:57.000Z</time>
      </trkpt>
      <trkpt lat="43.45183" lon="2.22543">
        <ele>890.1</ele>
        <time>2021-12-18T14:55:01.000Z</time>
      </trkpt>
      <trkpt lat="43.45174" lon="2.22545">
        <ele>890.7</ele>
        <time>2021-12-18T14:55:05.000Z</time>
      </trkpt>
      <trkpt lat="43.45163" lon="2.22546">
        <ele>891.2</ele>
        <time>2021-12-18T14:55:09.000Z</time>
      </trkpt>
      <trkpt lat="43.45153" lon="2.22548">
        <ele>891.8</ele>
        <time>2021-12-18T14:55:13.000Z</time>
      </trkpt>
      <trkpt lat="43.45144" lon="2.2255">
        <ele>892.3</ele>
        <time>2021-12-18T14:55:17.000Z</time>
      </trkpt>
      <trkpt lat="43.45133" lon="2.22553">
        <ele>892.8</ele>
        <time>2021-12-18T14:55:22.000Z</time>
      </trkpt>
      <trkpt lat="43.45123" lon="2.22557">
        <ele>893.3</ele>
        <time>2021-12-18T14:55:26.000Z</time>
      </trkpt>
      <trkpt lat="43.45113" lon="2.22557">
        <ele>894</ele>
        <time>2021-12-18T14:55:30.000Z</time>
      </trkpt>
      <trkpt lat="43.45103" lon="2.22557">
        <ele>894.8</ele>
        <time>2021-12-18T14:55:34.000Z</time>
      </trkpt>
      <trkpt lat="43.45092" lon="2.22558">
        <ele>895.4</ele>
        <time>2021-12-18T14:55:38.000Z</time>
      </trkpt>
      <trkpt lat="43.45082" lon="2.22556">
        <ele>896.1</ele>
        <time>2021-12-18T14:55:42.000Z</time>
      </trkpt>
      <trkpt lat="43.45072" lon="2.22553">
        <ele>896.6</ele>
        <time>2021-12-18T14:55:46.000Z</time>
      </trkpt>
      <trkpt lat="43.45062" lon="2.22549">
        <ele>897.2</ele>
        <time>2021-12-18T14:55:50.000Z</time>
      </trkpt>
      <trkpt lat="43.45051" lon="2.22546">
        <ele>897.9</ele>
        <time>2021-12-18T14:55:55.000Z</time>
      </trkpt>
      <trkpt lat="43.45042" lon="2.2254">
        <ele>898.7</ele>
        <time>2021-12-18T14:55:59.000Z</time>
      </trkpt>
      <trkpt lat="43.45032" lon="2.22533">
        <ele>899.3</ele>
        <time>2021-12-18T14:56:03.000Z</time>
      </trkpt>
      <trkpt lat="43.45022" lon="2.22526">
        <ele>899.8</ele>
        <time>2021-12-18T14:56:07.000Z</time>
      </trkpt>
      <trkpt lat="43.45012" lon="2.22518">
        <ele>900.1</ele>
        <time>2021-12-18T14:56:11.000Z</time>
      </trkpt>
      <trkpt lat="43.45006" lon="2.22508">
        <ele>900.4</ele>
        <time>2021-12-18T14:56:15.000Z</time>
      </trkpt>
      <trkpt lat="43.45002" lon="2.22497">
        <ele>900.9</ele>
        <time>2021-12-18T14:56:19.000Z</time>
      </trkpt>
      <trkpt lat="43.44999" lon="2.22484">
        <ele>901.4</ele>
        <time>2021-12-18T14:56:23.000Z</time>
      </trkpt>
      <trkpt lat="43.44998" lon="2.2247">
        <ele>902.2</ele>
        <time>2021-12-18T14:56:27.000Z</time>
      </trkpt>
      <trkpt lat="43.44997" lon="2.22458">
        <ele>902.9</ele>
        <time>2021-12-18T14:56:31.000Z</time>
      </trkpt>
      <trkpt lat="43.44997" lon="2.22443">
        <ele>903.6</ele>
        <time>2021-12-18T14:56:35.000Z</time>
      </trkpt>
      <trkpt lat="43.44997" lon="2.22428">
        <ele>904.3</ele>
        <time>2021-12-18T14:56:39.000Z</time>
      </trkpt>
      <trkpt lat="43.44997" lon="2.22415">
        <ele>904.7</ele>
        <time>2021-12-18T14:56:42.000Z</time>
      </trkpt>
      <trkpt lat="43.44996" lon="2.224">
        <ele>905.2</ele>
        <time>2021-12-18T14:56:46.000Z</time>
      </trkpt>
      <trkpt lat="43.44995" lon="2.22386">
        <ele>905.6</ele>
        <time>2021-12-18T14:56:49.000Z</time>
      </trkpt>
      <trkpt lat="43.44993" lon="2.22371">
        <ele>905.9</ele>
        <time>2021-12-18T14:56:52.000Z</time>
      </trkpt>
      <trkpt lat="43.44989" lon="2.22358">
        <ele>906</ele>
        <time>2021-12-18T14:56:55.000Z</time>
      </trkpt>
      <trkpt lat="43.44984" lon="2.22342">
        <ele>906</ele>
        <time>2021-12-18T14:56:58.000Z</time>
      </trkpt>
      <trkpt lat="43.44977" lon="2.22328">
        <ele>905.7</ele>
        <time>2021-12-18T14:57:01.000Z</time>
      </trkpt>
      <trkpt lat="43.44972" lon="2.22313">
        <ele>905.3</ele>
        <time>2021-12-18T14:57:04.000Z</time>
      </trkpt>
      <trkpt lat="43.44968" lon="2.223">
        <ele>904.9</ele>
        <time>2021-12-18T14:57:07.000Z</time>
      </trkpt>
      <trkpt lat="43.44964" lon="2.22284">
        <ele>904.6</ele>
        <time>2021-12-18T14:57:10.000Z</time>
      </trkpt>
      <trkpt lat="43.44959" lon="2.22268">
        <ele>904.3</ele>
        <time>2021-12-18T14:57:13.000Z</time>
      </trkpt>
      <trkpt lat="43.44955" lon="2.22254">
        <ele>904</ele>
        <time>2021-12-18T14:57:16.000Z</time>
      </trkpt>
      <trkpt lat="43.44949" lon="2.22242">
        <ele>903.6</ele>
        <time>2021-12-18T14:57:19.000Z</time>
      </trkpt>
      <trkpt lat="43.44943" lon="2.22229">
        <ele>903</ele>
        <time>2021-12-18T14:57:22.000Z</time>
      </trkpt>
      <trkpt lat="43.44936" lon="2.22215">
        <ele>902.4</ele>
        <time>2021-12-18T14:57:25.000Z</time>
      </trkpt>
      <trkpt lat="43.44929" lon="2.22201">
        <ele>901.9</ele>
        <time>2021-12-18T14:57:28.000Z</time>
      </trkpt>
      <trkpt lat="43.44923" lon="2.22189">
        <ele>901.4</ele>
        <time>2021-12-18T14:57:31.000Z</time>
      </trkpt>
      <trkpt lat="43.44916" lon="2.22178">
        <ele>900.9</ele>
        <time>2021-12-18T14:57:34.000Z</time>
      </trkpt>
      <trkpt lat="43.44909" lon="2.22166">
        <ele>900.6</ele>
        <time>2021-12-18T14:57:37.000Z</time>
      </trkpt>
      <trkpt lat="43.449" lon="2.22155">
        <ele>900.4</ele>
        <time>2021-12-18T14:57:40.000Z</time>
      </trkpt>
      <trkpt lat="43.44892" lon="2.22146">
        <ele>900.2</ele>
        <time>2021-12-18T14:57:43.000Z</time>
      </trkpt>
      <trkpt lat="43.44881" lon="2.22139">
        <ele>900.1</ele>
        <time>2021-12-18T14:57:47.000Z</time>
      </trkpt>
      <trkpt lat="43.44872" lon="2.22134">
        <ele>900.1</ele>
        <time>2021-12-18T14:57:50.000Z</time>
      </trkpt>
      <trkpt lat="43.44863" lon="2.2213">
        <ele>900.3</ele>
        <time>2021-12-18T14:57:53.000Z</time>
      </trkpt>
      <trkpt lat="43.44855" lon="2.22127">
        <ele>900.7</ele>
        <time>2021-12-18T14:57:56.000Z</time>
      </trkpt>
      <trkpt lat="43.44846" lon="2.22123">
        <ele>901.3</ele>
        <time>2021-12-18T14:57:59.000Z</time>
      </trkpt>
      <trkpt lat="43.44836" lon="2.22123">
        <ele>901.9</ele>
        <time>2021-12-18T14:58:02.000Z</time>
      </trkpt>
      <trkpt lat="43.44827" lon="2.22123">
        <ele>902.3</ele>
        <time>2021-12-18T14:58:05.000Z</time>
      </trkpt>
      <trkpt lat="43.44818" lon="2.22124">
        <ele>902.6</ele>
        <time>2021-12-18T14:58:08.000Z</time>
      </trkpt>
      <trkpt lat="43.44808" lon="2.22124">
        <ele>903.1</ele>
        <time>2021-12-18T14:58:11.000Z</time>
      </trkpt>
      <trkpt lat="43.44799" lon="2.22122">
        <ele>903.5</ele>
        <time>2021-12-18T14:58:14.000Z</time>
      </trkpt>
      <trkpt lat="43.4479" lon="2.2212">
        <ele>904</ele>
        <time>2021-12-18T14:58:17.000Z</time>
      </trkpt>
      <trkpt lat="43.4478" lon="2.22119">
        <ele>904.6</ele>
        <time>2021-12-18T14:58:21.000Z</time>
      </trkpt>
      <trkpt lat="43.44771" lon="2.22116">
        <ele>905.2</ele>
        <time>2021-12-18T14:58:24.000Z</time>
      </trkpt>
      <trkpt lat="43.44759" lon="2.22111">
        <ele>905.8</ele>
        <time>2021-12-18T14:58:28.000Z</time>
      </trkpt>
      <trkpt lat="43.44748" lon="2.22108">
        <ele>906.3</ele>
        <time>2021-12-18T14:58:32.000Z</time>
      </trkpt>
      <trkpt lat="43.44737" lon="2.22103">
        <ele>907</ele>
        <time>2021-12-18T14:58:36.000Z</time>
      </trkpt>
      <trkpt lat="43.44727" lon="2.22097">
        <ele>907.9</ele>
        <time>2021-12-18T14:58:40.000Z</time>
      </trkpt>
      <trkpt lat="43.44717" lon="2.2209">
        <ele>908.5</ele>
        <time>2021-12-18T14:58:44.000Z</time>
      </trkpt>
      <trkpt lat="43.44707" lon="2.22083">
        <ele>908.6</ele>
        <time>2021-12-18T14:58:48.000Z</time>
      </trkpt>
      <trkpt lat="43.44698" lon="2.22076">
        <ele>908.4</ele>
        <time>2021-12-18T14:58:52.000Z</time>
      </trkpt>
      <trkpt lat="43.44687" lon="2.2207">
        <ele>908.1</ele>
        <time>2021-12-18T14:58:56.000Z</time>
      </trkpt>
      <trkpt lat="43.44677" lon="2.22066">
        <ele>907.7</ele>
        <time>2021-12-18T14:58:59.000Z</time>
      </trkpt>
      <trkpt lat="43.44664" lon="2.22065">
        <ele>907.1</ele>
        <time>2021-12-18T14:59:02.000Z</time>
      </trkpt>
      <trkpt lat="43.44664" lon="2.22065">
        <ele>907.1</ele>
        <time>2021-12-18T14:59:02.000Z</time>
      </trkpt>
      <trkpt lat="43.44655" lon="2.22069">
        <ele>906.7</ele>
        <time>2021-12-18T14:59:04.000Z</time>
      </trkpt>
      <trkpt lat="43.44646" lon="2.22075">
        <ele>906.2</ele>
        <time>2021-12-18T14:59:06.000Z</time>
      </trkpt>
      <trkpt lat="43.44638" lon="2.22083">
        <ele>905.5</ele>
        <time>2021-12-18T14:59:08.000Z</time>
      </trkpt>
      <trkpt lat="43.44629" lon="2.22091">
        <ele>904.9</ele>
        <time>2021-12-18T14:59:10.000Z</time>
      </trkpt>
      <trkpt lat="43.4462" lon="2.221">
        <ele>904.1</ele>
        <time>2021-12-18T14:59:12.000Z</time>
      </trkpt>
      <trkpt lat="43.44612" lon="2.22106">
        <ele>902.9</ele>
        <time>2021-12-18T14:59:14.000Z</time>
      </trkpt>
      <trkpt lat="43.44603" lon="2.22113">
        <ele>902</ele>
        <time>2021-12-18T14:59:16.000Z</time>
      </trkpt>
      <trkpt lat="43.44594" lon="2.22122">
        <ele>901.2</ele>
        <time>2021-12-18T14:59:18.000Z</time>
      </trkpt>
      <trkpt lat="43.44586" lon="2.22129">
        <ele>899.9</ele>
        <time>2021-12-18T14:59:20.000Z</time>
      </trkpt>
      <trkpt lat="43.44578" lon="2.22136">
        <ele>898.8</ele>
        <time>2021-12-18T14:59:22.000Z</time>
      </trkpt>
      <trkpt lat="43.4457" lon="2.22142">
        <ele>897.6</ele>
        <time>2021-12-18T14:59:24.000Z</time>
      </trkpt>
      <trkpt lat="43.4456" lon="2.22148">
        <ele>896.5</ele>
        <time>2021-12-18T14:59:26.000Z</time>
      </trkpt>
      <trkpt lat="43.4455" lon="2.22152">
        <ele>895.7</ele>
        <time>2021-12-18T14:59:28.000Z</time>
      </trkpt>
      <trkpt lat="43.44539" lon="2.22159">
        <ele>894.9</ele>
        <time>2021-12-18T14:59:30.000Z</time>
      </trkpt>
      <trkpt lat="43.44529" lon="2.22168">
        <ele>894</ele>
        <time>2021-12-18T14:59:32.000Z</time>
      </trkpt>
      <trkpt lat="43.44519" lon="2.22178">
        <ele>893.1</ele>
        <time>2021-12-18T14:59:34.000Z</time>
      </trkpt>
      <trkpt lat="43.44509" lon="2.2219">
        <ele>891.9</ele>
        <time>2021-12-18T14:59:36.000Z</time>
      </trkpt>
      <trkpt lat="43.44501" lon="2.22203">
        <ele>891</ele>
        <time>2021-12-18T14:59:38.000Z</time>
      </trkpt>
      <trkpt lat="43.44494" lon="2.22216">
        <ele>890.2</ele>
        <time>2021-12-18T14:59:40.000Z</time>
      </trkpt>
      <trkpt lat="43.44487" lon="2.22231">
        <ele>889.4</ele>
        <time>2021-12-18T14:59:42.000Z</time>
      </trkpt>
      <trkpt lat="43.44478" lon="2.22247">
        <ele>888.7</ele>
        <time>2021-12-18T14:59:44.000Z</time>
      </trkpt>
      <trkpt lat="43.4447" lon="2.22261">
        <ele>887.8</ele>
        <time>2021-12-18T14:59:46.000Z</time>
      </trkpt>
      <trkpt lat="43.44462" lon="2.22274">
        <ele>886.8</ele>
        <time>2021-12-18T14:59:48.000Z</time>
      </trkpt>
      <trkpt lat="43.44455" lon="2.22286">
        <ele>886.1</ele>
        <time>2021-12-18T14:59:50.000Z</time>
      </trkpt>
      <trkpt lat="43.44447" lon="2.22298">
        <ele>885.5</ele>
        <time>2021-12-18T14:59:52.000Z</time>
      </trkpt>
      <trkpt lat="43.4444" lon="2.2231">
        <ele>885</ele>
        <time>2021-12-18T14:59:54.000Z</time>
      </trkpt>
      <trkpt lat="43.44433" lon="2.22322">
        <ele>884.5</ele>
        <time>2021-12-18T14:59:56.000Z</time>
      </trkpt>
      <trkpt lat="43.44426" lon="2.22337">
        <ele>883.8</ele>
        <time>2021-12-18T14:59:58.000Z</time>
      </trkpt>
      <trkpt lat="43.44419" lon="2.22349">
        <ele>882.9</ele>
        <time>2021-12-18T15:00:00.000Z</time>
      </trkpt>
      <trkpt lat="43.44413" lon="2.22361">
        <ele>881.4</ele>
        <time>2021-12-18T15:00:03.000Z</time>
      </trkpt>
      <trkpt lat="43.44406" lon="2.2237">
        <ele>878.1</ele>
        <time>2021-12-18T15:00:26.000Z</time>
      </trkpt>
      <trkpt lat="43.44398" lon="2.22376">
        <ele>878.1</ele>
        <time>2021-12-18T15:00:57.000Z</time>
      </trkpt>
      <trkpt lat="43.44386" lon="2.22377">
        <ele>878.1</ele>
        <time>2021-12-18T15:01:01.000Z</time>
      </trkpt>
      <trkpt lat="43.44375" lon="2.22379">
        <ele>877.9</ele>
        <time>2021-12-18T15:01:04.000Z</time>
      </trkpt>
      <trkpt lat="43.44366" lon="2.22381">
        <ele>877</ele>
        <time>2021-12-18T15:01:08.000Z</time>
      </trkpt>
      <trkpt lat="43.44356" lon="2.22378">
        <ele>875.5</ele>
        <time>2021-12-18T15:02:12.000Z</time>
      </trkpt>
      <trkpt lat="43.44347" lon="2.22371">
        <ele>875.6</ele>
        <time>2021-12-18T15:02:17.000Z</time>
      </trkpt>
      <trkpt lat="43.4434" lon="2.22361">
        <ele>875.5</ele>
        <time>2021-12-18T15:02:20.000Z</time>
      </trkpt>
      <trkpt lat="43.44331" lon="2.2235">
        <ele>875.2</ele>
        <time>2021-12-18T15:02:23.000Z</time>
      </trkpt>
      <trkpt lat="43.44321" lon="2.22342">
        <ele>874.9</ele>
        <time>2021-12-18T15:02:26.000Z</time>
      </trkpt>
      <trkpt lat="43.44311" lon="2.22338">
        <ele>874.4</ele>
        <time>2021-12-18T15:02:29.000Z</time>
      </trkpt>
      <trkpt lat="43.44301" lon="2.22334">
        <ele>874.1</ele>
        <time>2021-12-18T15:02:32.000Z</time>
      </trkpt>
      <trkpt lat="43.44292" lon="2.2233">
        <ele>873.8</ele>
        <time>2021-12-18T15:02:35.000Z</time>
      </trkpt>
      <trkpt lat="43.44282" lon="2.22327">
        <ele>873.5</ele>
        <time>2021-12-18T15:02:38.000Z</time>
      </trkpt>
      <trkpt lat="43.44272" lon="2.22325">
        <ele>873.3</ele>
        <time>2021-12-18T15:02:41.000Z</time>
      </trkpt>
      <trkpt lat="43.4426" lon="2.22324">
        <ele>873.3</ele>
        <time>2021-12-18T15:02:44.000Z</time>
      </trkpt>
      <trkpt lat="43.44252" lon="2.2232">
        <ele>873.2</ele>
        <time>2021-12-18T15:02:46.000Z</time>
      </trkpt>
      <trkpt lat="43.44241" lon="2.22309">
        <ele>872.8</ele>
        <time>2021-12-18T15:02:49.000Z</time>
      </trkpt>
      <trkpt lat="43.44236" lon="2.22299">
        <ele>872.6</ele>
        <time>2021-12-18T15:02:51.000Z</time>
      </trkpt>
      <trkpt lat="43.44231" lon="2.22287">
        <ele>872.3</ele>
        <time>2021-12-18T15:02:53.000Z</time>
      </trkpt>
      <trkpt lat="43.44228" lon="2.22275">
        <ele>872.1</ele>
        <time>2021-12-18T15:02:55.000Z</time>
      </trkpt>
      <trkpt lat="43.44225" lon="2.22258">
        <ele>871.8</ele>
        <time>2021-12-18T15:02:58.000Z</time>
      </trkpt>
      <trkpt lat="43.44224" lon="2.22242">
        <ele>871.7</ele>
        <time>2021-12-18T15:03:00.000Z</time>
      </trkpt>
      <trkpt lat="43.44225" lon="2.22226">
        <ele>871.6</ele>
        <time>2021-12-18T15:03:03.000Z</time>
      </trkpt>
      <trkpt lat="43.4423" lon="2.22212">
        <ele>871.7</ele>
        <time>2021-12-18T15:03:06.000Z</time>
      </trkpt>
      <trkpt lat="43.44235" lon="2.22201">
        <ele>872</ele>
        <time>2021-12-18T15:03:09.000Z</time>
      </trkpt>
      <trkpt lat="43.44239" lon="2.22186">
        <ele>872.4</ele>
        <time>2021-12-18T15:03:12.000Z</time>
      </trkpt>
      <trkpt lat="43.44245" lon="2.22174">
        <ele>872.7</ele>
        <time>2021-12-18T15:03:15.000Z</time>
      </trkpt>
      <trkpt lat="43.4425" lon="2.22161">
        <ele>873.1</ele>
        <time>2021-12-18T15:03:18.000Z</time>
      </trkpt>
      <trkpt lat="43.44254" lon="2.22147">
        <ele>873.5</ele>
        <time>2021-12-18T15:03:21.000Z</time>
      </trkpt>
      <trkpt lat="43.4426" lon="2.22132">
        <ele>873.9</ele>
        <time>2021-12-18T15:03:24.000Z</time>
      </trkpt>
      <trkpt lat="43.44265" lon="2.22118">
        <ele>874.2</ele>
        <time>2021-12-18T15:03:27.000Z</time>
      </trkpt>
      <trkpt lat="43.4427" lon="2.22106">
        <ele>874.3</ele>
        <time>2021-12-18T15:03:30.000Z</time>
      </trkpt>
      <trkpt lat="43.44274" lon="2.22092">
        <ele>874.3</ele>
        <time>2021-12-18T15:03:33.000Z</time>
      </trkpt>
      <trkpt lat="43.44281" lon="2.22084">
        <ele>874.3</ele>
        <time>2021-12-18T15:03:36.000Z</time>
      </trkpt>
      <trkpt lat="43.44288" lon="2.22073">
        <ele>874.1</ele>
        <time>2021-12-18T15:03:39.000Z</time>
      </trkpt>
      <trkpt lat="43.44293" lon="2.2206">
        <ele>873.9</ele>
        <time>2021-12-18T15:03:41.000Z</time>
      </trkpt>
      <trkpt lat="43.44298" lon="2.22044">
        <ele>873.4</ele>
        <time>2021-12-18T15:03:44.000Z</time>
      </trkpt>
      <trkpt lat="43.44306" lon="2.22031">
        <ele>872.9</ele>
        <time>2021-12-18T15:03:47.000Z</time>
      </trkpt>
      <trkpt lat="43.44314" lon="2.22017">
        <ele>872.3</ele>
        <time>2021-12-18T15:03:50.000Z</time>
      </trkpt>
      <trkpt lat="43.44322" lon="2.22003">
        <ele>871.9</ele>
        <time>2021-12-18T15:03:53.000Z</time>
      </trkpt>
      <trkpt lat="43.44329" lon="2.21992">
        <ele>871.6</ele>
        <time>2021-12-18T15:03:55.000Z</time>
      </trkpt>
      <trkpt lat="43.44337" lon="2.21982">
        <ele>871.2</ele>
        <time>2021-12-18T15:03:57.000Z</time>
      </trkpt>
      <trkpt lat="43.44343" lon="2.21967">
        <ele>870.8</ele>
        <time>2021-12-18T15:03:59.000Z</time>
      </trkpt>
      <trkpt lat="43.44349" lon="2.21951">
        <ele>870.3</ele>
        <time>2021-12-18T15:04:01.000Z</time>
      </trkpt>
      <trkpt lat="43.44356" lon="2.21934">
        <ele>869.9</ele>
        <time>2021-12-18T15:04:03.000Z</time>
      </trkpt>
      <trkpt lat="43.44365" lon="2.21916">
        <ele>869.4</ele>
        <time>2021-12-18T15:04:05.000Z</time>
      </trkpt>
      <trkpt lat="43.44373" lon="2.219">
        <ele>868.8</ele>
        <time>2021-12-18T15:04:07.000Z</time>
      </trkpt>
      <trkpt lat="43.44381" lon="2.21889">
        <ele>868.4</ele>
        <time>2021-12-18T15:04:09.000Z</time>
      </trkpt>
      <trkpt lat="43.4439" lon="2.21871">
        <ele>867.9</ele>
        <time>2021-12-18T15:04:11.000Z</time>
      </trkpt>
      <trkpt lat="43.4439" lon="2.21871">
        <ele>867.9</ele>
        <time>2021-12-18T15:04:11.000Z</time>
      </trkpt>
      <trkpt lat="43.44397" lon="2.21859">
        <ele>867.5</ele>
        <time>2021-12-18T15:04:13.000Z</time>
      </trkpt>
      <trkpt lat="43.44404" lon="2.21847">
        <ele>867.2</ele>
        <time>2021-12-18T15:04:15.000Z</time>
      </trkpt>
      <trkpt lat="43.44411" lon="2.21835">
        <ele>866.9</ele>
        <time>2021-12-18T15:04:17.000Z</time>
      </trkpt>
      <trkpt lat="43.44419" lon="2.21824">
        <ele>866.5</ele>
        <time>2021-12-18T15:04:19.000Z</time>
      </trkpt>
      <trkpt lat="43.44426" lon="2.21813">
        <ele>866.2</ele>
        <time>2021-12-18T15:04:21.000Z</time>
      </trkpt>
      <trkpt lat="43.44433" lon="2.21803">
        <ele>865.9</ele>
        <time>2021-12-18T15:04:23.000Z</time>
      </trkpt>
      <trkpt lat="43.44439" lon="2.21791">
        <ele>865.7</ele>
        <time>2021-12-18T15:04:25.000Z</time>
      </trkpt>
      <trkpt lat="43.44445" lon="2.21781">
        <ele>865.5</ele>
        <time>2021-12-18T15:04:27.000Z</time>
      </trkpt>
      <trkpt lat="43.44452" lon="2.2177">
        <ele>865.3</ele>
        <time>2021-12-18T15:04:29.000Z</time>
      </trkpt>
      <trkpt lat="43.4446" lon="2.2176">
        <ele>865.2</ele>
        <time>2021-12-18T15:04:31.000Z</time>
      </trkpt>
      <trkpt lat="43.44467" lon="2.2175">
        <ele>865.1</ele>
        <time>2021-12-18T15:04:33.000Z</time>
      </trkpt>
      <trkpt lat="43.44475" lon="2.21738">
        <ele>864.9</ele>
        <time>2021-12-18T15:04:35.000Z</time>
      </trkpt>
      <trkpt lat="43.44483" lon="2.21726">
        <ele>864.7</ele>
        <time>2021-12-18T15:04:37.000Z</time>
      </trkpt>
      <trkpt lat="43.44491" lon="2.21716">
        <ele>864.5</ele>
        <time>2021-12-18T15:04:39.000Z</time>
      </trkpt>
      <trkpt lat="43.44499" lon="2.21707">
        <ele>864.2</ele>
        <time>2021-12-18T15:04:41.000Z</time>
      </trkpt>
      <trkpt lat="43.44507" lon="2.21698">
        <ele>863.9</ele>
        <time>2021-12-18T15:04:43.000Z</time>
      </trkpt>
      <trkpt lat="43.44515" lon="2.2169">
        <ele>863.6</ele>
        <time>2021-12-18T15:04:45.000Z</time>
      </trkpt>
      <trkpt lat="43.44523" lon="2.21682">
        <ele>863.3</ele>
        <time>2021-12-18T15:04:47.000Z</time>
      </trkpt>
      <trkpt lat="43.44533" lon="2.21673">
        <ele>863.2</ele>
        <time>2021-12-18T15:04:49.000Z</time>
      </trkpt>
      <trkpt lat="43.44542" lon="2.21664">
        <ele>863.2</ele>
        <time>2021-12-18T15:04:51.000Z</time>
      </trkpt>
      <trkpt lat="43.4455" lon="2.21656">
        <ele>863.2</ele>
        <time>2021-12-18T15:04:53.000Z</time>
      </trkpt>
      <trkpt lat="43.44557" lon="2.21646">
        <ele>863.1</ele>
        <time>2021-12-18T15:04:55.000Z</time>
      </trkpt>
      <trkpt lat="43.44564" lon="2.21639">
        <ele>863.1</ele>
        <time>2021-12-18T15:04:57.000Z</time>
      </trkpt>
      <trkpt lat="43.44573" lon="2.21634">
        <ele>863.1</ele>
        <time>2021-12-18T15:04:59.000Z</time>
      </trkpt>
      <trkpt lat="43.44584" lon="2.21626">
        <ele>863.4</ele>
        <time>2021-12-18T15:05:02.000Z</time>
      </trkpt>
      <trkpt lat="43.44594" lon="2.21622">
        <ele>863.8</ele>
        <time>2021-12-18T15:05:05.000Z</time>
      </trkpt>
      <trkpt lat="43.44603" lon="2.21618">
        <ele>864.6</ele>
        <time>2021-12-18T15:05:08.000Z</time>
      </trkpt>
      <trkpt lat="43.44612" lon="2.21611">
        <ele>865.6</ele>
        <time>2021-12-18T15:05:11.000Z</time>
      </trkpt>
      <trkpt lat="43.44621" lon="2.21604">
        <ele>866.4</ele>
        <time>2021-12-18T15:05:14.000Z</time>
      </trkpt>
      <trkpt lat="43.4463" lon="2.21596">
        <ele>867.1</ele>
        <time>2021-12-18T15:05:17.000Z</time>
      </trkpt>
      <trkpt lat="43.44638" lon="2.21584">
        <ele>867.7</ele>
        <time>2021-12-18T15:05:20.000Z</time>
      </trkpt>
      <trkpt lat="43.44644" lon="2.21572">
        <ele>868.4</ele>
        <time>2021-12-18T15:05:23.000Z</time>
      </trkpt>
      <trkpt lat="43.44648" lon="2.21555">
        <ele>869.2</ele>
        <time>2021-12-18T15:05:26.000Z</time>
      </trkpt>
      <trkpt lat="43.44649" lon="2.2154">
        <ele>870</ele>
        <time>2021-12-18T15:05:29.000Z</time>
      </trkpt>
      <trkpt lat="43.44645" lon="2.21524">
        <ele>870.5</ele>
        <time>2021-12-18T15:05:32.000Z</time>
      </trkpt>
      <trkpt lat="43.44643" lon="2.21512">
        <ele>870.2</ele>
        <time>2021-12-18T15:05:38.000Z</time>
      </trkpt>
      <trkpt lat="43.44637" lon="2.215">
        <ele>869.6</ele>
        <time>2021-12-18T15:05:54.000Z</time>
      </trkpt>
      <trkpt lat="43.44627" lon="2.21492">
        <ele>869.8</ele>
        <time>2021-12-18T15:05:58.000Z</time>
      </trkpt>
      <trkpt lat="43.44619" lon="2.21487">
        <ele>869.9</ele>
        <time>2021-12-18T15:06:01.000Z</time>
      </trkpt>
      <trkpt lat="43.4461" lon="2.21481">
        <ele>870.1</ele>
        <time>2021-12-18T15:06:04.000Z</time>
      </trkpt>
      <trkpt lat="43.44602" lon="2.21473">
        <ele>870.3</ele>
        <time>2021-12-18T15:06:07.000Z</time>
      </trkpt>
      <trkpt lat="43.44594" lon="2.21463">
        <ele>870.4</ele>
        <time>2021-12-18T15:06:10.000Z</time>
      </trkpt>
      <trkpt lat="43.44586" lon="2.21452">
        <ele>870.5</ele>
        <time>2021-12-18T15:06:13.000Z</time>
      </trkpt>
      <trkpt lat="43.44576" lon="2.21448">
        <ele>870.6</ele>
        <time>2021-12-18T15:06:16.000Z</time>
      </trkpt>
      <trkpt lat="43.44567" lon="2.21442">
        <ele>870.7</ele>
        <time>2021-12-18T15:06:19.000Z</time>
      </trkpt>
      <trkpt lat="43.44559" lon="2.21434">
        <ele>870.8</ele>
        <time>2021-12-18T15:06:22.000Z</time>
      </trkpt>
      <trkpt lat="43.44551" lon="2.21425">
        <ele>871.2</ele>
        <time>2021-12-18T15:06:25.000Z</time>
      </trkpt>
      <trkpt lat="43.44544" lon="2.21416">
        <ele>871.8</ele>
        <time>2021-12-18T15:06:28.000Z</time>
      </trkpt>
      <trkpt lat="43.44535" lon="2.21408">
        <ele>872.3</ele>
        <time>2021-12-18T15:06:31.000Z</time>
      </trkpt>
      <trkpt lat="43.44526" lon="2.21402">
        <ele>872.9</ele>
        <time>2021-12-18T15:06:34.000Z</time>
      </trkpt>
      <trkpt lat="43.44516" lon="2.21398">
        <ele>873.3</ele>
        <time>2021-12-18T15:06:37.000Z</time>
      </trkpt>
      <trkpt lat="43.44506" lon="2.21393">
        <ele>873.8</ele>
        <time>2021-12-18T15:06:40.000Z</time>
      </trkpt>
      <trkpt lat="43.44496" lon="2.21387">
        <ele>874.3</ele>
        <time>2021-12-18T15:06:43.000Z</time>
      </trkpt>
      <trkpt lat="43.44484" lon="2.21383">
        <ele>874.8</ele>
        <time>2021-12-18T15:06:46.000Z</time>
      </trkpt>
      <trkpt lat="43.44473" lon="2.2138">
        <ele>875</ele>
        <time>2021-12-18T15:06:49.000Z</time>
      </trkpt>
      <trkpt lat="43.4446" lon="2.21377">
        <ele>875</ele>
        <time>2021-12-18T15:06:52.000Z</time>
      </trkpt>
      <trkpt lat="43.44449" lon="2.21372">
        <ele>874.7</ele>
        <time>2021-12-18T15:06:55.000Z</time>
      </trkpt>
      <trkpt lat="43.44438" lon="2.21364">
        <ele>874.5</ele>
        <time>2021-12-18T15:06:58.000Z</time>
      </trkpt>
      <trkpt lat="43.44428" lon="2.21353">
        <ele>874.5</ele>
        <time>2021-12-18T15:07:01.000Z</time>
      </trkpt>
      <trkpt lat="43.44419" lon="2.21345">
        <ele>874.7</ele>
        <time>2021-12-18T15:07:04.000Z</time>
      </trkpt>
      <trkpt lat="43.44409" lon="2.21337">
        <ele>875.1</ele>
        <time>2021-12-18T15:07:07.000Z</time>
      </trkpt>
      <trkpt lat="43.44398" lon="2.21331">
        <ele>875.7</ele>
        <time>2021-12-18T15:07:11.000Z</time>
      </trkpt>
      <trkpt lat="43.44388" lon="2.21325">
        <ele>876.1</ele>
        <time>2021-12-18T15:07:14.000Z</time>
      </trkpt>
      <trkpt lat="43.44379" lon="2.21319">
        <ele>876.4</ele>
        <time>2021-12-18T15:07:17.000Z</time>
      </trkpt>
      <trkpt lat="43.44372" lon="2.21311">
        <ele>876.9</ele>
        <time>2021-12-18T15:07:20.000Z</time>
      </trkpt>
      <trkpt lat="43.44363" lon="2.213">
        <ele>877.8</ele>
        <time>2021-12-18T15:07:24.000Z</time>
      </trkpt>
      <trkpt lat="43.44357" lon="2.2129">
        <ele>878.8</ele>
        <time>2021-12-18T15:07:27.000Z</time>
      </trkpt>
      <trkpt lat="43.44349" lon="2.21278">
        <ele>880.2</ele>
        <time>2021-12-18T15:07:31.000Z</time>
      </trkpt>
      <trkpt lat="43.44341" lon="2.2127">
        <ele>881.3</ele>
        <time>2021-12-18T15:07:34.000Z</time>
      </trkpt>
      <trkpt lat="43.44334" lon="2.21263">
        <ele>882.2</ele>
        <time>2021-12-18T15:07:37.000Z</time>
      </trkpt>
      <trkpt lat="43.44326" lon="2.21256">
        <ele>883.1</ele>
        <time>2021-12-18T15:07:40.000Z</time>
      </trkpt>
      <trkpt lat="43.44318" lon="2.21251">
        <ele>884.1</ele>
        <time>2021-12-18T15:07:43.000Z</time>
      </trkpt>
      <trkpt lat="43.44307" lon="2.21246">
        <ele>885.4</ele>
        <time>2021-12-18T15:07:47.000Z</time>
      </trkpt>
      <trkpt lat="43.44295" lon="2.21243">
        <ele>886.5</ele>
        <time>2021-12-18T15:07:51.000Z</time>
      </trkpt>
      <trkpt lat="43.44286" lon="2.21239">
        <ele>887.2</ele>
        <time>2021-12-18T15:07:54.000Z</time>
      </trkpt>
      <trkpt lat="43.44277" lon="2.21233">
        <ele>887.6</ele>
        <time>2021-12-18T15:07:57.000Z</time>
      </trkpt>
      <trkpt lat="43.44269" lon="2.21225">
        <ele>887.9</ele>
        <time>2021-12-18T15:08:00.000Z</time>
      </trkpt>
      <trkpt lat="43.44261" lon="2.21215">
        <ele>888.1</ele>
        <time>2021-12-18T15:08:03.000Z</time>
      </trkpt>
      <trkpt lat="43.44253" lon="2.21203">
        <ele>888.2</ele>
        <time>2021-12-18T15:08:06.000Z</time>
      </trkpt>
      <trkpt lat="43.44244" lon="2.21188">
        <ele>888</ele>
        <time>2021-12-18T15:08:09.000Z</time>
      </trkpt>
      <trkpt lat="43.44237" lon="2.21179">
        <ele>887.7</ele>
        <time>2021-12-18T15:08:11.000Z</time>
      </trkpt>
      <trkpt lat="43.44229" lon="2.21166">
        <ele>886.8</ele>
        <time>2021-12-18T15:08:14.000Z</time>
      </trkpt>
      <trkpt lat="43.44221" lon="2.21155">
        <ele>885.8</ele>
        <time>2021-12-18T15:08:17.000Z</time>
      </trkpt>
      <trkpt lat="43.44214" lon="2.21146">
        <ele>885.3</ele>
        <time>2021-12-18T15:08:19.000Z</time>
      </trkpt>
      <trkpt lat="43.44214" lon="2.21146">
        <ele>885.3</ele>
        <time>2021-12-18T15:08:19.000Z</time>
      </trkpt>
      <trkpt lat="43.44204" lon="2.21137">
        <ele>884.7</ele>
        <time>2021-12-18T15:08:21.000Z</time>
      </trkpt>
      <trkpt lat="43.44195" lon="2.21125">
        <ele>884</ele>
        <time>2021-12-18T15:08:23.000Z</time>
      </trkpt>
      <trkpt lat="43.44185" lon="2.21114">
        <ele>883.1</ele>
        <time>2021-12-18T15:08:25.000Z</time>
      </trkpt>
      <trkpt lat="43.44178" lon="2.21103">
        <ele>882</ele>
        <time>2021-12-18T15:08:27.000Z</time>
      </trkpt>
      <trkpt lat="43.4417" lon="2.21095">
        <ele>881.1</ele>
        <time>2021-12-18T15:08:29.000Z</time>
      </trkpt>
      <trkpt lat="43.44162" lon="2.21086">
        <ele>880.4</ele>
        <time>2021-12-18T15:08:31.000Z</time>
      </trkpt>
      <trkpt lat="43.44154" lon="2.2107">
        <ele>878.6</ele>
        <time>2021-12-18T15:08:34.000Z</time>
      </trkpt>
      <trkpt lat="43.44147" lon="2.21056">
        <ele>877.7</ele>
        <time>2021-12-18T15:08:36.000Z</time>
      </trkpt>
      <trkpt lat="43.4414" lon="2.2104">
        <ele>877</ele>
        <time>2021-12-18T15:08:38.000Z</time>
      </trkpt>
      <trkpt lat="43.44133" lon="2.21025">
        <ele>876.4</ele>
        <time>2021-12-18T15:08:40.000Z</time>
      </trkpt>
      <trkpt lat="43.44125" lon="2.21012">
        <ele>875.5</ele>
        <time>2021-12-18T15:08:42.000Z</time>
      </trkpt>
      <trkpt lat="43.44115" lon="2.20998">
        <ele>874.6</ele>
        <time>2021-12-18T15:08:44.000Z</time>
      </trkpt>
      <trkpt lat="43.44105" lon="2.20989">
        <ele>873.6</ele>
        <time>2021-12-18T15:08:46.000Z</time>
      </trkpt>
      <trkpt lat="43.44094" lon="2.20978">
        <ele>872.1</ele>
        <time>2021-12-18T15:08:48.000Z</time>
      </trkpt>
      <trkpt lat="43.44086" lon="2.20967">
        <ele>870.7</ele>
        <time>2021-12-18T15:08:50.000Z</time>
      </trkpt>
      <trkpt lat="43.44076" lon="2.20956">
        <ele>869.5</ele>
        <time>2021-12-18T15:08:52.000Z</time>
      </trkpt>
      <trkpt lat="43.44067" lon="2.20946">
        <ele>868.3</ele>
        <time>2021-12-18T15:08:54.000Z</time>
      </trkpt>
      <trkpt lat="43.44059" lon="2.20934">
        <ele>867.1</ele>
        <time>2021-12-18T15:08:56.000Z</time>
      </trkpt>
      <trkpt lat="43.44048" lon="2.2092">
        <ele>866</ele>
        <time>2021-12-18T15:08:58.000Z</time>
      </trkpt>
      <trkpt lat="43.44036" lon="2.20909">
        <ele>865.1</ele>
        <time>2021-12-18T15:09:00.000Z</time>
      </trkpt>
      <trkpt lat="43.44026" lon="2.20898">
        <ele>864.4</ele>
        <time>2021-12-18T15:09:02.000Z</time>
      </trkpt>
      <trkpt lat="43.44015" lon="2.20888">
        <ele>863.7</ele>
        <time>2021-12-18T15:09:04.000Z</time>
      </trkpt>
      <trkpt lat="43.44005" lon="2.20878">
        <ele>863</ele>
        <time>2021-12-18T15:09:06.000Z</time>
      </trkpt>
      <trkpt lat="43.43999" lon="2.20861">
        <ele>862.5</ele>
        <time>2021-12-18T15:09:08.000Z</time>
      </trkpt>
      <trkpt lat="43.43994" lon="2.20845">
        <ele>861.9</ele>
        <time>2021-12-18T15:09:10.000Z</time>
      </trkpt>
      <trkpt lat="43.43987" lon="2.20832">
        <ele>861.4</ele>
        <time>2021-12-18T15:09:12.000Z</time>
      </trkpt>
      <trkpt lat="43.4398" lon="2.2082">
        <ele>860.9</ele>
        <time>2021-12-18T15:09:14.000Z</time>
      </trkpt>
      <trkpt lat="43.43972" lon="2.20808">
        <ele>860.3</ele>
        <time>2021-12-18T15:09:16.000Z</time>
      </trkpt>
      <trkpt lat="43.43964" lon="2.20799">
        <ele>859.7</ele>
        <time>2021-12-18T15:09:18.000Z</time>
      </trkpt>
      <trkpt lat="43.43954" lon="2.20787">
        <ele>859.1</ele>
        <time>2021-12-18T15:09:20.000Z</time>
      </trkpt>
      <trkpt lat="43.43944" lon="2.20777">
        <ele>858.6</ele>
        <time>2021-12-18T15:09:22.000Z</time>
      </trkpt>
      <trkpt lat="43.43934" lon="2.20769">
        <ele>857.8</ele>
        <time>2021-12-18T15:09:24.000Z</time>
      </trkpt>
      <trkpt lat="43.43923" lon="2.20759">
        <ele>857.2</ele>
        <time>2021-12-18T15:09:26.000Z</time>
      </trkpt>
      <trkpt lat="43.43913" lon="2.2075">
        <ele>856.7</ele>
        <time>2021-12-18T15:09:28.000Z</time>
      </trkpt>
      <trkpt lat="43.43904" lon="2.20738">
        <ele>856.1</ele>
        <time>2021-12-18T15:09:30.000Z</time>
      </trkpt>
      <trkpt lat="43.43895" lon="2.20727">
        <ele>855.6</ele>
        <time>2021-12-18T15:09:32.000Z</time>
      </trkpt>
      <trkpt lat="43.43888" lon="2.20715">
        <ele>855.1</ele>
        <time>2021-12-18T15:09:34.000Z</time>
      </trkpt>
      <trkpt lat="43.43881" lon="2.20703">
        <ele>854.7</ele>
        <time>2021-12-18T15:09:36.000Z</time>
      </trkpt>
      <trkpt lat="43.43874" lon="2.20695">
        <ele>854.5</ele>
        <time>2021-12-18T15:09:38.000Z</time>
      </trkpt>
      <trkpt lat="43.43865" lon="2.20688">
        <ele>854.3</ele>
        <time>2021-12-18T15:09:41.000Z</time>
      </trkpt>
      <trkpt lat="43.43858" lon="2.20677">
        <ele>854</ele>
        <time>2021-12-18T15:09:46.000Z</time>
      </trkpt>
      <trkpt lat="43.43848" lon="2.20668">
        <ele>853.8</ele>
        <time>2021-12-18T15:09:50.000Z</time>
      </trkpt>
      <trkpt lat="43.4384" lon="2.20657">
        <ele>853.9</ele>
        <time>2021-12-18T15:09:54.000Z</time>
      </trkpt>
      <trkpt lat="43.43829" lon="2.2065">
        <ele>854</ele>
        <time>2021-12-18T15:09:58.000Z</time>
      </trkpt>
      <trkpt lat="43.4382" lon="2.20643">
        <ele>854.2</ele>
        <time>2021-12-18T15:10:01.000Z</time>
      </trkpt>
      <trkpt lat="43.43811" lon="2.20634">
        <ele>854.8</ele>
        <time>2021-12-18T15:10:05.000Z</time>
      </trkpt>
      <trkpt lat="43.43802" lon="2.20626">
        <ele>855.6</ele>
        <time>2021-12-18T15:10:09.000Z</time>
      </trkpt>
      <trkpt lat="43.43793" lon="2.20617">
        <ele>856.3</ele>
        <time>2021-12-18T15:10:13.000Z</time>
      </trkpt>
      <trkpt lat="43.43783" lon="2.20611">
        <ele>857.1</ele>
        <time>2021-12-18T15:10:17.000Z</time>
      </trkpt>
      <trkpt lat="43.43772" lon="2.20611">
        <ele>857.8</ele>
        <time>2021-12-18T15:10:21.000Z</time>
      </trkpt>
      <trkpt lat="43.43761" lon="2.20615">
        <ele>858.5</ele>
        <time>2021-12-18T15:10:25.000Z</time>
      </trkpt>
      <trkpt lat="43.43752" lon="2.20619">
        <ele>858.8</ele>
        <time>2021-12-18T15:10:28.000Z</time>
      </trkpt>
      <trkpt lat="43.43742" lon="2.20624">
        <ele>858.9</ele>
        <time>2021-12-18T15:10:31.000Z</time>
      </trkpt>
      <trkpt lat="43.4373" lon="2.20628">
        <ele>858.7</ele>
        <time>2021-12-18T15:10:34.000Z</time>
      </trkpt>
      <trkpt lat="43.43718" lon="2.20633">
        <ele>858.2</ele>
        <time>2021-12-18T15:10:37.000Z</time>
      </trkpt>
      <trkpt lat="43.43708" lon="2.20639">
        <ele>857.8</ele>
        <time>2021-12-18T15:10:40.000Z</time>
      </trkpt>
      <trkpt lat="43.43699" lon="2.20644">
        <ele>857.6</ele>
        <time>2021-12-18T15:10:43.000Z</time>
      </trkpt>
      <trkpt lat="43.43689" lon="2.20651">
        <ele>857.5</ele>
        <time>2021-12-18T15:10:46.000Z</time>
      </trkpt>
      <trkpt lat="43.4368" lon="2.20658">
        <ele>857.7</ele>
        <time>2021-12-18T15:10:49.000Z</time>
      </trkpt>
      <trkpt lat="43.43671" lon="2.20666">
        <ele>857.9</ele>
        <time>2021-12-18T15:10:52.000Z</time>
      </trkpt>
      <trkpt lat="43.43661" lon="2.20674">
        <ele>858</ele>
        <time>2021-12-18T15:10:55.000Z</time>
      </trkpt>
      <trkpt lat="43.43652" lon="2.20683">
        <ele>858</ele>
        <time>2021-12-18T15:10:58.000Z</time>
      </trkpt>
      <trkpt lat="43.43643" lon="2.20691">
        <ele>857.9</ele>
        <time>2021-12-18T15:11:01.000Z</time>
      </trkpt>
      <trkpt lat="43.43633" lon="2.20703">
        <ele>857.7</ele>
        <time>2021-12-18T15:11:04.000Z</time>
      </trkpt>
      <trkpt lat="43.43626" lon="2.20711">
        <ele>857.5</ele>
        <time>2021-12-18T15:11:06.000Z</time>
      </trkpt>
      <trkpt lat="43.43619" lon="2.20719">
        <ele>857.3</ele>
        <time>2021-12-18T15:11:08.000Z</time>
      </trkpt>
      <trkpt lat="43.43612" lon="2.20726">
        <ele>857.1</ele>
        <time>2021-12-18T15:11:10.000Z</time>
      </trkpt>
      <trkpt lat="43.43604" lon="2.20734">
        <ele>856.7</ele>
        <time>2021-12-18T15:11:12.000Z</time>
      </trkpt>
      <trkpt lat="43.43596" lon="2.20742">
        <ele>856.4</ele>
        <time>2021-12-18T15:11:14.000Z</time>
      </trkpt>
      <trkpt lat="43.43589" lon="2.2075">
        <ele>856.3</ele>
        <time>2021-12-18T15:11:16.000Z</time>
      </trkpt>
      <trkpt lat="43.43581" lon="2.20757">
        <ele>856.2</ele>
        <time>2021-12-18T15:11:18.000Z</time>
      </trkpt>
      <trkpt lat="43.43573" lon="2.20764">
        <ele>855.8</ele>
        <time>2021-12-18T15:11:20.000Z</time>
      </trkpt>
      <trkpt lat="43.43565" lon="2.20771">
        <ele>855.4</ele>
        <time>2021-12-18T15:11:22.000Z</time>
      </trkpt>
      <trkpt lat="43.43555" lon="2.20779">
        <ele>854.8</ele>
        <time>2021-12-18T15:11:24.000Z</time>
      </trkpt>
      <trkpt lat="43.43545" lon="2.20784">
        <ele>854</ele>
        <time>2021-12-18T15:11:26.000Z</time>
      </trkpt>
      <trkpt lat="43.43535" lon="2.20786">
        <ele>853.3</ele>
        <time>2021-12-18T15:11:28.000Z</time>
      </trkpt>
      <trkpt lat="43.43524" lon="2.20786">
        <ele>852.7</ele>
        <time>2021-12-18T15:11:30.000Z</time>
      </trkpt>
      <trkpt lat="43.43515" lon="2.20782">
        <ele>852.1</ele>
        <time>2021-12-18T15:11:32.000Z</time>
      </trkpt>
      <trkpt lat="43.43506" lon="2.20777">
        <ele>851.7</ele>
        <time>2021-12-18T15:11:34.000Z</time>
      </trkpt>
      <trkpt lat="43.43506" lon="2.20777">
        <ele>851.7</ele>
        <time>2021-12-18T15:11:34.000Z</time>
      </trkpt>
      <trkpt lat="43.43496" lon="2.20772">
        <ele>851.3</ele>
        <time>2021-12-18T15:11:36.000Z</time>
      </trkpt>
      <trkpt lat="43.43487" lon="2.20768">
        <ele>851</ele>
        <time>2021-12-18T15:11:38.000Z</time>
      </trkpt>
      <trkpt lat="43.43474" lon="2.20764">
        <ele>850.7</ele>
        <time>2021-12-18T15:11:41.000Z</time>
      </trkpt>
      <trkpt lat="43.43461" lon="2.2076">
        <ele>850.6</ele>
        <time>2021-12-18T15:11:44.000Z</time>
      </trkpt>
      <trkpt lat="43.43452" lon="2.20758">
        <ele>850.2</ele>
        <time>2021-12-18T15:11:46.000Z</time>
      </trkpt>
      <trkpt lat="43.43443" lon="2.20755">
        <ele>849.7</ele>
        <time>2021-12-18T15:11:48.000Z</time>
      </trkpt>
      <trkpt lat="43.43434" lon="2.20754">
        <ele>849.1</ele>
        <time>2021-12-18T15:11:50.000Z</time>
      </trkpt>
      <trkpt lat="43.43421" lon="2.20754">
        <ele>848.5</ele>
        <time>2021-12-18T15:11:53.000Z</time>
      </trkpt>
      <trkpt lat="43.43412" lon="2.20755">
        <ele>848.3</ele>
        <time>2021-12-18T15:11:55.000Z</time>
      </trkpt>
      <trkpt lat="43.43402" lon="2.20756">
        <ele>848</ele>
        <time>2021-12-18T15:11:57.000Z</time>
      </trkpt>
      <trkpt lat="43.43393" lon="2.2076">
        <ele>847.8</ele>
        <time>2021-12-18T15:11:59.000Z</time>
      </trkpt>
      <trkpt lat="43.43384" lon="2.20762">
        <ele>847.7</ele>
        <time>2021-12-18T15:12:01.000Z</time>
      </trkpt>
      <trkpt lat="43.43375" lon="2.20765">
        <ele>847.7</ele>
        <time>2021-12-18T15:12:03.000Z</time>
      </trkpt>
      <trkpt lat="43.43363" lon="2.20768">
        <ele>847.8</ele>
        <time>2021-12-18T15:12:06.000Z</time>
      </trkpt>
      <trkpt lat="43.4335" lon="2.20772">
        <ele>847.9</ele>
        <time>2021-12-18T15:12:09.000Z</time>
      </trkpt>
      <trkpt lat="43.43338" lon="2.20773">
        <ele>847.9</ele>
        <time>2021-12-18T15:12:12.000Z</time>
      </trkpt>
      <trkpt lat="43.43327" lon="2.20774">
        <ele>848.1</ele>
        <time>2021-12-18T15:12:15.000Z</time>
      </trkpt>
      <trkpt lat="43.43316" lon="2.20771">
        <ele>848.4</ele>
        <time>2021-12-18T15:12:18.000Z</time>
      </trkpt>
      <trkpt lat="43.43306" lon="2.20769">
        <ele>849</ele>
        <time>2021-12-18T15:12:22.000Z</time>
      </trkpt>
      <trkpt lat="43.43296" lon="2.2076">
        <ele>849.5</ele>
        <time>2021-12-18T15:12:26.000Z</time>
      </trkpt>
      <trkpt lat="43.43286" lon="2.20753">
        <ele>850.1</ele>
        <time>2021-12-18T15:12:31.000Z</time>
      </trkpt>
      <trkpt lat="43.43277" lon="2.20752">
        <ele>850.5</ele>
        <time>2021-12-18T15:12:34.000Z</time>
      </trkpt>
      <trkpt lat="43.43265" lon="2.20749">
        <ele>851.2</ele>
        <time>2021-12-18T15:12:38.000Z</time>
      </trkpt>
      <trkpt lat="43.43256" lon="2.20739">
        <ele>851.7</ele>
        <time>2021-12-18T15:12:42.000Z</time>
      </trkpt>
      <trkpt lat="43.43249" lon="2.20732">
        <ele>852.1</ele>
        <time>2021-12-18T15:12:45.000Z</time>
      </trkpt>
      <trkpt lat="43.4324" lon="2.20722">
        <ele>852.6</ele>
        <time>2021-12-18T15:12:49.000Z</time>
      </trkpt>
      <trkpt lat="43.43231" lon="2.20712">
        <ele>853.2</ele>
        <time>2021-12-18T15:12:53.000Z</time>
      </trkpt>
      <trkpt lat="43.43224" lon="2.20701">
        <ele>853.9</ele>
        <time>2021-12-18T15:12:57.000Z</time>
      </trkpt>
      <trkpt lat="43.43216" lon="2.2069">
        <ele>854.6</ele>
        <time>2021-12-18T15:13:01.000Z</time>
      </trkpt>
      <trkpt lat="43.43208" lon="2.20682">
        <ele>855.3</ele>
        <time>2021-12-18T15:13:04.000Z</time>
      </trkpt>
      <trkpt lat="43.43199" lon="2.20674">
        <ele>856</ele>
        <time>2021-12-18T15:13:07.000Z</time>
      </trkpt>
      <trkpt lat="43.43189" lon="2.20669">
        <ele>856.7</ele>
        <time>2021-12-18T15:13:10.000Z</time>
      </trkpt>
      <trkpt lat="43.43177" lon="2.20666">
        <ele>857.4</ele>
        <time>2021-12-18T15:13:13.000Z</time>
      </trkpt>
      <trkpt lat="43.43167" lon="2.20668">
        <ele>858.4</ele>
        <time>2021-12-18T15:13:16.000Z</time>
      </trkpt>
      <trkpt lat="43.43156" lon="2.20673">
        <ele>859.3</ele>
        <time>2021-12-18T15:13:20.000Z</time>
      </trkpt>
      <trkpt lat="43.43146" lon="2.20681">
        <ele>860</ele>
        <time>2021-12-18T15:13:24.000Z</time>
      </trkpt>
      <trkpt lat="43.43138" lon="2.20687">
        <ele>860.6</ele>
        <time>2021-12-18T15:13:27.000Z</time>
      </trkpt>
      <trkpt lat="43.43128" lon="2.20693">
        <ele>861.3</ele>
        <time>2021-12-18T15:13:30.000Z</time>
      </trkpt>
      <trkpt lat="43.43119" lon="2.20699">
        <ele>861.7</ele>
        <time>2021-12-18T15:13:33.000Z</time>
      </trkpt>
      <trkpt lat="43.43109" lon="2.20707">
        <ele>862.1</ele>
        <time>2021-12-18T15:13:36.000Z</time>
      </trkpt>
      <trkpt lat="43.43101" lon="2.20714">
        <ele>862.9</ele>
        <time>2021-12-18T15:13:39.000Z</time>
      </trkpt>
      <trkpt lat="43.43093" lon="2.20723">
        <ele>863.6</ele>
        <time>2021-12-18T15:13:42.000Z</time>
      </trkpt>
      <trkpt lat="43.43086" lon="2.20732">
        <ele>864.3</ele>
        <time>2021-12-18T15:13:45.000Z</time>
      </trkpt>
      <trkpt lat="43.43078" lon="2.2074">
        <ele>864.8</ele>
        <time>2021-12-18T15:13:48.000Z</time>
      </trkpt>
      <trkpt lat="43.4307" lon="2.20747">
        <ele>865.4</ele>
        <time>2021-12-18T15:13:51.000Z</time>
      </trkpt>
      <trkpt lat="43.4306" lon="2.20754">
        <ele>865.9</ele>
        <time>2021-12-18T15:13:54.000Z</time>
      </trkpt>
      <trkpt lat="43.43051" lon="2.20758">
        <ele>866.5</ele>
        <time>2021-12-18T15:13:57.000Z</time>
      </trkpt>
      <trkpt lat="43.43041" lon="2.20762">
        <ele>867.1</ele>
        <time>2021-12-18T15:14:00.000Z</time>
      </trkpt>
      <trkpt lat="43.43032" lon="2.20765">
        <ele>867.5</ele>
        <time>2021-12-18T15:14:03.000Z</time>
      </trkpt>
      <trkpt lat="43.43022" lon="2.20768">
        <ele>868</ele>
        <time>2021-12-18T15:14:06.000Z</time>
      </trkpt>
      <trkpt lat="43.43012" lon="2.2077">
        <ele>868.4</ele>
        <time>2021-12-18T15:14:09.000Z</time>
      </trkpt>
      <trkpt lat="43.43003" lon="2.20773">
        <ele>868.6</ele>
        <time>2021-12-18T15:14:12.000Z</time>
      </trkpt>
      <trkpt lat="43.42993" lon="2.20778">
        <ele>869</ele>
        <time>2021-12-18T15:14:15.000Z</time>
      </trkpt>
      <trkpt lat="43.42982" lon="2.20781">
        <ele>869</ele>
        <time>2021-12-18T15:14:18.000Z</time>
      </trkpt>
      <trkpt lat="43.4297" lon="2.20782">
        <ele>869</ele>
        <time>2021-12-18T15:14:21.000Z</time>
      </trkpt>
      <trkpt lat="43.42957" lon="2.20782">
        <ele>869</ele>
        <time>2021-12-18T15:14:24.000Z</time>
      </trkpt>
      <trkpt lat="43.42944" lon="2.20783">
        <ele>869.1</ele>
        <time>2021-12-18T15:14:27.000Z</time>
      </trkpt>
      <trkpt lat="43.42932" lon="2.20783">
        <ele>869</ele>
        <time>2021-12-18T15:14:30.000Z</time>
      </trkpt>
      <trkpt lat="43.42923" lon="2.20783">
        <ele>868.4</ele>
        <time>2021-12-18T15:14:32.000Z</time>
      </trkpt>
      <trkpt lat="43.42913" lon="2.20783">
        <ele>868.1</ele>
        <time>2021-12-18T15:14:34.000Z</time>
      </trkpt>
      <trkpt lat="43.42903" lon="2.20783">
        <ele>867.8</ele>
        <time>2021-12-18T15:14:36.000Z</time>
      </trkpt>
      <trkpt lat="43.42893" lon="2.20783">
        <ele>867.4</ele>
        <time>2021-12-18T15:14:38.000Z</time>
      </trkpt>
      <trkpt lat="43.42882" lon="2.20783">
        <ele>866.7</ele>
        <time>2021-12-18T15:14:40.000Z</time>
      </trkpt>
      <trkpt lat="43.4287" lon="2.20783">
        <ele>866</ele>
        <time>2021-12-18T15:14:42.000Z</time>
      </trkpt>
      <trkpt lat="43.42858" lon="2.20783">
        <ele>865.1</ele>
        <time>2021-12-18T15:14:44.000Z</time>
      </trkpt>
      <trkpt lat="43.42845" lon="2.20784">
        <ele>864.4</ele>
        <time>2021-12-18T15:14:46.000Z</time>
      </trkpt>
      <trkpt lat="43.42833" lon="2.20786">
        <ele>863.6</ele>
        <time>2021-12-18T15:14:48.000Z</time>
      </trkpt>
      <trkpt lat="43.42822" lon="2.20789">
        <ele>862.9</ele>
        <time>2021-12-18T15:14:50.000Z</time>
      </trkpt>
      <trkpt lat="43.42811" lon="2.20793">
        <ele>862.3</ele>
        <time>2021-12-18T15:14:52.000Z</time>
      </trkpt>
      <trkpt lat="43.42801" lon="2.20797">
        <ele>861.6</ele>
        <time>2021-12-18T15:14:54.000Z</time>
      </trkpt>
      <trkpt lat="43.42792" lon="2.20803">
        <ele>861</ele>
        <time>2021-12-18T15:14:56.000Z</time>
      </trkpt>
      <trkpt lat="43.42782" lon="2.20802">
        <ele>860.6</ele>
        <time>2021-12-18T15:14:58.000Z</time>
      </trkpt>
      <trkpt lat="43.42774" lon="2.20796">
        <ele>860</ele>
        <time>2021-12-18T15:15:00.000Z</time>
      </trkpt>
      <trkpt lat="43.42767" lon="2.20781">
        <ele>859.2</ele>
        <time>2021-12-18T15:15:03.000Z</time>
      </trkpt>
      <trkpt lat="43.42769" lon="2.20768">
        <ele>858.6</ele>
        <time>2021-12-18T15:15:05.000Z</time>
      </trkpt>
      <trkpt lat="43.42774" lon="2.20751">
        <ele>858</ele>
        <time>2021-12-18T15:15:08.000Z</time>
      </trkpt>
      <trkpt lat="43.42782" lon="2.20735">
        <ele>857.3</ele>
        <time>2021-12-18T15:15:11.000Z</time>
      </trkpt>
      <trkpt lat="43.42787" lon="2.20721">
        <ele>856.6</ele>
        <time>2021-12-18T15:15:13.000Z</time>
      </trkpt>
      <trkpt lat="43.42792" lon="2.20707">
        <ele>855.7</ele>
        <time>2021-12-18T15:15:15.000Z</time>
      </trkpt>
      <trkpt lat="43.42798" lon="2.20695">
        <ele>854.7</ele>
        <time>2021-12-18T15:15:17.000Z</time>
      </trkpt>
      <trkpt lat="43.42803" lon="2.2068">
        <ele>853.7</ele>
        <time>2021-12-18T15:15:19.000Z</time>
      </trkpt>
      <trkpt lat="43.42808" lon="2.20667">
        <ele>852.7</ele>
        <time>2021-12-18T15:15:21.000Z</time>
      </trkpt>
      <trkpt lat="43.42813" lon="2.20652">
        <ele>851.5</ele>
        <time>2021-12-18T15:15:23.000Z</time>
      </trkpt>
      <trkpt lat="43.42813" lon="2.20652">
        <ele>851.5</ele>
        <time>2021-12-18T15:15:23.000Z</time>
      </trkpt>
      <trkpt lat="43.42818" lon="2.20635">
        <ele>850.4</ele>
        <time>2021-12-18T15:15:25.000Z</time>
      </trkpt>
      <trkpt lat="43.42823" lon="2.20619">
        <ele>849.1</ele>
        <time>2021-12-18T15:15:27.000Z</time>
      </trkpt>
      <trkpt lat="43.42829" lon="2.20602">
        <ele>847.8</ele>
        <time>2021-12-18T15:15:29.000Z</time>
      </trkpt>
      <trkpt lat="43.42836" lon="2.20587">
        <ele>846.6</ele>
        <time>2021-12-18T15:15:31.000Z</time>
      </trkpt>
      <trkpt lat="43.42843" lon="2.20569">
        <ele>845.1</ele>
        <time>2021-12-18T15:15:33.000Z</time>
      </trkpt>
      <trkpt lat="43.42851" lon="2.20548">
        <ele>843.7</ele>
        <time>2021-12-18T15:15:35.000Z</time>
      </trkpt>
      <trkpt lat="43.4286" lon="2.20531">
        <ele>842.1</ele>
        <time>2021-12-18T15:15:37.000Z</time>
      </trkpt>
      <trkpt lat="43.42866" lon="2.20515">
        <ele>840.5</ele>
        <time>2021-12-18T15:15:39.000Z</time>
      </trkpt>
      <trkpt lat="43.42871" lon="2.20497">
        <ele>838</ele>
        <time>2021-12-18T15:15:42.000Z</time>
      </trkpt>
      <trkpt lat="43.42876" lon="2.20481">
        <ele>836.1</ele>
        <time>2021-12-18T15:15:45.000Z</time>
      </trkpt>
      <trkpt lat="43.42876" lon="2.20465">
        <ele>834.9</ele>
        <time>2021-12-18T15:15:47.000Z</time>
      </trkpt>
      <trkpt lat="43.42877" lon="2.20448">
        <ele>833.3</ele>
        <time>2021-12-18T15:15:50.000Z</time>
      </trkpt>
      <trkpt lat="43.42875" lon="2.20434">
        <ele>832.3</ele>
        <time>2021-12-18T15:15:52.000Z</time>
      </trkpt>
      <trkpt lat="43.42872" lon="2.20421">
        <ele>831.5</ele>
        <time>2021-12-18T15:15:54.000Z</time>
      </trkpt>
      <trkpt lat="43.42867" lon="2.20403">
        <ele>830.9</ele>
        <time>2021-12-18T15:15:56.000Z</time>
      </trkpt>
      <trkpt lat="43.42863" lon="2.2039">
        <ele>830.2</ele>
        <time>2021-12-18T15:15:58.000Z</time>
      </trkpt>
      <trkpt lat="43.4286" lon="2.20378">
        <ele>829.4</ele>
        <time>2021-12-18T15:16:00.000Z</time>
      </trkpt>
      <trkpt lat="43.42856" lon="2.20363">
        <ele>828.7</ele>
        <time>2021-12-18T15:16:02.000Z</time>
      </trkpt>
      <trkpt lat="43.42851" lon="2.20348">
        <ele>827.9</ele>
        <time>2021-12-18T15:16:04.000Z</time>
      </trkpt>
      <trkpt lat="43.42845" lon="2.2033">
        <ele>826.9</ele>
        <time>2021-12-18T15:16:06.000Z</time>
      </trkpt>
      <trkpt lat="43.42837" lon="2.20312">
        <ele>826</ele>
        <time>2021-12-18T15:16:08.000Z</time>
      </trkpt>
      <trkpt lat="43.4283" lon="2.20293">
        <ele>825</ele>
        <time>2021-12-18T15:16:10.000Z</time>
      </trkpt>
      <trkpt lat="43.42823" lon="2.20274">
        <ele>824</ele>
        <time>2021-12-18T15:16:12.000Z</time>
      </trkpt>
      <trkpt lat="43.42818" lon="2.20258">
        <ele>823</ele>
        <time>2021-12-18T15:16:14.000Z</time>
      </trkpt>
      <trkpt lat="43.42815" lon="2.20244">
        <ele>821.9</ele>
        <time>2021-12-18T15:16:16.000Z</time>
      </trkpt>
      <trkpt lat="43.42812" lon="2.2023">
        <ele>820.7</ele>
        <time>2021-12-18T15:16:19.000Z</time>
      </trkpt>
      <trkpt lat="43.42812" lon="2.20218">
        <ele>817.7</ele>
        <time>2021-12-18T15:17:18.000Z</time>
      </trkpt>
      <trkpt lat="43.42803" lon="2.20219">
        <ele>817.5</ele>
        <time>2021-12-18T15:19:33.000Z</time>
      </trkpt>
      <trkpt lat="43.42793" lon="2.20216">
        <ele>817.5</ele>
        <time>2021-12-18T15:19:38.000Z</time>
      </trkpt>
      <trkpt lat="43.42782" lon="2.20214">
        <ele>817.4</ele>
        <time>2021-12-18T15:19:42.000Z</time>
      </trkpt>
      <trkpt lat="43.42771" lon="2.20211">
        <ele>817.2</ele>
        <time>2021-12-18T15:19:45.000Z</time>
      </trkpt>
      <trkpt lat="43.42761" lon="2.20208">
        <ele>816.8</ele>
        <time>2021-12-18T15:19:47.000Z</time>
      </trkpt>
      <trkpt lat="43.42748" lon="2.20205">
        <ele>816.4</ele>
        <time>2021-12-18T15:19:49.000Z</time>
      </trkpt>
      <trkpt lat="43.42737" lon="2.20203">
        <ele>815.9</ele>
        <time>2021-12-18T15:19:51.000Z</time>
      </trkpt>
      <trkpt lat="43.42725" lon="2.202">
        <ele>815.5</ele>
        <time>2021-12-18T15:19:53.000Z</time>
      </trkpt>
      <trkpt lat="43.42716" lon="2.20201">
        <ele>815.1</ele>
        <time>2021-12-18T15:19:55.000Z</time>
      </trkpt>
      <trkpt lat="43.42704" lon="2.20203">
        <ele>814.7</ele>
        <time>2021-12-18T15:19:58.000Z</time>
      </trkpt>
      <trkpt lat="43.42693" lon="2.20205">
        <ele>814.3</ele>
        <time>2021-12-18T15:20:01.000Z</time>
      </trkpt>
      <trkpt lat="43.42682" lon="2.20204">
        <ele>814.2</ele>
        <time>2021-12-18T15:20:04.000Z</time>
      </trkpt>
      <trkpt lat="43.4267" lon="2.20201">
        <ele>814.2</ele>
        <time>2021-12-18T15:20:07.000Z</time>
      </trkpt>
      <trkpt lat="43.42657" lon="2.20194">
        <ele>814.1</ele>
        <time>2021-12-18T15:20:10.000Z</time>
      </trkpt>
      <trkpt lat="43.42646" lon="2.2019">
        <ele>813.8</ele>
        <time>2021-12-18T15:20:12.000Z</time>
      </trkpt>
      <trkpt lat="43.42635" lon="2.20182">
        <ele>813.3</ele>
        <time>2021-12-18T15:20:14.000Z</time>
      </trkpt>
      <trkpt lat="43.42623" lon="2.20174">
        <ele>812.8</ele>
        <time>2021-12-18T15:20:16.000Z</time>
      </trkpt>
      <trkpt lat="43.42612" lon="2.20162">
        <ele>812.2</ele>
        <time>2021-12-18T15:20:18.000Z</time>
      </trkpt>
      <trkpt lat="43.42601" lon="2.20151">
        <ele>811.6</ele>
        <time>2021-12-18T15:20:20.000Z</time>
      </trkpt>
      <trkpt lat="43.4259" lon="2.20142">
        <ele>811.1</ele>
        <time>2021-12-18T15:20:22.000Z</time>
      </trkpt>
      <trkpt lat="43.42579" lon="2.20135">
        <ele>810.7</ele>
        <time>2021-12-18T15:20:24.000Z</time>
      </trkpt>
      <trkpt lat="43.42568" lon="2.20131">
        <ele>810.3</ele>
        <time>2021-12-18T15:20:26.000Z</time>
      </trkpt>
      <trkpt lat="43.42559" lon="2.20126">
        <ele>810</ele>
        <time>2021-12-18T15:20:28.000Z</time>
      </trkpt>
      <trkpt lat="43.42549" lon="2.20124">
        <ele>809.8</ele>
        <time>2021-12-18T15:20:30.000Z</time>
      </trkpt>
      <trkpt lat="43.4254" lon="2.2012">
        <ele>809.6</ele>
        <time>2021-12-18T15:20:32.000Z</time>
      </trkpt>
      <trkpt lat="43.42528" lon="2.20115">
        <ele>809.5</ele>
        <time>2021-12-18T15:20:35.000Z</time>
      </trkpt>
      <trkpt lat="43.42518" lon="2.20113">
        <ele>809.6</ele>
        <time>2021-12-18T15:20:37.000Z</time>
      </trkpt>
      <trkpt lat="43.42509" lon="2.20112">
        <ele>809.9</ele>
        <time>2021-12-18T15:20:39.000Z</time>
      </trkpt>
      <trkpt lat="43.425" lon="2.20108">
        <ele>810.1</ele>
        <time>2021-12-18T15:20:41.000Z</time>
      </trkpt>
      <trkpt lat="43.42492" lon="2.20105">
        <ele>810.4</ele>
        <time>2021-12-18T15:20:43.000Z</time>
      </trkpt>
      <trkpt lat="43.4248" lon="2.20098">
        <ele>810.7</ele>
        <time>2021-12-18T15:20:46.000Z</time>
      </trkpt>
      <trkpt lat="43.42468" lon="2.20092">
        <ele>811</ele>
        <time>2021-12-18T15:20:49.000Z</time>
      </trkpt>
      <trkpt lat="43.42456" lon="2.20086">
        <ele>811.3</ele>
        <time>2021-12-18T15:20:52.000Z</time>
      </trkpt>
      <trkpt lat="43.42446" lon="2.20079">
        <ele>811.7</ele>
        <time>2021-12-18T15:20:55.000Z</time>
      </trkpt>
      <trkpt lat="43.42437" lon="2.20069">
        <ele>812.2</ele>
        <time>2021-12-18T15:20:58.000Z</time>
      </trkpt>
      <trkpt lat="43.42434" lon="2.20057">
        <ele>812.8</ele>
        <time>2021-12-18T15:21:01.000Z</time>
      </trkpt>
      <trkpt lat="43.42433" lon="2.20044">
        <ele>813.6</ele>
        <time>2021-12-18T15:21:04.000Z</time>
      </trkpt>
      <trkpt lat="43.42436" lon="2.2003">
        <ele>814.3</ele>
        <time>2021-12-18T15:21:07.000Z</time>
      </trkpt>
      <trkpt lat="43.42434" lon="2.20016">
        <ele>815</ele>
        <time>2021-12-18T15:21:10.000Z</time>
      </trkpt>
      <trkpt lat="43.42428" lon="2.20007">
        <ele>815.8</ele>
        <time>2021-12-18T15:21:13.000Z</time>
      </trkpt>
      <trkpt lat="43.42419" lon="2.20002">
        <ele>816.6</ele>
        <time>2021-12-18T15:21:16.000Z</time>
      </trkpt>
      <trkpt lat="43.4241" lon="2.19998">
        <ele>817.6</ele>
        <time>2021-12-18T15:21:19.000Z</time>
      </trkpt>
      <trkpt lat="43.42401" lon="2.19991">
        <ele>819</ele>
        <time>2021-12-18T15:21:23.000Z</time>
      </trkpt>
      <trkpt lat="43.42396" lon="2.19977">
        <ele>820.5</ele>
        <time>2021-12-18T15:21:27.000Z</time>
      </trkpt>
      <trkpt lat="43.42396" lon="2.19964">
        <ele>821.4</ele>
        <time>2021-12-18T15:21:30.000Z</time>
      </trkpt>
      <trkpt lat="43.42396" lon="2.19951">
        <ele>822.2</ele>
        <time>2021-12-18T15:21:33.000Z</time>
      </trkpt>
      <trkpt lat="43.42398" lon="2.19935">
        <ele>823.1</ele>
        <time>2021-12-18T15:21:37.000Z</time>
      </trkpt>
      <trkpt lat="43.42401" lon="2.1992">
        <ele>823.7</ele>
        <time>2021-12-18T15:21:41.000Z</time>
      </trkpt>
      <trkpt lat="43.42405" lon="2.19908">
        <ele>823.8</ele>
        <time>2021-12-18T15:21:45.000Z</time>
      </trkpt>
      <trkpt lat="43.4241" lon="2.19895">
        <ele>823.2</ele>
        <time>2021-12-18T15:22:19.000Z</time>
      </trkpt>
      <trkpt lat="43.42415" lon="2.19885">
        <ele>822.6</ele>
        <time>2021-12-18T15:22:23.000Z</time>
      </trkpt>
      <trkpt lat="43.42421" lon="2.19871">
        <ele>821.8</ele>
        <time>2021-12-18T15:23:17.000Z</time>
      </trkpt>
      <trkpt lat="43.42415" lon="2.19885">
        <ele>822.6</ele>
        <time>2021-12-18T15:22:23.000Z</time>
      </trkpt>
      <trkpt lat="43.42421" lon="2.19871">
        <ele>821.8</ele>
        <time>2021-12-18T15:23:17.000Z</time>
      </trkpt>
      <trkpt lat="43.42425" lon="2.19856">
        <ele>821.3</ele>
        <time>2021-12-18T15:23:21.000Z</time>
      </trkpt>
      <trkpt lat="43.4243" lon="2.19841">
        <ele>820.7</ele>
        <time>2021-12-18T15:23:24.000Z</time>
      </trkpt>
      <trkpt lat="43.42434" lon="2.19826">
        <ele>819.9</ele>
        <time>2021-12-18T15:23:27.000Z</time>
      </trkpt>
      <trkpt lat="43.4244" lon="2.1981">
        <ele>819</ele>
        <time>2021-12-18T15:23:30.000Z</time>
      </trkpt>
      <trkpt lat="43.42445" lon="2.19798">
        <ele>818.2</ele>
        <time>2021-12-18T15:23:32.000Z</time>
      </trkpt>
      <trkpt lat="43.4245" lon="2.19784">
        <ele>817.2</ele>
        <time>2021-12-18T15:23:34.000Z</time>
      </trkpt>
      <trkpt lat="43.42454" lon="2.19771">
        <ele>816.1</ele>
        <time>2021-12-18T15:23:36.000Z</time>
      </trkpt>
      <trkpt lat="43.42459" lon="2.19758">
        <ele>815</ele>
        <time>2021-12-18T15:23:38.000Z</time>
      </trkpt>
      <trkpt lat="43.42463" lon="2.19746">
        <ele>813.8</ele>
        <time>2021-12-18T15:23:40.000Z</time>
      </trkpt>
      <trkpt lat="43.42466" lon="2.19734">
        <ele>812.4</ele>
        <time>2021-12-18T15:23:42.000Z</time>
      </trkpt>
      <trkpt lat="43.42471" lon="2.19721">
        <ele>811.1</ele>
        <time>2021-12-18T15:23:44.000Z</time>
      </trkpt>
      <trkpt lat="43.42477" lon="2.19708">
        <ele>809.8</ele>
        <time>2021-12-18T15:23:46.000Z</time>
      </trkpt>
      <trkpt lat="43.42483" lon="2.19696">
        <ele>808.5</ele>
        <time>2021-12-18T15:23:48.000Z</time>
      </trkpt>
      <trkpt lat="43.4249" lon="2.19684">
        <ele>807.2</ele>
        <time>2021-12-18T15:23:50.000Z</time>
      </trkpt>
      <trkpt lat="43.42498" lon="2.19671">
        <ele>806</ele>
        <time>2021-12-18T15:23:52.000Z</time>
      </trkpt>
      <trkpt lat="43.42507" lon="2.19657">
        <ele>805</ele>
        <time>2021-12-18T15:23:54.000Z</time>
      </trkpt>
      <trkpt lat="43.42517" lon="2.19643">
        <ele>804.1</ele>
        <time>2021-12-18T15:23:56.000Z</time>
      </trkpt>
      <trkpt lat="43.42526" lon="2.1963">
        <ele>803.1</ele>
        <time>2021-12-18T15:23:58.000Z</time>
      </trkpt>
      <trkpt lat="43.42536" lon="2.19617">
        <ele>802.2</ele>
        <time>2021-12-18T15:24:00.000Z</time>
      </trkpt>
      <trkpt lat="43.42546" lon="2.19604">
        <ele>801.3</ele>
        <time>2021-12-18T15:24:02.000Z</time>
      </trkpt>
      <trkpt lat="43.42556" lon="2.19592">
        <ele>800.3</ele>
        <time>2021-12-18T15:24:04.000Z</time>
      </trkpt>
      <trkpt lat="43.42564" lon="2.19584">
        <ele>799.1</ele>
        <time>2021-12-18T15:24:06.000Z</time>
      </trkpt>
      <trkpt lat="43.4257" lon="2.19573">
        <ele>797.6</ele>
        <time>2021-12-18T15:24:09.000Z</time>
      </trkpt>
      <trkpt lat="43.42566" lon="2.19559">
        <ele>795.9</ele>
        <time>2021-12-18T15:24:13.000Z</time>
      </trkpt>
      <trkpt lat="43.42554" lon="2.19561">
        <ele>794.8</ele>
        <time>2021-12-18T15:24:16.000Z</time>
      </trkpt>
      <trkpt lat="43.42542" lon="2.19568">
        <ele>793.6</ele>
        <time>2021-12-18T15:24:19.000Z</time>
      </trkpt>
      <trkpt lat="43.42533" lon="2.19574">
        <ele>792.8</ele>
        <time>2021-12-18T15:24:21.000Z</time>
      </trkpt>
      <trkpt lat="43.42522" lon="2.19581">
        <ele>791.6</ele>
        <time>2021-12-18T15:24:23.000Z</time>
      </trkpt>
      <trkpt lat="43.42511" lon="2.19589">
        <ele>790.5</ele>
        <time>2021-12-18T15:24:25.000Z</time>
      </trkpt>
      <trkpt lat="43.425" lon="2.19594">
        <ele>789.4</ele>
        <time>2021-12-18T15:24:27.000Z</time>
      </trkpt>
      <trkpt lat="43.4249" lon="2.19599">
        <ele>788.3</ele>
        <time>2021-12-18T15:24:29.000Z</time>
      </trkpt>
      <trkpt lat="43.42479" lon="2.19604">
        <ele>787.3</ele>
        <time>2021-12-18T15:24:31.000Z</time>
      </trkpt>
      <trkpt lat="43.42471" lon="2.19608">
        <ele>786.1</ele>
        <time>2021-12-18T15:24:33.000Z</time>
      </trkpt>
      <trkpt lat="43.4246" lon="2.19611">
        <ele>785</ele>
        <time>2021-12-18T15:24:35.000Z</time>
      </trkpt>
      <trkpt lat="43.42449" lon="2.19616">
        <ele>784</ele>
        <time>2021-12-18T15:24:37.000Z</time>
      </trkpt>
      <trkpt lat="43.4244" lon="2.19621">
        <ele>783</ele>
        <time>2021-12-18T15:24:39.000Z</time>
      </trkpt>
      <trkpt lat="43.42429" lon="2.19627">
        <ele>781.3</ele>
        <time>2021-12-18T15:24:43.000Z</time>
      </trkpt>
      <trkpt lat="43.42421" lon="2.19631">
        <ele>779.8</ele>
        <time>2021-12-18T15:24:47.000Z</time>
      </trkpt>
      <trkpt lat="43.4241" lon="2.19631">
        <ele>778</ele>
        <time>2021-12-18T15:25:06.000Z</time>
      </trkpt>
      <trkpt lat="43.42398" lon="2.19629">
        <ele>777.6</ele>
        <time>2021-12-18T15:25:10.000Z</time>
      </trkpt>
      <trkpt lat="43.4239" lon="2.19623">
        <ele>777.3</ele>
        <time>2021-12-18T15:25:13.000Z</time>
      </trkpt>
      <trkpt lat="43.42381" lon="2.19612">
        <ele>776.8</ele>
        <time>2021-12-18T15:25:16.000Z</time>
      </trkpt>
      <trkpt lat="43.42373" lon="2.19605">
        <ele>776.3</ele>
        <time>2021-12-18T15:25:18.000Z</time>
      </trkpt>
      <trkpt lat="43.42364" lon="2.19594">
        <ele>775.6</ele>
        <time>2021-12-18T15:25:20.000Z</time>
      </trkpt>
      <trkpt lat="43.42356" lon="2.19584">
        <ele>774.6</ele>
        <time>2021-12-18T15:25:22.000Z</time>
      </trkpt>
      <trkpt lat="43.4235" lon="2.19575">
        <ele>773.5</ele>
        <time>2021-12-18T15:25:24.000Z</time>
      </trkpt>
      <trkpt lat="43.42343" lon="2.19565">
        <ele>772.5</ele>
        <time>2021-12-18T15:25:26.000Z</time>
      </trkpt>
      <trkpt lat="43.42334" lon="2.19555">
        <ele>771.5</ele>
        <time>2021-12-18T15:25:28.000Z</time>
      </trkpt>
      <trkpt lat="43.42326" lon="2.19539">
        <ele>770.6</ele>
        <time>2021-12-18T15:25:30.000Z</time>
      </trkpt>
      <trkpt lat="43.42318" lon="2.19523">
        <ele>769.6</ele>
        <time>2021-12-18T15:25:32.000Z</time>
      </trkpt>
      <trkpt lat="43.42314" lon="2.19504">
        <ele>768.6</ele>
        <time>2021-12-18T15:25:34.000Z</time>
      </trkpt>
      <trkpt lat="43.42309" lon="2.19484">
        <ele>767.5</ele>
        <time>2021-12-18T15:25:36.000Z</time>
      </trkpt>
      <trkpt lat="43.42304" lon="2.19466">
        <ele>766.3</ele>
        <time>2021-12-18T15:25:38.000Z</time>
      </trkpt>
      <trkpt lat="43.42298" lon="2.19447">
        <ele>764.9</ele>
        <time>2021-12-18T15:25:40.000Z</time>
      </trkpt>
      <trkpt lat="43.42292" lon="2.1943">
        <ele>763.5</ele>
        <time>2021-12-18T15:25:42.000Z</time>
      </trkpt>
      <trkpt lat="43.42287" lon="2.19411">
        <ele>761.9</ele>
        <time>2021-12-18T15:25:44.000Z</time>
      </trkpt>
      <trkpt lat="43.4228" lon="2.19392">
        <ele>760.2</ele>
        <time>2021-12-18T15:25:46.000Z</time>
      </trkpt>
      <trkpt lat="43.42273" lon="2.19376">
        <ele>758.6</ele>
        <time>2021-12-18T15:25:48.000Z</time>
      </trkpt>
      <trkpt lat="43.42266" lon="2.19365">
        <ele>756.9</ele>
        <time>2021-12-18T15:25:50.000Z</time>
      </trkpt>
      <trkpt lat="43.42255" lon="2.19354">
        <ele>754.6</ele>
        <time>2021-12-18T15:25:53.000Z</time>
      </trkpt>
      <trkpt lat="43.4225" lon="2.19344">
        <ele>753.2</ele>
        <time>2021-12-18T15:25:55.000Z</time>
      </trkpt>
      <trkpt lat="43.42244" lon="2.19331">
        <ele>751.4</ele>
        <time>2021-12-18T15:25:58.000Z</time>
      </trkpt>
      <trkpt lat="43.42241" lon="2.19319">
        <ele>750.4</ele>
        <time>2021-12-18T15:26:00.000Z</time>
      </trkpt>
      <trkpt lat="43.42236" lon="2.19304">
        <ele>749.5</ele>
        <time>2021-12-18T15:26:02.000Z</time>
      </trkpt>
      <trkpt lat="43.42229" lon="2.19288">
        <ele>748.4</ele>
        <time>2021-12-18T15:26:04.000Z</time>
      </trkpt>
      <trkpt lat="43.4222" lon="2.19273">
        <ele>747.2</ele>
        <time>2021-12-18T15:26:06.000Z</time>
      </trkpt>
      <trkpt lat="43.42213" lon="2.19259">
        <ele>745.7</ele>
        <time>2021-12-18T15:26:08.000Z</time>
      </trkpt>
      <trkpt lat="43.42206" lon="2.19248">
        <ele>744.1</ele>
        <time>2021-12-18T15:26:10.000Z</time>
      </trkpt>
      <trkpt lat="43.42198" lon="2.19239">
        <ele>742.2</ele>
        <time>2021-12-18T15:26:12.000Z</time>
      </trkpt>
      <trkpt lat="43.42189" lon="2.19228">
        <ele>740.5</ele>
        <time>2021-12-18T15:26:14.000Z</time>
      </trkpt>
      <trkpt lat="43.4218" lon="2.19218">
        <ele>738.8</ele>
        <time>2021-12-18T15:26:16.000Z</time>
      </trkpt>
      <trkpt lat="43.42171" lon="2.19207">
        <ele>736.3</ele>
        <time>2021-12-18T15:26:19.000Z</time>
      </trkpt>
      <trkpt lat="43.42163" lon="2.19193">
        <ele>734.2</ele>
        <time>2021-12-18T15:26:22.000Z</time>
      </trkpt>
      <trkpt lat="43.42156" lon="2.19181">
        <ele>732.4</ele>
        <time>2021-12-18T15:26:25.000Z</time>
      </trkpt>
      <trkpt lat="43.42151" lon="2.1917">
        <ele>730.5</ele>
        <time>2021-12-18T15:26:28.000Z</time>
      </trkpt>
      <trkpt lat="43.42144" lon="2.19158">
        <ele>728.2</ele>
        <time>2021-12-18T15:26:32.000Z</time>
      </trkpt>
      <trkpt lat="43.42151" lon="2.1917">
        <ele>730.5</ele>
        <time>2021-12-18T15:26:28.000Z</time>
      </trkpt>
      <trkpt lat="43.42144" lon="2.19158">
        <ele>728.2</ele>
        <time>2021-12-18T15:26:32.000Z</time>
      </trkpt>
      <trkpt lat="43.42137" lon="2.19148">
        <ele>726.2</ele>
        <time>2021-12-18T15:26:36.000Z</time>
      </trkpt>
      <trkpt lat="43.4213" lon="2.19138">
        <ele>724.7</ele>
        <time>2021-12-18T15:26:39.000Z</time>
      </trkpt>
      <trkpt lat="43.42124" lon="2.19127">
        <ele>723.3</ele>
        <time>2021-12-18T15:26:42.000Z</time>
      </trkpt>
      <trkpt lat="43.42124" lon="2.19112">
        <ele>722.3</ele>
        <time>2021-12-18T15:26:45.000Z</time>
      </trkpt>
      <trkpt lat="43.42126" lon="2.19097">
        <ele>721.5</ele>
        <time>2021-12-18T15:26:48.000Z</time>
      </trkpt>
      <trkpt lat="43.42129" lon="2.1908">
        <ele>720.8</ele>
        <time>2021-12-18T15:26:51.000Z</time>
      </trkpt>
      <trkpt lat="43.42137" lon="2.19069">
        <ele>720.4</ele>
        <time>2021-12-18T15:26:55.000Z</time>
      </trkpt>
      <trkpt lat="43.42148" lon="2.19072">
        <ele>720.5</ele>
        <time>2021-12-18T15:26:59.000Z</time>
      </trkpt>
      <trkpt lat="43.4216" lon="2.19078">
        <ele>721.1</ele>
        <time>2021-12-18T15:27:03.000Z</time>
      </trkpt>
      <trkpt lat="43.42166" lon="2.19066">
        <ele>722.4</ele>
        <time>2021-12-18T15:27:08.000Z</time>
      </trkpt>
      <trkpt lat="43.42162" lon="2.19051">
        <ele>723.2</ele>
        <time>2021-12-18T15:27:12.000Z</time>
      </trkpt>
      <trkpt lat="43.42154" lon="2.19041">
        <ele>724.3</ele>
        <time>2021-12-18T15:27:16.000Z</time>
      </trkpt>
      <trkpt lat="43.42149" lon="2.19028">
        <ele>725.4</ele>
        <time>2021-12-18T15:27:20.000Z</time>
      </trkpt>
      <trkpt lat="43.42149" lon="2.19015">
        <ele>726.3</ele>
        <time>2021-12-18T15:27:24.000Z</time>
      </trkpt>
      <trkpt lat="43.42158" lon="2.19018">
        <ele>728.3</ele>
        <time>2021-12-18T15:27:58.000Z</time>
      </trkpt>
      <trkpt lat="43.42167" lon="2.19025">
        <ele>728.7</ele>
        <time>2021-12-18T15:28:02.000Z</time>
      </trkpt>
      <trkpt lat="43.42175" lon="2.19032">
        <ele>729</ele>
        <time>2021-12-18T15:28:05.000Z</time>
      </trkpt>
      <trkpt lat="43.42184" lon="2.1904">
        <ele>729.2</ele>
        <time>2021-12-18T15:28:08.000Z</time>
      </trkpt>
      <trkpt lat="43.42192" lon="2.19046">
        <ele>729.4</ele>
        <time>2021-12-18T15:28:11.000Z</time>
      </trkpt>
      <trkpt lat="43.42201" lon="2.19052">
        <ele>729.6</ele>
        <time>2021-12-18T15:28:14.000Z</time>
      </trkpt>
      <trkpt lat="43.4221" lon="2.19054">
        <ele>730</ele>
        <time>2021-12-18T15:28:17.000Z</time>
      </trkpt>
      <trkpt lat="43.42219" lon="2.19059">
        <ele>730.7</ele>
        <time>2021-12-18T15:28:22.000Z</time>
      </trkpt>
      <trkpt lat="43.42228" lon="2.19061">
        <ele>731</ele>
        <time>2021-12-18T15:28:26.000Z</time>
      </trkpt>
      <trkpt lat="43.42238" lon="2.19065">
        <ele>731.5</ele>
        <time>2021-12-18T15:28:30.000Z</time>
      </trkpt>
      <trkpt lat="43.42249" lon="2.19067">
        <ele>732.1</ele>
        <time>2021-12-18T15:28:34.000Z</time>
      </trkpt>
      <trkpt lat="43.42258" lon="2.19072">
        <ele>732.7</ele>
        <time>2021-12-18T15:28:37.000Z</time>
      </trkpt>
      <trkpt lat="43.42266" lon="2.19078">
        <ele>733.4</ele>
        <time>2021-12-18T15:28:40.000Z</time>
      </trkpt>
      <trkpt lat="43.42275" lon="2.19087">
        <ele>734.3</ele>
        <time>2021-12-18T15:28:44.000Z</time>
      </trkpt>
      <trkpt lat="43.42284" lon="2.19093">
        <ele>734.7</ele>
        <time>2021-12-18T15:28:47.000Z</time>
      </trkpt>
      <trkpt lat="43.42293" lon="2.19101">
        <ele>735</ele>
        <time>2021-12-18T15:28:50.000Z</time>
      </trkpt>
      <trkpt lat="43.42303" lon="2.19108">
        <ele>735.2</ele>
        <time>2021-12-18T15:28:53.000Z</time>
      </trkpt>
      <trkpt lat="43.42311" lon="2.19119">
        <ele>735.1</ele>
        <time>2021-12-18T15:28:56.000Z</time>
      </trkpt>
      <trkpt lat="43.42319" lon="2.19132">
        <ele>734.8</ele>
        <time>2021-12-18T15:28:59.000Z</time>
      </trkpt>
      <trkpt lat="43.42327" lon="2.19147">
        <ele>734.4</ele>
        <time>2021-12-18T15:29:02.000Z</time>
      </trkpt>
      <trkpt lat="43.42334" lon="2.19162">
        <ele>734.1</ele>
        <time>2021-12-18T15:29:05.000Z</time>
      </trkpt>
      <trkpt lat="43.42342" lon="2.19174">
        <ele>733.7</ele>
        <time>2021-12-18T15:29:08.000Z</time>
      </trkpt>
      <trkpt lat="43.42348" lon="2.19185">
        <ele>733.4</ele>
        <time>2021-12-18T15:29:11.000Z</time>
      </trkpt>
      <trkpt lat="43.42355" lon="2.19195">
        <ele>733.3</ele>
        <time>2021-12-18T15:29:14.000Z</time>
      </trkpt>
      <trkpt lat="43.42364" lon="2.192">
        <ele>733.5</ele>
        <time>2021-12-18T15:29:17.000Z</time>
      </trkpt>
      <trkpt lat="43.42373" lon="2.19205">
        <ele>733.7</ele>
        <time>2021-12-18T15:29:20.000Z</time>
      </trkpt>
      <trkpt lat="43.42382" lon="2.19209">
        <ele>734.2</ele>
        <time>2021-12-18T15:29:23.000Z</time>
      </trkpt>
      <trkpt lat="43.42392" lon="2.19216">
        <ele>734.9</ele>
        <time>2021-12-18T15:29:27.000Z</time>
      </trkpt>
      <trkpt lat="43.42401" lon="2.19226">
        <ele>735.3</ele>
        <time>2021-12-18T15:29:31.000Z</time>
      </trkpt>
      <trkpt lat="43.4241" lon="2.19236">
        <ele>735.8</ele>
        <time>2021-12-18T15:29:35.000Z</time>
      </trkpt>
      <trkpt lat="43.42418" lon="2.19245">
        <ele>736.1</ele>
        <time>2021-12-18T15:29:39.000Z</time>
      </trkpt>
      <trkpt lat="43.42427" lon="2.19255">
        <ele>736.7</ele>
        <time>2021-12-18T15:29:43.000Z</time>
      </trkpt>
      <trkpt lat="43.42435" lon="2.19263">
        <ele>737.1</ele>
        <time>2021-12-18T15:29:46.000Z</time>
      </trkpt>
      <trkpt lat="43.42445" lon="2.19269">
        <ele>737.7</ele>
        <time>2021-12-18T15:29:50.000Z</time>
      </trkpt>
      <trkpt lat="43.42457" lon="2.19268">
        <ele>738.2</ele>
        <time>2021-12-18T15:29:54.000Z</time>
      </trkpt>
      <trkpt lat="43.42468" lon="2.19267">
        <ele>738.5</ele>
        <time>2021-12-18T15:29:58.000Z</time>
      </trkpt>
      <trkpt lat="43.42477" lon="2.19264">
        <ele>738.9</ele>
        <time>2021-12-18T15:30:02.000Z</time>
      </trkpt>
      <trkpt lat="43.42487" lon="2.19262">
        <ele>739.9</ele>
        <time>2021-12-18T15:30:09.000Z</time>
      </trkpt>
      <trkpt lat="43.42499" lon="2.19257">
        <ele>741</ele>
        <time>2021-12-18T15:30:15.000Z</time>
      </trkpt>
      <trkpt lat="43.42509" lon="2.19253">
        <ele>742</ele>
        <time>2021-12-18T15:30:19.000Z</time>
      </trkpt>
      <trkpt lat="43.42519" lon="2.19249">
        <ele>743.1</ele>
        <time>2021-12-18T15:30:23.000Z</time>
      </trkpt>
      <trkpt lat="43.42529" lon="2.19246">
        <ele>744.5</ele>
        <time>2021-12-18T15:30:28.000Z</time>
      </trkpt>
      <trkpt lat="43.42538" lon="2.19243">
        <ele>745.4</ele>
        <time>2021-12-18T15:30:32.000Z</time>
      </trkpt>
      <trkpt lat="43.42548" lon="2.19238">
        <ele>746.5</ele>
        <time>2021-12-18T15:30:38.000Z</time>
      </trkpt>
      <trkpt lat="43.42558" lon="2.19234">
        <ele>747</ele>
        <time>2021-12-18T15:30:41.000Z</time>
      </trkpt>
      <trkpt lat="43.42568" lon="2.19234">
        <ele>747.6</ele>
        <time>2021-12-18T15:30:44.000Z</time>
      </trkpt>
      <trkpt lat="43.42578" lon="2.19234">
        <ele>748.2</ele>
        <time>2021-12-18T15:30:47.000Z</time>
      </trkpt>
      <trkpt lat="43.42587" lon="2.19238">
        <ele>748.8</ele>
        <time>2021-12-18T15:30:50.000Z</time>
      </trkpt>
      <trkpt lat="43.42596" lon="2.19242">
        <ele>749.5</ele>
        <time>2021-12-18T15:30:53.000Z</time>
      </trkpt>
      <trkpt lat="43.42607" lon="2.19245">
        <ele>750.1</ele>
        <time>2021-12-18T15:30:56.000Z</time>
      </trkpt>
      <trkpt lat="43.42617" lon="2.19246">
        <ele>750.7</ele>
        <time>2021-12-18T15:30:59.000Z</time>
      </trkpt>
      <trkpt lat="43.42627" lon="2.19247">
        <ele>751.1</ele>
        <time>2021-12-18T15:31:02.000Z</time>
      </trkpt>
      <trkpt lat="43.42639" lon="2.19246">
        <ele>751.7</ele>
        <time>2021-12-18T15:31:06.000Z</time>
      </trkpt>
      <trkpt lat="43.42647" lon="2.19241">
        <ele>752.4</ele>
        <time>2021-12-18T15:31:09.000Z</time>
      </trkpt>
      <trkpt lat="43.42656" lon="2.19234">
        <ele>753.7</ele>
        <time>2021-12-18T15:31:14.000Z</time>
      </trkpt>
      <trkpt lat="43.42664" lon="2.19225">
        <ele>755</ele>
        <time>2021-12-18T15:31:19.000Z</time>
      </trkpt>
      <trkpt lat="43.42672" lon="2.19218">
        <ele>756.2</ele>
        <time>2021-12-18T15:31:23.000Z</time>
      </trkpt>
      <trkpt lat="43.4268" lon="2.1921">
        <ele>757.7</ele>
        <time>2021-12-18T15:31:28.000Z</time>
      </trkpt>
      <trkpt lat="43.42689" lon="2.19201">
        <ele>759.2</ele>
        <time>2021-12-18T15:31:33.000Z</time>
      </trkpt>
      <trkpt lat="43.42698" lon="2.19199">
        <ele>760.9</ele>
        <time>2021-12-18T15:31:39.000Z</time>
      </trkpt>
      <trkpt lat="43.42709" lon="2.19196">
        <ele>762.2</ele>
        <time>2021-12-18T15:31:43.000Z</time>
      </trkpt>
      <trkpt lat="43.42721" lon="2.19195">
        <ele>763.8</ele>
        <time>2021-12-18T15:31:48.000Z</time>
      </trkpt>
      <trkpt lat="43.42732" lon="2.1919">
        <ele>765</ele>
        <time>2021-12-18T15:31:52.000Z</time>
      </trkpt>
      <trkpt lat="43.42742" lon="2.19186">
        <ele>766.1</ele>
        <time>2021-12-18T15:31:56.000Z</time>
      </trkpt>
      <trkpt lat="43.42751" lon="2.1918">
        <ele>767</ele>
        <time>2021-12-18T15:32:00.000Z</time>
      </trkpt>
      <trkpt lat="43.42758" lon="2.19172">
        <ele>768</ele>
        <time>2021-12-18T15:32:04.000Z</time>
      </trkpt>
      <trkpt lat="43.42766" lon="2.19165">
        <ele>769.4</ele>
        <time>2021-12-18T15:32:10.000Z</time>
      </trkpt>
      <trkpt lat="43.42773" lon="2.19158">
        <ele>771.3</ele>
        <time>2021-12-18T15:32:26.000Z</time>
      </trkpt>
      <trkpt lat="43.42782" lon="2.19155">
        <ele>771.6</ele>
        <time>2021-12-18T15:33:52.000Z</time>
      </trkpt>
      <trkpt lat="43.4279" lon="2.19146">
        <ele>771.9</ele>
        <time>2021-12-18T15:34:32.000Z</time>
      </trkpt>
      <trkpt lat="43.42796" lon="2.19135">
        <ele>772.7</ele>
        <time>2021-12-18T15:34:36.000Z</time>
      </trkpt>
      <trkpt lat="43.42807" lon="2.19127">
        <ele>773.4</ele>
        <time>2021-12-18T15:34:40.000Z</time>
      </trkpt>
      <trkpt lat="43.42796" lon="2.19135">
        <ele>772.7</ele>
        <time>2021-12-18T15:34:36.000Z</time>
      </trkpt>
      <trkpt lat="43.42807" lon="2.19127">
        <ele>773.4</ele>
        <time>2021-12-18T15:34:40.000Z</time>
      </trkpt>
      <trkpt lat="43.42818" lon="2.19121">
        <ele>773.9</ele>
        <time>2021-12-18T15:34:44.000Z</time>
      </trkpt>
      <trkpt lat="43.42828" lon="2.19113">
        <ele>774.4</ele>
        <time>2021-12-18T15:34:48.000Z</time>
      </trkpt>
      <trkpt lat="43.42836" lon="2.19105">
        <ele>774.8</ele>
        <time>2021-12-18T15:34:51.000Z</time>
      </trkpt>
      <trkpt lat="43.42844" lon="2.19094">
        <ele>775.4</ele>
        <time>2021-12-18T15:34:55.000Z</time>
      </trkpt>
      <trkpt lat="43.42853" lon="2.19083">
        <ele>775.9</ele>
        <time>2021-12-18T15:34:59.000Z</time>
      </trkpt>
      <trkpt lat="43.42862" lon="2.19074">
        <ele>776.4</ele>
        <time>2021-12-18T15:35:03.000Z</time>
      </trkpt>
      <trkpt lat="43.42873" lon="2.19072">
        <ele>776.8</ele>
        <time>2021-12-18T15:35:07.000Z</time>
      </trkpt>
      <trkpt lat="43.42882" lon="2.19079">
        <ele>777.2</ele>
        <time>2021-12-18T15:35:11.000Z</time>
      </trkpt>
      <trkpt lat="43.42889" lon="2.19088">
        <ele>777.5</ele>
        <time>2021-12-18T15:35:14.000Z</time>
      </trkpt>
      <trkpt lat="43.42895" lon="2.19098">
        <ele>777.7</ele>
        <time>2021-12-18T15:35:17.000Z</time>
      </trkpt>
      <trkpt lat="43.42901" lon="2.19107">
        <ele>777.8</ele>
        <time>2021-12-18T15:35:20.000Z</time>
      </trkpt>
      <trkpt lat="43.4291" lon="2.19115">
        <ele>778.2</ele>
        <time>2021-12-18T15:35:24.000Z</time>
      </trkpt>
      <trkpt lat="43.42921" lon="2.19117">
        <ele>778.8</ele>
        <time>2021-12-18T15:35:28.000Z</time>
      </trkpt>
      <trkpt lat="43.42932" lon="2.19115">
        <ele>779.9</ele>
        <time>2021-12-18T15:35:32.000Z</time>
      </trkpt>
      <trkpt lat="43.42943" lon="2.19115">
        <ele>781.1</ele>
        <time>2021-12-18T15:35:36.000Z</time>
      </trkpt>
      <trkpt lat="43.42953" lon="2.19113">
        <ele>782.3</ele>
        <time>2021-12-18T15:35:40.000Z</time>
      </trkpt>
      <trkpt lat="43.42964" lon="2.19111">
        <ele>783.5</ele>
        <time>2021-12-18T15:35:44.000Z</time>
      </trkpt>
      <trkpt lat="43.42973" lon="2.19108">
        <ele>784.5</ele>
        <time>2021-12-18T15:35:48.000Z</time>
      </trkpt>
      <trkpt lat="43.42985" lon="2.19105">
        <ele>785.4</ele>
        <time>2021-12-18T15:35:52.000Z</time>
      </trkpt>
      <trkpt lat="43.42996" lon="2.19103">
        <ele>786.2</ele>
        <time>2021-12-18T15:35:56.000Z</time>
      </trkpt>
      <trkpt lat="43.43008" lon="2.19103">
        <ele>786.9</ele>
        <time>2021-12-18T15:36:00.000Z</time>
      </trkpt>
      <trkpt lat="43.43019" lon="2.19103">
        <ele>787.5</ele>
        <time>2021-12-18T15:36:04.000Z</time>
      </trkpt>
      <trkpt lat="43.4303" lon="2.19104">
        <ele>788</ele>
        <time>2021-12-18T15:36:08.000Z</time>
      </trkpt>
      <trkpt lat="43.43041" lon="2.19104">
        <ele>788.8</ele>
        <time>2021-12-18T15:36:12.000Z</time>
      </trkpt>
      <trkpt lat="43.43052" lon="2.19105">
        <ele>789.8</ele>
        <time>2021-12-18T15:36:16.000Z</time>
      </trkpt>
      <trkpt lat="43.43063" lon="2.19105">
        <ele>790.8</ele>
        <time>2021-12-18T15:36:20.000Z</time>
      </trkpt>
      <trkpt lat="43.43073" lon="2.19107">
        <ele>791.9</ele>
        <time>2021-12-18T15:36:24.000Z</time>
      </trkpt>
      <trkpt lat="43.43085" lon="2.19108">
        <ele>793.2</ele>
        <time>2021-12-18T15:36:28.000Z</time>
      </trkpt>
      <trkpt lat="43.43094" lon="2.19109">
        <ele>794.7</ele>
        <time>2021-12-18T15:36:32.000Z</time>
      </trkpt>
      <trkpt lat="43.43104" lon="2.1911">
        <ele>796.2</ele>
        <time>2021-12-18T15:36:36.000Z</time>
      </trkpt>
      <trkpt lat="43.43114" lon="2.19112">
        <ele>797.8</ele>
        <time>2021-12-18T15:36:40.000Z</time>
      </trkpt>
      <trkpt lat="43.43125" lon="2.19111">
        <ele>799.1</ele>
        <time>2021-12-18T15:36:45.000Z</time>
      </trkpt>
      <trkpt lat="43.43131" lon="2.19102">
        <ele>800</ele>
        <time>2021-12-18T15:36:50.000Z</time>
      </trkpt>
      <trkpt lat="43.4313" lon="2.19088">
        <ele>800.4</ele>
        <time>2021-12-18T15:36:54.000Z</time>
      </trkpt>
      <trkpt lat="43.43129" lon="2.19073">
        <ele>800.8</ele>
        <time>2021-12-18T15:36:58.000Z</time>
      </trkpt>
      <trkpt lat="43.43128" lon="2.19059">
        <ele>801.1</ele>
        <time>2021-12-18T15:37:02.000Z</time>
      </trkpt>
      <trkpt lat="43.43126" lon="2.19045">
        <ele>801.4</ele>
        <time>2021-12-18T15:37:06.000Z</time>
      </trkpt>
      <trkpt lat="43.43124" lon="2.19031">
        <ele>801.7</ele>
        <time>2021-12-18T15:37:10.000Z</time>
      </trkpt>
      <trkpt lat="43.43118" lon="2.19017">
        <ele>802</ele>
        <time>2021-12-18T15:37:14.000Z</time>
      </trkpt>
      <trkpt lat="43.43112" lon="2.19006">
        <ele>802.4</ele>
        <time>2021-12-18T15:37:18.000Z</time>
      </trkpt>
      <trkpt lat="43.43105" lon="2.18995">
        <ele>802.8</ele>
        <time>2021-12-18T15:37:22.000Z</time>
      </trkpt>
      <trkpt lat="43.43098" lon="2.18984">
        <ele>803</ele>
        <time>2021-12-18T15:37:26.000Z</time>
      </trkpt>
      <trkpt lat="43.43092" lon="2.18973">
        <ele>803.3</ele>
        <time>2021-12-18T15:37:30.000Z</time>
      </trkpt>
      <trkpt lat="43.43085" lon="2.18962">
        <ele>803.7</ele>
        <time>2021-12-18T15:37:34.000Z</time>
      </trkpt>
      <trkpt lat="43.43079" lon="2.18951">
        <ele>804.1</ele>
        <time>2021-12-18T15:37:38.000Z</time>
      </trkpt>
      <trkpt lat="43.43072" lon="2.18943">
        <ele>804.1</ele>
        <time>2021-12-18T15:37:42.000Z</time>
      </trkpt>
      <trkpt lat="43.43066" lon="2.18933">
        <ele>804.1</ele>
        <time>2021-12-18T15:37:46.000Z</time>
      </trkpt>
      <trkpt lat="43.4306" lon="2.18924">
        <ele>804.2</ele>
        <time>2021-12-18T15:37:49.000Z</time>
      </trkpt>
      <trkpt lat="43.43054" lon="2.18915">
        <ele>804.1</ele>
        <time>2021-12-18T15:37:53.000Z</time>
      </trkpt>
      <trkpt lat="43.43047" lon="2.18904">
        <ele>804.1</ele>
        <time>2021-12-18T15:37:57.000Z</time>
      </trkpt>
      <trkpt lat="43.43042" lon="2.18892">
        <ele>803.8</ele>
        <time>2021-12-18T15:38:01.000Z</time>
      </trkpt>
      <trkpt lat="43.43035" lon="2.1888">
        <ele>803.4</ele>
        <time>2021-12-18T15:38:05.000Z</time>
      </trkpt>
      <trkpt lat="43.43029" lon="2.18868">
        <ele>803.1</ele>
        <time>2021-12-18T15:38:09.000Z</time>
      </trkpt>
      <trkpt lat="43.43024" lon="2.18857">
        <ele>802.6</ele>
        <time>2021-12-18T15:38:13.000Z</time>
      </trkpt>
      <trkpt lat="43.43016" lon="2.18846">
        <ele>802</ele>
        <time>2021-12-18T15:38:41.000Z</time>
      </trkpt>
      <trkpt lat="43.43009" lon="2.18835">
        <ele>801.7</ele>
        <time>2021-12-18T15:38:45.000Z</time>
      </trkpt>
      <trkpt lat="43.43003" lon="2.18823">
        <ele>801.1</ele>
        <time>2021-12-18T15:38:52.000Z</time>
      </trkpt>
      <trkpt lat="43.42998" lon="2.18814">
        <ele>800.9</ele>
        <time>2021-12-18T15:38:55.000Z</time>
      </trkpt>
      <trkpt lat="43.42991" lon="2.18804">
        <ele>800.5</ele>
        <time>2021-12-18T15:38:58.000Z</time>
      </trkpt>
      <trkpt lat="43.42985" lon="2.18794">
        <ele>800.1</ele>
        <time>2021-12-18T15:39:01.000Z</time>
      </trkpt>
      <trkpt lat="43.42979" lon="2.18783">
        <ele>799.6</ele>
        <time>2021-12-18T15:39:04.000Z</time>
      </trkpt>
      <trkpt lat="43.42972" lon="2.18772">
        <ele>799.2</ele>
        <time>2021-12-18T15:39:07.000Z</time>
      </trkpt>
      <trkpt lat="43.42964" lon="2.18761">
        <ele>798.6</ele>
        <time>2021-12-18T15:39:10.000Z</time>
      </trkpt>
      <trkpt lat="43.42958" lon="2.1875">
        <ele>797.9</ele>
        <time>2021-12-18T15:39:13.000Z</time>
      </trkpt>
      <trkpt lat="43.42952" lon="2.1874">
        <ele>796.5</ele>
        <time>2021-12-18T15:39:40.000Z</time>
      </trkpt>
      <trkpt lat="43.42953" lon="2.18727">
        <ele>795.7</ele>
        <time>2021-12-18T15:39:59.000Z</time>
      </trkpt>
      <trkpt lat="43.42958" lon="2.18716">
        <ele>795.2</ele>
        <time>2021-12-18T15:40:05.000Z</time>
      </trkpt>
      <trkpt lat="43.42964" lon="2.18703">
        <ele>794.7</ele>
        <time>2021-12-18T15:40:09.000Z</time>
      </trkpt>
      <trkpt lat="43.4297" lon="2.18692">
        <ele>794.1</ele>
        <time>2021-12-18T15:40:12.000Z</time>
      </trkpt>
      <trkpt lat="43.42976" lon="2.1868">
        <ele>793.4</ele>
        <time>2021-12-18T15:40:15.000Z</time>
      </trkpt>
      <trkpt lat="43.42982" lon="2.18669">
        <ele>792.6</ele>
        <time>2021-12-18T15:40:18.000Z</time>
      </trkpt>
      <trkpt lat="43.42988" lon="2.18659">
        <ele>791.6</ele>
        <time>2021-12-18T15:40:21.000Z</time>
      </trkpt>
      <trkpt lat="43.42994" lon="2.18648">
        <ele>790.5</ele>
        <time>2021-12-18T15:40:24.000Z</time>
      </trkpt>
      <trkpt lat="43.43" lon="2.18636">
        <ele>788.9</ele>
        <time>2021-12-18T15:40:28.000Z</time>
      </trkpt>
      <trkpt lat="43.43005" lon="2.18625">
        <ele>787.5</ele>
        <time>2021-12-18T15:40:31.000Z</time>
      </trkpt>
      <trkpt lat="43.43011" lon="2.18612">
        <ele>785.6</ele>
        <time>2021-12-18T15:40:35.000Z</time>
      </trkpt>
      <trkpt lat="43.43019" lon="2.18601">
        <ele>783.7</ele>
        <time>2021-12-18T15:40:39.000Z</time>
      </trkpt>
      <trkpt lat="43.43028" lon="2.18596">
        <ele>782</ele>
        <time>2021-12-18T15:40:43.000Z</time>
      </trkpt>
      <trkpt lat="43.43038" lon="2.18597">
        <ele>780.6</ele>
        <time>2021-12-18T15:40:47.000Z</time>
      </trkpt>
      <trkpt lat="43.43047" lon="2.18602">
        <ele>779.6</ele>
        <time>2021-12-18T15:40:50.000Z</time>
      </trkpt>
      <trkpt lat="43.43056" lon="2.18609">
        <ele>778.7</ele>
        <time>2021-12-18T15:40:53.000Z</time>
      </trkpt>
      <trkpt lat="43.43066" lon="2.18617">
        <ele>778</ele>
        <time>2021-12-18T15:40:56.000Z</time>
      </trkpt>
      <trkpt lat="43.43075" lon="2.18627">
        <ele>777.2</ele>
        <time>2021-12-18T15:40:59.000Z</time>
      </trkpt>
      <trkpt lat="43.43083" lon="2.18635">
        <ele>776.1</ele>
        <time>2021-12-18T15:41:03.000Z</time>
      </trkpt>
      <trkpt lat="43.43091" lon="2.18639">
        <ele>774.2</ele>
        <time>2021-12-18T15:41:29.000Z</time>
      </trkpt>
      <trkpt lat="43.43083" lon="2.18632">
        <ele>774.4</ele>
        <time>2021-12-18T15:41:43.000Z</time>
      </trkpt>
      <trkpt lat="43.43091" lon="2.18639">
        <ele>774.2</ele>
        <time>2021-12-18T15:41:29.000Z</time>
      </trkpt>
      <trkpt lat="43.43083" lon="2.18632">
        <ele>774.4</ele>
        <time>2021-12-18T15:41:43.000Z</time>
      </trkpt>
      <trkpt lat="43.43074" lon="2.18623">
        <ele>774.8</ele>
        <time>2021-12-18T15:41:47.000Z</time>
      </trkpt>
      <trkpt lat="43.43067" lon="2.18616">
        <ele>775.2</ele>
        <time>2021-12-18T15:41:50.000Z</time>
      </trkpt>
      <trkpt lat="43.43059" lon="2.18608">
        <ele>775.7</ele>
        <time>2021-12-18T15:41:53.000Z</time>
      </trkpt>
      <trkpt lat="43.43051" lon="2.18602">
        <ele>776.3</ele>
        <time>2021-12-18T15:41:56.000Z</time>
      </trkpt>
      <trkpt lat="43.43043" lon="2.18596">
        <ele>776.9</ele>
        <time>2021-12-18T15:41:59.000Z</time>
      </trkpt>
      <trkpt lat="43.43033" lon="2.18593">
        <ele>777.8</ele>
        <time>2021-12-18T15:42:03.000Z</time>
      </trkpt>
      <trkpt lat="43.43023" lon="2.18595">
        <ele>779.8</ele>
        <time>2021-12-18T15:42:33.000Z</time>
      </trkpt>
      <trkpt lat="43.43015" lon="2.186">
        <ele>781</ele>
        <time>2021-12-18T15:42:39.000Z</time>
      </trkpt>
      <trkpt lat="43.43009" lon="2.1861">
        <ele>782.5</ele>
        <time>2021-12-18T15:42:45.000Z</time>
      </trkpt>
      <trkpt lat="43.43004" lon="2.18622">
        <ele>784.3</ele>
        <time>2021-12-18T15:42:51.000Z</time>
      </trkpt>
      <trkpt lat="43.42999" lon="2.18633">
        <ele>786.1</ele>
        <time>2021-12-18T15:42:57.000Z</time>
      </trkpt>
      <trkpt lat="43.42993" lon="2.18644">
        <ele>787.9</ele>
        <time>2021-12-18T15:43:03.000Z</time>
      </trkpt>
      <trkpt lat="43.42987" lon="2.18655">
        <ele>789.3</ele>
        <time>2021-12-18T15:43:09.000Z</time>
      </trkpt>
      <trkpt lat="43.42982" lon="2.18666">
        <ele>790.2</ele>
        <time>2021-12-18T15:43:15.000Z</time>
      </trkpt>
      <trkpt lat="43.42975" lon="2.18677">
        <ele>791.3</ele>
        <time>2021-12-18T15:43:21.000Z</time>
      </trkpt>
      <trkpt lat="43.42969" lon="2.18687">
        <ele>792.4</ele>
        <time>2021-12-18T15:43:27.000Z</time>
      </trkpt>
      <trkpt lat="43.42963" lon="2.18699">
        <ele>794.4</ele>
        <time>2021-12-18T15:43:33.000Z</time>
      </trkpt>
      <trkpt lat="43.42957" lon="2.1871">
        <ele>795.1</ele>
        <time>2021-12-18T15:43:38.000Z</time>
      </trkpt>
      <trkpt lat="43.42952" lon="2.18721">
        <ele>795.2</ele>
        <time>2021-12-18T15:43:43.000Z</time>
      </trkpt>
      <trkpt lat="43.42945" lon="2.18731">
        <ele>795.8</ele>
        <time>2021-12-18T15:43:49.000Z</time>
      </trkpt>
      <trkpt lat="43.42937" lon="2.18726">
        <ele>796</ele>
        <time>2021-12-18T15:43:56.000Z</time>
      </trkpt>
      <trkpt lat="43.42929" lon="2.18716">
        <ele>795.6</ele>
        <time>2021-12-18T15:44:02.000Z</time>
      </trkpt>
      <trkpt lat="43.42921" lon="2.18705">
        <ele>795.1</ele>
        <time>2021-12-18T15:44:07.000Z</time>
      </trkpt>
      <trkpt lat="43.42912" lon="2.18694">
        <ele>794.7</ele>
        <time>2021-12-18T15:44:11.000Z</time>
      </trkpt>
      <trkpt lat="43.42905" lon="2.18685">
        <ele>794.2</ele>
        <time>2021-12-18T15:44:14.000Z</time>
      </trkpt>
      <trkpt lat="43.42898" lon="2.18675">
        <ele>793.8</ele>
        <time>2021-12-18T15:44:17.000Z</time>
      </trkpt>
      <trkpt lat="43.42889" lon="2.18663">
        <ele>793.3</ele>
        <time>2021-12-18T15:44:20.000Z</time>
      </trkpt>
      <trkpt lat="43.42881" lon="2.18654">
        <ele>792.6</ele>
        <time>2021-12-18T15:44:23.000Z</time>
      </trkpt>
      <trkpt lat="43.42874" lon="2.18644">
        <ele>791.6</ele>
        <time>2021-12-18T15:44:26.000Z</time>
      </trkpt>
      <trkpt lat="43.42866" lon="2.18635">
        <ele>790.5</ele>
        <time>2021-12-18T15:44:29.000Z</time>
      </trkpt>
      <trkpt lat="43.42858" lon="2.18626">
        <ele>789.5</ele>
        <time>2021-12-18T15:44:32.000Z</time>
      </trkpt>
      <trkpt lat="43.42851" lon="2.18617">
        <ele>788.1</ele>
        <time>2021-12-18T15:44:36.000Z</time>
      </trkpt>
      <trkpt lat="43.42842" lon="2.18612">
        <ele>785.8</ele>
        <time>2021-12-18T15:45:01.000Z</time>
      </trkpt>
      <trkpt lat="43.42837" lon="2.186">
        <ele>785.3</ele>
        <time>2021-12-18T15:45:14.000Z</time>
      </trkpt>
      <trkpt lat="43.4283" lon="2.18593">
        <ele>784.2</ele>
        <time>2021-12-18T15:45:30.000Z</time>
      </trkpt>
      <trkpt lat="43.42823" lon="2.18584">
        <ele>783</ele>
        <time>2021-12-18T15:46:41.000Z</time>
      </trkpt>
      <trkpt lat="43.42813" lon="2.18583">
        <ele>782.8</ele>
        <time>2021-12-18T15:48:01.000Z</time>
      </trkpt>
      <trkpt lat="43.42806" lon="2.18593">
        <ele>782.2</ele>
        <time>2021-12-18T15:48:07.000Z</time>
      </trkpt>
      <trkpt lat="43.428" lon="2.18602">
        <ele>781.9</ele>
        <time>2021-12-18T15:48:13.000Z</time>
      </trkpt>
      <trkpt lat="43.42795" lon="2.18613">
        <ele>781.9</ele>
        <time>2021-12-18T15:48:18.000Z</time>
      </trkpt>
      <trkpt lat="43.42789" lon="2.18623">
        <ele>781.6</ele>
        <time>2021-12-18T15:48:24.000Z</time>
      </trkpt>
      <trkpt lat="43.42781" lon="2.18632">
        <ele>781.5</ele>
        <time>2021-12-18T15:48:30.000Z</time>
      </trkpt>
      <trkpt lat="43.42773" lon="2.1864">
        <ele>782</ele>
        <time>2021-12-18T15:48:35.000Z</time>
      </trkpt>
      <trkpt lat="43.42765" lon="2.18646">
        <ele>781.9</ele>
        <time>2021-12-18T15:48:39.000Z</time>
      </trkpt>
      <trkpt lat="43.42758" lon="2.18654">
        <ele>781.8</ele>
        <time>2021-12-18T15:48:43.000Z</time>
      </trkpt>
      <trkpt lat="43.4275" lon="2.18662">
        <ele>781.7</ele>
        <time>2021-12-18T15:48:47.000Z</time>
      </trkpt>
      <trkpt lat="43.42742" lon="2.18669">
        <ele>781.7</ele>
        <time>2021-12-18T15:48:51.000Z</time>
      </trkpt>
      <trkpt lat="43.42734" lon="2.18676">
        <ele>781.6</ele>
        <time>2021-12-18T15:48:55.000Z</time>
      </trkpt>
      <trkpt lat="43.42725" lon="2.18683">
        <ele>781.6</ele>
        <time>2021-12-18T15:48:59.000Z</time>
      </trkpt>
      <trkpt lat="43.42717" lon="2.18689">
        <ele>781.8</ele>
        <time>2021-12-18T15:49:03.000Z</time>
      </trkpt>
      <trkpt lat="43.42708" lon="2.18696">
        <ele>781.9</ele>
        <time>2021-12-18T15:49:07.000Z</time>
      </trkpt>
      <trkpt lat="43.42699" lon="2.18701">
        <ele>781.8</ele>
        <time>2021-12-18T15:49:11.000Z</time>
      </trkpt>
      <trkpt lat="43.4269" lon="2.18705">
        <ele>781.9</ele>
        <time>2021-12-18T15:49:15.000Z</time>
      </trkpt>
      <trkpt lat="43.4268" lon="2.18706">
        <ele>781.9</ele>
        <time>2021-12-18T15:49:19.000Z</time>
      </trkpt>
      <trkpt lat="43.4267" lon="2.18705">
        <ele>781.9</ele>
        <time>2021-12-18T15:49:23.000Z</time>
      </trkpt>
      <trkpt lat="43.4266" lon="2.18704">
        <ele>782</ele>
        <time>2021-12-18T15:49:27.000Z</time>
      </trkpt>
      <trkpt lat="43.42651" lon="2.187">
        <ele>782.1</ele>
        <time>2021-12-18T15:49:31.000Z</time>
      </trkpt>
      <trkpt lat="43.42641" lon="2.18696">
        <ele>782.3</ele>
        <time>2021-12-18T15:49:35.000Z</time>
      </trkpt>
      <trkpt lat="43.4263" lon="2.18693">
        <ele>782.2</ele>
        <time>2021-12-18T15:49:39.000Z</time>
      </trkpt>
      <trkpt lat="43.42621" lon="2.1869">
        <ele>782.1</ele>
        <time>2021-12-18T15:49:43.000Z</time>
      </trkpt>
      <trkpt lat="43.4261" lon="2.18688">
        <ele>782.1</ele>
        <time>2021-12-18T15:49:47.000Z</time>
      </trkpt>
      <trkpt lat="43.426" lon="2.18684">
        <ele>781.9</ele>
        <time>2021-12-18T15:49:51.000Z</time>
      </trkpt>
      <trkpt lat="43.4259" lon="2.1868">
        <ele>781.7</ele>
        <time>2021-12-18T15:49:55.000Z</time>
      </trkpt>
      <trkpt lat="43.42581" lon="2.18675">
        <ele>781.5</ele>
        <time>2021-12-18T15:49:59.000Z</time>
      </trkpt>
      <trkpt lat="43.42571" lon="2.18668">
        <ele>781.2</ele>
        <time>2021-12-18T15:50:04.000Z</time>
      </trkpt>
      <trkpt lat="43.42562" lon="2.18664">
        <ele>781</ele>
        <time>2021-12-18T15:50:12.000Z</time>
      </trkpt>
      <trkpt lat="43.42554" lon="2.18654">
        <ele>780.5</ele>
        <time>2021-12-18T15:50:36.000Z</time>
      </trkpt>
      <trkpt lat="43.42547" lon="2.18647">
        <ele>780.6</ele>
        <time>2021-12-18T15:50:40.000Z</time>
      </trkpt>
      <trkpt lat="43.42538" lon="2.18641">
        <ele>780.7</ele>
        <time>2021-12-18T15:50:44.000Z</time>
      </trkpt>
      <trkpt lat="43.42527" lon="2.18635">
        <ele>780.4</ele>
        <time>2021-12-18T15:50:48.000Z</time>
      </trkpt>
      <trkpt lat="43.42518" lon="2.18632">
        <ele>780.3</ele>
        <time>2021-12-18T15:50:51.000Z</time>
      </trkpt>
      <trkpt lat="43.42509" lon="2.18631">
        <ele>780.2</ele>
        <time>2021-12-18T15:50:54.000Z</time>
      </trkpt>
      <trkpt lat="43.425" lon="2.18632">
        <ele>780.1</ele>
        <time>2021-12-18T15:50:57.000Z</time>
      </trkpt>
      <trkpt lat="43.42491" lon="2.18634">
        <ele>780.5</ele>
        <time>2021-12-18T15:51:00.000Z</time>
      </trkpt>
      <trkpt lat="43.42481" lon="2.18638">
        <ele>780.7</ele>
        <time>2021-12-18T15:51:03.000Z</time>
      </trkpt>
      <trkpt lat="43.42472" lon="2.18643">
        <ele>780.9</ele>
        <time>2021-12-18T15:51:06.000Z</time>
      </trkpt>
      <trkpt lat="43.42463" lon="2.1865">
        <ele>781</ele>
        <time>2021-12-18T15:51:09.000Z</time>
      </trkpt>
      <trkpt lat="43.42455" lon="2.18657">
        <ele>781.1</ele>
        <time>2021-12-18T15:51:12.000Z</time>
      </trkpt>
      <trkpt lat="43.42448" lon="2.18665">
        <ele>781.3</ele>
        <time>2021-12-18T15:51:15.000Z</time>
      </trkpt>
      <trkpt lat="43.4244" lon="2.18674">
        <ele>781.6</ele>
        <time>2021-12-18T15:51:18.000Z</time>
      </trkpt>
      <trkpt lat="43.42433" lon="2.18684">
        <ele>781.7</ele>
        <time>2021-12-18T15:51:21.000Z</time>
      </trkpt>
      <trkpt lat="43.42426" lon="2.18693">
        <ele>781.7</ele>
        <time>2021-12-18T15:51:24.000Z</time>
      </trkpt>
      <trkpt lat="43.4242" lon="2.18703">
        <ele>781.7</ele>
        <time>2021-12-18T15:51:27.000Z</time>
      </trkpt>
      <trkpt lat="43.42416" lon="2.18714">
        <ele>781.8</ele>
        <time>2021-12-18T15:51:30.000Z</time>
      </trkpt>
      <trkpt lat="43.42412" lon="2.18728">
        <ele>781.9</ele>
        <time>2021-12-18T15:51:34.000Z</time>
      </trkpt>
      <trkpt lat="43.42408" lon="2.18743">
        <ele>782.1</ele>
        <time>2021-12-18T15:51:38.000Z</time>
      </trkpt>
      <trkpt lat="43.42404" lon="2.18759">
        <ele>782.4</ele>
        <time>2021-12-18T15:51:42.000Z</time>
      </trkpt>
      <trkpt lat="43.42402" lon="2.18771">
        <ele>782.5</ele>
        <time>2021-12-18T15:51:45.000Z</time>
      </trkpt>
      <trkpt lat="43.42401" lon="2.18787">
        <ele>782.3</ele>
        <time>2021-12-18T15:51:49.000Z</time>
      </trkpt>
      <trkpt lat="43.42403" lon="2.18801">
        <ele>781.9</ele>
        <time>2021-12-18T15:51:53.000Z</time>
      </trkpt>
      <trkpt lat="43.42401" lon="2.18787">
        <ele>782.3</ele>
        <time>2021-12-18T15:51:49.000Z</time>
      </trkpt>
      <trkpt lat="43.42403" lon="2.18801">
        <ele>781.9</ele>
        <time>2021-12-18T15:51:53.000Z</time>
      </trkpt>
      <trkpt lat="43.42406" lon="2.18815">
        <ele>781.4</ele>
        <time>2021-12-18T15:51:58.000Z</time>
      </trkpt>
      <trkpt lat="43.42409" lon="2.1883">
        <ele>780.8</ele>
        <time>2021-12-18T15:52:02.000Z</time>
      </trkpt>
      <trkpt lat="43.42411" lon="2.18843">
        <ele>780.3</ele>
        <time>2021-12-18T15:52:05.000Z</time>
      </trkpt>
      <trkpt lat="43.42414" lon="2.18855">
        <ele>779.5</ele>
        <time>2021-12-18T15:52:10.000Z</time>
      </trkpt>
      <trkpt lat="43.42406" lon="2.18858">
        <ele>776.9</ele>
        <time>2021-12-18T15:52:37.000Z</time>
      </trkpt>
      <trkpt lat="43.42397" lon="2.18851">
        <ele>776.3</ele>
        <time>2021-12-18T15:53:25.000Z</time>
      </trkpt>
      <trkpt lat="43.42388" lon="2.18846">
        <ele>776.1</ele>
        <time>2021-12-18T15:53:29.000Z</time>
      </trkpt>
      <trkpt lat="43.42377" lon="2.18842">
        <ele>775.4</ele>
        <time>2021-12-18T15:53:33.000Z</time>
      </trkpt>
      <trkpt lat="43.42366" lon="2.18843">
        <ele>774.7</ele>
        <time>2021-12-18T15:53:36.000Z</time>
      </trkpt>
      <trkpt lat="43.42356" lon="2.18841">
        <ele>774</ele>
        <time>2021-12-18T15:53:39.000Z</time>
      </trkpt>
      <trkpt lat="43.42344" lon="2.18838">
        <ele>773</ele>
        <time>2021-12-18T15:53:42.000Z</time>
      </trkpt>
      <trkpt lat="43.42336" lon="2.18823">
        <ele>771.9</ele>
        <time>2021-12-18T15:53:45.000Z</time>
      </trkpt>
      <trkpt lat="43.42329" lon="2.18809">
        <ele>770.4</ele>
        <time>2021-12-18T15:53:48.000Z</time>
      </trkpt>
      <trkpt lat="43.42323" lon="2.18795">
        <ele>769.2</ele>
        <time>2021-12-18T15:53:51.000Z</time>
      </trkpt>
      <trkpt lat="43.42313" lon="2.18784">
        <ele>768.2</ele>
        <time>2021-12-18T15:53:54.000Z</time>
      </trkpt>
      <trkpt lat="43.42304" lon="2.1878">
        <ele>767.7</ele>
        <time>2021-12-18T15:53:56.000Z</time>
      </trkpt>
      <trkpt lat="43.42295" lon="2.18776">
        <ele>767</ele>
        <time>2021-12-18T15:53:58.000Z</time>
      </trkpt>
      <trkpt lat="43.42286" lon="2.18769">
        <ele>766.4</ele>
        <time>2021-12-18T15:54:00.000Z</time>
      </trkpt>
      <trkpt lat="43.42278" lon="2.1876">
        <ele>765.7</ele>
        <time>2021-12-18T15:54:02.000Z</time>
      </trkpt>
      <trkpt lat="43.42269" lon="2.18749">
        <ele>765</ele>
        <time>2021-12-18T15:54:04.000Z</time>
      </trkpt>
      <trkpt lat="43.42262" lon="2.18738">
        <ele>764.3</ele>
        <time>2021-12-18T15:54:06.000Z</time>
      </trkpt>
      <trkpt lat="43.42255" lon="2.18726">
        <ele>763.5</ele>
        <time>2021-12-18T15:54:08.000Z</time>
      </trkpt>
      <trkpt lat="43.42249" lon="2.18713">
        <ele>762.8</ele>
        <time>2021-12-18T15:54:10.000Z</time>
      </trkpt>
      <trkpt lat="43.42245" lon="2.187">
        <ele>761.9</ele>
        <time>2021-12-18T15:54:12.000Z</time>
      </trkpt>
      <trkpt lat="43.42241" lon="2.18685">
        <ele>761</ele>
        <time>2021-12-18T15:54:14.000Z</time>
      </trkpt>
      <trkpt lat="43.4224" lon="2.18668">
        <ele>760.2</ele>
        <time>2021-12-18T15:54:16.000Z</time>
      </trkpt>
      <trkpt lat="43.4224" lon="2.18652">
        <ele>759.4</ele>
        <time>2021-12-18T15:54:18.000Z</time>
      </trkpt>
      <trkpt lat="43.42241" lon="2.18636">
        <ele>758.8</ele>
        <time>2021-12-18T15:54:20.000Z</time>
      </trkpt>
      <trkpt lat="43.42241" lon="2.18617">
        <ele>758</ele>
        <time>2021-12-18T15:54:23.000Z</time>
      </trkpt>
      <trkpt lat="43.42243" lon="2.18601">
        <ele>757.3</ele>
        <time>2021-12-18T15:54:26.000Z</time>
      </trkpt>
      <trkpt lat="43.42248" lon="2.18588">
        <ele>756.6</ele>
        <time>2021-12-18T15:54:30.000Z</time>
      </trkpt>
      <trkpt lat="43.42254" lon="2.18577">
        <ele>756.4</ele>
        <time>2021-12-18T15:54:33.000Z</time>
      </trkpt>
      <trkpt lat="43.42262" lon="2.18563">
        <ele>756.3</ele>
        <time>2021-12-18T15:54:37.000Z</time>
      </trkpt>
      <trkpt lat="43.42267" lon="2.1855">
        <ele>756.2</ele>
        <time>2021-12-18T15:54:40.000Z</time>
      </trkpt>
      <trkpt lat="43.42272" lon="2.18538">
        <ele>756</ele>
        <time>2021-12-18T15:54:43.000Z</time>
      </trkpt>
      <trkpt lat="43.42278" lon="2.18525">
        <ele>755.9</ele>
        <time>2021-12-18T15:54:46.000Z</time>
      </trkpt>
      <trkpt lat="43.42284" lon="2.1851">
        <ele>755.6</ele>
        <time>2021-12-18T15:54:49.000Z</time>
      </trkpt>
      <trkpt lat="43.42289" lon="2.18494">
        <ele>754.9</ele>
        <time>2021-12-18T15:54:52.000Z</time>
      </trkpt>
      <trkpt lat="43.42292" lon="2.18479">
        <ele>754.3</ele>
        <time>2021-12-18T15:54:54.000Z</time>
      </trkpt>
      <trkpt lat="43.42293" lon="2.18462">
        <ele>753.7</ele>
        <time>2021-12-18T15:54:56.000Z</time>
      </trkpt>
      <trkpt lat="43.42295" lon="2.18445">
        <ele>752.8</ele>
        <time>2021-12-18T15:54:58.000Z</time>
      </trkpt>
      <trkpt lat="43.42297" lon="2.18428">
        <ele>752</ele>
        <time>2021-12-18T15:55:00.000Z</time>
      </trkpt>
      <trkpt lat="43.42298" lon="2.1841">
        <ele>751.1</ele>
        <time>2021-12-18T15:55:02.000Z</time>
      </trkpt>
      <trkpt lat="43.42297" lon="2.18394">
        <ele>750.2</ele>
        <time>2021-12-18T15:55:04.000Z</time>
      </trkpt>
      <trkpt lat="43.42298" lon="2.18379">
        <ele>749.2</ele>
        <time>2021-12-18T15:55:06.000Z</time>
      </trkpt>
      <trkpt lat="43.42298" lon="2.18365">
        <ele>748.1</ele>
        <time>2021-12-18T15:55:08.000Z</time>
      </trkpt>
      <trkpt lat="43.42298" lon="2.1835">
        <ele>747.1</ele>
        <time>2021-12-18T15:55:10.000Z</time>
      </trkpt>
      <trkpt lat="43.42298" lon="2.18337">
        <ele>746.1</ele>
        <time>2021-12-18T15:55:12.000Z</time>
      </trkpt>
      <trkpt lat="43.42297" lon="2.18324">
        <ele>745.1</ele>
        <time>2021-12-18T15:55:14.000Z</time>
      </trkpt>
      <trkpt lat="43.42296" lon="2.18307">
        <ele>743.9</ele>
        <time>2021-12-18T15:55:17.000Z</time>
      </trkpt>
      <trkpt lat="43.42295" lon="2.18295">
        <ele>743.3</ele>
        <time>2021-12-18T15:55:19.000Z</time>
      </trkpt>
      <trkpt lat="43.42295" lon="2.18282">
        <ele>742.6</ele>
        <time>2021-12-18T15:55:21.000Z</time>
      </trkpt>
      <trkpt lat="43.42295" lon="2.18266">
        <ele>741.4</ele>
        <time>2021-12-18T15:55:24.000Z</time>
      </trkpt>
      <trkpt lat="43.42301" lon="2.18256">
        <ele>738.8</ele>
        <time>2021-12-18T15:55:41.000Z</time>
      </trkpt>
      <trkpt lat="43.4231" lon="2.18251">
        <ele>738.7</ele>
        <time>2021-12-18T15:55:55.000Z</time>
      </trkpt>
      <trkpt lat="43.42299" lon="2.1825">
        <ele>739.3</ele>
        <time>2021-12-18T15:56:41.000Z</time>
      </trkpt>
      <trkpt lat="43.42306" lon="2.18261">
        <ele>739.4</ele>
        <time>2021-12-18T15:56:54.000Z</time>
      </trkpt>
      <trkpt lat="43.42316" lon="2.1827">
        <ele>739.6</ele>
        <time>2021-12-18T15:56:58.000Z</time>
      </trkpt>
      <trkpt lat="43.42324" lon="2.18279">
        <ele>739.9</ele>
        <time>2021-12-18T15:57:02.000Z</time>
      </trkpt>
      <trkpt lat="43.42331" lon="2.18288">
        <ele>740.3</ele>
        <time>2021-12-18T15:57:06.000Z</time>
      </trkpt>
      <trkpt lat="43.42341" lon="2.18292">
        <ele>740.6</ele>
        <time>2021-12-18T15:57:09.000Z</time>
      </trkpt>
      <trkpt lat="43.4235" lon="2.18298">
        <ele>740.9</ele>
        <time>2021-12-18T15:57:12.000Z</time>
      </trkpt>
      <trkpt lat="43.42361" lon="2.18303">
        <ele>741.1</ele>
        <time>2021-12-18T15:57:15.000Z</time>
      </trkpt>
      <trkpt lat="43.4237" lon="2.18309">
        <ele>741.5</ele>
        <time>2021-12-18T15:57:18.000Z</time>
      </trkpt>
      <trkpt lat="43.42378" lon="2.18314">
        <ele>741.9</ele>
        <time>2021-12-18T15:57:21.000Z</time>
      </trkpt>
      <trkpt lat="43.42387" lon="2.1832">
        <ele>742.3</ele>
        <time>2021-12-18T15:57:24.000Z</time>
      </trkpt>
      <trkpt lat="43.42397" lon="2.18326">
        <ele>742.8</ele>
        <time>2021-12-18T15:57:27.000Z</time>
      </trkpt>
      <trkpt lat="43.42404" lon="2.18332">
        <ele>743.4</ele>
        <time>2021-12-18T15:57:30.000Z</time>
      </trkpt>
      <trkpt lat="43.42412" lon="2.18339">
        <ele>743.9</ele>
        <time>2021-12-18T15:57:33.000Z</time>
      </trkpt>
      <trkpt lat="43.42424" lon="2.18346">
        <ele>744.6</ele>
        <time>2021-12-18T15:57:37.000Z</time>
      </trkpt>
      <trkpt lat="43.42434" lon="2.1835">
        <ele>744.9</ele>
        <time>2021-12-18T15:57:40.000Z</time>
      </trkpt>
      <trkpt lat="43.42445" lon="2.18351">
        <ele>745.3</ele>
        <time>2021-12-18T15:57:43.000Z</time>
      </trkpt>
      <trkpt lat="43.42456" lon="2.18348">
        <ele>745.6</ele>
        <time>2021-12-18T15:57:47.000Z</time>
      </trkpt>
      <trkpt lat="43.42463" lon="2.18336">
        <ele>746.1</ele>
        <time>2021-12-18T15:57:51.000Z</time>
      </trkpt>
      <trkpt lat="43.42469" lon="2.18322">
        <ele>746.3</ele>
        <time>2021-12-18T15:57:54.000Z</time>
      </trkpt>
      <trkpt lat="43.42473" lon="2.18307">
        <ele>746.5</ele>
        <time>2021-12-18T15:57:58.000Z</time>
      </trkpt>
      <trkpt lat="43.42473" lon="2.18294">
        <ele>746.8</ele>
        <time>2021-12-18T15:58:01.000Z</time>
      </trkpt>
      <trkpt lat="43.42472" lon="2.1828">
        <ele>747.1</ele>
        <time>2021-12-18T15:58:05.000Z</time>
      </trkpt>
      <trkpt lat="43.42469" lon="2.18267">
        <ele>747.5</ele>
        <time>2021-12-18T15:58:08.000Z</time>
      </trkpt>
      <trkpt lat="43.42465" lon="2.18252">
        <ele>748</ele>
        <time>2021-12-18T15:58:12.000Z</time>
      </trkpt>
      <trkpt lat="43.4246" lon="2.1824">
        <ele>748.5</ele>
        <time>2021-12-18T15:58:15.000Z</time>
      </trkpt>
      <trkpt lat="43.42455" lon="2.18229">
        <ele>748.9</ele>
        <time>2021-12-18T15:58:18.000Z</time>
      </trkpt>
      <trkpt lat="43.4246" lon="2.1824">
        <ele>748.5</ele>
        <time>2021-12-18T15:58:15.000Z</time>
      </trkpt>
      <trkpt lat="43.42455" lon="2.18229">
        <ele>748.9</ele>
        <time>2021-12-18T15:58:18.000Z</time>
      </trkpt>
      <trkpt lat="43.4245" lon="2.1822">
        <ele>749.5</ele>
        <time>2021-12-18T15:58:21.000Z</time>
      </trkpt>
      <trkpt lat="43.42444" lon="2.1821">
        <ele>750</ele>
        <time>2021-12-18T15:58:24.000Z</time>
      </trkpt>
      <trkpt lat="43.42439" lon="2.18199">
        <ele>750.6</ele>
        <time>2021-12-18T15:58:27.000Z</time>
      </trkpt>
      <trkpt lat="43.42437" lon="2.18187">
        <ele>751.2</ele>
        <time>2021-12-18T15:58:30.000Z</time>
      </trkpt>
      <trkpt lat="43.42437" lon="2.18174">
        <ele>751.8</ele>
        <time>2021-12-18T15:58:33.000Z</time>
      </trkpt>
      <trkpt lat="43.42437" lon="2.18161">
        <ele>752.3</ele>
        <time>2021-12-18T15:58:36.000Z</time>
      </trkpt>
      <trkpt lat="43.42442" lon="2.18146">
        <ele>753</ele>
        <time>2021-12-18T15:58:40.000Z</time>
      </trkpt>
      <trkpt lat="43.42446" lon="2.18134">
        <ele>753.4</ele>
        <time>2021-12-18T15:58:43.000Z</time>
      </trkpt>
      <trkpt lat="43.42452" lon="2.18124">
        <ele>753.9</ele>
        <time>2021-12-18T15:58:46.000Z</time>
      </trkpt>
      <trkpt lat="43.42458" lon="2.18114">
        <ele>754.2</ele>
        <time>2021-12-18T15:58:50.000Z</time>
      </trkpt>
      <trkpt lat="43.42463" lon="2.18103">
        <ele>754.4</ele>
        <time>2021-12-18T15:58:54.000Z</time>
      </trkpt>
      <trkpt lat="43.4247" lon="2.1809">
        <ele>754.4</ele>
        <time>2021-12-18T15:58:58.000Z</time>
      </trkpt>
      <trkpt lat="43.42476" lon="2.1808">
        <ele>754.2</ele>
        <time>2021-12-18T15:59:01.000Z</time>
      </trkpt>
      <trkpt lat="43.42481" lon="2.18066">
        <ele>753.9</ele>
        <time>2021-12-18T15:59:04.000Z</time>
      </trkpt>
      <trkpt lat="43.42485" lon="2.18055">
        <ele>753.6</ele>
        <time>2021-12-18T15:59:06.000Z</time>
      </trkpt>
      <trkpt lat="43.42489" lon="2.1804">
        <ele>753.3</ele>
        <time>2021-12-18T15:59:08.000Z</time>
      </trkpt>
      <trkpt lat="43.42492" lon="2.18024">
        <ele>752.7</ele>
        <time>2021-12-18T15:59:10.000Z</time>
      </trkpt>
      <trkpt lat="43.42496" lon="2.18006">
        <ele>752.1</ele>
        <time>2021-12-18T15:59:12.000Z</time>
      </trkpt>
      <trkpt lat="43.42498" lon="2.17989">
        <ele>751.2</ele>
        <time>2021-12-18T15:59:14.000Z</time>
      </trkpt>
      <trkpt lat="43.42502" lon="2.17973">
        <ele>750.3</ele>
        <time>2021-12-18T15:59:16.000Z</time>
      </trkpt>
      <trkpt lat="43.42505" lon="2.17958">
        <ele>749.5</ele>
        <time>2021-12-18T15:59:18.000Z</time>
      </trkpt>
      <trkpt lat="43.42508" lon="2.17943">
        <ele>748.6</ele>
        <time>2021-12-18T15:59:20.000Z</time>
      </trkpt>
      <trkpt lat="43.4251" lon="2.1793">
        <ele>747.8</ele>
        <time>2021-12-18T15:59:22.000Z</time>
      </trkpt>
      <trkpt lat="43.42514" lon="2.17913">
        <ele>746.6</ele>
        <time>2021-12-18T15:59:25.000Z</time>
      </trkpt>
      <trkpt lat="43.42515" lon="2.17895">
        <ele>745.5</ele>
        <time>2021-12-18T15:59:28.000Z</time>
      </trkpt>
      <trkpt lat="43.42518" lon="2.17882">
        <ele>744.8</ele>
        <time>2021-12-18T15:59:30.000Z</time>
      </trkpt>
      <trkpt lat="43.42521" lon="2.17869">
        <ele>744.2</ele>
        <time>2021-12-18T15:59:32.000Z</time>
      </trkpt>
      <trkpt lat="43.42523" lon="2.17854">
        <ele>743.5</ele>
        <time>2021-12-18T15:59:34.000Z</time>
      </trkpt>
      <trkpt lat="43.42525" lon="2.17838">
        <ele>742.9</ele>
        <time>2021-12-18T15:59:36.000Z</time>
      </trkpt>
      <trkpt lat="43.42527" lon="2.17825">
        <ele>742.1</ele>
        <time>2021-12-18T15:59:38.000Z</time>
      </trkpt>
      <trkpt lat="43.42526" lon="2.17806">
        <ele>740.9</ele>
        <time>2021-12-18T15:59:41.000Z</time>
      </trkpt>
      <trkpt lat="43.42527" lon="2.1779">
        <ele>740.2</ele>
        <time>2021-12-18T15:59:43.000Z</time>
      </trkpt>
      <trkpt lat="43.42525" lon="2.17772">
        <ele>739.4</ele>
        <time>2021-12-18T15:59:45.000Z</time>
      </trkpt>
      <trkpt lat="43.42521" lon="2.1775">
        <ele>738.6</ele>
        <time>2021-12-18T15:59:47.000Z</time>
      </trkpt>
      <trkpt lat="43.42518" lon="2.17727">
        <ele>737.7</ele>
        <time>2021-12-18T15:59:49.000Z</time>
      </trkpt>
      <trkpt lat="43.42515" lon="2.17706">
        <ele>736.7</ele>
        <time>2021-12-18T15:59:51.000Z</time>
      </trkpt>
      <trkpt lat="43.42511" lon="2.17684">
        <ele>735.4</ele>
        <time>2021-12-18T15:59:53.000Z</time>
      </trkpt>
      <trkpt lat="43.42507" lon="2.17663">
        <ele>734.2</ele>
        <time>2021-12-18T15:59:55.000Z</time>
      </trkpt>
      <trkpt lat="43.42502" lon="2.17641">
        <ele>733</ele>
        <time>2021-12-18T15:59:57.000Z</time>
      </trkpt>
      <trkpt lat="43.42497" lon="2.17619">
        <ele>732.1</ele>
        <time>2021-12-18T15:59:59.000Z</time>
      </trkpt>
      <trkpt lat="43.42492" lon="2.17598">
        <ele>730.9</ele>
        <time>2021-12-18T16:00:01.000Z</time>
      </trkpt>
      <trkpt lat="43.42486" lon="2.17577">
        <ele>729.5</ele>
        <time>2021-12-18T16:00:03.000Z</time>
      </trkpt>
      <trkpt lat="43.4248" lon="2.17556">
        <ele>728.1</ele>
        <time>2021-12-18T16:00:05.000Z</time>
      </trkpt>
      <trkpt lat="43.42474" lon="2.17535">
        <ele>726.7</ele>
        <time>2021-12-18T16:00:07.000Z</time>
      </trkpt>
      <trkpt lat="43.42468" lon="2.17516">
        <ele>725.3</ele>
        <time>2021-12-18T16:00:09.000Z</time>
      </trkpt>
      <trkpt lat="43.42461" lon="2.17496">
        <ele>724.1</ele>
        <time>2021-12-18T16:00:11.000Z</time>
      </trkpt>
      <trkpt lat="43.42456" lon="2.17477">
        <ele>722.7</ele>
        <time>2021-12-18T16:00:13.000Z</time>
      </trkpt>
      <trkpt lat="43.4245" lon="2.17459">
        <ele>721.3</ele>
        <time>2021-12-18T16:00:15.000Z</time>
      </trkpt>
      <trkpt lat="43.42444" lon="2.1744">
        <ele>719.9</ele>
        <time>2021-12-18T16:00:17.000Z</time>
      </trkpt>
      <trkpt lat="43.42438" lon="2.17422">
        <ele>718.7</ele>
        <time>2021-12-18T16:00:19.000Z</time>
      </trkpt>
      <trkpt lat="43.4243" lon="2.17403">
        <ele>717.4</ele>
        <time>2021-12-18T16:00:21.000Z</time>
      </trkpt>
      <trkpt lat="43.42421" lon="2.17384">
        <ele>716.3</ele>
        <time>2021-12-18T16:00:23.000Z</time>
      </trkpt>
      <trkpt lat="43.42413" lon="2.17366">
        <ele>715.2</ele>
        <time>2021-12-18T16:00:25.000Z</time>
      </trkpt>
      <trkpt lat="43.42404" lon="2.17348">
        <ele>714</ele>
        <time>2021-12-18T16:00:27.000Z</time>
      </trkpt>
      <trkpt lat="43.42395" lon="2.17331">
        <ele>712.7</ele>
        <time>2021-12-18T16:00:29.000Z</time>
      </trkpt>
      <trkpt lat="43.42385" lon="2.17314">
        <ele>711.4</ele>
        <time>2021-12-18T16:00:31.000Z</time>
      </trkpt>
      <trkpt lat="43.42376" lon="2.17299">
        <ele>710.1</ele>
        <time>2021-12-18T16:00:33.000Z</time>
      </trkpt>
      <trkpt lat="43.42368" lon="2.17284">
        <ele>708.9</ele>
        <time>2021-12-18T16:00:35.000Z</time>
      </trkpt>
      <trkpt lat="43.4236" lon="2.17269">
        <ele>707.6</ele>
        <time>2021-12-18T16:00:37.000Z</time>
      </trkpt>
      <trkpt lat="43.42349" lon="2.17256">
        <ele>706.5</ele>
        <time>2021-12-18T16:00:39.000Z</time>
      </trkpt>
      <trkpt lat="43.42342" lon="2.17246">
        <ele>705.5</ele>
        <time>2021-12-18T16:00:41.000Z</time>
      </trkpt>
      <trkpt lat="43.4233" lon="2.17237">
        <ele>704.2</ele>
        <time>2021-12-18T16:00:43.000Z</time>
      </trkpt>
      <trkpt lat="43.42319" lon="2.1723">
        <ele>703.2</ele>
        <time>2021-12-18T16:00:45.000Z</time>
      </trkpt>
      <trkpt lat="43.42302" lon="2.17226">
        <ele>702.1</ele>
        <time>2021-12-18T16:00:47.000Z</time>
      </trkpt>
      <trkpt lat="43.42287" lon="2.17224">
        <ele>700.9</ele>
        <time>2021-12-18T16:00:49.000Z</time>
      </trkpt>
      <trkpt lat="43.42276" lon="2.17224">
        <ele>699.8</ele>
        <time>2021-12-18T16:00:51.000Z</time>
      </trkpt>
      <trkpt lat="43.42265" lon="2.17226">
        <ele>698.9</ele>
        <time>2021-12-18T16:00:53.000Z</time>
      </trkpt>
      <trkpt lat="43.42253" lon="2.17233">
        <ele>697.9</ele>
        <time>2021-12-18T16:00:55.000Z</time>
      </trkpt>
      <trkpt lat="43.42245" lon="2.1724">
        <ele>696.9</ele>
        <time>2021-12-18T16:00:57.000Z</time>
      </trkpt>
      <trkpt lat="43.42245" lon="2.1724">
        <ele>696.9</ele>
        <time>2021-12-18T16:00:57.000Z</time>
      </trkpt>
      <trkpt lat="43.42235" lon="2.17234">
        <ele>695.2</ele>
        <time>2021-12-18T16:01:00.000Z</time>
      </trkpt>
      <trkpt lat="43.42231" lon="2.17221">
        <ele>694.3</ele>
        <time>2021-12-18T16:01:02.000Z</time>
      </trkpt>
      <trkpt lat="43.42228" lon="2.17205">
        <ele>693.5</ele>
        <time>2021-12-18T16:01:04.000Z</time>
      </trkpt>
      <trkpt lat="43.42222" lon="2.17193">
        <ele>692.6</ele>
        <time>2021-12-18T16:01:06.000Z</time>
      </trkpt>
      <trkpt lat="43.42222" lon="2.17176">
        <ele>691.1</ele>
        <time>2021-12-18T16:01:09.000Z</time>
      </trkpt>
      <trkpt lat="43.4222" lon="2.17162">
        <ele>690.4</ele>
        <time>2021-12-18T16:01:11.000Z</time>
      </trkpt>
      <trkpt lat="43.42222" lon="2.17147">
        <ele>689.5</ele>
        <time>2021-12-18T16:01:13.000Z</time>
      </trkpt>
      <trkpt lat="43.42226" lon="2.17129">
        <ele>687.9</ele>
        <time>2021-12-18T16:01:16.000Z</time>
      </trkpt>
      <trkpt lat="43.42226" lon="2.17108">
        <ele>686.6</ele>
        <time>2021-12-18T16:01:19.000Z</time>
      </trkpt>
      <trkpt lat="43.42228" lon="2.17093">
        <ele>685.7</ele>
        <time>2021-12-18T16:01:21.000Z</time>
      </trkpt>
      <trkpt lat="43.42233" lon="2.17074">
        <ele>684.8</ele>
        <time>2021-12-18T16:01:23.000Z</time>
      </trkpt>
      <trkpt lat="43.42235" lon="2.17059">
        <ele>684</ele>
        <time>2021-12-18T16:01:25.000Z</time>
      </trkpt>
      <trkpt lat="43.42236" lon="2.17047">
        <ele>683</ele>
        <time>2021-12-18T16:01:27.000Z</time>
      </trkpt>
      <trkpt lat="43.42233" lon="2.17028">
        <ele>681.9</ele>
        <time>2021-12-18T16:01:29.000Z</time>
      </trkpt>
      <trkpt lat="43.42231" lon="2.17007">
        <ele>680.8</ele>
        <time>2021-12-18T16:01:31.000Z</time>
      </trkpt>
      <trkpt lat="43.42223" lon="2.16988">
        <ele>679.6</ele>
        <time>2021-12-18T16:01:33.000Z</time>
      </trkpt>
      <trkpt lat="43.42215" lon="2.16974">
        <ele>678.5</ele>
        <time>2021-12-18T16:01:35.000Z</time>
      </trkpt>
      <trkpt lat="43.42203" lon="2.16965">
        <ele>677.3</ele>
        <time>2021-12-18T16:01:37.000Z</time>
      </trkpt>
      <trkpt lat="43.42195" lon="2.16957">
        <ele>676.1</ele>
        <time>2021-12-18T16:01:39.000Z</time>
      </trkpt>
      <trkpt lat="43.42186" lon="2.16948">
        <ele>674.4</ele>
        <time>2021-12-18T16:01:42.000Z</time>
      </trkpt>
      <trkpt lat="43.42177" lon="2.16939">
        <ele>673.2</ele>
        <time>2021-12-18T16:01:44.000Z</time>
      </trkpt>
      <trkpt lat="43.4217" lon="2.16925">
        <ele>672.1</ele>
        <time>2021-12-18T16:01:46.000Z</time>
      </trkpt>
      <trkpt lat="43.42163" lon="2.1691">
        <ele>670.9</ele>
        <time>2021-12-18T16:01:48.000Z</time>
      </trkpt>
      <trkpt lat="43.42153" lon="2.1689">
        <ele>669.8</ele>
        <time>2021-12-18T16:01:50.000Z</time>
      </trkpt>
      <trkpt lat="43.42145" lon="2.16873">
        <ele>668.7</ele>
        <time>2021-12-18T16:01:52.000Z</time>
      </trkpt>
      <trkpt lat="43.42137" lon="2.16859">
        <ele>667.6</ele>
        <time>2021-12-18T16:01:54.000Z</time>
      </trkpt>
      <trkpt lat="43.42129" lon="2.1685">
        <ele>666.5</ele>
        <time>2021-12-18T16:01:56.000Z</time>
      </trkpt>
      <trkpt lat="43.42121" lon="2.16836">
        <ele>664.9</ele>
        <time>2021-12-18T16:01:59.000Z</time>
      </trkpt>
      <trkpt lat="43.42122" lon="2.16823">
        <ele>663.4</ele>
        <time>2021-12-18T16:02:03.000Z</time>
      </trkpt>
      <trkpt lat="43.42124" lon="2.16835">
        <ele>662</ele>
        <time>2021-12-18T16:02:08.000Z</time>
      </trkpt>
      <trkpt lat="43.42128" lon="2.16849">
        <ele>661.3</ele>
        <time>2021-12-18T16:02:12.000Z</time>
      </trkpt>
      <trkpt lat="43.42134" lon="2.16864">
        <ele>660.8</ele>
        <time>2021-12-18T16:02:16.000Z</time>
      </trkpt>
      <trkpt lat="43.4214" lon="2.16878">
        <ele>660.3</ele>
        <time>2021-12-18T16:02:19.000Z</time>
      </trkpt>
      <trkpt lat="43.42148" lon="2.16892">
        <ele>659.6</ele>
        <time>2021-12-18T16:02:23.000Z</time>
      </trkpt>
      <trkpt lat="43.42157" lon="2.16899">
        <ele>659.1</ele>
        <time>2021-12-18T16:02:26.000Z</time>
      </trkpt>
      <trkpt lat="43.42166" lon="2.16906">
        <ele>658.4</ele>
        <time>2021-12-18T16:02:30.000Z</time>
      </trkpt>
      <trkpt lat="43.4218" lon="2.16909">
        <ele>657.5</ele>
        <time>2021-12-18T16:02:34.000Z</time>
      </trkpt>
      <trkpt lat="43.4219" lon="2.16905">
        <ele>657</ele>
        <time>2021-12-18T16:02:36.000Z</time>
      </trkpt>
      <trkpt lat="43.42199" lon="2.169">
        <ele>656.1</ele>
        <time>2021-12-18T16:02:39.000Z</time>
      </trkpt>
      <trkpt lat="43.42215" lon="2.16894">
        <ele>655.7</ele>
        <time>2021-12-18T16:02:41.000Z</time>
      </trkpt>
      <trkpt lat="43.42228" lon="2.16891">
        <ele>655.4</ele>
        <time>2021-12-18T16:02:42.000Z</time>
      </trkpt>
      <trkpt lat="43.42237" lon="2.16891">
        <ele>655.2</ele>
        <time>2021-12-18T16:02:43.000Z</time>
      </trkpt>
      <trkpt lat="43.42251" lon="2.16894">
        <ele>654.6</ele>
        <time>2021-12-18T16:02:45.000Z</time>
      </trkpt>
      <trkpt lat="43.42263" lon="2.16899">
        <ele>654</ele>
        <time>2021-12-18T16:02:47.000Z</time>
      </trkpt>
      <trkpt lat="43.42274" lon="2.16908">
        <ele>653.4</ele>
        <time>2021-12-18T16:02:49.000Z</time>
      </trkpt>
      <trkpt lat="43.42285" lon="2.1692">
        <ele>652.9</ele>
        <time>2021-12-18T16:02:51.000Z</time>
      </trkpt>
      <trkpt lat="43.42292" lon="2.16937">
        <ele>652.4</ele>
        <time>2021-12-18T16:02:53.000Z</time>
      </trkpt>
      <trkpt lat="43.42298" lon="2.16952">
        <ele>651.9</ele>
        <time>2021-12-18T16:02:55.000Z</time>
      </trkpt>
      <trkpt lat="43.42298" lon="2.16966">
        <ele>651.4</ele>
        <time>2021-12-18T16:02:57.000Z</time>
      </trkpt>
      <trkpt lat="43.423" lon="2.16984">
        <ele>650.8</ele>
        <time>2021-12-18T16:03:00.000Z</time>
      </trkpt>
      <trkpt lat="43.42305" lon="2.16996">
        <ele>650.4</ele>
        <time>2021-12-18T16:03:02.000Z</time>
      </trkpt>
      <trkpt lat="43.42316" lon="2.17003">
        <ele>649.9</ele>
        <time>2021-12-18T16:03:05.000Z</time>
      </trkpt>
      <trkpt lat="43.42328" lon="2.17002">
        <ele>649.6</ele>
        <time>2021-12-18T16:03:07.000Z</time>
      </trkpt>
      <trkpt lat="43.42337" lon="2.17001">
        <ele>649.3</ele>
        <time>2021-12-18T16:03:09.000Z</time>
      </trkpt>
      <trkpt lat="43.42347" lon="2.17002">
        <ele>649</ele>
        <time>2021-12-18T16:03:11.000Z</time>
      </trkpt>
      <trkpt lat="43.42358" lon="2.17007">
        <ele>648.6</ele>
        <time>2021-12-18T16:03:13.000Z</time>
      </trkpt>
      <trkpt lat="43.4237" lon="2.17013">
        <ele>648.3</ele>
        <time>2021-12-18T16:03:15.000Z</time>
      </trkpt>
      <trkpt lat="43.42381" lon="2.17019">
        <ele>647.9</ele>
        <time>2021-12-18T16:03:17.000Z</time>
      </trkpt>
      <trkpt lat="43.42392" lon="2.17026">
        <ele>647.5</ele>
        <time>2021-12-18T16:03:19.000Z</time>
      </trkpt>
      <trkpt lat="43.42403" lon="2.17034">
        <ele>647.1</ele>
        <time>2021-12-18T16:03:21.000Z</time>
      </trkpt>
      <trkpt lat="43.42413" lon="2.17042">
        <ele>646.7</ele>
        <time>2021-12-18T16:03:23.000Z</time>
      </trkpt>
      <trkpt lat="43.42423" lon="2.1705">
        <ele>646.3</ele>
        <time>2021-12-18T16:03:25.000Z</time>
      </trkpt>
      <trkpt lat="43.42434" lon="2.17058">
        <ele>646</ele>
        <time>2021-12-18T16:03:27.000Z</time>
      </trkpt>
      <trkpt lat="43.42445" lon="2.17065">
        <ele>645.8</ele>
        <time>2021-12-18T16:03:29.000Z</time>
      </trkpt>
      <trkpt lat="43.42456" lon="2.17073">
        <ele>645.4</ele>
        <time>2021-12-18T16:03:31.000Z</time>
      </trkpt>
      <trkpt lat="43.42467" lon="2.17081">
        <ele>645</ele>
        <time>2021-12-18T16:03:33.000Z</time>
      </trkpt>
      <trkpt lat="43.42478" lon="2.17088">
        <ele>644.6</ele>
        <time>2021-12-18T16:03:35.000Z</time>
      </trkpt>
      <trkpt lat="43.4249" lon="2.17094">
        <ele>644.1</ele>
        <time>2021-12-18T16:03:37.000Z</time>
      </trkpt>
      <trkpt lat="43.42501" lon="2.17099">
        <ele>643.7</ele>
        <time>2021-12-18T16:03:39.000Z</time>
      </trkpt>
      <trkpt lat="43.42513" lon="2.17103">
        <ele>643.3</ele>
        <time>2021-12-18T16:03:41.000Z</time>
      </trkpt>
      <trkpt lat="43.42527" lon="2.17103">
        <ele>642.9</ele>
        <time>2021-12-18T16:03:43.000Z</time>
      </trkpt>
      <trkpt lat="43.42541" lon="2.17104">
        <ele>642.8</ele>
        <time>2021-12-18T16:03:45.000Z</time>
      </trkpt>
      <trkpt lat="43.42553" lon="2.17104">
        <ele>642.4</ele>
        <time>2021-12-18T16:03:47.000Z</time>
      </trkpt>
      <trkpt lat="43.42564" lon="2.17104">
        <ele>641.9</ele>
        <time>2021-12-18T16:03:49.000Z</time>
      </trkpt>
      <trkpt lat="43.42564" lon="2.17104">
        <ele>641.9</ele>
        <time>2021-12-18T16:03:49.000Z</time>
      </trkpt>
      <trkpt lat="43.42574" lon="2.17103">
        <ele>641.5</ele>
        <time>2021-12-18T16:03:51.000Z</time>
      </trkpt>
      <trkpt lat="43.42583" lon="2.171">
        <ele>641.2</ele>
        <time>2021-12-18T16:03:53.000Z</time>
      </trkpt>
      <trkpt lat="43.42594" lon="2.17096">
        <ele>641.1</ele>
        <time>2021-12-18T16:03:56.000Z</time>
      </trkpt>
      <trkpt lat="43.42606" lon="2.1709">
        <ele>641.5</ele>
        <time>2021-12-18T16:03:59.000Z</time>
      </trkpt>
      <trkpt lat="43.42616" lon="2.17086">
        <ele>641.8</ele>
        <time>2021-12-18T16:04:02.000Z</time>
      </trkpt>
      <trkpt lat="43.42627" lon="2.17084">
        <ele>642.4</ele>
        <time>2021-12-18T16:04:05.000Z</time>
      </trkpt>
      <trkpt lat="43.4264" lon="2.17084">
        <ele>643</ele>
        <time>2021-12-18T16:04:08.000Z</time>
      </trkpt>
      <trkpt lat="43.42651" lon="2.17086">
        <ele>643.6</ele>
        <time>2021-12-18T16:04:11.000Z</time>
      </trkpt>
      <trkpt lat="43.42664" lon="2.17085">
        <ele>644.4</ele>
        <time>2021-12-18T16:04:14.000Z</time>
      </trkpt>
      <trkpt lat="43.42676" lon="2.1708">
        <ele>645.1</ele>
        <time>2021-12-18T16:04:17.000Z</time>
      </trkpt>
      <trkpt lat="43.42686" lon="2.17072">
        <ele>645.6</ele>
        <time>2021-12-18T16:04:20.000Z</time>
      </trkpt>
      <trkpt lat="43.42694" lon="2.17064">
        <ele>646.1</ele>
        <time>2021-12-18T16:04:23.000Z</time>
      </trkpt>
      <trkpt lat="43.42702" lon="2.17055">
        <ele>646.3</ele>
        <time>2021-12-18T16:04:25.000Z</time>
      </trkpt>
      <trkpt lat="43.4271" lon="2.17046">
        <ele>646.6</ele>
        <time>2021-12-18T16:04:27.000Z</time>
      </trkpt>
      <trkpt lat="43.42718" lon="2.17038">
        <ele>646.9</ele>
        <time>2021-12-18T16:04:29.000Z</time>
      </trkpt>
      <trkpt lat="43.42726" lon="2.1703">
        <ele>647.2</ele>
        <time>2021-12-18T16:04:31.000Z</time>
      </trkpt>
      <trkpt lat="43.42734" lon="2.17022">
        <ele>647.7</ele>
        <time>2021-12-18T16:04:33.000Z</time>
      </trkpt>
      <trkpt lat="43.42741" lon="2.17014">
        <ele>648</ele>
        <time>2021-12-18T16:04:35.000Z</time>
      </trkpt>
      <trkpt lat="43.42749" lon="2.17006">
        <ele>648.4</ele>
        <time>2021-12-18T16:04:37.000Z</time>
      </trkpt>
      <trkpt lat="43.42757" lon="2.16998">
        <ele>649.1</ele>
        <time>2021-12-18T16:04:39.000Z</time>
      </trkpt>
      <trkpt lat="43.42767" lon="2.16987">
        <ele>649.8</ele>
        <time>2021-12-18T16:04:42.000Z</time>
      </trkpt>
      <trkpt lat="43.42775" lon="2.16979">
        <ele>650.2</ele>
        <time>2021-12-18T16:04:44.000Z</time>
      </trkpt>
      <trkpt lat="43.42785" lon="2.16968">
        <ele>650.9</ele>
        <time>2021-12-18T16:04:47.000Z</time>
      </trkpt>
      <trkpt lat="43.42795" lon="2.16957">
        <ele>651.6</ele>
        <time>2021-12-18T16:04:50.000Z</time>
      </trkpt>
      <trkpt lat="43.42804" lon="2.16945">
        <ele>652.1</ele>
        <time>2021-12-18T16:04:53.000Z</time>
      </trkpt>
      <trkpt lat="43.42814" lon="2.16934">
        <ele>652.7</ele>
        <time>2021-12-18T16:04:56.000Z</time>
      </trkpt>
      <trkpt lat="43.42824" lon="2.16923">
        <ele>653.3</ele>
        <time>2021-12-18T16:04:59.000Z</time>
      </trkpt>
      <trkpt lat="43.42834" lon="2.16912">
        <ele>654</ele>
        <time>2021-12-18T16:05:02.000Z</time>
      </trkpt>
      <trkpt lat="43.42844" lon="2.16901">
        <ele>654.5</ele>
        <time>2021-12-18T16:05:05.000Z</time>
      </trkpt>
      <trkpt lat="43.42853" lon="2.16888">
        <ele>655.3</ele>
        <time>2021-12-18T16:05:08.000Z</time>
      </trkpt>
      <trkpt lat="43.42861" lon="2.16875">
        <ele>656.1</ele>
        <time>2021-12-18T16:05:11.000Z</time>
      </trkpt>
      <trkpt lat="43.42867" lon="2.16859">
        <ele>656.4</ele>
        <time>2021-12-18T16:05:14.000Z</time>
      </trkpt>
      <trkpt lat="43.42873" lon="2.16844">
        <ele>656.7</ele>
        <time>2021-12-18T16:05:17.000Z</time>
      </trkpt>
      <trkpt lat="43.42878" lon="2.16828">
        <ele>656.9</ele>
        <time>2021-12-18T16:05:20.000Z</time>
      </trkpt>
      <trkpt lat="43.42884" lon="2.16812">
        <ele>657.1</ele>
        <time>2021-12-18T16:05:23.000Z</time>
      </trkpt>
      <trkpt lat="43.4289" lon="2.16796">
        <ele>657.4</ele>
        <time>2021-12-18T16:05:26.000Z</time>
      </trkpt>
      <trkpt lat="43.42897" lon="2.16781">
        <ele>657.7</ele>
        <time>2021-12-18T16:05:29.000Z</time>
      </trkpt>
      <trkpt lat="43.42903" lon="2.16765">
        <ele>658.1</ele>
        <time>2021-12-18T16:05:32.000Z</time>
      </trkpt>
      <trkpt lat="43.42909" lon="2.16749">
        <ele>658.6</ele>
        <time>2021-12-18T16:05:35.000Z</time>
      </trkpt>
      <trkpt lat="43.42915" lon="2.16733">
        <ele>659</ele>
        <time>2021-12-18T16:05:38.000Z</time>
      </trkpt>
      <trkpt lat="43.42919" lon="2.16721">
        <ele>659.3</ele>
        <time>2021-12-18T16:05:40.000Z</time>
      </trkpt>
      <trkpt lat="43.42923" lon="2.1671">
        <ele>659.5</ele>
        <time>2021-12-18T16:05:42.000Z</time>
      </trkpt>
      <trkpt lat="43.42927" lon="2.16699">
        <ele>659.6</ele>
        <time>2021-12-18T16:05:44.000Z</time>
      </trkpt>
      <trkpt lat="43.42931" lon="2.16688">
        <ele>659.7</ele>
        <time>2021-12-18T16:05:46.000Z</time>
      </trkpt>
      <trkpt lat="43.42937" lon="2.16672">
        <ele>659.6</ele>
        <time>2021-12-18T16:05:49.000Z</time>
      </trkpt>
      <trkpt lat="43.4294" lon="2.16659">
        <ele>659.3</ele>
        <time>2021-12-18T16:05:52.000Z</time>
      </trkpt>
      <trkpt lat="43.42948" lon="2.16651">
        <ele>658.9</ele>
        <time>2021-12-18T16:05:57.000Z</time>
      </trkpt>
      <trkpt lat="43.42956" lon="2.16644">
        <ele>658.8</ele>
        <time>2021-12-18T16:06:00.000Z</time>
      </trkpt>
      <trkpt lat="43.42964" lon="2.16637">
        <ele>658.7</ele>
        <time>2021-12-18T16:06:03.000Z</time>
      </trkpt>
      <trkpt lat="43.42973" lon="2.1663">
        <ele>658.5</ele>
        <time>2021-12-18T16:06:07.000Z</time>
      </trkpt>
      <trkpt lat="43.42985" lon="2.16625">
        <ele>658.6</ele>
        <time>2021-12-18T16:06:10.000Z</time>
      </trkpt>
      <trkpt lat="43.42996" lon="2.1662">
        <ele>658.8</ele>
        <time>2021-12-18T16:06:13.000Z</time>
      </trkpt>
      <trkpt lat="43.43005" lon="2.16613">
        <ele>659</ele>
        <time>2021-12-18T16:06:16.000Z</time>
      </trkpt>
      <trkpt lat="43.43015" lon="2.16608">
        <ele>659.4</ele>
        <time>2021-12-18T16:06:20.000Z</time>
      </trkpt>
      <trkpt lat="43.43023" lon="2.16596">
        <ele>659.8</ele>
        <time>2021-12-18T16:06:24.000Z</time>
      </trkpt>
      <trkpt lat="43.43031" lon="2.16582">
        <ele>659.9</ele>
        <time>2021-12-18T16:06:27.000Z</time>
      </trkpt>
      <trkpt lat="43.43037" lon="2.16566">
        <ele>660</ele>
        <time>2021-12-18T16:06:30.000Z</time>
      </trkpt>
      <trkpt lat="43.43042" lon="2.1655">
        <ele>659.9</ele>
        <time>2021-12-18T16:06:33.000Z</time>
      </trkpt>
      <trkpt lat="43.43046" lon="2.16539">
        <ele>659.5</ele>
        <time>2021-12-18T16:06:37.000Z</time>
      </trkpt>
      <trkpt lat="43.43052" lon="2.16539">
        <ele>659</ele>
        <time>2021-12-18T16:07:06.000Z</time>
      </trkpt>
    </trkseg>
  </trk>
</gpx>